<?xml version='1.0' encoding='UTF-8'?><gpx version="1.1" creator="JPX - https://github.com/jenetics/jpx" xmlns="http://www.topografix.com/GPX/1/1"><trk><trkseg><trkpt lat="45.1491184" lon="10.7594522"><ele>27.0</ele><time>2026-04-11T07:42:22.792Z</time></trkpt><trkpt lat="45.1490983" lon="10.7593483"><ele>27.000000000000004</ele><time>2026-04-11T07:42:51.724Z</time></trkpt><trkpt lat="45.1490817" lon="10.7591717"><ele>27.000000000000004</ele><time>2026-04-11T07:42:57.723Z</time></trkpt><trkpt lat="45.1490533" lon="10.7590667"><ele>27.0</ele><time>2026-04-11T07:42:58.724Z</time></trkpt><trkpt lat="45.14901" lon="10.7589383"><ele>27.0</ele><time>2026-04-11T07:42:59.722Z</time></trkpt><trkpt lat="45.1489383" lon="10.7587783"><ele>27.0</ele><time>2026-04-11T07:43:00.725Z</time></trkpt><trkpt lat="45.1488717" lon="10.7586133"><ele>27.0</ele><time>2026-04-11T07:43:01.724Z</time></trkpt><trkpt lat="45.148805" lon="10.7584617"><ele>27.0</ele><time>2026-04-11T07:43:02.724Z</time></trkpt><trkpt lat="45.1487533" lon="10.75833"><ele>27.0</ele><time>2026-04-11T07:43:03.723Z</time></trkpt><trkpt lat="45.1487017" lon="10.7582133"><ele>27.166666666666668</ele><time>2026-04-11T07:43:04.725Z</time></trkpt><trkpt lat="45.148655" lon="10.7581183"><ele>27.333333333333336</ele><time>2026-04-11T07:43:05.724Z</time></trkpt><trkpt lat="45.1486083" lon="10.7580517"><ele>27.5</ele><time>2026-04-11T07:43:06.726Z</time></trkpt><trkpt lat="45.1485067" lon="10.7580017"><ele>27.666666666666668</ele><time>2026-04-11T07:43:08.725Z</time></trkpt><trkpt lat="45.148395" lon="10.7580767"><ele>27.833333333333336</ele><time>2026-04-11T07:43:10.724Z</time></trkpt><trkpt lat="45.1483433" lon="10.7581417"><ele>28.0</ele><time>2026-04-11T07:43:11.722Z</time></trkpt><trkpt lat="45.148285" lon="10.758215"><ele>28.0</ele><time>2026-04-11T07:43:12.724Z</time></trkpt><trkpt lat="45.148225" lon="10.75829"><ele>27.999999999999996</ele><time>2026-04-11T07:43:13.723Z</time></trkpt><trkpt lat="45.1481583" lon="10.7583683"><ele>27.999999999999996</ele><time>2026-04-11T07:43:14.726Z</time></trkpt><trkpt lat="45.1480867" lon="10.75845"><ele>28.0</ele><time>2026-04-11T07:43:15.722Z</time></trkpt><trkpt lat="45.14801" lon="10.75854"><ele>28.0</ele><time>2026-04-11T07:43:16.724Z</time></trkpt><trkpt lat="45.1479333" lon="10.7586333"><ele>27.599999999999998</ele><time>2026-04-11T07:43:17.724Z</time></trkpt><trkpt lat="45.147855" lon="10.7587267"><ele>27.199999999999996</ele><time>2026-04-11T07:43:18.724Z</time></trkpt><trkpt lat="45.1477767" lon="10.75882"><ele>26.8</ele><time>2026-04-11T07:43:19.723Z</time></trkpt><trkpt lat="45.1477017" lon="10.7589083"><ele>26.4</ele><time>2026-04-11T07:43:20.724Z</time></trkpt><trkpt lat="45.1476333" lon="10.7589933"><ele>26.0</ele><time>2026-04-11T07:43:21.723Z</time></trkpt><trkpt lat="45.1475633" lon="10.759075"><ele>25.999999999999996</ele><time>2026-04-11T07:43:22.723Z</time></trkpt><trkpt lat="45.1474967" lon="10.7591583"><ele>26.0</ele><time>2026-04-11T07:43:23.723Z</time></trkpt><trkpt lat="45.14743" lon="10.7592383"><ele>26.0</ele><time>2026-04-11T07:43:24.725Z</time></trkpt><trkpt lat="45.147365" lon="10.7593167"><ele>26.0</ele><time>2026-04-11T07:43:25.723Z</time></trkpt><trkpt lat="45.1473017" lon="10.7593933"><ele>25.999999999999996</ele><time>2026-04-11T07:43:26.725Z</time></trkpt><trkpt lat="45.14724" lon="10.7594717"><ele>26.0</ele><time>2026-04-11T07:43:27.725Z</time></trkpt><trkpt lat="45.1471767" lon="10.759545"><ele>25.833333333333332</ele><time>2026-04-11T07:43:28.724Z</time></trkpt><trkpt lat="45.147115" lon="10.7596117"><ele>25.666666666666664</ele><time>2026-04-11T07:43:29.723Z</time></trkpt><trkpt lat="45.1470617" lon="10.7596733"><ele>25.5</ele><time>2026-04-11T07:43:30.724Z</time></trkpt><trkpt lat="45.146975" lon="10.7597717"><ele>25.333333333333336</ele><time>2026-04-11T07:43:32.724Z</time></trkpt><trkpt lat="45.1468967" lon="10.7598267"><ele>25.166666666666668</ele><time>2026-04-11T07:43:35.723Z</time></trkpt><trkpt lat="45.1468317" lon="10.759775"><ele>25.0</ele><time>2026-04-11T07:43:37.723Z</time></trkpt><trkpt lat="45.146745" lon="10.7596233"><ele>25.0</ele><time>2026-04-11T07:43:39.724Z</time></trkpt><trkpt lat="45.1466967" lon="10.7595333"><ele>25.0</ele><time>2026-04-11T07:43:40.723Z</time></trkpt><trkpt lat="45.1466433" lon="10.7594333"><ele>25.0</ele><time>2026-04-11T07:43:41.723Z</time></trkpt><trkpt lat="45.1465917" lon="10.75933"><ele>25.0</ele><time>2026-04-11T07:43:42.724Z</time></trkpt><trkpt lat="45.14654" lon="10.7592083"><ele>25.0</ele><time>2026-04-11T07:43:43.723Z</time></trkpt><trkpt lat="45.1464783" lon="10.75907"><ele>25.0</ele><time>2026-04-11T07:43:44.724Z</time></trkpt><trkpt lat="45.1464117" lon="10.758935"><ele>25.0</ele><time>2026-04-11T07:43:45.723Z</time></trkpt><trkpt lat="45.146355" lon="10.7588267"><ele>25.0</ele><time>2026-04-11T07:43:46.724Z</time></trkpt><trkpt lat="45.146305" lon="10.7587383"><ele>25.0</ele><time>2026-04-11T07:43:47.723Z</time></trkpt><trkpt lat="45.1462367" lon="10.75862"><ele>25.0</ele><time>2026-04-11T07:43:49.724Z</time></trkpt><trkpt lat="45.1461917" lon="10.7585483"><ele>25.0</ele><time>2026-04-11T07:43:51.723Z</time></trkpt><trkpt lat="45.1460883" lon="10.758555"><ele>25.0</ele><time>2026-04-11T07:43:54.724Z</time></trkpt><trkpt lat="45.1459683" lon="10.7586767"><ele>25.0</ele><time>2026-04-11T07:43:56.724Z</time></trkpt><trkpt lat="45.14588" lon="10.7587917"><ele>25.0</ele><time>2026-04-11T07:43:57.724Z</time></trkpt><trkpt lat="45.145765" lon="10.7589583"><ele>25.0</ele><time>2026-04-11T07:43:58.723Z</time></trkpt><trkpt lat="45.1456417" lon="10.7591383"><ele>25.0</ele><time>2026-04-11T07:43:59.723Z</time></trkpt><trkpt lat="45.1455167" lon="10.7593167"><ele>25.0</ele><time>2026-04-11T07:44:00.724Z</time></trkpt><trkpt lat="45.1454" lon="10.7594867"><ele>25.0</ele><time>2026-04-11T07:44:01.725Z</time></trkpt><trkpt lat="45.145295" lon="10.759645"><ele>25.0</ele><time>2026-04-11T07:44:02.726Z</time></trkpt><trkpt lat="45.145195" lon="10.75979"><ele>25.0</ele><time>2026-04-11T07:44:03.724Z</time></trkpt><trkpt lat="45.145095" lon="10.7599417"><ele>25.0</ele><time>2026-04-11T07:44:04.724Z</time></trkpt><trkpt lat="45.1450067" lon="10.7600817"><ele>25.0</ele><time>2026-04-11T07:44:05.724Z</time></trkpt><trkpt lat="45.1449183" lon="10.760215"><ele>25.0</ele><time>2026-04-11T07:44:06.727Z</time></trkpt><trkpt lat="45.1448283" lon="10.7603517"><ele>25.0</ele><time>2026-04-11T07:44:07.726Z</time></trkpt><trkpt lat="45.144735" lon="10.7604967"><ele>25.0</ele><time>2026-04-11T07:44:08.726Z</time></trkpt><trkpt lat="45.1446417" lon="10.7606417"><ele>24.75</ele><time>2026-04-11T07:44:09.726Z</time></trkpt><trkpt lat="45.1445567" lon="10.7607883"><ele>24.5</ele><time>2026-04-11T07:44:10.726Z</time></trkpt><trkpt lat="45.1444767" lon="10.7609333"><ele>24.25</ele><time>2026-04-11T07:44:11.723Z</time></trkpt><trkpt lat="45.1444" lon="10.7610717"><ele>24.0</ele><time>2026-04-11T07:44:12.726Z</time></trkpt><trkpt lat="45.144335" lon="10.7612017"><ele>23.799999999999997</ele><time>2026-04-11T07:44:13.725Z</time></trkpt><trkpt lat="45.1442733" lon="10.7613283"><ele>23.599999999999998</ele><time>2026-04-11T07:44:14.726Z</time></trkpt><trkpt lat="45.1442117" lon="10.7614533"><ele>23.4</ele><time>2026-04-11T07:44:15.724Z</time></trkpt><trkpt lat="45.1441567" lon="10.761565"><ele>23.2</ele><time>2026-04-11T07:44:16.725Z</time></trkpt><trkpt lat="45.144095" lon="10.7616583"><ele>23.0</ele><time>2026-04-11T07:44:17.725Z</time></trkpt><trkpt lat="45.1440133" lon="10.761725"><ele>23.0</ele><time>2026-04-11T07:44:18.726Z</time></trkpt><trkpt lat="45.1439067" lon="10.76177"><ele>23.0</ele><time>2026-04-11T07:44:19.725Z</time></trkpt><trkpt lat="45.1437917" lon="10.7617733"><ele>23.0</ele><time>2026-04-11T07:44:20.726Z</time></trkpt><trkpt lat="45.1436733" lon="10.7617433"><ele>23.0</ele><time>2026-04-11T07:44:21.725Z</time></trkpt><trkpt lat="45.1435583" lon="10.761665"><ele>23.0</ele><time>2026-04-11T07:44:22.725Z</time></trkpt><trkpt lat="45.14345" lon="10.7615417"><ele>23.0</ele><time>2026-04-11T07:44:23.724Z</time></trkpt><trkpt lat="45.1433483" lon="10.7613883"><ele>23.0</ele><time>2026-04-11T07:44:24.727Z</time></trkpt><trkpt lat="45.1432483" lon="10.7612267"><ele>23.0</ele><time>2026-04-11T07:44:25.726Z</time></trkpt><trkpt lat="45.1431367" lon="10.7610717"><ele>21.333333333333336</ele><time>2026-04-11T07:44:26.726Z</time></trkpt><trkpt lat="45.143015" lon="10.76092"><ele>19.666666666666668</ele><time>2026-04-11T07:44:27.726Z</time></trkpt><trkpt lat="45.1428933" lon="10.7607733"><ele>18.0</ele><time>2026-04-11T07:44:28.726Z</time></trkpt><trkpt lat="45.1427733" lon="10.7606267"><ele>18.0</ele><time>2026-04-11T07:44:29.725Z</time></trkpt><trkpt lat="45.1426517" lon="10.7604783"><ele>18.0</ele><time>2026-04-11T07:44:30.726Z</time></trkpt><trkpt lat="45.1425283" lon="10.76033"><ele>18.0</ele><time>2026-04-11T07:44:31.726Z</time></trkpt><trkpt lat="45.1424017" lon="10.7601717"><ele>18.666666666666668</ele><time>2026-04-11T07:44:32.727Z</time></trkpt><trkpt lat="45.1422733" lon="10.76001"><ele>19.333333333333336</ele><time>2026-04-11T07:44:33.726Z</time></trkpt><trkpt lat="45.1421417" lon="10.75985"><ele>20.0</ele><time>2026-04-11T07:44:34.726Z</time></trkpt><trkpt lat="45.14201" lon="10.75968"><ele>20.0</ele><time>2026-04-11T07:44:35.725Z</time></trkpt><trkpt lat="45.1418767" lon="10.75952"><ele>20.0</ele><time>2026-04-11T07:44:36.727Z</time></trkpt><trkpt lat="45.1417433" lon="10.7593633"><ele>20.0</ele><time>2026-04-11T07:44:37.726Z</time></trkpt><trkpt lat="45.14161" lon="10.7592083"><ele>21.0</ele><time>2026-04-11T07:44:38.726Z</time></trkpt><trkpt lat="45.14148" lon="10.7590517"><ele>22.0</ele><time>2026-04-11T07:44:39.726Z</time></trkpt><trkpt lat="45.141355" lon="10.7589"><ele>23.0</ele><time>2026-04-11T07:44:40.727Z</time></trkpt><trkpt lat="45.1412317" lon="10.7587533"><ele>23.0</ele><time>2026-04-11T07:44:41.726Z</time></trkpt><trkpt lat="45.1411133" lon="10.75861"><ele>23.0</ele><time>2026-04-11T07:44:42.727Z</time></trkpt><trkpt lat="45.140995" lon="10.7584683"><ele>23.0</ele><time>2026-04-11T07:44:43.726Z</time></trkpt><trkpt lat="45.1408783" lon="10.7583283"><ele>23.0</ele><time>2026-04-11T07:44:44.727Z</time></trkpt><trkpt lat="45.14076" lon="10.7581867"><ele>23.0</ele><time>2026-04-11T07:44:45.726Z</time></trkpt><trkpt lat="45.14064" lon="10.7580467"><ele>23.0</ele><time>2026-04-11T07:44:46.727Z</time></trkpt><trkpt lat="45.1405183" lon="10.7579017"><ele>23.333333333333336</ele><time>2026-04-11T07:44:47.727Z</time></trkpt><trkpt lat="45.1403967" lon="10.757755"><ele>23.666666666666668</ele><time>2026-04-11T07:44:48.726Z</time></trkpt><trkpt lat="45.1402767" lon="10.75761"><ele>24.0</ele><time>2026-04-11T07:44:49.727Z</time></trkpt><trkpt lat="45.1401567" lon="10.757465"><ele>24.0</ele><time>2026-04-11T07:44:50.727Z</time></trkpt><trkpt lat="45.140035" lon="10.7573183"><ele>24.0</ele><time>2026-04-11T07:44:51.727Z</time></trkpt><trkpt lat="45.139915" lon="10.7571667"><ele>24.0</ele><time>2026-04-11T07:44:52.725Z</time></trkpt><trkpt lat="45.139795" lon="10.7570083"><ele>25.0</ele><time>2026-04-11T07:44:53.726Z</time></trkpt><trkpt lat="45.1396783" lon="10.7568417"><ele>26.0</ele><time>2026-04-11T07:44:54.726Z</time></trkpt><trkpt lat="45.139565" lon="10.756675"><ele>27.0</ele><time>2026-04-11T07:44:55.726Z</time></trkpt><trkpt lat="45.139455" lon="10.7565083"><ele>27.0</ele><time>2026-04-11T07:44:56.725Z</time></trkpt><trkpt lat="45.139345" lon="10.7563417"><ele>27.0</ele><time>2026-04-11T07:44:57.726Z</time></trkpt><trkpt lat="45.139235" lon="10.756175"><ele>27.0</ele><time>2026-04-11T07:44:58.725Z</time></trkpt><trkpt lat="45.139125" lon="10.7560067"><ele>25.0</ele><time>2026-04-11T07:44:59.726Z</time></trkpt><trkpt lat="45.13901" lon="10.7558417"><ele>23.0</ele><time>2026-04-11T07:45:00.726Z</time></trkpt><trkpt lat="45.1388933" lon="10.75567"><ele>21.0</ele><time>2026-04-11T07:45:01.727Z</time></trkpt><trkpt lat="45.138775" lon="10.755495"><ele>21.0</ele><time>2026-04-11T07:45:02.726Z</time></trkpt><trkpt lat="45.138655" lon="10.7553167"><ele>21.0</ele><time>2026-04-11T07:45:03.726Z</time></trkpt><trkpt lat="45.1385333" lon="10.75514"><ele>21.0</ele><time>2026-04-11T07:45:04.726Z</time></trkpt><trkpt lat="45.1384033" lon="10.7549633"><ele>21.333333333333332</ele><time>2026-04-11T07:45:05.725Z</time></trkpt><trkpt lat="45.1382717" lon="10.7548"><ele>21.666666666666664</ele><time>2026-04-11T07:45:06.727Z</time></trkpt><trkpt lat="45.138135" lon="10.7546367"><ele>22.0</ele><time>2026-04-11T07:45:07.727Z</time></trkpt><trkpt lat="45.1379983" lon="10.7544817"><ele>22.0</ele><time>2026-04-11T07:45:08.726Z</time></trkpt><trkpt lat="45.1378483" lon="10.75433"><ele>22.0</ele><time>2026-04-11T07:45:09.727Z</time></trkpt><trkpt lat="45.1376983" lon="10.7541933"><ele>22.0</ele><time>2026-04-11T07:45:10.726Z</time></trkpt><trkpt lat="45.1375483" lon="10.7540683"><ele>22.0</ele><time>2026-04-11T07:45:11.726Z</time></trkpt><trkpt lat="45.1374" lon="10.7539567"><ele>22.0</ele><time>2026-04-11T07:45:12.726Z</time></trkpt><trkpt lat="45.137255" lon="10.753855"><ele>22.0</ele><time>2026-04-11T07:45:13.726Z</time></trkpt><trkpt lat="45.13711" lon="10.7537583"><ele>22.0</ele><time>2026-04-11T07:45:14.726Z</time></trkpt><trkpt lat="45.13697" lon="10.7536717"><ele>22.0</ele><time>2026-04-11T07:45:15.727Z</time></trkpt><trkpt lat="45.13684" lon="10.7535883"><ele>22.0</ele><time>2026-04-11T07:45:16.726Z</time></trkpt><trkpt lat="45.1367167" lon="10.7535133"><ele>22.0</ele><time>2026-04-11T07:45:17.727Z</time></trkpt><trkpt lat="45.1366033" lon="10.7534417"><ele>22.400000000000002</ele><time>2026-04-11T07:45:18.726Z</time></trkpt><trkpt lat="45.1365033" lon="10.7533617"><ele>22.8</ele><time>2026-04-11T07:45:19.725Z</time></trkpt><trkpt lat="45.1364183" lon="10.7532633"><ele>23.2</ele><time>2026-04-11T07:45:20.726Z</time></trkpt><trkpt lat="45.1363433" lon="10.7531517"><ele>23.6</ele><time>2026-04-11T07:45:21.727Z</time></trkpt><trkpt lat="45.1362633" lon="10.75305"><ele>24.0</ele><time>2026-04-11T07:45:22.726Z</time></trkpt><trkpt lat="45.13617" lon="10.7529767"><ele>24.0</ele><time>2026-04-11T07:45:23.726Z</time></trkpt><trkpt lat="45.13606" lon="10.7529333"><ele>24.0</ele><time>2026-04-11T07:45:24.727Z</time></trkpt><trkpt lat="45.1359383" lon="10.7529033"><ele>24.0</ele><time>2026-04-11T07:45:25.725Z</time></trkpt><trkpt lat="45.1358117" lon="10.7528717"><ele>24.0</ele><time>2026-04-11T07:45:26.727Z</time></trkpt><trkpt lat="45.1356833" lon="10.7528383"><ele>24.0</ele><time>2026-04-11T07:45:27.727Z</time></trkpt><trkpt lat="45.1355533" lon="10.7527933"><ele>24.0</ele><time>2026-04-11T07:45:28.726Z</time></trkpt><trkpt lat="45.1354217" lon="10.7527317"><ele>24.0</ele><time>2026-04-11T07:45:29.727Z</time></trkpt><trkpt lat="45.135285" lon="10.752655"><ele>24.0</ele><time>2026-04-11T07:45:30.726Z</time></trkpt><trkpt lat="45.1351433" lon="10.7525667"><ele>23.666666666666668</ele><time>2026-04-11T07:45:31.726Z</time></trkpt><trkpt lat="45.1349983" lon="10.7524633"><ele>23.333333333333336</ele><time>2026-04-11T07:45:32.726Z</time></trkpt><trkpt lat="45.13485" lon="10.7523533"><ele>23.0</ele><time>2026-04-11T07:45:33.726Z</time></trkpt><trkpt lat="45.1347033" lon="10.7522333"><ele>22.666666666666668</ele><time>2026-04-11T07:45:34.726Z</time></trkpt><trkpt lat="45.1345633" lon="10.752105"><ele>22.333333333333332</ele><time>2026-04-11T07:45:35.727Z</time></trkpt><trkpt lat="45.1344267" lon="10.751965"><ele>22.0</ele><time>2026-04-11T07:45:36.726Z</time></trkpt><trkpt lat="45.1342917" lon="10.751815"><ele>22.0</ele><time>2026-04-11T07:45:37.726Z</time></trkpt><trkpt lat="45.1341617" lon="10.7516517"><ele>22.0</ele><time>2026-04-11T07:45:38.725Z</time></trkpt><trkpt lat="45.134035" lon="10.7514783"><ele>22.0</ele><time>2026-04-11T07:45:39.726Z</time></trkpt><trkpt lat="45.1339117" lon="10.7512967"><ele>22.0</ele><time>2026-04-11T07:45:40.724Z</time></trkpt><trkpt lat="45.1337967" lon="10.7511083"><ele>22.0</ele><time>2026-04-11T07:45:41.726Z</time></trkpt><trkpt lat="45.1336883" lon="10.75091"><ele>22.0</ele><time>2026-04-11T07:45:42.726Z</time></trkpt><trkpt lat="45.13359" lon="10.7507017"><ele>22.0</ele><time>2026-04-11T07:45:43.726Z</time></trkpt><trkpt lat="45.133495" lon="10.7504833"><ele>22.0</ele><time>2026-04-11T07:45:44.726Z</time></trkpt><trkpt lat="45.1334033" lon="10.750255"><ele>22.0</ele><time>2026-04-11T07:45:45.727Z</time></trkpt><trkpt lat="45.1333217" lon="10.7500167"><ele>22.0</ele><time>2026-04-11T07:45:46.726Z</time></trkpt><trkpt lat="45.1332483" lon="10.749775"><ele>22.0</ele><time>2026-04-11T07:45:47.726Z</time></trkpt><trkpt lat="45.13318" lon="10.7495317"><ele>22.0</ele><time>2026-04-11T07:45:48.725Z</time></trkpt><trkpt lat="45.133105" lon="10.7492867"><ele>22.333333333333332</ele><time>2026-04-11T07:45:49.726Z</time></trkpt><trkpt lat="45.1330333" lon="10.7490467"><ele>22.666666666666668</ele><time>2026-04-11T07:45:50.726Z</time></trkpt><trkpt lat="45.1329617" lon="10.7488067"><ele>23.0</ele><time>2026-04-11T07:45:51.726Z</time></trkpt><trkpt lat="45.1328883" lon="10.7485667"><ele>23.0</ele><time>2026-04-11T07:45:52.726Z</time></trkpt><trkpt lat="45.132815" lon="10.748325"><ele>23.0</ele><time>2026-04-11T07:45:53.726Z</time></trkpt><trkpt lat="45.1327417" lon="10.7480833"><ele>23.0</ele><time>2026-04-11T07:45:54.726Z</time></trkpt><trkpt lat="45.13267" lon="10.7478433"><ele>23.0</ele><time>2026-04-11T07:45:55.726Z</time></trkpt><trkpt lat="45.1325967" lon="10.7476017"><ele>23.0</ele><time>2026-04-11T07:45:56.727Z</time></trkpt><trkpt lat="45.13252" lon="10.7473583"><ele>23.0</ele><time>2026-04-11T07:45:57.727Z</time></trkpt><trkpt lat="45.1324417" lon="10.7471183"><ele>23.0</ele><time>2026-04-11T07:45:58.726Z</time></trkpt><trkpt lat="45.13236" lon="10.74688"><ele>23.0</ele><time>2026-04-11T07:45:59.726Z</time></trkpt><trkpt lat="45.1322717" lon="10.7466483"><ele>23.0</ele><time>2026-04-11T07:46:00.726Z</time></trkpt><trkpt lat="45.1321783" lon="10.7464233"><ele>23.333333333333336</ele><time>2026-04-11T07:46:01.726Z</time></trkpt><trkpt lat="45.1320783" lon="10.7462067"><ele>23.666666666666668</ele><time>2026-04-11T07:46:02.726Z</time></trkpt><trkpt lat="45.1319717" lon="10.7459967"><ele>24.0</ele><time>2026-04-11T07:46:03.726Z</time></trkpt><trkpt lat="45.13186" lon="10.7458"><ele>24.0</ele><time>2026-04-11T07:46:04.725Z</time></trkpt><trkpt lat="45.1317417" lon="10.7456117"><ele>24.0</ele><time>2026-04-11T07:46:05.726Z</time></trkpt><trkpt lat="45.1316217" lon="10.7454333"><ele>24.0</ele><time>2026-04-11T07:46:06.726Z</time></trkpt><trkpt lat="45.1315017" lon="10.745265"><ele>24.0</ele><time>2026-04-11T07:46:07.725Z</time></trkpt><trkpt lat="45.1313867" lon="10.745105"><ele>24.0</ele><time>2026-04-11T07:46:08.726Z</time></trkpt><trkpt lat="45.131275" lon="10.744955"><ele>24.0</ele><time>2026-04-11T07:46:09.726Z</time></trkpt><trkpt lat="45.1311733" lon="10.7448133"><ele>24.0</ele><time>2026-04-11T07:46:10.726Z</time></trkpt><trkpt lat="45.1310783" lon="10.74468"><ele>24.0</ele><time>2026-04-11T07:46:11.726Z</time></trkpt><trkpt lat="45.1309917" lon="10.7445517"><ele>24.0</ele><time>2026-04-11T07:46:12.726Z</time></trkpt><trkpt lat="45.1309133" lon="10.7444233"><ele>24.0</ele><time>2026-04-11T07:46:13.726Z</time></trkpt><trkpt lat="45.1308517" lon="10.7443033"><ele>24.0</ele><time>2026-04-11T07:46:14.726Z</time></trkpt><trkpt lat="45.1308083" lon="10.7442"><ele>24.0</ele><time>2026-04-11T07:46:15.725Z</time></trkpt><trkpt lat="45.1307783" lon="10.7441183"><ele>24.0</ele><time>2026-04-11T07:46:16.726Z</time></trkpt><trkpt lat="45.130745" lon="10.7440183"><ele>24.0</ele><time>2026-04-11T07:46:18.727Z</time></trkpt><trkpt lat="45.1306917" lon="10.7438917"><ele>24.0</ele><time>2026-04-11T07:46:21.726Z</time></trkpt><trkpt lat="45.1306583" lon="10.743815"><ele>24.0</ele><time>2026-04-11T07:46:22.725Z</time></trkpt><trkpt lat="45.13061" lon="10.7437133"><ele>23.5</ele><time>2026-04-11T07:46:23.724Z</time></trkpt><trkpt lat="45.1305467" lon="10.7436067"><ele>23.0</ele><time>2026-04-11T07:46:24.724Z</time></trkpt><trkpt lat="45.13046" lon="10.7435033"><ele>22.5</ele><time>2026-04-11T07:46:25.724Z</time></trkpt><trkpt lat="45.1303517" lon="10.7434133"><ele>22.0</ele><time>2026-04-11T07:46:26.723Z</time></trkpt><trkpt lat="45.130245" lon="10.743335"><ele>22.0</ele><time>2026-04-11T07:46:27.725Z</time></trkpt><trkpt lat="45.13014" lon="10.7432683"><ele>22.0</ele><time>2026-04-11T07:46:28.726Z</time></trkpt><trkpt lat="45.1300383" lon="10.7431933"><ele>22.0</ele><time>2026-04-11T07:46:29.726Z</time></trkpt><trkpt lat="45.1299383" lon="10.743095"><ele>22.0</ele><time>2026-04-11T07:46:30.725Z</time></trkpt><trkpt lat="45.1298333" lon="10.74296"><ele>22.333333333333332</ele><time>2026-04-11T07:46:31.723Z</time></trkpt><trkpt lat="45.12972" lon="10.74279"><ele>22.666666666666668</ele><time>2026-04-11T07:46:32.724Z</time></trkpt><trkpt lat="45.1295983" lon="10.7425983"><ele>23.0</ele><time>2026-04-11T07:46:33.725Z</time></trkpt><trkpt lat="45.1294633" lon="10.7423883"><ele>22.666666666666668</ele><time>2026-04-11T07:46:34.724Z</time></trkpt><trkpt lat="45.129315" lon="10.7421617"><ele>22.333333333333332</ele><time>2026-04-11T07:46:35.725Z</time></trkpt><trkpt lat="45.129155" lon="10.7419267"><ele>22.0</ele><time>2026-04-11T07:46:36.726Z</time></trkpt><trkpt lat="45.128985" lon="10.7416817"><ele>22.0</ele><time>2026-04-11T07:46:37.726Z</time></trkpt><trkpt lat="45.128805" lon="10.74143"><ele>22.0</ele><time>2026-04-11T07:46:38.726Z</time></trkpt><trkpt lat="45.1286183" lon="10.7411733"><ele>20.5</ele><time>2026-04-11T07:46:39.726Z</time></trkpt><trkpt lat="45.1284333" lon="10.7409167"><ele>19.0</ele><time>2026-04-11T07:46:40.726Z</time></trkpt><trkpt lat="45.1282567" lon="10.7406667"><ele>20.0</ele><time>2026-04-11T07:46:41.725Z</time></trkpt><trkpt lat="45.1280867" lon="10.74042"><ele>21.0</ele><time>2026-04-11T07:46:42.723Z</time></trkpt><trkpt lat="45.12792" lon="10.74018"><ele>19.0</ele><time>2026-04-11T07:46:43.724Z</time></trkpt><trkpt lat="45.1277533" lon="10.7399483"><ele>17.0</ele><time>2026-04-11T07:46:44.724Z</time></trkpt><trkpt lat="45.1275933" lon="10.73972"><ele>17.0</ele><time>2026-04-11T07:46:45.724Z</time></trkpt><trkpt lat="45.127435" lon="10.73949"><ele>17.0</ele><time>2026-04-11T07:46:46.724Z</time></trkpt><trkpt lat="45.1272783" lon="10.739265"><ele>17.333333333333336</ele><time>2026-04-11T07:46:47.725Z</time></trkpt><trkpt lat="45.1271233" lon="10.73904"><ele>17.666666666666668</ele><time>2026-04-11T07:46:48.727Z</time></trkpt><trkpt lat="45.1269717" lon="10.7388233"><ele>18.0</ele><time>2026-04-11T07:46:49.726Z</time></trkpt><trkpt lat="45.1268217" lon="10.7386083"><ele>17.666666666666668</ele><time>2026-04-11T07:46:50.727Z</time></trkpt><trkpt lat="45.1266717" lon="10.7383967"><ele>17.333333333333336</ele><time>2026-04-11T07:46:51.726Z</time></trkpt><trkpt lat="45.1265233" lon="10.73819"><ele>17.0</ele><time>2026-04-11T07:46:52.726Z</time></trkpt><trkpt lat="45.12638" lon="10.73799"><ele>18.666666666666668</ele><time>2026-04-11T07:46:53.726Z</time></trkpt><trkpt lat="45.1262383" lon="10.7377917"><ele>20.333333333333332</ele><time>2026-04-11T07:46:54.726Z</time></trkpt><trkpt lat="45.1261017" lon="10.7376"><ele>22.0</ele><time>2026-04-11T07:46:55.726Z</time></trkpt><trkpt lat="45.1259683" lon="10.73741"><ele>22.0</ele><time>2026-04-11T07:46:56.726Z</time></trkpt><trkpt lat="45.1258383" lon="10.737225"><ele>22.0</ele><time>2026-04-11T07:46:57.726Z</time></trkpt><trkpt lat="45.12571" lon="10.737045"><ele>22.0</ele><time>2026-04-11T07:46:58.725Z</time></trkpt><trkpt lat="45.1255833" lon="10.7368633"><ele>21.666666666666664</ele><time>2026-04-11T07:46:59.724Z</time></trkpt><trkpt lat="45.1254533" lon="10.73668"><ele>21.333333333333332</ele><time>2026-04-11T07:47:00.725Z</time></trkpt><trkpt lat="45.125325" lon="10.736495"><ele>21.0</ele><time>2026-04-11T07:47:01.726Z</time></trkpt><trkpt lat="45.1251933" lon="10.73631"><ele>21.0</ele><time>2026-04-11T07:47:02.725Z</time></trkpt><trkpt lat="45.1250633" lon="10.7361267"><ele>21.0</ele><time>2026-04-11T07:47:03.727Z</time></trkpt><trkpt lat="45.1249367" lon="10.7359433"><ele>21.0</ele><time>2026-04-11T07:47:04.725Z</time></trkpt><trkpt lat="45.12481" lon="10.73576"><ele>21.666666666666668</ele><time>2026-04-11T07:47:05.726Z</time></trkpt><trkpt lat="45.12468" lon="10.7355767"><ele>22.333333333333336</ele><time>2026-04-11T07:47:06.726Z</time></trkpt><trkpt lat="45.12455" lon="10.7353983"><ele>23.0</ele><time>2026-04-11T07:47:07.726Z</time></trkpt><trkpt lat="45.1244183" lon="10.735225"><ele>23.666666666666668</ele><time>2026-04-11T07:47:08.726Z</time></trkpt><trkpt lat="45.1242867" lon="10.73506"><ele>24.333333333333336</ele><time>2026-04-11T07:47:09.725Z</time></trkpt><trkpt lat="45.1241583" lon="10.7349017"><ele>25.0</ele><time>2026-04-11T07:47:10.726Z</time></trkpt><trkpt lat="45.1240333" lon="10.73476"><ele>25.0</ele><time>2026-04-11T07:47:11.726Z</time></trkpt><trkpt lat="45.1239167" lon="10.7346283"><ele>25.0</ele><time>2026-04-11T07:47:12.727Z</time></trkpt><trkpt lat="45.1238067" lon="10.734505"><ele>25.0</ele><time>2026-04-11T07:47:13.726Z</time></trkpt><trkpt lat="45.1237033" lon="10.7343883"><ele>25.0</ele><time>2026-04-11T07:47:14.727Z</time></trkpt><trkpt lat="45.1236133" lon="10.7342667"><ele>24.25</ele><time>2026-04-11T07:47:15.727Z</time></trkpt><trkpt lat="45.1235417" lon="10.734135"><ele>23.5</ele><time>2026-04-11T07:47:16.726Z</time></trkpt><trkpt lat="45.1234833" lon="10.73399"><ele>22.75</ele><time>2026-04-11T07:47:17.727Z</time></trkpt><trkpt lat="45.123425" lon="10.7338417"><ele>22.0</ele><time>2026-04-11T07:47:18.726Z</time></trkpt><trkpt lat="45.1233483" lon="10.7337083"><ele>22.0</ele><time>2026-04-11T07:47:19.726Z</time></trkpt><trkpt lat="45.123245" lon="10.7336"><ele>22.0</ele><time>2026-04-11T07:47:20.726Z</time></trkpt><trkpt lat="45.12312" lon="10.7335133"><ele>22.0</ele><time>2026-04-11T07:47:21.726Z</time></trkpt><trkpt lat="45.1229917" lon="10.7334267"><ele>22.0</ele><time>2026-04-11T07:47:22.726Z</time></trkpt><trkpt lat="45.12286" lon="10.7333167"><ele>21.333333333333332</ele><time>2026-04-11T07:47:23.727Z</time></trkpt><trkpt lat="45.1227283" lon="10.73318"><ele>20.666666666666668</ele><time>2026-04-11T07:47:24.727Z</time></trkpt><trkpt lat="45.1225967" lon="10.7330233"><ele>20.0</ele><time>2026-04-11T07:47:25.726Z</time></trkpt><trkpt lat="45.1224617" lon="10.7328533"><ele>20.666666666666668</ele><time>2026-04-11T07:47:26.725Z</time></trkpt><trkpt lat="45.1223233" lon="10.7326817"><ele>21.333333333333332</ele><time>2026-04-11T07:47:27.725Z</time></trkpt><trkpt lat="45.1221767" lon="10.73251"><ele>22.0</ele><time>2026-04-11T07:47:28.726Z</time></trkpt><trkpt lat="45.1220283" lon="10.732335"><ele>22.0</ele><time>2026-04-11T07:47:29.726Z</time></trkpt><trkpt lat="45.1218783" lon="10.7321567"><ele>22.0</ele><time>2026-04-11T07:47:30.726Z</time></trkpt><trkpt lat="45.12173" lon="10.7319733"><ele>22.0</ele><time>2026-04-11T07:47:31.725Z</time></trkpt><trkpt lat="45.1215883" lon="10.7317817"><ele>22.0</ele><time>2026-04-11T07:47:32.724Z</time></trkpt><trkpt lat="45.1214517" lon="10.7315767"><ele>22.0</ele><time>2026-04-11T07:47:33.725Z</time></trkpt><trkpt lat="45.1213233" lon="10.7313583"><ele>22.0</ele><time>2026-04-11T07:47:34.724Z</time></trkpt><trkpt lat="45.1212" lon="10.7311317"><ele>22.333333333333332</ele><time>2026-04-11T07:47:35.724Z</time></trkpt><trkpt lat="45.12108" lon="10.7309017"><ele>22.666666666666668</ele><time>2026-04-11T07:47:36.726Z</time></trkpt><trkpt lat="45.1209667" lon="10.7306733"><ele>23.0</ele><time>2026-04-11T07:47:37.725Z</time></trkpt><trkpt lat="45.1208533" lon="10.730445"><ele>23.333333333333336</ele><time>2026-04-11T07:47:38.726Z</time></trkpt><trkpt lat="45.1207367" lon="10.7302217"><ele>23.666666666666668</ele><time>2026-04-11T07:47:39.726Z</time></trkpt><trkpt lat="45.1206117" lon="10.7300083"><ele>24.0</ele><time>2026-04-11T07:47:40.726Z</time></trkpt><trkpt lat="45.1204817" lon="10.7298"><ele>24.0</ele><time>2026-04-11T07:47:41.726Z</time></trkpt><trkpt lat="45.1203433" lon="10.7296017"><ele>24.0</ele><time>2026-04-11T07:47:42.726Z</time></trkpt><trkpt lat="45.1201967" lon="10.7294117"><ele>24.0</ele><time>2026-04-11T07:47:43.726Z</time></trkpt><trkpt lat="45.1200433" lon="10.7292283"><ele>24.333333333333336</ele><time>2026-04-11T07:47:44.726Z</time></trkpt><trkpt lat="45.1198867" lon="10.72905"><ele>24.666666666666668</ele><time>2026-04-11T07:47:45.726Z</time></trkpt><trkpt lat="45.1197283" lon="10.72887"><ele>25.0</ele><time>2026-04-11T07:47:46.724Z</time></trkpt><trkpt lat="45.1195717" lon="10.7286933"><ele>24.333333333333336</ele><time>2026-04-11T07:47:47.725Z</time></trkpt><trkpt lat="45.1194217" lon="10.728515"><ele>23.666666666666668</ele><time>2026-04-11T07:47:48.725Z</time></trkpt><trkpt lat="45.1192783" lon="10.7283283"><ele>23.0</ele><time>2026-04-11T07:47:49.725Z</time></trkpt><trkpt lat="45.1191417" lon="10.7281333"><ele>22.666666666666668</ele><time>2026-04-11T07:47:50.725Z</time></trkpt><trkpt lat="45.1190133" lon="10.7279283"><ele>22.333333333333332</ele><time>2026-04-11T07:47:51.726Z</time></trkpt><trkpt lat="45.1188933" lon="10.7277133"><ele>22.0</ele><time>2026-04-11T07:47:52.725Z</time></trkpt><trkpt lat="45.1187767" lon="10.7274917"><ele>22.0</ele><time>2026-04-11T07:47:53.726Z</time></trkpt><trkpt lat="45.118665" lon="10.7272683"><ele>22.0</ele><time>2026-04-11T07:47:54.726Z</time></trkpt><trkpt lat="45.118555" lon="10.727045"><ele>22.0</ele><time>2026-04-11T07:47:55.726Z</time></trkpt><trkpt lat="45.118445" lon="10.7268183"><ele>22.333333333333332</ele><time>2026-04-11T07:47:56.726Z</time></trkpt><trkpt lat="45.118335" lon="10.72659"><ele>22.666666666666668</ele><time>2026-04-11T07:47:57.727Z</time></trkpt><trkpt lat="45.1182233" lon="10.72636"><ele>23.0</ele><time>2026-04-11T07:47:58.725Z</time></trkpt><trkpt lat="45.1181083" lon="10.7261267"><ele>23.666666666666668</ele><time>2026-04-11T07:47:59.725Z</time></trkpt><trkpt lat="45.1179883" lon="10.7259"><ele>24.333333333333336</ele><time>2026-04-11T07:48:00.726Z</time></trkpt><trkpt lat="45.1178617" lon="10.7256733"><ele>25.0</ele><time>2026-04-11T07:48:01.726Z</time></trkpt><trkpt lat="45.1177267" lon="10.72545"><ele>25.0</ele><time>2026-04-11T07:48:02.724Z</time></trkpt><trkpt lat="45.1175933" lon="10.72524"><ele>25.0</ele><time>2026-04-11T07:48:03.725Z</time></trkpt><trkpt lat="45.1174567" lon="10.725035"><ele>25.0</ele><time>2026-04-11T07:48:04.723Z</time></trkpt><trkpt lat="45.117315" lon="10.724835"><ele>25.0</ele><time>2026-04-11T07:48:05.725Z</time></trkpt><trkpt lat="45.1171717" lon="10.7246417"><ele>25.0</ele><time>2026-04-11T07:48:06.725Z</time></trkpt><trkpt lat="45.1170233" lon="10.7244533"><ele>25.0</ele><time>2026-04-11T07:48:07.724Z</time></trkpt><trkpt lat="45.1168717" lon="10.7242733"><ele>25.0</ele><time>2026-04-11T07:48:08.726Z</time></trkpt><trkpt lat="45.1167167" lon="10.7241"><ele>25.0</ele><time>2026-04-11T07:48:09.726Z</time></trkpt><trkpt lat="45.116555" lon="10.72393"><ele>25.0</ele><time>2026-04-11T07:48:10.726Z</time></trkpt><trkpt lat="45.1163933" lon="10.7237617"><ele>24.333333333333336</ele><time>2026-04-11T07:48:11.726Z</time></trkpt><trkpt lat="45.1162267" lon="10.7236017"><ele>23.666666666666668</ele><time>2026-04-11T07:48:12.726Z</time></trkpt><trkpt lat="45.1160533" lon="10.7234483"><ele>23.0</ele><time>2026-04-11T07:48:13.726Z</time></trkpt><trkpt lat="45.1158767" lon="10.7233"><ele>22.666666666666668</ele><time>2026-04-11T07:48:14.726Z</time></trkpt><trkpt lat="45.1156933" lon="10.7231583"><ele>22.333333333333332</ele><time>2026-04-11T07:48:15.726Z</time></trkpt><trkpt lat="45.1155083" lon="10.7230233"><ele>22.0</ele><time>2026-04-11T07:48:16.725Z</time></trkpt><trkpt lat="45.11532" lon="10.722895"><ele>22.0</ele><time>2026-04-11T07:48:17.725Z</time></trkpt><trkpt lat="45.1151267" lon="10.7227733"><ele>22.0</ele><time>2026-04-11T07:48:18.726Z</time></trkpt><trkpt lat="45.1149283" lon="10.7226567"><ele>22.0</ele><time>2026-04-11T07:48:19.726Z</time></trkpt><trkpt lat="45.11473" lon="10.72254"><ele>21.666666666666664</ele><time>2026-04-11T07:48:20.726Z</time></trkpt><trkpt lat="45.114535" lon="10.7224217"><ele>21.333333333333332</ele><time>2026-04-11T07:48:21.726Z</time></trkpt><trkpt lat="45.114335" lon="10.7223"><ele>21.0</ele><time>2026-04-11T07:48:22.726Z</time></trkpt><trkpt lat="45.114135" lon="10.7221817"><ele>21.333333333333332</ele><time>2026-04-11T07:48:23.726Z</time></trkpt><trkpt lat="45.11394" lon="10.7220683"><ele>21.666666666666664</ele><time>2026-04-11T07:48:24.725Z</time></trkpt><trkpt lat="45.1137483" lon="10.7219583"><ele>22.0</ele><time>2026-04-11T07:48:25.726Z</time></trkpt><trkpt lat="45.1135583" lon="10.7218517"><ele>22.0</ele><time>2026-04-11T07:48:26.726Z</time></trkpt><trkpt lat="45.1133717" lon="10.7217433"><ele>22.0</ele><time>2026-04-11T07:48:27.726Z</time></trkpt><trkpt lat="45.1131867" lon="10.7216333"><ele>22.0</ele><time>2026-04-11T07:48:28.724Z</time></trkpt><trkpt lat="45.1130033" lon="10.7215267"><ele>21.666666666666664</ele><time>2026-04-11T07:48:29.725Z</time></trkpt><trkpt lat="45.1128217" lon="10.72142"><ele>21.333333333333332</ele><time>2026-04-11T07:48:30.724Z</time></trkpt><trkpt lat="45.1126383" lon="10.7213133"><ele>21.0</ele><time>2026-04-11T07:48:31.724Z</time></trkpt><trkpt lat="45.1124533" lon="10.7212083"><ele>21.0</ele><time>2026-04-11T07:48:32.724Z</time></trkpt><trkpt lat="45.1122667" lon="10.7211017"><ele>21.0</ele><time>2026-04-11T07:48:33.725Z</time></trkpt><trkpt lat="45.11208" lon="10.720995"><ele>21.0</ele><time>2026-04-11T07:48:34.724Z</time></trkpt><trkpt lat="45.1118933" lon="10.7208883"><ele>21.333333333333332</ele><time>2026-04-11T07:48:35.725Z</time></trkpt><trkpt lat="45.1117067" lon="10.7207817"><ele>21.666666666666664</ele><time>2026-04-11T07:48:36.726Z</time></trkpt><trkpt lat="45.11152" lon="10.7206683"><ele>22.0</ele><time>2026-04-11T07:48:37.726Z</time></trkpt><trkpt lat="45.1113333" lon="10.720555"><ele>22.0</ele><time>2026-04-11T07:48:38.726Z</time></trkpt><trkpt lat="45.111145" lon="10.720445"><ele>22.0</ele><time>2026-04-11T07:48:39.726Z</time></trkpt><trkpt lat="45.110955" lon="10.7203317"><ele>22.0</ele><time>2026-04-11T07:48:40.726Z</time></trkpt><trkpt lat="45.1107633" lon="10.7202233"><ele>22.666666666666664</ele><time>2026-04-11T07:48:41.725Z</time></trkpt><trkpt lat="45.1105717" lon="10.72011"><ele>23.333333333333332</ele><time>2026-04-11T07:48:42.723Z</time></trkpt><trkpt lat="45.1103767" lon="10.719995"><ele>24.0</ele><time>2026-04-11T07:48:43.725Z</time></trkpt><trkpt lat="45.1101817" lon="10.7198817"><ele>24.0</ele><time>2026-04-11T07:48:44.725Z</time></trkpt><trkpt lat="45.1099867" lon="10.7197667"><ele>24.0</ele><time>2026-04-11T07:48:45.724Z</time></trkpt><trkpt lat="45.1097917" lon="10.71965"><ele>24.0</ele><time>2026-04-11T07:48:46.724Z</time></trkpt><trkpt lat="45.109595" lon="10.7195333"><ele>23.0</ele><time>2026-04-11T07:48:47.724Z</time></trkpt><trkpt lat="45.1094017" lon="10.7194167"><ele>22.0</ele><time>2026-04-11T07:48:48.725Z</time></trkpt><trkpt lat="45.109205" lon="10.7193"><ele>21.0</ele><time>2026-04-11T07:48:49.725Z</time></trkpt><trkpt lat="45.109005" lon="10.7191867"><ele>21.0</ele><time>2026-04-11T07:48:50.725Z</time></trkpt><trkpt lat="45.1088083" lon="10.7190733"><ele>21.0</ele><time>2026-04-11T07:48:51.725Z</time></trkpt><trkpt lat="45.1086117" lon="10.7189583"><ele>21.0</ele><time>2026-04-11T07:48:52.725Z</time></trkpt><trkpt lat="45.1084133" lon="10.7188433"><ele>21.0</ele><time>2026-04-11T07:48:53.726Z</time></trkpt><trkpt lat="45.1082183" lon="10.71873"><ele>21.0</ele><time>2026-04-11T07:48:54.726Z</time></trkpt><trkpt lat="45.1080217" lon="10.7186167"><ele>21.0</ele><time>2026-04-11T07:48:55.726Z</time></trkpt><trkpt lat="45.1078233" lon="10.7185033"><ele>21.0</ele><time>2026-04-11T07:48:56.726Z</time></trkpt><trkpt lat="45.1076267" lon="10.71839"><ele>21.0</ele><time>2026-04-11T07:48:57.726Z</time></trkpt><trkpt lat="45.10743" lon="10.71828"><ele>21.0</ele><time>2026-04-11T07:48:58.725Z</time></trkpt><trkpt lat="45.1072367" lon="10.71817"><ele>21.0</ele><time>2026-04-11T07:48:59.725Z</time></trkpt><trkpt lat="45.1070433" lon="10.71806"><ele>21.0</ele><time>2026-04-11T07:49:00.726Z</time></trkpt><trkpt lat="45.10685" lon="10.717955"><ele>21.0</ele><time>2026-04-11T07:49:01.725Z</time></trkpt><trkpt lat="45.1066633" lon="10.7178533"><ele>21.333333333333332</ele><time>2026-04-11T07:49:02.724Z</time></trkpt><trkpt lat="45.106485" lon="10.717755"><ele>21.666666666666664</ele><time>2026-04-11T07:49:03.726Z</time></trkpt><trkpt lat="45.1063117" lon="10.7176583"><ele>22.0</ele><time>2026-04-11T07:49:04.724Z</time></trkpt><trkpt lat="45.10614" lon="10.7175583"><ele>22.333333333333332</ele><time>2026-04-11T07:49:05.725Z</time></trkpt><trkpt lat="45.1059683" lon="10.7174567"><ele>22.666666666666668</ele><time>2026-04-11T07:49:06.724Z</time></trkpt><trkpt lat="45.1057967" lon="10.717345"><ele>23.0</ele><time>2026-04-11T07:49:07.726Z</time></trkpt><trkpt lat="45.10563" lon="10.717225"><ele>23.0</ele><time>2026-04-11T07:49:08.726Z</time></trkpt><trkpt lat="45.105465" lon="10.717095"><ele>23.0</ele><time>2026-04-11T07:49:09.726Z</time></trkpt><trkpt lat="45.1053033" lon="10.7169583"><ele>23.0</ele><time>2026-04-11T07:49:10.724Z</time></trkpt><trkpt lat="45.1051467" lon="10.7168067"><ele>23.0</ele><time>2026-04-11T07:49:11.726Z</time></trkpt><trkpt lat="45.1049917" lon="10.7166467"><ele>23.0</ele><time>2026-04-11T07:49:12.724Z</time></trkpt><trkpt lat="45.1048433" lon="10.7164783"><ele>23.0</ele><time>2026-04-11T07:49:13.724Z</time></trkpt><trkpt lat="45.104695" lon="10.7163067"><ele>23.0</ele><time>2026-04-11T07:49:14.724Z</time></trkpt><trkpt lat="45.1045483" lon="10.7161267"><ele>23.0</ele><time>2026-04-11T07:49:15.725Z</time></trkpt><trkpt lat="45.104405" lon="10.715935"><ele>23.0</ele><time>2026-04-11T07:49:16.724Z</time></trkpt><trkpt lat="45.1042617" lon="10.7157333"><ele>23.0</ele><time>2026-04-11T07:49:17.725Z</time></trkpt><trkpt lat="45.1041267" lon="10.7155233"><ele>23.0</ele><time>2026-04-11T07:49:18.724Z</time></trkpt><trkpt lat="45.1039967" lon="10.7153017"><ele>23.0</ele><time>2026-04-11T07:49:19.723Z</time></trkpt><trkpt lat="45.1038717" lon="10.71507"><ele>22.666666666666668</ele><time>2026-04-11T07:49:20.725Z</time></trkpt><trkpt lat="45.1037517" lon="10.7148267"><ele>22.333333333333332</ele><time>2026-04-11T07:49:21.726Z</time></trkpt><trkpt lat="45.1036383" lon="10.7145733"><ele>22.0</ele><time>2026-04-11T07:49:22.726Z</time></trkpt><trkpt lat="45.1035317" lon="10.71431"><ele>22.0</ele><time>2026-04-11T07:49:23.724Z</time></trkpt><trkpt lat="45.10343" lon="10.7140383"><ele>22.0</ele><time>2026-04-11T07:49:24.726Z</time></trkpt><trkpt lat="45.103335" lon="10.7137617"><ele>22.0</ele><time>2026-04-11T07:49:25.726Z</time></trkpt><trkpt lat="45.1032483" lon="10.7134833"><ele>22.333333333333332</ele><time>2026-04-11T07:49:26.726Z</time></trkpt><trkpt lat="45.10316" lon="10.7132083"><ele>22.666666666666668</ele><time>2026-04-11T07:49:27.726Z</time></trkpt><trkpt lat="45.1030733" lon="10.7129367"><ele>23.0</ele><time>2026-04-11T07:49:28.725Z</time></trkpt><trkpt lat="45.1029883" lon="10.7126717"><ele>23.0</ele><time>2026-04-11T07:49:29.725Z</time></trkpt><trkpt lat="45.1029033" lon="10.71241"><ele>23.0</ele><time>2026-04-11T07:49:30.726Z</time></trkpt><trkpt lat="45.1028183" lon="10.7121533"><ele>23.0</ele><time>2026-04-11T07:49:31.726Z</time></trkpt><trkpt lat="45.1027367" lon="10.7118983"><ele>22.666666666666668</ele><time>2026-04-11T07:49:32.726Z</time></trkpt><trkpt lat="45.102655" lon="10.711645"><ele>22.333333333333332</ele><time>2026-04-11T07:49:33.726Z</time></trkpt><trkpt lat="45.1025733" lon="10.7113933"><ele>22.0</ele><time>2026-04-11T07:49:34.726Z</time></trkpt><trkpt lat="45.1024917" lon="10.71114"><ele>22.333333333333332</ele><time>2026-04-11T07:49:35.726Z</time></trkpt><trkpt lat="45.1024133" lon="10.7108883"><ele>22.666666666666668</ele><time>2026-04-11T07:49:36.725Z</time></trkpt><trkpt lat="45.1023333" lon="10.71064"><ele>23.0</ele><time>2026-04-11T07:49:37.726Z</time></trkpt><trkpt lat="45.102255" lon="10.71039"><ele>23.0</ele><time>2026-04-11T07:49:38.726Z</time></trkpt><trkpt lat="45.102175" lon="10.7101433"><ele>23.0</ele><time>2026-04-11T07:49:39.726Z</time></trkpt><trkpt lat="45.1020983" lon="10.7098967"><ele>23.0</ele><time>2026-04-11T07:49:40.726Z</time></trkpt><trkpt lat="45.1020183" lon="10.7096517"><ele>23.0</ele><time>2026-04-11T07:49:41.726Z</time></trkpt><trkpt lat="45.101945" lon="10.7094217"><ele>23.0</ele><time>2026-04-11T07:49:42.725Z</time></trkpt><trkpt lat="45.1018767" lon="10.709205"><ele>23.0</ele><time>2026-04-11T07:49:43.725Z</time></trkpt><trkpt lat="45.1018133" lon="10.7090083"><ele>23.0</ele><time>2026-04-11T07:49:44.725Z</time></trkpt><trkpt lat="45.1017517" lon="10.7088217"><ele>23.0</ele><time>2026-04-11T07:49:45.725Z</time></trkpt><trkpt lat="45.1016933" lon="10.7086483"><ele>23.0</ele><time>2026-04-11T07:49:46.724Z</time></trkpt><trkpt lat="45.101635" lon="10.7084833"><ele>23.0</ele><time>2026-04-11T07:49:47.724Z</time></trkpt><trkpt lat="45.10158" lon="10.7083217"><ele>22.5</ele><time>2026-04-11T07:49:48.727Z</time></trkpt><trkpt lat="45.1015283" lon="10.7081617"><ele>22.0</ele><time>2026-04-11T07:49:49.725Z</time></trkpt><trkpt lat="45.1014767" lon="10.7080017"><ele>21.5</ele><time>2026-04-11T07:49:50.726Z</time></trkpt><trkpt lat="45.101425" lon="10.70784"><ele>21.0</ele><time>2026-04-11T07:49:51.726Z</time></trkpt><trkpt lat="45.1013717" lon="10.7076733"><ele>21.0</ele><time>2026-04-11T07:49:52.726Z</time></trkpt><trkpt lat="45.1013167" lon="10.7075017"><ele>21.0</ele><time>2026-04-11T07:49:53.724Z</time></trkpt><trkpt lat="45.10126" lon="10.707325"><ele>21.0</ele><time>2026-04-11T07:49:54.724Z</time></trkpt><trkpt lat="45.1012017" lon="10.7071483"><ele>21.0</ele><time>2026-04-11T07:49:55.725Z</time></trkpt><trkpt lat="45.1011467" lon="10.7069783"><ele>20.75</ele><time>2026-04-11T07:49:56.726Z</time></trkpt><trkpt lat="45.1010917" lon="10.706815"><ele>20.5</ele><time>2026-04-11T07:49:57.724Z</time></trkpt><trkpt lat="45.10104" lon="10.7066583"><ele>20.25</ele><time>2026-04-11T07:49:58.724Z</time></trkpt><trkpt lat="45.1009933" lon="10.70651"><ele>20.0</ele><time>2026-04-11T07:49:59.724Z</time></trkpt><trkpt lat="45.1009483" lon="10.70636"><ele>20.0</ele><time>2026-04-11T07:50:00.724Z</time></trkpt><trkpt lat="45.1008483" lon="10.7060417"><ele>20.0</ele><time>2026-04-11T07:50:02.724Z</time></trkpt><trkpt lat="45.100795" lon="10.7058717"><ele>20.0</ele><time>2026-04-11T07:50:03.725Z</time></trkpt><trkpt lat="45.1007383" lon="10.7056933"><ele>20.0</ele><time>2026-04-11T07:50:04.725Z</time></trkpt><trkpt lat="45.10068" lon="10.7055083"><ele>20.0</ele><time>2026-04-11T07:50:05.725Z</time></trkpt><trkpt lat="45.1006183" lon="10.7053167"><ele>20.0</ele><time>2026-04-11T07:50:06.725Z</time></trkpt><trkpt lat="45.1005533" lon="10.7051217"><ele>20.0</ele><time>2026-04-11T07:50:07.724Z</time></trkpt><trkpt lat="45.1004867" lon="10.70492"><ele>19.0</ele><time>2026-04-11T07:50:08.724Z</time></trkpt><trkpt lat="45.1004183" lon="10.7047117"><ele>18.0</ele><time>2026-04-11T07:50:09.724Z</time></trkpt><trkpt lat="45.10035" lon="10.7044983"><ele>17.0</ele><time>2026-04-11T07:50:10.725Z</time></trkpt><trkpt lat="45.10028" lon="10.7042817"><ele>17.0</ele><time>2026-04-11T07:50:11.724Z</time></trkpt><trkpt lat="45.1002067" lon="10.7040633"><ele>17.0</ele><time>2026-04-11T07:50:12.725Z</time></trkpt><trkpt lat="45.1001317" lon="10.7038383"><ele>17.0</ele><time>2026-04-11T07:50:13.724Z</time></trkpt><trkpt lat="45.1000533" lon="10.7036033"><ele>17.0</ele><time>2026-04-11T07:50:14.725Z</time></trkpt><trkpt lat="45.0999733" lon="10.7033633"><ele>17.0</ele><time>2026-04-11T07:50:15.724Z</time></trkpt><trkpt lat="45.0998983" lon="10.7031217"><ele>17.0</ele><time>2026-04-11T07:50:16.725Z</time></trkpt><trkpt lat="45.0998233" lon="10.7028817"><ele>17.333333333333336</ele><time>2026-04-11T07:50:17.725Z</time></trkpt><trkpt lat="45.09975" lon="10.702645"><ele>17.666666666666668</ele><time>2026-04-11T07:50:18.725Z</time></trkpt><trkpt lat="45.099675" lon="10.7024167"><ele>18.0</ele><time>2026-04-11T07:50:19.723Z</time></trkpt><trkpt lat="45.0996033" lon="10.7021933"><ele>18.0</ele><time>2026-04-11T07:50:20.725Z</time></trkpt><trkpt lat="45.0995333" lon="10.70197"><ele>18.0</ele><time>2026-04-11T07:50:21.726Z</time></trkpt><trkpt lat="45.0994617" lon="10.7017517"><ele>18.0</ele><time>2026-04-11T07:50:22.724Z</time></trkpt><trkpt lat="45.09939" lon="10.7015383"><ele>18.333333333333332</ele><time>2026-04-11T07:50:23.724Z</time></trkpt><trkpt lat="45.09932" lon="10.7013267"><ele>18.666666666666664</ele><time>2026-04-11T07:50:24.726Z</time></trkpt><trkpt lat="45.0992533" lon="10.7011183"><ele>19.0</ele><time>2026-04-11T07:50:25.725Z</time></trkpt><trkpt lat="45.0991867" lon="10.7009133"><ele>19.0</ele><time>2026-04-11T07:50:26.727Z</time></trkpt><trkpt lat="45.0991233" lon="10.7007083"><ele>19.0</ele><time>2026-04-11T07:50:27.725Z</time></trkpt><trkpt lat="45.09906" lon="10.7005033"><ele>19.0</ele><time>2026-04-11T07:50:28.725Z</time></trkpt><trkpt lat="45.0989933" lon="10.7002967"><ele>20.0</ele><time>2026-04-11T07:50:29.725Z</time></trkpt><trkpt lat="45.098925" lon="10.700085"><ele>21.0</ele><time>2026-04-11T07:50:30.724Z</time></trkpt><trkpt lat="45.0988567" lon="10.6998733"><ele>22.0</ele><time>2026-04-11T07:50:31.724Z</time></trkpt><trkpt lat="45.098785" lon="10.6996583"><ele>22.0</ele><time>2026-04-11T07:50:32.725Z</time></trkpt><trkpt lat="45.0987117" lon="10.6994417"><ele>22.0</ele><time>2026-04-11T07:50:33.724Z</time></trkpt><trkpt lat="45.0986383" lon="10.69922"><ele>22.0</ele><time>2026-04-11T07:50:34.726Z</time></trkpt><trkpt lat="45.0985633" lon="10.6989917"><ele>21.0</ele><time>2026-04-11T07:50:35.726Z</time></trkpt><trkpt lat="45.0984883" lon="10.6987617"><ele>20.0</ele><time>2026-04-11T07:50:36.726Z</time></trkpt><trkpt lat="45.098415" lon="10.69853"><ele>19.0</ele><time>2026-04-11T07:50:37.725Z</time></trkpt><trkpt lat="45.09834" lon="10.6982967"><ele>19.0</ele><time>2026-04-11T07:50:38.726Z</time></trkpt><trkpt lat="45.0982633" lon="10.6980617"><ele>19.0</ele><time>2026-04-11T07:50:39.726Z</time></trkpt><trkpt lat="45.09819" lon="10.6978317"><ele>19.0</ele><time>2026-04-11T07:50:40.727Z</time></trkpt><trkpt lat="45.098115" lon="10.6976"><ele>19.0</ele><time>2026-04-11T07:50:41.726Z</time></trkpt><trkpt lat="45.09804" lon="10.6973683"><ele>19.0</ele><time>2026-04-11T07:50:42.725Z</time></trkpt><trkpt lat="45.0979617" lon="10.6971333"><ele>19.0</ele><time>2026-04-11T07:50:43.726Z</time></trkpt><trkpt lat="45.097885" lon="10.696895"><ele>19.333333333333332</ele><time>2026-04-11T07:50:44.727Z</time></trkpt><trkpt lat="45.09781" lon="10.6966567"><ele>19.666666666666668</ele><time>2026-04-11T07:50:45.726Z</time></trkpt><trkpt lat="45.0977333" lon="10.696415"><ele>20.0</ele><time>2026-04-11T07:50:46.726Z</time></trkpt><trkpt lat="45.0976533" lon="10.6961733"><ele>20.0</ele><time>2026-04-11T07:50:47.725Z</time></trkpt><trkpt lat="45.0975767" lon="10.6959317"><ele>20.0</ele><time>2026-04-11T07:50:48.726Z</time></trkpt><trkpt lat="45.0974983" lon="10.69569"><ele>20.0</ele><time>2026-04-11T07:50:49.726Z</time></trkpt><trkpt lat="45.0974217" lon="10.6954483"><ele>20.0</ele><time>2026-04-11T07:50:50.727Z</time></trkpt><trkpt lat="45.0973433" lon="10.69521"><ele>20.0</ele><time>2026-04-11T07:50:51.727Z</time></trkpt><trkpt lat="45.0972667" lon="10.6949683"><ele>20.0</ele><time>2026-04-11T07:50:52.726Z</time></trkpt><trkpt lat="45.0971867" lon="10.6947283"><ele>20.0</ele><time>2026-04-11T07:50:53.726Z</time></trkpt><trkpt lat="45.09711" lon="10.6944883"><ele>20.0</ele><time>2026-04-11T07:50:54.727Z</time></trkpt><trkpt lat="45.0970317" lon="10.6942483"><ele>20.0</ele><time>2026-04-11T07:50:55.726Z</time></trkpt><trkpt lat="45.096955" lon="10.6940083"><ele>19.666666666666668</ele><time>2026-04-11T07:50:56.727Z</time></trkpt><trkpt lat="45.09688" lon="10.6937683"><ele>19.333333333333332</ele><time>2026-04-11T07:50:57.725Z</time></trkpt><trkpt lat="45.0968033" lon="10.69353"><ele>19.0</ele><time>2026-04-11T07:50:58.724Z</time></trkpt><trkpt lat="45.0967267" lon="10.693295"><ele>19.666666666666664</ele><time>2026-04-11T07:50:59.723Z</time></trkpt><trkpt lat="45.0966533" lon="10.6930633"><ele>20.333333333333332</ele><time>2026-04-11T07:51:00.725Z</time></trkpt><trkpt lat="45.0965767" lon="10.692835"><ele>21.0</ele><time>2026-04-11T07:51:01.724Z</time></trkpt><trkpt lat="45.0965033" lon="10.6926083"><ele>21.0</ele><time>2026-04-11T07:51:02.724Z</time></trkpt><trkpt lat="45.09643" lon="10.6923767"><ele>21.0</ele><time>2026-04-11T07:51:03.725Z</time></trkpt><trkpt lat="45.0963567" lon="10.692145"><ele>21.0</ele><time>2026-04-11T07:51:04.724Z</time></trkpt><trkpt lat="45.0962817" lon="10.69191"><ele>21.0</ele><time>2026-04-11T07:51:05.723Z</time></trkpt><trkpt lat="45.0962067" lon="10.691675"><ele>21.0</ele><time>2026-04-11T07:51:06.723Z</time></trkpt><trkpt lat="45.0961367" lon="10.6914383"><ele>21.0</ele><time>2026-04-11T07:51:07.725Z</time></trkpt><trkpt lat="45.0960633" lon="10.6912033"><ele>21.333333333333332</ele><time>2026-04-11T07:51:08.723Z</time></trkpt><trkpt lat="45.0959867" lon="10.6909733"><ele>21.666666666666664</ele><time>2026-04-11T07:51:09.724Z</time></trkpt><trkpt lat="45.0959133" lon="10.6907417"><ele>22.0</ele><time>2026-04-11T07:51:10.723Z</time></trkpt><trkpt lat="45.09584" lon="10.69051"><ele>22.0</ele><time>2026-04-11T07:51:11.725Z</time></trkpt><trkpt lat="45.0957667" lon="10.6902783"><ele>22.0</ele><time>2026-04-11T07:51:12.723Z</time></trkpt><trkpt lat="45.0956917" lon="10.69005"><ele>22.0</ele><time>2026-04-11T07:51:13.724Z</time></trkpt><trkpt lat="45.0956133" lon="10.689825"><ele>21.666666666666664</ele><time>2026-04-11T07:51:14.724Z</time></trkpt><trkpt lat="45.0955283" lon="10.6896033"><ele>21.333333333333332</ele><time>2026-04-11T07:51:15.725Z</time></trkpt><trkpt lat="45.0954367" lon="10.689385"><ele>21.0</ele><time>2026-04-11T07:51:16.724Z</time></trkpt><trkpt lat="45.095345" lon="10.6891717"><ele>21.0</ele><time>2026-04-11T07:51:17.726Z</time></trkpt><trkpt lat="45.0952483" lon="10.6889583"><ele>21.0</ele><time>2026-04-11T07:51:18.725Z</time></trkpt><trkpt lat="45.09515" lon="10.688745"><ele>21.0</ele><time>2026-04-11T07:51:19.727Z</time></trkpt><trkpt lat="45.09505" lon="10.6885333"><ele>21.333333333333332</ele><time>2026-04-11T07:51:20.727Z</time></trkpt><trkpt lat="45.09495" lon="10.6883217"><ele>21.666666666666664</ele><time>2026-04-11T07:51:21.727Z</time></trkpt><trkpt lat="45.0948467" lon="10.6881133"><ele>22.0</ele><time>2026-04-11T07:51:22.726Z</time></trkpt><trkpt lat="45.09474" lon="10.6879067"><ele>22.0</ele><time>2026-04-11T07:51:23.726Z</time></trkpt><trkpt lat="45.09463" lon="10.687705"><ele>22.0</ele><time>2026-04-11T07:51:24.726Z</time></trkpt><trkpt lat="45.094515" lon="10.6875083"><ele>22.0</ele><time>2026-04-11T07:51:25.727Z</time></trkpt><trkpt lat="45.0943967" lon="10.6873167"><ele>22.0</ele><time>2026-04-11T07:51:26.726Z</time></trkpt><trkpt lat="45.094275" lon="10.68713"><ele>22.0</ele><time>2026-04-11T07:51:27.726Z</time></trkpt><trkpt lat="45.0941517" lon="10.6869467"><ele>22.0</ele><time>2026-04-11T07:51:28.726Z</time></trkpt><trkpt lat="45.0940283" lon="10.6867633"><ele>21.0</ele><time>2026-04-11T07:51:29.726Z</time></trkpt><trkpt lat="45.0939067" lon="10.6865783"><ele>20.0</ele><time>2026-04-11T07:51:30.726Z</time></trkpt><trkpt lat="45.093785" lon="10.6863917"><ele>19.0</ele><time>2026-04-11T07:51:31.726Z</time></trkpt><trkpt lat="45.09366" lon="10.6862033"><ele>19.0</ele><time>2026-04-11T07:51:32.727Z</time></trkpt><trkpt lat="45.0935367" lon="10.68602"><ele>19.0</ele><time>2026-04-11T07:51:33.726Z</time></trkpt><trkpt lat="45.0934117" lon="10.6858333"><ele>19.0</ele><time>2026-04-11T07:51:34.725Z</time></trkpt><trkpt lat="45.0932867" lon="10.6856483"><ele>19.333333333333332</ele><time>2026-04-11T07:51:35.726Z</time></trkpt><trkpt lat="45.0931633" lon="10.685465"><ele>19.666666666666668</ele><time>2026-04-11T07:51:36.726Z</time></trkpt><trkpt lat="45.0930383" lon="10.6852783"><ele>20.0</ele><time>2026-04-11T07:51:37.726Z</time></trkpt><trkpt lat="45.0929133" lon="10.685095"><ele>19.333333333333336</ele><time>2026-04-11T07:51:38.726Z</time></trkpt><trkpt lat="45.0927917" lon="10.68491"><ele>18.666666666666668</ele><time>2026-04-11T07:51:39.726Z</time></trkpt><trkpt lat="45.0926683" lon="10.6847267"><ele>18.0</ele><time>2026-04-11T07:51:40.726Z</time></trkpt><trkpt lat="45.092545" lon="10.6845417"><ele>18.0</ele><time>2026-04-11T07:51:41.726Z</time></trkpt><trkpt lat="45.0924217" lon="10.6843583"><ele>18.0</ele><time>2026-04-11T07:51:42.727Z</time></trkpt><trkpt lat="45.0922983" lon="10.6841733"><ele>18.0</ele><time>2026-04-11T07:51:43.726Z</time></trkpt><trkpt lat="45.0921733" lon="10.6839867"><ele>18.0</ele><time>2026-04-11T07:51:44.726Z</time></trkpt><trkpt lat="45.09205" lon="10.6837983"><ele>18.0</ele><time>2026-04-11T07:51:45.726Z</time></trkpt><trkpt lat="45.0919267" lon="10.6836117"><ele>18.0</ele><time>2026-04-11T07:51:46.726Z</time></trkpt><trkpt lat="45.0918033" lon="10.683425"><ele>17.666666666666668</ele><time>2026-04-11T07:51:47.726Z</time></trkpt><trkpt lat="45.09168" lon="10.6832383"><ele>17.333333333333336</ele><time>2026-04-11T07:51:48.727Z</time></trkpt><trkpt lat="45.0915583" lon="10.683055"><ele>17.0</ele><time>2026-04-11T07:51:49.726Z</time></trkpt><trkpt lat="45.091435" lon="10.6828683"><ele>18.0</ele><time>2026-04-11T07:51:50.727Z</time></trkpt><trkpt lat="45.0913117" lon="10.6826817"><ele>19.0</ele><time>2026-04-11T07:51:51.727Z</time></trkpt><trkpt lat="45.09119" lon="10.6824983"><ele>20.0</ele><time>2026-04-11T07:51:52.726Z</time></trkpt><trkpt lat="45.0910683" lon="10.682315"><ele>20.0</ele><time>2026-04-11T07:51:53.726Z</time></trkpt><trkpt lat="45.0909467" lon="10.6821317"><ele>20.0</ele><time>2026-04-11T07:51:54.727Z</time></trkpt><trkpt lat="45.0908233" lon="10.681945"><ele>20.0</ele><time>2026-04-11T07:51:55.726Z</time></trkpt><trkpt lat="45.0907017" lon="10.68176"><ele>20.0</ele><time>2026-04-11T07:51:56.726Z</time></trkpt><trkpt lat="45.0905783" lon="10.681575"><ele>20.0</ele><time>2026-04-11T07:51:57.726Z</time></trkpt><trkpt lat="45.090455" lon="10.68139"><ele>20.0</ele><time>2026-04-11T07:51:58.726Z</time></trkpt><trkpt lat="45.0903317" lon="10.6812017"><ele>19.333333333333336</ele><time>2026-04-11T07:51:59.725Z</time></trkpt><trkpt lat="45.0902067" lon="10.6810167"><ele>18.666666666666668</ele><time>2026-04-11T07:52:00.727Z</time></trkpt><trkpt lat="45.0900833" lon="10.6808333"><ele>18.0</ele><time>2026-04-11T07:52:01.725Z</time></trkpt><trkpt lat="45.0899617" lon="10.6806483"><ele>17.666666666666668</ele><time>2026-04-11T07:52:02.726Z</time></trkpt><trkpt lat="45.08984" lon="10.6804617"><ele>17.333333333333336</ele><time>2026-04-11T07:52:03.726Z</time></trkpt><trkpt lat="45.0897167" lon="10.6802733"><ele>17.0</ele><time>2026-04-11T07:52:04.727Z</time></trkpt><trkpt lat="45.089595" lon="10.6800867"><ele>18.0</ele><time>2026-04-11T07:52:05.725Z</time></trkpt><trkpt lat="45.08947" lon="10.6799017"><ele>19.0</ele><time>2026-04-11T07:52:06.726Z</time></trkpt><trkpt lat="45.089345" lon="10.679715"><ele>20.0</ele><time>2026-04-11T07:52:07.726Z</time></trkpt><trkpt lat="45.08922" lon="10.6795267"><ele>19.666666666666668</ele><time>2026-04-11T07:52:08.727Z</time></trkpt><trkpt lat="45.0891" lon="10.6793417"><ele>19.333333333333332</ele><time>2026-04-11T07:52:09.726Z</time></trkpt><trkpt lat="45.0889767" lon="10.6791567"><ele>19.0</ele><time>2026-04-11T07:52:10.727Z</time></trkpt><trkpt lat="45.0888517" lon="10.67897"><ele>19.0</ele><time>2026-04-11T07:52:11.726Z</time></trkpt><trkpt lat="45.088725" lon="10.6787783"><ele>19.0</ele><time>2026-04-11T07:52:12.727Z</time></trkpt><trkpt lat="45.0885967" lon="10.67859"><ele>19.0</ele><time>2026-04-11T07:52:13.726Z</time></trkpt><trkpt lat="45.0884717" lon="10.6784033"><ele>19.0</ele><time>2026-04-11T07:52:14.727Z</time></trkpt><trkpt lat="45.088345" lon="10.6782133"><ele>19.0</ele><time>2026-04-11T07:52:15.727Z</time></trkpt><trkpt lat="45.088215" lon="10.67802"><ele>19.0</ele><time>2026-04-11T07:52:16.725Z</time></trkpt><trkpt lat="45.0880833" lon="10.6778233"><ele>19.0</ele><time>2026-04-11T07:52:17.724Z</time></trkpt><trkpt lat="45.0879483" lon="10.67762"><ele>19.0</ele><time>2026-04-11T07:52:18.725Z</time></trkpt><trkpt lat="45.0878133" lon="10.6774167"><ele>19.0</ele><time>2026-04-11T07:52:19.725Z</time></trkpt><trkpt lat="45.0876733" lon="10.6772067"><ele>19.0</ele><time>2026-04-11T07:52:20.725Z</time></trkpt><trkpt lat="45.0875333" lon="10.6769983"><ele>19.0</ele><time>2026-04-11T07:52:21.725Z</time></trkpt><trkpt lat="45.0873883" lon="10.6767833"><ele>19.0</ele><time>2026-04-11T07:52:22.726Z</time></trkpt><trkpt lat="45.0872433" lon="10.676565"><ele>19.333333333333332</ele><time>2026-04-11T07:52:23.726Z</time></trkpt><trkpt lat="45.087095" lon="10.676345"><ele>19.666666666666668</ele><time>2026-04-11T07:52:24.727Z</time></trkpt><trkpt lat="45.0869483" lon="10.676125"><ele>20.0</ele><time>2026-04-11T07:52:25.725Z</time></trkpt><trkpt lat="45.0868017" lon="10.675905"><ele>20.333333333333336</ele><time>2026-04-11T07:52:26.727Z</time></trkpt><trkpt lat="45.0866533" lon="10.675685"><ele>20.666666666666668</ele><time>2026-04-11T07:52:27.725Z</time></trkpt><trkpt lat="45.0865067" lon="10.6754667"><ele>21.0</ele><time>2026-04-11T07:52:28.726Z</time></trkpt><trkpt lat="45.0863633" lon="10.675255"><ele>20.333333333333332</ele><time>2026-04-11T07:52:29.726Z</time></trkpt><trkpt lat="45.086225" lon="10.675045"><ele>19.666666666666664</ele><time>2026-04-11T07:52:30.724Z</time></trkpt><trkpt lat="45.0860883" lon="10.674835"><ele>19.0</ele><time>2026-04-11T07:52:31.724Z</time></trkpt><trkpt lat="45.0859533" lon="10.6746283"><ele>19.0</ele><time>2026-04-11T07:52:32.724Z</time></trkpt><trkpt lat="45.0858167" lon="10.674425"><ele>19.0</ele><time>2026-04-11T07:52:33.724Z</time></trkpt><trkpt lat="45.0856833" lon="10.6742283"><ele>19.0</ele><time>2026-04-11T07:52:34.725Z</time></trkpt><trkpt lat="45.0855517" lon="10.6740317"><ele>19.0</ele><time>2026-04-11T07:52:35.724Z</time></trkpt><trkpt lat="45.0854217" lon="10.6738383"><ele>19.0</ele><time>2026-04-11T07:52:36.724Z</time></trkpt><trkpt lat="45.0852933" lon="10.6736433"><ele>19.0</ele><time>2026-04-11T07:52:37.724Z</time></trkpt><trkpt lat="45.0851633" lon="10.6734467"><ele>19.0</ele><time>2026-04-11T07:52:38.724Z</time></trkpt><trkpt lat="45.0850333" lon="10.67325"><ele>19.0</ele><time>2026-04-11T07:52:39.724Z</time></trkpt><trkpt lat="45.0849067" lon="10.6730533"><ele>19.0</ele><time>2026-04-11T07:52:40.724Z</time></trkpt><trkpt lat="45.0847767" lon="10.6728583"><ele>18.666666666666664</ele><time>2026-04-11T07:52:41.724Z</time></trkpt><trkpt lat="45.0846467" lon="10.67266"><ele>18.333333333333332</ele><time>2026-04-11T07:52:42.724Z</time></trkpt><trkpt lat="45.0845183" lon="10.67246"><ele>18.0</ele><time>2026-04-11T07:52:43.724Z</time></trkpt><trkpt lat="45.0843883" lon="10.672265"><ele>18.0</ele><time>2026-04-11T07:52:44.724Z</time></trkpt><trkpt lat="45.0842583" lon="10.6720733"><ele>18.0</ele><time>2026-04-11T07:52:45.725Z</time></trkpt><trkpt lat="45.0841317" lon="10.671885"><ele>18.0</ele><time>2026-04-11T07:52:46.724Z</time></trkpt><trkpt lat="45.0840067" lon="10.671695"><ele>18.666666666666668</ele><time>2026-04-11T07:52:47.725Z</time></trkpt><trkpt lat="45.0838783" lon="10.6715033"><ele>19.333333333333336</ele><time>2026-04-11T07:52:48.724Z</time></trkpt><trkpt lat="45.0837517" lon="10.6713117"><ele>20.0</ele><time>2026-04-11T07:52:49.725Z</time></trkpt><trkpt lat="45.0836233" lon="10.67112"><ele>19.666666666666668</ele><time>2026-04-11T07:52:50.725Z</time></trkpt><trkpt lat="45.083495" lon="10.670925"><ele>19.333333333333332</ele><time>2026-04-11T07:52:51.725Z</time></trkpt><trkpt lat="45.0833667" lon="10.6707283"><ele>19.0</ele><time>2026-04-11T07:52:52.724Z</time></trkpt><trkpt lat="45.0832383" lon="10.670535"><ele>19.0</ele><time>2026-04-11T07:52:53.725Z</time></trkpt><trkpt lat="45.08311" lon="10.67034"><ele>19.0</ele><time>2026-04-11T07:52:54.726Z</time></trkpt><trkpt lat="45.0829817" lon="10.6701433"><ele>19.0</ele><time>2026-04-11T07:52:55.725Z</time></trkpt><trkpt lat="45.0828517" lon="10.6699467"><ele>19.0</ele><time>2026-04-11T07:52:56.725Z</time></trkpt><trkpt lat="45.08272" lon="10.669745"><ele>19.0</ele><time>2026-04-11T07:52:57.726Z</time></trkpt><trkpt lat="45.0825867" lon="10.6695433"><ele>19.0</ele><time>2026-04-11T07:52:58.725Z</time></trkpt><trkpt lat="45.0824533" lon="10.66934"><ele>19.0</ele><time>2026-04-11T07:52:59.726Z</time></trkpt><trkpt lat="45.0823167" lon="10.66914"><ele>19.0</ele><time>2026-04-11T07:53:00.724Z</time></trkpt><trkpt lat="45.0821833" lon="10.6689383"><ele>19.0</ele><time>2026-04-11T07:53:01.723Z</time></trkpt><trkpt lat="45.0820483" lon="10.6687367"><ele>18.666666666666664</ele><time>2026-04-11T07:53:02.725Z</time></trkpt><trkpt lat="45.0819133" lon="10.6685383"><ele>18.333333333333332</ele><time>2026-04-11T07:53:03.725Z</time></trkpt><trkpt lat="45.08178" lon="10.6683367"><ele>18.0</ele><time>2026-04-11T07:53:04.724Z</time></trkpt><trkpt lat="45.0816433" lon="10.6681317"><ele>18.0</ele><time>2026-04-11T07:53:05.724Z</time></trkpt><trkpt lat="45.0815083" lon="10.6679283"><ele>18.0</ele><time>2026-04-11T07:53:06.725Z</time></trkpt><trkpt lat="45.0813733" lon="10.6677267"><ele>18.0</ele><time>2026-04-11T07:53:07.725Z</time></trkpt><trkpt lat="45.0812383" lon="10.667525"><ele>18.0</ele><time>2026-04-11T07:53:08.725Z</time></trkpt><trkpt lat="45.0811" lon="10.667325"><ele>18.0</ele><time>2026-04-11T07:53:09.725Z</time></trkpt><trkpt lat="45.08096" lon="10.6671233"><ele>18.0</ele><time>2026-04-11T07:53:10.724Z</time></trkpt><trkpt lat="45.080815" lon="10.6669267"><ele>18.0</ele><time>2026-04-11T07:53:11.725Z</time></trkpt><trkpt lat="45.0806683" lon="10.6667333"><ele>18.0</ele><time>2026-04-11T07:53:12.724Z</time></trkpt><trkpt lat="45.0805183" lon="10.6665467"><ele>18.0</ele><time>2026-04-11T07:53:13.723Z</time></trkpt><trkpt lat="45.0803617" lon="10.6663633"><ele>18.0</ele><time>2026-04-11T07:53:14.724Z</time></trkpt><trkpt lat="45.0802017" lon="10.6661833"><ele>18.0</ele><time>2026-04-11T07:53:15.725Z</time></trkpt><trkpt lat="45.08004" lon="10.6660067"><ele>18.0</ele><time>2026-04-11T07:53:16.724Z</time></trkpt><trkpt lat="45.079875" lon="10.6658367"><ele>18.0</ele><time>2026-04-11T07:53:17.725Z</time></trkpt><trkpt lat="45.0797083" lon="10.6656767"><ele>18.0</ele><time>2026-04-11T07:53:18.725Z</time></trkpt><trkpt lat="45.0795367" lon="10.6655217"><ele>18.0</ele><time>2026-04-11T07:53:19.725Z</time></trkpt><trkpt lat="45.0793617" lon="10.6653733"><ele>18.666666666666668</ele><time>2026-04-11T07:53:20.725Z</time></trkpt><trkpt lat="45.0791833" lon="10.6652283"><ele>19.333333333333336</ele><time>2026-04-11T07:53:21.725Z</time></trkpt><trkpt lat="45.0790067" lon="10.665085"><ele>20.0</ele><time>2026-04-11T07:53:22.724Z</time></trkpt><trkpt lat="45.0788283" lon="10.66495"><ele>20.333333333333336</ele><time>2026-04-11T07:53:23.724Z</time></trkpt><trkpt lat="45.0786517" lon="10.6648183"><ele>20.666666666666668</ele><time>2026-04-11T07:53:24.726Z</time></trkpt><trkpt lat="45.078475" lon="10.664685"><ele>21.0</ele><time>2026-04-11T07:53:25.725Z</time></trkpt><trkpt lat="45.0783033" lon="10.6645483"><ele>22.0</ele><time>2026-04-11T07:53:26.725Z</time></trkpt><trkpt lat="45.07813" lon="10.664415"><ele>23.0</ele><time>2026-04-11T07:53:27.724Z</time></trkpt><trkpt lat="45.077955" lon="10.6642767"><ele>24.0</ele><time>2026-04-11T07:53:28.723Z</time></trkpt><trkpt lat="45.0777783" lon="10.66414"><ele>24.0</ele><time>2026-04-11T07:53:29.724Z</time></trkpt><trkpt lat="45.0776017" lon="10.6640017"><ele>24.0</ele><time>2026-04-11T07:53:30.724Z</time></trkpt><trkpt lat="45.0774267" lon="10.663865"><ele>24.0</ele><time>2026-04-11T07:53:31.724Z</time></trkpt><trkpt lat="45.0772533" lon="10.6637283"><ele>22.333333333333332</ele><time>2026-04-11T07:53:32.724Z</time></trkpt><trkpt lat="45.0770833" lon="10.6635933"><ele>20.666666666666664</ele><time>2026-04-11T07:53:33.725Z</time></trkpt><trkpt lat="45.076915" lon="10.663455"><ele>19.0</ele><time>2026-04-11T07:53:34.724Z</time></trkpt><trkpt lat="45.0767433" lon="10.66332"><ele>19.0</ele><time>2026-04-11T07:53:35.724Z</time></trkpt><trkpt lat="45.0765717" lon="10.66318"><ele>19.0</ele><time>2026-04-11T07:53:36.724Z</time></trkpt><trkpt lat="45.0763967" lon="10.6630433"><ele>19.0</ele><time>2026-04-11T07:53:37.723Z</time></trkpt><trkpt lat="45.076225" lon="10.6629033"><ele>19.0</ele><time>2026-04-11T07:53:38.724Z</time></trkpt><trkpt lat="45.0760517" lon="10.662765"><ele>19.0</ele><time>2026-04-11T07:53:39.724Z</time></trkpt><trkpt lat="45.0758817" lon="10.6626283"><ele>19.0</ele><time>2026-04-11T07:53:40.724Z</time></trkpt><trkpt lat="45.07571" lon="10.662495"><ele>19.0</ele><time>2026-04-11T07:53:41.725Z</time></trkpt><trkpt lat="45.0755383" lon="10.6623617"><ele>19.0</ele><time>2026-04-11T07:53:42.725Z</time></trkpt><trkpt lat="45.075365" lon="10.6622267"><ele>19.0</ele><time>2026-04-11T07:53:43.724Z</time></trkpt><trkpt lat="45.0751917" lon="10.66209"><ele>19.0</ele><time>2026-04-11T07:53:44.724Z</time></trkpt><trkpt lat="45.0750183" lon="10.6619517"><ele>19.0</ele><time>2026-04-11T07:53:45.725Z</time></trkpt><trkpt lat="45.074845" lon="10.6618167"><ele>19.0</ele><time>2026-04-11T07:53:46.726Z</time></trkpt><trkpt lat="45.0746733" lon="10.6616767"><ele>18.666666666666664</ele><time>2026-04-11T07:53:47.725Z</time></trkpt><trkpt lat="45.0745017" lon="10.6615383"><ele>18.333333333333332</ele><time>2026-04-11T07:53:48.724Z</time></trkpt><trkpt lat="45.0743267" lon="10.6614033"><ele>18.0</ele><time>2026-04-11T07:53:49.726Z</time></trkpt><trkpt lat="45.07415" lon="10.6612667"><ele>18.333333333333332</ele><time>2026-04-11T07:53:50.726Z</time></trkpt><trkpt lat="45.0739733" lon="10.6611317"><ele>18.666666666666664</ele><time>2026-04-11T07:53:51.728Z</time></trkpt><trkpt lat="45.0737933" lon="10.6609967"><ele>19.0</ele><time>2026-04-11T07:53:52.724Z</time></trkpt><trkpt lat="45.073615" lon="10.6608633"><ele>19.0</ele><time>2026-04-11T07:53:53.725Z</time></trkpt><trkpt lat="45.0734333" lon="10.6607317"><ele>19.0</ele><time>2026-04-11T07:53:54.725Z</time></trkpt><trkpt lat="45.0732483" lon="10.6606033"><ele>19.0</ele><time>2026-04-11T07:53:55.725Z</time></trkpt><trkpt lat="45.0730633" lon="10.6604733"><ele>19.0</ele><time>2026-04-11T07:53:56.723Z</time></trkpt><trkpt lat="45.072875" lon="10.66034"><ele>19.0</ele><time>2026-04-11T07:53:57.725Z</time></trkpt><trkpt lat="45.0726867" lon="10.660205"><ele>19.0</ele><time>2026-04-11T07:53:58.723Z</time></trkpt><trkpt lat="45.0724967" lon="10.6600733"><ele>19.0</ele><time>2026-04-11T07:53:59.724Z</time></trkpt><trkpt lat="45.0723067" lon="10.65994"><ele>19.0</ele><time>2026-04-11T07:54:00.724Z</time></trkpt><trkpt lat="45.0721133" lon="10.6598067"><ele>19.0</ele><time>2026-04-11T07:54:01.723Z</time></trkpt><trkpt lat="45.0719217" lon="10.6596717"><ele>19.0</ele><time>2026-04-11T07:54:02.726Z</time></trkpt><trkpt lat="45.0717283" lon="10.659535"><ele>19.0</ele><time>2026-04-11T07:54:03.725Z</time></trkpt><trkpt lat="45.0715317" lon="10.6593917"><ele>19.0</ele><time>2026-04-11T07:54:04.724Z</time></trkpt><trkpt lat="45.0713283" lon="10.6592517"><ele>20.0</ele><time>2026-04-11T07:54:05.725Z</time></trkpt><trkpt lat="45.0711233" lon="10.6591083"><ele>21.0</ele><time>2026-04-11T07:54:06.725Z</time></trkpt><trkpt lat="45.0709183" lon="10.6589633"><ele>20.5</ele><time>2026-04-11T07:54:07.727Z</time></trkpt><trkpt lat="45.0707117" lon="10.65882"><ele>20.0</ele><time>2026-04-11T07:54:08.727Z</time></trkpt><trkpt lat="45.0705033" lon="10.6586733"><ele>20.0</ele><time>2026-04-11T07:54:09.727Z</time></trkpt><trkpt lat="45.0702967" lon="10.65853"><ele>20.0</ele><time>2026-04-11T07:54:10.724Z</time></trkpt><trkpt lat="45.0700933" lon="10.6583883"><ele>20.333333333333336</ele><time>2026-04-11T07:54:11.725Z</time></trkpt><trkpt lat="45.0698933" lon="10.6582467"><ele>20.666666666666668</ele><time>2026-04-11T07:54:12.723Z</time></trkpt><trkpt lat="45.069695" lon="10.65811"><ele>21.0</ele><time>2026-04-11T07:54:13.725Z</time></trkpt><trkpt lat="45.0694967" lon="10.6579767"><ele>21.0</ele><time>2026-04-11T07:54:14.724Z</time></trkpt><trkpt lat="45.0692983" lon="10.6578433"><ele>21.0</ele><time>2026-04-11T07:54:15.726Z</time></trkpt><trkpt lat="45.0691017" lon="10.6577083"><ele>21.0</ele><time>2026-04-11T07:54:16.724Z</time></trkpt><trkpt lat="45.068905" lon="10.6575733"><ele>20.333333333333332</ele><time>2026-04-11T07:54:17.724Z</time></trkpt><trkpt lat="45.0687117" lon="10.6574367"><ele>19.666666666666664</ele><time>2026-04-11T07:54:18.723Z</time></trkpt><trkpt lat="45.0685183" lon="10.6572983"><ele>19.0</ele><time>2026-04-11T07:54:19.724Z</time></trkpt><trkpt lat="45.0683267" lon="10.65716"><ele>18.666666666666664</ele><time>2026-04-11T07:54:20.725Z</time></trkpt><trkpt lat="45.0681333" lon="10.657025"><ele>18.333333333333332</ele><time>2026-04-11T07:54:21.727Z</time></trkpt><trkpt lat="45.06794" lon="10.65689"><ele>18.0</ele><time>2026-04-11T07:54:22.726Z</time></trkpt><trkpt lat="45.06775" lon="10.656755"><ele>18.0</ele><time>2026-04-11T07:54:23.725Z</time></trkpt><trkpt lat="45.0675617" lon="10.65662"><ele>18.0</ele><time>2026-04-11T07:54:24.724Z</time></trkpt><trkpt lat="45.067375" lon="10.6564917"><ele>18.0</ele><time>2026-04-11T07:54:25.724Z</time></trkpt><trkpt lat="45.0671883" lon="10.6563617"><ele>18.0</ele><time>2026-04-11T07:54:26.725Z</time></trkpt><trkpt lat="45.0670033" lon="10.6562317"><ele>18.0</ele><time>2026-04-11T07:54:27.727Z</time></trkpt><trkpt lat="45.0668217" lon="10.65611"><ele>18.0</ele><time>2026-04-11T07:54:28.723Z</time></trkpt><trkpt lat="45.0666467" lon="10.65599"><ele>17.666666666666668</ele><time>2026-04-11T07:54:29.725Z</time></trkpt><trkpt lat="45.0664783" lon="10.65587"><ele>17.333333333333336</ele><time>2026-04-11T07:54:30.724Z</time></trkpt><trkpt lat="45.06631" lon="10.655755"><ele>17.0</ele><time>2026-04-11T07:54:31.725Z</time></trkpt><trkpt lat="45.0661517" lon="10.6556483"><ele>17.0</ele><time>2026-04-11T07:54:32.724Z</time></trkpt><trkpt lat="45.0660017" lon="10.655545"><ele>17.0</ele><time>2026-04-11T07:54:33.725Z</time></trkpt><trkpt lat="45.0658583" lon="10.6554467"><ele>17.0</ele><time>2026-04-11T07:54:34.724Z</time></trkpt><trkpt lat="45.0657283" lon="10.6553467"><ele>16.75</ele><time>2026-04-11T07:54:35.725Z</time></trkpt><trkpt lat="45.0656117" lon="10.6552417"><ele>16.5</ele><time>2026-04-11T07:54:36.725Z</time></trkpt><trkpt lat="45.0655133" lon="10.65513"><ele>16.25</ele><time>2026-04-11T07:54:37.726Z</time></trkpt><trkpt lat="45.0654383" lon="10.65501"><ele>16.0</ele><time>2026-04-11T07:54:38.726Z</time></trkpt><trkpt lat="45.0653867" lon="10.6548917"><ele>16.0</ele><time>2026-04-11T07:54:39.725Z</time></trkpt><trkpt lat="45.06535" lon="10.6547817"><ele>16.0</ele><time>2026-04-11T07:54:40.724Z</time></trkpt><trkpt lat="45.0653267" lon="10.654675"><ele>16.0</ele><time>2026-04-11T07:54:41.724Z</time></trkpt><trkpt lat="45.0653067" lon="10.654555"><ele>16.0</ele><time>2026-04-11T07:54:42.725Z</time></trkpt><trkpt lat="45.0652933" lon="10.6544117"><ele>16.0</ele><time>2026-04-11T07:54:43.725Z</time></trkpt><trkpt lat="45.0652917" lon="10.654245"><ele>16.5</ele><time>2026-04-11T07:54:44.723Z</time></trkpt><trkpt lat="45.0653017" lon="10.6540583"><ele>17.0</ele><time>2026-04-11T07:54:45.725Z</time></trkpt><trkpt lat="45.0653167" lon="10.6538667"><ele>17.5</ele><time>2026-04-11T07:54:46.724Z</time></trkpt><trkpt lat="45.0653233" lon="10.653685"><ele>18.0</ele><time>2026-04-11T07:54:47.725Z</time></trkpt><trkpt lat="45.0653183" lon="10.653505"><ele>18.0</ele><time>2026-04-11T07:54:48.724Z</time></trkpt><trkpt lat="45.0652967" lon="10.6533283"><ele>18.0</ele><time>2026-04-11T07:54:49.724Z</time></trkpt><trkpt lat="45.0652583" lon="10.6531433"><ele>18.0</ele><time>2026-04-11T07:54:50.724Z</time></trkpt><trkpt lat="45.0652067" lon="10.6529517"><ele>18.0</ele><time>2026-04-11T07:54:51.725Z</time></trkpt><trkpt lat="45.06515" lon="10.6527633"><ele>18.25</ele><time>2026-04-11T07:54:52.725Z</time></trkpt><trkpt lat="45.0650967" lon="10.6525783"><ele>18.5</ele><time>2026-04-11T07:54:53.725Z</time></trkpt><trkpt lat="45.06504" lon="10.6523933"><ele>18.75</ele><time>2026-04-11T07:54:54.724Z</time></trkpt><trkpt lat="45.0649833" lon="10.6522133"><ele>19.0</ele><time>2026-04-11T07:54:55.724Z</time></trkpt><trkpt lat="45.0649217" lon="10.652035"><ele>19.0</ele><time>2026-04-11T07:54:56.725Z</time></trkpt><trkpt lat="45.064855" lon="10.6518583"><ele>19.0</ele><time>2026-04-11T07:54:57.724Z</time></trkpt><trkpt lat="45.0647883" lon="10.65168"><ele>19.0</ele><time>2026-04-11T07:54:58.728Z</time></trkpt><trkpt lat="45.0647217" lon="10.6515017"><ele>19.0</ele><time>2026-04-11T07:54:59.724Z</time></trkpt><trkpt lat="45.0646533" lon="10.6513267"><ele>19.0</ele><time>2026-04-11T07:55:00.723Z</time></trkpt><trkpt lat="45.06459" lon="10.6511533"><ele>19.0</ele><time>2026-04-11T07:55:01.723Z</time></trkpt><trkpt lat="45.064525" lon="10.6509883"><ele>19.0</ele><time>2026-04-11T07:55:02.723Z</time></trkpt><trkpt lat="45.06446" lon="10.650825"><ele>19.0</ele><time>2026-04-11T07:55:03.727Z</time></trkpt><trkpt lat="45.0644017" lon="10.6506733"><ele>19.25</ele><time>2026-04-11T07:55:04.723Z</time></trkpt><trkpt lat="45.0643467" lon="10.6505267"><ele>19.5</ele><time>2026-04-11T07:55:05.724Z</time></trkpt><trkpt lat="45.0642917" lon="10.6503817"><ele>19.75</ele><time>2026-04-11T07:55:06.724Z</time></trkpt><trkpt lat="45.0642367" lon="10.6502383"><ele>20.0</ele><time>2026-04-11T07:55:07.727Z</time></trkpt><trkpt lat="45.0641817" lon="10.65009"><ele>20.0</ele><time>2026-04-11T07:55:08.724Z</time></trkpt><trkpt lat="45.064125" lon="10.6499383"><ele>20.0</ele><time>2026-04-11T07:55:09.724Z</time></trkpt><trkpt lat="45.0640667" lon="10.6497917"><ele>20.0</ele><time>2026-04-11T07:55:10.724Z</time></trkpt><trkpt lat="45.06401" lon="10.6496367"><ele>20.0</ele><time>2026-04-11T07:55:11.723Z</time></trkpt><trkpt lat="45.0639467" lon="10.6494817"><ele>20.5</ele><time>2026-04-11T07:55:12.723Z</time></trkpt><trkpt lat="45.063885" lon="10.6493283"><ele>21.0</ele><time>2026-04-11T07:55:13.724Z</time></trkpt><trkpt lat="45.063815" lon="10.64918"><ele>21.5</ele><time>2026-04-11T07:55:14.724Z</time></trkpt><trkpt lat="45.0637333" lon="10.6490367"><ele>22.0</ele><time>2026-04-11T07:55:15.724Z</time></trkpt><trkpt lat="45.06364" lon="10.6489067"><ele>22.0</ele><time>2026-04-11T07:55:16.724Z</time></trkpt><trkpt lat="45.06354" lon="10.6487833"><ele>22.0</ele><time>2026-04-11T07:55:17.723Z</time></trkpt><trkpt lat="45.0634383" lon="10.6486617"><ele>22.0</ele><time>2026-04-11T07:55:18.723Z</time></trkpt><trkpt lat="45.0633383" lon="10.6485383"><ele>22.0</ele><time>2026-04-11T07:55:19.724Z</time></trkpt><trkpt lat="45.063245" lon="10.6484117"><ele>21.75</ele><time>2026-04-11T07:55:20.724Z</time></trkpt><trkpt lat="45.063155" lon="10.6482883"><ele>21.5</ele><time>2026-04-11T07:55:21.725Z</time></trkpt><trkpt lat="45.06307" lon="10.6481733"><ele>21.25</ele><time>2026-04-11T07:55:22.724Z</time></trkpt><trkpt lat="45.06299" lon="10.648065"><ele>21.0</ele><time>2026-04-11T07:55:23.725Z</time></trkpt><trkpt lat="45.06292" lon="10.6479617"><ele>21.0</ele><time>2026-04-11T07:55:24.724Z</time></trkpt><trkpt lat="45.0628567" lon="10.647865"><ele>21.0</ele><time>2026-04-11T07:55:25.724Z</time></trkpt><trkpt lat="45.0628017" lon="10.6477767"><ele>21.0</ele><time>2026-04-11T07:55:26.724Z</time></trkpt><trkpt lat="45.0627567" lon="10.6477017"><ele>21.0</ele><time>2026-04-11T07:55:27.725Z</time></trkpt><trkpt lat="45.0626667" lon="10.64761"><ele>21.0</ele><time>2026-04-11T07:55:29.725Z</time></trkpt><trkpt lat="45.062545" lon="10.647595"><ele>20.75</ele><time>2026-04-11T07:55:31.725Z</time></trkpt><trkpt lat="45.06244" lon="10.647615"><ele>20.5</ele><time>2026-04-11T07:55:32.724Z</time></trkpt><trkpt lat="45.0623067" lon="10.6476517"><ele>20.25</ele><time>2026-04-11T07:55:33.724Z</time></trkpt><trkpt lat="45.0621867" lon="10.6476617"><ele>20.0</ele><time>2026-04-11T07:55:34.724Z</time></trkpt><trkpt lat="45.0620567" lon="10.6476833"><ele>20.0</ele><time>2026-04-11T07:55:35.724Z</time></trkpt><trkpt lat="45.0619267" lon="10.6477"><ele>20.0</ele><time>2026-04-11T07:55:36.725Z</time></trkpt><trkpt lat="45.0617967" lon="10.6477217"><ele>20.0</ele><time>2026-04-11T07:55:37.726Z</time></trkpt><trkpt lat="45.061665" lon="10.64774"><ele>20.0</ele><time>2026-04-11T07:55:38.724Z</time></trkpt><trkpt lat="45.0615283" lon="10.647755"><ele>19.75</ele><time>2026-04-11T07:55:39.727Z</time></trkpt><trkpt lat="45.0613917" lon="10.6477683"><ele>19.5</ele><time>2026-04-11T07:55:40.724Z</time></trkpt><trkpt lat="45.0612567" lon="10.6477817"><ele>19.25</ele><time>2026-04-11T07:55:41.724Z</time></trkpt><trkpt lat="45.0611267" lon="10.6477883"><ele>19.0</ele><time>2026-04-11T07:55:42.725Z</time></trkpt><trkpt lat="45.061" lon="10.6477967"><ele>18.5</ele><time>2026-04-11T07:55:43.725Z</time></trkpt><trkpt lat="45.0608717" lon="10.6478033"><ele>18.0</ele><time>2026-04-11T07:55:44.725Z</time></trkpt><trkpt lat="45.0607433" lon="10.6478067"><ele>17.5</ele><time>2026-04-11T07:55:45.726Z</time></trkpt><trkpt lat="45.0606167" lon="10.647795"><ele>17.0</ele><time>2026-04-11T07:55:46.724Z</time></trkpt><trkpt lat="45.0604917" lon="10.6477683"><ele>17.0</ele><time>2026-04-11T07:55:47.725Z</time></trkpt><trkpt lat="45.0603633" lon="10.6477283"><ele>17.0</ele><time>2026-04-11T07:55:48.724Z</time></trkpt><trkpt lat="45.0602317" lon="10.6476733"><ele>17.0</ele><time>2026-04-11T07:55:49.725Z</time></trkpt><trkpt lat="45.0600933" lon="10.6476133"><ele>17.0</ele><time>2026-04-11T07:55:50.725Z</time></trkpt><trkpt lat="45.0599517" lon="10.647555"><ele>17.333333333333336</ele><time>2026-04-11T07:55:51.726Z</time></trkpt><trkpt lat="45.0598083" lon="10.6474983"><ele>17.666666666666668</ele><time>2026-04-11T07:55:52.726Z</time></trkpt><trkpt lat="45.0596633" lon="10.6474433"><ele>18.0</ele><time>2026-04-11T07:55:53.727Z</time></trkpt><trkpt lat="45.0595183" lon="10.64738"><ele>18.0</ele><time>2026-04-11T07:55:54.724Z</time></trkpt><trkpt lat="45.05937" lon="10.64732"><ele>18.0</ele><time>2026-04-11T07:55:55.724Z</time></trkpt><trkpt lat="45.0592183" lon="10.6472633"><ele>18.0</ele><time>2026-04-11T07:55:56.725Z</time></trkpt><trkpt lat="45.0590617" lon="10.64721"><ele>18.0</ele><time>2026-04-11T07:55:57.725Z</time></trkpt><trkpt lat="45.0589033" lon="10.647155"><ele>18.0</ele><time>2026-04-11T07:55:58.724Z</time></trkpt><trkpt lat="45.058745" lon="10.6471"><ele>18.0</ele><time>2026-04-11T07:55:59.726Z</time></trkpt><trkpt lat="45.0585833" lon="10.6470417"><ele>18.0</ele><time>2026-04-11T07:56:00.726Z</time></trkpt><trkpt lat="45.0584167" lon="10.6469817"><ele>18.0</ele><time>2026-04-11T07:56:01.724Z</time></trkpt><trkpt lat="45.0582467" lon="10.64692"><ele>18.0</ele><time>2026-04-11T07:56:02.725Z</time></trkpt><trkpt lat="45.0580767" lon="10.6468517"><ele>18.0</ele><time>2026-04-11T07:56:03.725Z</time></trkpt><trkpt lat="45.05791" lon="10.64678"><ele>18.0</ele><time>2026-04-11T07:56:04.724Z</time></trkpt><trkpt lat="45.0577433" lon="10.64671"><ele>18.0</ele><time>2026-04-11T07:56:05.724Z</time></trkpt><trkpt lat="45.0575783" lon="10.646645"><ele>17.333333333333332</ele><time>2026-04-11T07:56:06.728Z</time></trkpt><trkpt lat="45.05741" lon="10.64658"><ele>16.666666666666664</ele><time>2026-04-11T07:56:07.724Z</time></trkpt><trkpt lat="45.0572367" lon="10.646515"><ele>16.0</ele><time>2026-04-11T07:56:08.725Z</time></trkpt><trkpt lat="45.05706" lon="10.6464483"><ele>16.0</ele><time>2026-04-11T07:56:09.726Z</time></trkpt><trkpt lat="45.0568783" lon="10.64638"><ele>16.0</ele><time>2026-04-11T07:56:10.724Z</time></trkpt><trkpt lat="45.0566917" lon="10.6463083"><ele>16.0</ele><time>2026-04-11T07:56:11.725Z</time></trkpt><trkpt lat="45.0565" lon="10.64624"><ele>16.333333333333332</ele><time>2026-04-11T07:56:12.725Z</time></trkpt><trkpt lat="45.056305" lon="10.6461733"><ele>16.666666666666668</ele><time>2026-04-11T07:56:13.725Z</time></trkpt><trkpt lat="45.056105" lon="10.6461067"><ele>17.0</ele><time>2026-04-11T07:56:14.725Z</time></trkpt><trkpt lat="45.055905" lon="10.6460433"><ele>17.666666666666668</ele><time>2026-04-11T07:56:15.726Z</time></trkpt><trkpt lat="45.0557083" lon="10.6459817"><ele>18.333333333333332</ele><time>2026-04-11T07:56:16.723Z</time></trkpt><trkpt lat="45.055515" lon="10.6459267"><ele>19.0</ele><time>2026-04-11T07:56:17.723Z</time></trkpt><trkpt lat="45.0553233" lon="10.6458783"><ele>19.0</ele><time>2026-04-11T07:56:18.723Z</time></trkpt><trkpt lat="45.055135" lon="10.6458383"><ele>19.0</ele><time>2026-04-11T07:56:19.724Z</time></trkpt><trkpt lat="45.05495" lon="10.6458167"><ele>19.0</ele><time>2026-04-11T07:56:20.724Z</time></trkpt><trkpt lat="45.0547583" lon="10.6458217"><ele>19.0</ele><time>2026-04-11T07:56:21.725Z</time></trkpt><trkpt lat="45.0545617" lon="10.645855"><ele>19.0</ele><time>2026-04-11T07:56:22.724Z</time></trkpt><trkpt lat="45.054355" lon="10.6459033"><ele>19.0</ele><time>2026-04-11T07:56:23.724Z</time></trkpt><trkpt lat="45.0541417" lon="10.6459633"><ele>19.0</ele><time>2026-04-11T07:56:24.725Z</time></trkpt><trkpt lat="45.0539333" lon="10.6460217"><ele>19.0</ele><time>2026-04-11T07:56:25.724Z</time></trkpt><trkpt lat="45.0537367" lon="10.6460783"><ele>19.0</ele><time>2026-04-11T07:56:26.724Z</time></trkpt><trkpt lat="45.053545" lon="10.6461367"><ele>19.0</ele><time>2026-04-11T07:56:27.725Z</time></trkpt><trkpt lat="45.0533583" lon="10.6461917"><ele>19.0</ele><time>2026-04-11T07:56:28.724Z</time></trkpt><trkpt lat="45.053175" lon="10.6462483"><ele>19.0</ele><time>2026-04-11T07:56:29.723Z</time></trkpt><trkpt lat="45.0529933" lon="10.646305"><ele>18.333333333333332</ele><time>2026-04-11T07:56:30.724Z</time></trkpt><trkpt lat="45.0528133" lon="10.64636"><ele>17.666666666666668</ele><time>2026-04-11T07:56:31.724Z</time></trkpt><trkpt lat="45.0526367" lon="10.6464133"><ele>17.0</ele><time>2026-04-11T07:56:32.724Z</time></trkpt><trkpt lat="45.0524667" lon="10.64646"><ele>17.666666666666668</ele><time>2026-04-11T07:56:33.725Z</time></trkpt><trkpt lat="45.0523017" lon="10.646505"><ele>18.333333333333332</ele><time>2026-04-11T07:56:34.724Z</time></trkpt><trkpt lat="45.0521367" lon="10.6465483"><ele>19.0</ele><time>2026-04-11T07:56:35.725Z</time></trkpt><trkpt lat="45.0519683" lon="10.6465933"><ele>19.0</ele><time>2026-04-11T07:56:36.725Z</time></trkpt><trkpt lat="45.0517933" lon="10.6466417"><ele>19.0</ele><time>2026-04-11T07:56:37.725Z</time></trkpt><trkpt lat="45.0516133" lon="10.646695"><ele>19.0</ele><time>2026-04-11T07:56:38.725Z</time></trkpt><trkpt lat="45.0514283" lon="10.6467483"><ele>18.0</ele><time>2026-04-11T07:56:39.725Z</time></trkpt><trkpt lat="45.0512367" lon="10.6468033"><ele>17.0</ele><time>2026-04-11T07:56:40.724Z</time></trkpt><trkpt lat="45.0510433" lon="10.6468583"><ele>16.0</ele><time>2026-04-11T07:56:41.726Z</time></trkpt><trkpt lat="45.0508483" lon="10.6469133"><ele>16.666666666666664</ele><time>2026-04-11T07:56:42.726Z</time></trkpt><trkpt lat="45.05065" lon="10.6469683"><ele>17.333333333333332</ele><time>2026-04-11T07:56:43.724Z</time></trkpt><trkpt lat="45.0504517" lon="10.6470267"><ele>18.0</ele><time>2026-04-11T07:56:44.724Z</time></trkpt><trkpt lat="45.0502517" lon="10.6470833"><ele>18.0</ele><time>2026-04-11T07:56:45.726Z</time></trkpt><trkpt lat="45.0500517" lon="10.64714"><ele>18.0</ele><time>2026-04-11T07:56:46.724Z</time></trkpt><trkpt lat="45.0498533" lon="10.6471933"><ele>18.0</ele><time>2026-04-11T07:56:47.725Z</time></trkpt><trkpt lat="45.049665" lon="10.647245"><ele>18.666666666666668</ele><time>2026-04-11T07:56:48.725Z</time></trkpt><trkpt lat="45.049495" lon="10.6472917"><ele>19.333333333333336</ele><time>2026-04-11T07:56:49.724Z</time></trkpt><trkpt lat="45.0493367" lon="10.6473333"><ele>20.0</ele><time>2026-04-11T07:56:50.724Z</time></trkpt><trkpt lat="45.0491783" lon="10.6473783"><ele>20.333333333333336</ele><time>2026-04-11T07:56:51.725Z</time></trkpt><trkpt lat="45.0490183" lon="10.6474233"><ele>20.666666666666668</ele><time>2026-04-11T07:56:52.724Z</time></trkpt><trkpt lat="45.0488533" lon="10.64747"><ele>21.0</ele><time>2026-04-11T07:56:53.725Z</time></trkpt><trkpt lat="45.0486867" lon="10.6475217"><ele>21.0</ele><time>2026-04-11T07:56:54.724Z</time></trkpt><trkpt lat="45.0485183" lon="10.6475683"><ele>21.0</ele><time>2026-04-11T07:56:55.725Z</time></trkpt><trkpt lat="45.04835" lon="10.6476133"><ele>21.0</ele><time>2026-04-11T07:56:56.724Z</time></trkpt><trkpt lat="45.0481867" lon="10.6476533"><ele>21.333333333333332</ele><time>2026-04-11T07:56:57.726Z</time></trkpt><trkpt lat="45.0480233" lon="10.647695"><ele>21.666666666666664</ele><time>2026-04-11T07:56:58.723Z</time></trkpt><trkpt lat="45.0478617" lon="10.64774"><ele>22.0</ele><time>2026-04-11T07:56:59.725Z</time></trkpt><trkpt lat="45.0476933" lon="10.6477867"><ele>21.333333333333332</ele><time>2026-04-11T07:57:00.725Z</time></trkpt><trkpt lat="45.0475233" lon="10.6478167"><ele>20.666666666666668</ele><time>2026-04-11T07:57:01.725Z</time></trkpt><trkpt lat="45.0473467" lon="10.6478367"><ele>20.0</ele><time>2026-04-11T07:57:02.724Z</time></trkpt><trkpt lat="45.0471683" lon="10.6478417"><ele>20.0</ele><time>2026-04-11T07:57:03.727Z</time></trkpt><trkpt lat="45.046985" lon="10.64783"><ele>20.0</ele><time>2026-04-11T07:57:04.725Z</time></trkpt><trkpt lat="45.0468017" lon="10.6478117"><ele>20.0</ele><time>2026-04-11T07:57:05.725Z</time></trkpt><trkpt lat="45.04662" lon="10.6477933"><ele>20.0</ele><time>2026-04-11T07:57:06.724Z</time></trkpt><trkpt lat="45.046445" lon="10.6477683"><ele>20.0</ele><time>2026-04-11T07:57:07.724Z</time></trkpt><trkpt lat="45.0462667" lon="10.6477517"><ele>20.0</ele><time>2026-04-11T07:57:08.724Z</time></trkpt><trkpt lat="45.0460883" lon="10.64774"><ele>20.0</ele><time>2026-04-11T07:57:09.725Z</time></trkpt><trkpt lat="45.0459117" lon="10.6477317"><ele>20.0</ele><time>2026-04-11T07:57:10.725Z</time></trkpt><trkpt lat="45.0457333" lon="10.6477217"><ele>20.0</ele><time>2026-04-11T07:57:11.725Z</time></trkpt><trkpt lat="45.045555" lon="10.6477117"><ele>20.0</ele><time>2026-04-11T07:57:12.725Z</time></trkpt><trkpt lat="45.0453783" lon="10.6477017"><ele>20.0</ele><time>2026-04-11T07:57:13.725Z</time></trkpt><trkpt lat="45.0452033" lon="10.64769"><ele>20.0</ele><time>2026-04-11T07:57:14.725Z</time></trkpt><trkpt lat="45.0450267" lon="10.6476767"><ele>19.666666666666668</ele><time>2026-04-11T07:57:15.726Z</time></trkpt><trkpt lat="45.04485" lon="10.6476667"><ele>19.333333333333332</ele><time>2026-04-11T07:57:16.724Z</time></trkpt><trkpt lat="45.0446733" lon="10.6476567"><ele>19.0</ele><time>2026-04-11T07:57:17.725Z</time></trkpt><trkpt lat="45.0444967" lon="10.647645"><ele>19.0</ele><time>2026-04-11T07:57:18.724Z</time></trkpt><trkpt lat="45.04432" lon="10.6476333"><ele>19.0</ele><time>2026-04-11T07:57:19.726Z</time></trkpt><trkpt lat="45.04414" lon="10.6476233"><ele>19.0</ele><time>2026-04-11T07:57:20.726Z</time></trkpt><trkpt lat="45.0439617" lon="10.6476117"><ele>19.333333333333332</ele><time>2026-04-11T07:57:21.726Z</time></trkpt><trkpt lat="45.0437833" lon="10.6475983"><ele>19.666666666666668</ele><time>2026-04-11T07:57:22.725Z</time></trkpt><trkpt lat="45.043605" lon="10.647585"><ele>20.0</ele><time>2026-04-11T07:57:23.724Z</time></trkpt><trkpt lat="45.0434267" lon="10.6475683"><ele>20.0</ele><time>2026-04-11T07:57:24.724Z</time></trkpt><trkpt lat="45.0432467" lon="10.6475517"><ele>20.0</ele><time>2026-04-11T07:57:25.724Z</time></trkpt><trkpt lat="45.04307" lon="10.6475383"><ele>20.0</ele><time>2026-04-11T07:57:26.724Z</time></trkpt><trkpt lat="45.0428967" lon="10.6475283"><ele>20.0</ele><time>2026-04-11T07:57:27.724Z</time></trkpt><trkpt lat="45.0427233" lon="10.6475233"><ele>20.0</ele><time>2026-04-11T07:57:28.724Z</time></trkpt><trkpt lat="45.0425517" lon="10.647515"><ele>20.0</ele><time>2026-04-11T07:57:29.725Z</time></trkpt><trkpt lat="45.042385" lon="10.647515"><ele>19.75</ele><time>2026-04-11T07:57:30.724Z</time></trkpt><trkpt lat="45.0422283" lon="10.647515"><ele>19.5</ele><time>2026-04-11T07:57:31.723Z</time></trkpt><trkpt lat="45.0420783" lon="10.6475233"><ele>19.25</ele><time>2026-04-11T07:57:32.724Z</time></trkpt><trkpt lat="45.0419383" lon="10.6475467"><ele>19.0</ele><time>2026-04-11T07:57:33.725Z</time></trkpt><trkpt lat="45.0418133" lon="10.6476017"><ele>19.0</ele><time>2026-04-11T07:57:34.723Z</time></trkpt><trkpt lat="45.041725" lon="10.647685"><ele>19.0</ele><time>2026-04-11T07:57:35.726Z</time></trkpt><trkpt lat="45.0416783" lon="10.647805"><ele>19.0</ele><time>2026-04-11T07:57:36.726Z</time></trkpt><trkpt lat="45.041655" lon="10.6479333"><ele>19.0</ele><time>2026-04-11T07:57:37.724Z</time></trkpt><trkpt lat="45.0416767" lon="10.6480833"><ele>19.0</ele><time>2026-04-11T07:57:38.724Z</time></trkpt><trkpt lat="45.0417183" lon="10.6482517"><ele>19.0</ele><time>2026-04-11T07:57:39.724Z</time></trkpt><trkpt lat="45.04177" lon="10.6484333"><ele>19.0</ele><time>2026-04-11T07:57:40.725Z</time></trkpt><trkpt lat="45.0418267" lon="10.6486133"><ele>19.0</ele><time>2026-04-11T07:57:41.726Z</time></trkpt><trkpt lat="45.041885" lon="10.6487767"><ele>19.0</ele><time>2026-04-11T07:57:42.724Z</time></trkpt><trkpt lat="45.041935" lon="10.64892"><ele>19.0</ele><time>2026-04-11T07:57:43.724Z</time></trkpt><trkpt lat="45.04196" lon="10.6490433"><ele>19.0</ele><time>2026-04-11T07:57:44.723Z</time></trkpt><trkpt lat="45.041965" lon="10.649155"><ele>19.0</ele><time>2026-04-11T07:57:45.726Z</time></trkpt><trkpt lat="45.041945" lon="10.6492683"><ele>19.0</ele><time>2026-04-11T07:57:46.724Z</time></trkpt><trkpt lat="45.0418967" lon="10.649375"><ele>19.0</ele><time>2026-04-11T07:57:47.724Z</time></trkpt><trkpt lat="45.0418167" lon="10.6494567"><ele>19.0</ele><time>2026-04-11T07:57:48.724Z</time></trkpt><trkpt lat="45.0416983" lon="10.6495"><ele>18.75</ele><time>2026-04-11T07:57:49.723Z</time></trkpt><trkpt lat="45.0415733" lon="10.64953"><ele>18.5</ele><time>2026-04-11T07:57:50.725Z</time></trkpt><trkpt lat="45.0414533" lon="10.6495733"><ele>18.25</ele><time>2026-04-11T07:57:51.724Z</time></trkpt><trkpt lat="45.0413567" lon="10.6496483"><ele>18.0</ele><time>2026-04-11T07:57:52.725Z</time></trkpt><trkpt lat="45.0412883" lon="10.64974"><ele>18.0</ele><time>2026-04-11T07:57:53.724Z</time></trkpt><trkpt lat="45.041235" lon="10.6498233"><ele>18.0</ele><time>2026-04-11T07:57:54.724Z</time></trkpt><trkpt lat="45.041195" lon="10.6499017"><ele>18.0</ele><time>2026-04-11T07:57:55.724Z</time></trkpt><trkpt lat="45.04116" lon="10.6499767"><ele>18.0</ele><time>2026-04-11T07:57:56.724Z</time></trkpt><trkpt lat="45.0411" lon="10.6501117"><ele>18.0</ele><time>2026-04-11T07:57:58.725Z</time></trkpt><trkpt lat="45.0410283" lon="10.6502433"><ele>18.0</ele><time>2026-04-11T07:58:00.725Z</time></trkpt><trkpt lat="45.0409467" lon="10.6503933"><ele>17.833333333333332</ele><time>2026-04-11T07:58:02.726Z</time></trkpt><trkpt lat="45.0409033" lon="10.65048"><ele>17.666666666666668</ele><time>2026-04-11T07:58:03.725Z</time></trkpt><trkpt lat="45.0408567" lon="10.6505717"><ele>17.5</ele><time>2026-04-11T07:58:04.724Z</time></trkpt><trkpt lat="45.0408083" lon="10.6506667"><ele>17.333333333333336</ele><time>2026-04-11T07:58:05.724Z</time></trkpt><trkpt lat="45.0407583" lon="10.6507617"><ele>17.166666666666668</ele><time>2026-04-11T07:58:06.725Z</time></trkpt><trkpt lat="45.0407083" lon="10.6508567"><ele>17.0</ele><time>2026-04-11T07:58:07.724Z</time></trkpt><trkpt lat="45.0406667" lon="10.6509467"><ele>17.5</ele><time>2026-04-11T07:58:08.726Z</time></trkpt><trkpt lat="45.0406333" lon="10.6510367"><ele>18.0</ele><time>2026-04-11T07:58:09.725Z</time></trkpt><trkpt lat="45.0405683" lon="10.6511817"><ele>18.5</ele><time>2026-04-11T07:58:11.724Z</time></trkpt><trkpt lat="45.0405317" lon="10.651255"><ele>19.0</ele><time>2026-04-11T07:58:12.726Z</time></trkpt><trkpt lat="45.0404717" lon="10.651375"><ele>19.5</ele><time>2026-04-11T07:58:14.724Z</time></trkpt><trkpt lat="45.04043" lon="10.65146"><ele>20.0</ele><time>2026-04-11T07:58:16.724Z</time></trkpt><trkpt lat="45.0404683" lon="10.6515433"><ele>20.333333333333336</ele><time>2026-04-11T07:58:19.726Z</time></trkpt><trkpt lat="45.0405517" lon="10.651485"><ele>20.666666666666668</ele><time>2026-04-11T07:58:21.725Z</time></trkpt><trkpt lat="45.0406333" lon="10.6514033"><ele>21.0</ele><time>2026-04-11T07:58:23.724Z</time></trkpt><trkpt lat="45.0407017" lon="10.65139"><ele>21.333333333333332</ele><time>2026-04-11T07:58:25.724Z</time></trkpt><trkpt lat="45.04077" lon="10.6514517"><ele>21.666666666666664</ele><time>2026-04-11T07:58:28.724Z</time></trkpt><trkpt lat="45.0408417" lon="10.6514583"><ele>22.0</ele><time>2026-04-11T08:04:44.724Z</time></trkpt><trkpt lat="45.040905" lon="10.65147"><ele>22.0</ele><time>2026-04-11T08:04:46.724Z</time></trkpt><trkpt lat="45.0409817" lon="10.6514983"><ele>22.0</ele><time>2026-04-11T08:04:48.723Z</time></trkpt><trkpt lat="45.04108" lon="10.6515467"><ele>22.0</ele><time>2026-04-11T08:04:50.725Z</time></trkpt><trkpt lat="45.04114" lon="10.65159"><ele>22.0</ele><time>2026-04-11T08:04:51.726Z</time></trkpt><trkpt lat="45.041205" lon="10.6516417"><ele>22.0</ele><time>2026-04-11T08:04:52.723Z</time></trkpt><trkpt lat="45.0412733" lon="10.651715"><ele>22.0</ele><time>2026-04-11T08:04:53.725Z</time></trkpt><trkpt lat="45.0413417" lon="10.651795"><ele>22.0</ele><time>2026-04-11T08:04:54.725Z</time></trkpt><trkpt lat="45.04141" lon="10.6518683"><ele>22.0</ele><time>2026-04-11T08:04:55.724Z</time></trkpt><trkpt lat="45.041475" lon="10.651935"><ele>22.0</ele><time>2026-04-11T08:04:56.724Z</time></trkpt><trkpt lat="45.0415383" lon="10.6519967"><ele>22.0</ele><time>2026-04-11T08:04:57.725Z</time></trkpt><trkpt lat="45.0416017" lon="10.6520617"><ele>22.0</ele><time>2026-04-11T08:04:58.723Z</time></trkpt><trkpt lat="45.0416633" lon="10.65214"><ele>22.0</ele><time>2026-04-11T08:04:59.723Z</time></trkpt><trkpt lat="45.0417233" lon="10.652215"><ele>22.333333333333332</ele><time>2026-04-11T08:05:00.724Z</time></trkpt><trkpt lat="45.0417833" lon="10.65229"><ele>22.666666666666664</ele><time>2026-04-11T08:05:01.724Z</time></trkpt><trkpt lat="45.041845" lon="10.6523733"><ele>23.0</ele><time>2026-04-11T08:05:02.724Z</time></trkpt><trkpt lat="45.0419133" lon="10.6524583"><ele>23.333333333333332</ele><time>2026-04-11T08:05:03.725Z</time></trkpt><trkpt lat="45.04198" lon="10.6525467"><ele>23.666666666666668</ele><time>2026-04-11T08:05:04.722Z</time></trkpt><trkpt lat="45.0420433" lon="10.6526383"><ele>24.0</ele><time>2026-04-11T08:05:05.724Z</time></trkpt><trkpt lat="45.0421017" lon="10.6527333"><ele>24.6</ele><time>2026-04-11T08:05:06.727Z</time></trkpt><trkpt lat="45.04216" lon="10.6528267"><ele>25.2</ele><time>2026-04-11T08:05:07.724Z</time></trkpt><trkpt lat="45.0422117" lon="10.6529217"><ele>25.800000000000004</ele><time>2026-04-11T08:05:08.724Z</time></trkpt><trkpt lat="45.042265" lon="10.6530267"><ele>26.400000000000002</ele><time>2026-04-11T08:05:09.726Z</time></trkpt><trkpt lat="45.04232" lon="10.653135"><ele>27.0</ele><time>2026-04-11T08:05:10.722Z</time></trkpt><trkpt lat="45.0423767" lon="10.6532433"><ele>27.0</ele><time>2026-04-11T08:05:11.724Z</time></trkpt><trkpt lat="45.0424267" lon="10.6533467"><ele>27.0</ele><time>2026-04-11T08:05:12.724Z</time></trkpt><trkpt lat="45.0424767" lon="10.6534517"><ele>27.0</ele><time>2026-04-11T08:05:13.724Z</time></trkpt><trkpt lat="45.0425333" lon="10.65356"><ele>27.0</ele><time>2026-04-11T08:05:14.724Z</time></trkpt><trkpt lat="45.0425933" lon="10.6536583"><ele>27.0</ele><time>2026-04-11T08:05:15.724Z</time></trkpt><trkpt lat="45.042645" lon="10.6537517"><ele>27.0</ele><time>2026-04-11T08:05:16.724Z</time></trkpt><trkpt lat="45.0426917" lon="10.653845"><ele>25.833333333333332</ele><time>2026-04-11T08:05:17.723Z</time></trkpt><trkpt lat="45.0427333" lon="10.6539467"><ele>24.666666666666668</ele><time>2026-04-11T08:05:18.724Z</time></trkpt><trkpt lat="45.04277" lon="10.6540567"><ele>23.5</ele><time>2026-04-11T08:05:19.724Z</time></trkpt><trkpt lat="45.0428117" lon="10.6541683"><ele>22.333333333333336</ele><time>2026-04-11T08:05:20.725Z</time></trkpt><trkpt lat="45.042855" lon="10.6542783"><ele>21.166666666666668</ele><time>2026-04-11T08:05:21.727Z</time></trkpt><trkpt lat="45.042905" lon="10.6543817"><ele>20.0</ele><time>2026-04-11T08:05:22.725Z</time></trkpt><trkpt lat="45.0429567" lon="10.6544833"><ele>19.8</ele><time>2026-04-11T08:05:23.724Z</time></trkpt><trkpt lat="45.0430067" lon="10.6545933"><ele>19.6</ele><time>2026-04-11T08:05:24.726Z</time></trkpt><trkpt lat="45.043055" lon="10.6547067"><ele>19.4</ele><time>2026-04-11T08:05:25.724Z</time></trkpt><trkpt lat="45.0431083" lon="10.6548183"><ele>19.2</ele><time>2026-04-11T08:05:26.724Z</time></trkpt><trkpt lat="45.0431567" lon="10.654935"><ele>19.0</ele><time>2026-04-11T08:05:27.724Z</time></trkpt><trkpt lat="45.0431983" lon="10.6550567"><ele>19.0</ele><time>2026-04-11T08:05:28.724Z</time></trkpt><trkpt lat="45.0432317" lon="10.655175"><ele>19.0</ele><time>2026-04-11T08:05:29.724Z</time></trkpt><trkpt lat="45.0432633" lon="10.65529"><ele>19.0</ele><time>2026-04-11T08:05:30.725Z</time></trkpt><trkpt lat="45.0432883" lon="10.6554067"><ele>19.0</ele><time>2026-04-11T08:05:31.724Z</time></trkpt><trkpt lat="45.0433133" lon="10.65551"><ele>19.0</ele><time>2026-04-11T08:05:32.724Z</time></trkpt><trkpt lat="45.043335" lon="10.6556083"><ele>19.0</ele><time>2026-04-11T08:05:33.724Z</time></trkpt><trkpt lat="45.04336" lon="10.655705"><ele>18.833333333333332</ele><time>2026-04-11T08:05:34.723Z</time></trkpt><trkpt lat="45.04338" lon="10.6558067"><ele>18.666666666666664</ele><time>2026-04-11T08:05:35.723Z</time></trkpt><trkpt lat="45.0434017" lon="10.6559117"><ele>18.5</ele><time>2026-04-11T08:05:36.725Z</time></trkpt><trkpt lat="45.043425" lon="10.6560217"><ele>18.333333333333332</ele><time>2026-04-11T08:05:37.724Z</time></trkpt><trkpt lat="45.0434533" lon="10.6561333"><ele>18.166666666666668</ele><time>2026-04-11T08:05:38.724Z</time></trkpt><trkpt lat="45.0434783" lon="10.65625"><ele>18.0</ele><time>2026-04-11T08:05:39.725Z</time></trkpt><trkpt lat="45.0435067" lon="10.6563683"><ele>18.0</ele><time>2026-04-11T08:05:40.724Z</time></trkpt><trkpt lat="45.0435317" lon="10.6564917"><ele>18.0</ele><time>2026-04-11T08:05:41.723Z</time></trkpt><trkpt lat="45.0435533" lon="10.656615"><ele>18.0</ele><time>2026-04-11T08:05:42.724Z</time></trkpt><trkpt lat="45.0435783" lon="10.6567383"><ele>18.0</ele><time>2026-04-11T08:05:43.722Z</time></trkpt><trkpt lat="45.0436" lon="10.6568617"><ele>18.0</ele><time>2026-04-11T08:05:44.723Z</time></trkpt><trkpt lat="45.0436167" lon="10.6569783"><ele>18.0</ele><time>2026-04-11T08:05:45.725Z</time></trkpt><trkpt lat="45.0436333" lon="10.657085"><ele>18.0</ele><time>2026-04-11T08:05:46.724Z</time></trkpt><trkpt lat="45.0436517" lon="10.6571833"><ele>18.0</ele><time>2026-04-11T08:05:47.723Z</time></trkpt><trkpt lat="45.0436683" lon="10.6572833"><ele>18.0</ele><time>2026-04-11T08:05:48.724Z</time></trkpt><trkpt lat="45.043685" lon="10.6573917"><ele>18.0</ele><time>2026-04-11T08:05:49.724Z</time></trkpt><trkpt lat="45.043705" lon="10.657515"><ele>18.0</ele><time>2026-04-11T08:05:50.725Z</time></trkpt><trkpt lat="45.0437283" lon="10.6576417"><ele>18.0</ele><time>2026-04-11T08:05:51.726Z</time></trkpt><trkpt lat="45.0437533" lon="10.6577633"><ele>18.166666666666668</ele><time>2026-04-11T08:05:52.724Z</time></trkpt><trkpt lat="45.0437717" lon="10.6578783"><ele>18.333333333333332</ele><time>2026-04-11T08:05:53.724Z</time></trkpt><trkpt lat="45.04379" lon="10.658"><ele>18.5</ele><time>2026-04-11T08:05:54.726Z</time></trkpt><trkpt lat="45.0438083" lon="10.6581233"><ele>18.666666666666664</ele><time>2026-04-11T08:05:55.724Z</time></trkpt><trkpt lat="45.0438217" lon="10.6582383"><ele>18.833333333333332</ele><time>2026-04-11T08:05:56.724Z</time></trkpt><trkpt lat="45.0438317" lon="10.6583517"><ele>19.0</ele><time>2026-04-11T08:05:57.723Z</time></trkpt><trkpt lat="45.0438383" lon="10.6584667"><ele>19.0</ele><time>2026-04-11T08:05:58.724Z</time></trkpt><trkpt lat="45.043845" lon="10.658575"><ele>19.0</ele><time>2026-04-11T08:05:59.724Z</time></trkpt><trkpt lat="45.0438433" lon="10.6586717"><ele>19.0</ele><time>2026-04-11T08:06:00.725Z</time></trkpt><trkpt lat="45.0438033" lon="10.658805"><ele>19.0</ele><time>2026-04-11T08:06:02.724Z</time></trkpt><trkpt lat="45.0437" lon="10.6588683"><ele>19.0</ele><time>2026-04-11T08:06:04.725Z</time></trkpt><trkpt lat="45.0436267" lon="10.6588667"><ele>19.0</ele><time>2026-04-11T08:06:05.724Z</time></trkpt><trkpt lat="45.043555" lon="10.6588533"><ele>19.0</ele><time>2026-04-11T08:06:06.724Z</time></trkpt><trkpt lat="45.0434833" lon="10.6588367"><ele>19.0</ele><time>2026-04-11T08:06:07.723Z</time></trkpt><trkpt lat="45.0434117" lon="10.6588217"><ele>19.0</ele><time>2026-04-11T08:06:08.724Z</time></trkpt><trkpt lat="45.0433333" lon="10.658815"><ele>19.0</ele><time>2026-04-11T08:06:09.724Z</time></trkpt><trkpt lat="45.0432517" lon="10.6588067"><ele>19.0</ele><time>2026-04-11T08:06:10.723Z</time></trkpt><trkpt lat="45.04317" lon="10.6587983"><ele>19.0</ele><time>2026-04-11T08:06:11.724Z</time></trkpt><trkpt lat="45.0430883" lon="10.6587883"><ele>19.0</ele><time>2026-04-11T08:06:12.724Z</time></trkpt><trkpt lat="45.0430033" lon="10.6587817"><ele>19.0</ele><time>2026-04-11T08:06:13.723Z</time></trkpt><trkpt lat="45.0429133" lon="10.658775"><ele>19.0</ele><time>2026-04-11T08:06:14.724Z</time></trkpt><trkpt lat="45.0428267" lon="10.65877"><ele>19.0</ele><time>2026-04-11T08:06:15.724Z</time></trkpt><trkpt lat="45.042745" lon="10.6587633"><ele>19.0</ele><time>2026-04-11T08:06:16.724Z</time></trkpt><trkpt lat="45.042665" lon="10.65876"><ele>19.0</ele><time>2026-04-11T08:06:17.724Z</time></trkpt><trkpt lat="45.0425833" lon="10.6587517"><ele>19.0</ele><time>2026-04-11T08:06:18.724Z</time></trkpt><trkpt lat="45.0425033" lon="10.6587433"><ele>19.0</ele><time>2026-04-11T08:06:19.723Z</time></trkpt><trkpt lat="45.04243" lon="10.6587383"><ele>19.0</ele><time>2026-04-11T08:06:20.724Z</time></trkpt><trkpt lat="45.0423583" lon="10.6587333"><ele>19.0</ele><time>2026-04-11T08:06:21.724Z</time></trkpt><trkpt lat="45.0422867" lon="10.6587267"><ele>19.0</ele><time>2026-04-11T08:06:22.724Z</time></trkpt><trkpt lat="45.0422033" lon="10.658725"><ele>19.0</ele><time>2026-04-11T08:06:23.724Z</time></trkpt><trkpt lat="45.0421083" lon="10.658725"><ele>19.166666666666664</ele><time>2026-04-11T08:06:24.725Z</time></trkpt><trkpt lat="45.0420133" lon="10.6587283"><ele>19.333333333333332</ele><time>2026-04-11T08:06:25.724Z</time></trkpt><trkpt lat="45.041925" lon="10.6587317"><ele>19.5</ele><time>2026-04-11T08:06:26.724Z</time></trkpt><trkpt lat="45.0418383" lon="10.6587367"><ele>19.666666666666668</ele><time>2026-04-11T08:06:27.724Z</time></trkpt><trkpt lat="45.04176" lon="10.658745"><ele>19.833333333333336</ele><time>2026-04-11T08:06:28.724Z</time></trkpt><trkpt lat="45.041685" lon="10.6587533"><ele>20.0</ele><time>2026-04-11T08:06:29.722Z</time></trkpt><trkpt lat="45.04161" lon="10.6587633"><ele>20.0</ele><time>2026-04-11T08:06:30.723Z</time></trkpt><trkpt lat="45.0415283" lon="10.658775"><ele>20.0</ele><time>2026-04-11T08:06:31.724Z</time></trkpt><trkpt lat="45.0414483" lon="10.65879"><ele>20.0</ele><time>2026-04-11T08:06:32.724Z</time></trkpt><trkpt lat="45.0413733" lon="10.6588017"><ele>20.0</ele><time>2026-04-11T08:06:33.724Z</time></trkpt><trkpt lat="45.0413017" lon="10.6588133"><ele>20.0</ele><time>2026-04-11T08:06:34.724Z</time></trkpt><trkpt lat="45.041235" lon="10.6588267"><ele>20.0</ele><time>2026-04-11T08:06:35.724Z</time></trkpt><trkpt lat="45.0411217" lon="10.65885"><ele>20.0</ele><time>2026-04-11T08:06:37.725Z</time></trkpt><trkpt lat="45.0410467" lon="10.65887"><ele>20.0</ele><time>2026-04-11T08:06:39.724Z</time></trkpt><trkpt lat="45.0409667" lon="10.6588833"><ele>20.0</ele><time>2026-04-11T08:06:42.724Z</time></trkpt><trkpt lat="45.0408933" lon="10.6588833"><ele>20.0</ele><time>2026-04-11T08:06:45.723Z</time></trkpt><trkpt lat="45.0408283" lon="10.6588983"><ele>20.0</ele><time>2026-04-11T08:06:48.724Z</time></trkpt><trkpt lat="45.040755" lon="10.6589533"><ele>20.0</ele><time>2026-04-11T08:07:06.724Z</time></trkpt><trkpt lat="45.0406883" lon="10.6589617"><ele>20.0</ele><time>2026-04-11T08:07:08.724Z</time></trkpt><trkpt lat="45.0405983" lon="10.6589883"><ele>19.833333333333336</ele><time>2026-04-11T08:07:10.724Z</time></trkpt><trkpt lat="45.040485" lon="10.6590317"><ele>19.666666666666668</ele><time>2026-04-11T08:07:12.723Z</time></trkpt><trkpt lat="45.04037" lon="10.6590683"><ele>19.5</ele><time>2026-04-11T08:07:14.723Z</time></trkpt><trkpt lat="45.040305" lon="10.659095"><ele>19.333333333333332</ele><time>2026-04-11T08:07:15.725Z</time></trkpt><trkpt lat="45.04024" lon="10.6591183"><ele>19.166666666666664</ele><time>2026-04-11T08:07:16.724Z</time></trkpt><trkpt lat="45.0401767" lon="10.65914"><ele>19.0</ele><time>2026-04-11T08:07:17.724Z</time></trkpt><trkpt lat="45.0401033" lon="10.6591683"><ele>19.0</ele><time>2026-04-11T08:07:18.723Z</time></trkpt><trkpt lat="45.04003" lon="10.6592"><ele>19.0</ele><time>2026-04-11T08:07:19.724Z</time></trkpt><trkpt lat="45.0399533" lon="10.6592333"><ele>19.0</ele><time>2026-04-11T08:07:20.724Z</time></trkpt><trkpt lat="45.0398767" lon="10.6592667"><ele>19.0</ele><time>2026-04-11T08:07:21.725Z</time></trkpt><trkpt lat="45.0398017" lon="10.6593"><ele>19.0</ele><time>2026-04-11T08:07:22.724Z</time></trkpt><trkpt lat="45.0397283" lon="10.6593333"><ele>19.0</ele><time>2026-04-11T08:07:23.724Z</time></trkpt><trkpt lat="45.0396567" lon="10.6593717"><ele>19.0</ele><time>2026-04-11T08:07:24.723Z</time></trkpt><trkpt lat="45.03959" lon="10.6594083"><ele>19.0</ele><time>2026-04-11T08:07:25.724Z</time></trkpt><trkpt lat="45.0395217" lon="10.6594483"><ele>19.0</ele><time>2026-04-11T08:07:26.724Z</time></trkpt><trkpt lat="45.039455" lon="10.659485"><ele>19.0</ele><time>2026-04-11T08:07:27.725Z</time></trkpt><trkpt lat="45.03939" lon="10.65952"><ele>19.0</ele><time>2026-04-11T08:07:28.723Z</time></trkpt><trkpt lat="45.03933" lon="10.6595583"><ele>19.0</ele><time>2026-04-11T08:07:29.724Z</time></trkpt><trkpt lat="45.0392667" lon="10.6596"><ele>19.0</ele><time>2026-04-11T08:07:30.723Z</time></trkpt><trkpt lat="45.0392033" lon="10.6596383"><ele>19.0</ele><time>2026-04-11T08:07:31.723Z</time></trkpt><trkpt lat="45.0391433" lon="10.65968"><ele>19.0</ele><time>2026-04-11T08:07:32.723Z</time></trkpt><trkpt lat="45.0390817" lon="10.65972"><ele>19.0</ele><time>2026-04-11T08:07:33.725Z</time></trkpt><trkpt lat="45.0390167" lon="10.6597633"><ele>19.0</ele><time>2026-04-11T08:07:34.723Z</time></trkpt><trkpt lat="45.0389067" lon="10.6598217"><ele>19.0</ele><time>2026-04-11T08:07:36.725Z</time></trkpt><trkpt lat="45.0388117" lon="10.6598717"><ele>19.0</ele><time>2026-04-11T08:07:38.725Z</time></trkpt><trkpt lat="45.038725" lon="10.6598917"><ele>19.799999999999997</ele><time>2026-04-11T08:07:40.725Z</time></trkpt><trkpt lat="45.0386367" lon="10.6599283"><ele>20.599999999999998</ele><time>2026-04-11T08:07:42.724Z</time></trkpt><trkpt lat="45.0385517" lon="10.6599933"><ele>21.4</ele><time>2026-04-11T08:07:44.724Z</time></trkpt><trkpt lat="45.0384707" lon="10.6600838"><ele>22.2</ele><time>2026-04-11T08:07:46.724Z</time></trkpt><trkpt lat="45.0383856" lon="10.6601626"><ele>23.0</ele><time>2026-04-11T08:07:48.723Z</time></trkpt><trkpt lat="45.0382816" lon="10.6602617"><ele>23.166666666666668</ele><time>2026-04-11T08:07:50.725Z</time></trkpt><trkpt lat="45.0382254" lon="10.6603151"><ele>23.333333333333336</ele><time>2026-04-11T08:07:51.725Z</time></trkpt><trkpt lat="45.0381711" lon="10.6603671"><ele>23.5</ele><time>2026-04-11T08:07:52.723Z</time></trkpt><trkpt lat="45.0381153" lon="10.6604207"><ele>23.666666666666668</ele><time>2026-04-11T08:07:53.724Z</time></trkpt><trkpt lat="45.0380615" lon="10.6604702"><ele>23.833333333333332</ele><time>2026-04-11T08:07:54.723Z</time></trkpt><trkpt lat="45.0380093" lon="10.66052"><ele>24.0</ele><time>2026-04-11T08:07:55.724Z</time></trkpt><trkpt lat="45.037907" lon="10.6606255"><ele>24.0</ele><time>2026-04-11T08:07:57.724Z</time></trkpt><trkpt lat="45.0378533" lon="10.6606782"><ele>24.0</ele><time>2026-04-11T08:07:58.725Z</time></trkpt><trkpt lat="45.0378015" lon="10.660733"><ele>24.0</ele><time>2026-04-11T08:07:59.725Z</time></trkpt><trkpt lat="45.0377088" lon="10.6608516"><ele>24.0</ele><time>2026-04-11T08:08:01.724Z</time></trkpt><trkpt lat="45.0376171" lon="10.6609588"><ele>24.0</ele><time>2026-04-11T08:08:03.724Z</time></trkpt><trkpt lat="45.0375675" lon="10.6610172"><ele>24.0</ele><time>2026-04-11T08:08:04.724Z</time></trkpt><trkpt lat="45.0375153" lon="10.6610692"><ele>24.0</ele><time>2026-04-11T08:08:05.724Z</time></trkpt><trkpt lat="45.0374237" lon="10.6611695"><ele>24.0</ele><time>2026-04-11T08:08:07.724Z</time></trkpt><trkpt lat="45.0373808" lon="10.6612375"><ele>24.0</ele><time>2026-04-11T08:08:08.725Z</time></trkpt><trkpt lat="45.0373288" lon="10.6613276"><ele>24.0</ele><time>2026-04-11T08:08:09.725Z</time></trkpt><trkpt lat="45.0372714" lon="10.6614215"><ele>24.0</ele><time>2026-04-11T08:08:10.723Z</time></trkpt><trkpt lat="45.0372143" lon="10.6615095"><ele>24.0</ele><time>2026-04-11T08:08:11.724Z</time></trkpt><trkpt lat="45.0371554" lon="10.6615866"><ele>24.0</ele><time>2026-04-11T08:08:12.723Z</time></trkpt><trkpt lat="45.0371055" lon="10.6616596"><ele>24.0</ele><time>2026-04-11T08:08:13.724Z</time></trkpt><trkpt lat="45.037057" lon="10.6617341"><ele>24.0</ele><time>2026-04-11T08:08:14.724Z</time></trkpt><trkpt lat="45.0370098" lon="10.6618043"><ele>24.0</ele><time>2026-04-11T08:08:15.725Z</time></trkpt><trkpt lat="45.0369656" lon="10.6618683"><ele>24.0</ele><time>2026-04-11T08:08:16.726Z</time></trkpt><trkpt lat="45.0368883" lon="10.6619918"><ele>24.0</ele><time>2026-04-11T08:08:18.725Z</time></trkpt><trkpt lat="45.0368172" lon="10.6621219"><ele>24.2</ele><time>2026-04-11T08:08:20.725Z</time></trkpt><trkpt lat="45.0367656" lon="10.6622613"><ele>24.4</ele><time>2026-04-11T08:08:22.723Z</time></trkpt><trkpt lat="45.0367029" lon="10.6624117"><ele>24.6</ele><time>2026-04-11T08:08:24.725Z</time></trkpt><trkpt lat="45.036662" lon="10.6624881"><ele>24.8</ele><time>2026-04-11T08:08:25.724Z</time></trkpt><trkpt lat="45.0366182" lon="10.6625697"><ele>25.0</ele><time>2026-04-11T08:08:26.723Z</time></trkpt><trkpt lat="45.0365714" lon="10.6626549"><ele>25.166666666666668</ele><time>2026-04-11T08:08:27.725Z</time></trkpt><trkpt lat="45.0365241" lon="10.6627429"><ele>25.333333333333336</ele><time>2026-04-11T08:08:28.724Z</time></trkpt><trkpt lat="45.0364799" lon="10.6628315"><ele>25.5</ele><time>2026-04-11T08:08:29.724Z</time></trkpt><trkpt lat="45.0364379" lon="10.6629189"><ele>25.666666666666664</ele><time>2026-04-11T08:08:30.724Z</time></trkpt><trkpt lat="45.0363927" lon="10.6630126"><ele>25.833333333333332</ele><time>2026-04-11T08:08:31.724Z</time></trkpt><trkpt lat="45.03635" lon="10.6631095"><ele>26.0</ele><time>2026-04-11T08:08:32.724Z</time></trkpt><trkpt lat="45.0363069" lon="10.6632103"><ele>26.166666666666664</ele><time>2026-04-11T08:08:33.726Z</time></trkpt><trkpt lat="45.036264" lon="10.6633093"><ele>26.333333333333332</ele><time>2026-04-11T08:08:34.725Z</time></trkpt><trkpt lat="45.0362248" lon="10.6634076"><ele>26.5</ele><time>2026-04-11T08:08:35.724Z</time></trkpt><trkpt lat="45.0361832" lon="10.6635066"><ele>26.666666666666664</ele><time>2026-04-11T08:08:36.723Z</time></trkpt><trkpt lat="45.0361453" lon="10.6636012"><ele>26.833333333333332</ele><time>2026-04-11T08:08:37.724Z</time></trkpt><trkpt lat="45.0361099" lon="10.6636976"><ele>27.0</ele><time>2026-04-11T08:08:38.724Z</time></trkpt><trkpt lat="45.0360722" lon="10.6637976"><ele>26.666666666666668</ele><time>2026-04-11T08:08:39.726Z</time></trkpt><trkpt lat="45.0360339" lon="10.6638968"><ele>26.333333333333336</ele><time>2026-04-11T08:08:40.725Z</time></trkpt><trkpt lat="45.0359983" lon="10.6639944"><ele>26.0</ele><time>2026-04-11T08:08:41.725Z</time></trkpt><trkpt lat="45.035963" lon="10.6640939"><ele>25.666666666666668</ele><time>2026-04-11T08:08:42.724Z</time></trkpt><trkpt lat="45.0359297" lon="10.6641925"><ele>25.333333333333336</ele><time>2026-04-11T08:08:43.724Z</time></trkpt><trkpt lat="45.0358981" lon="10.6642893"><ele>25.0</ele><time>2026-04-11T08:08:44.726Z</time></trkpt><trkpt lat="45.0358649" lon="10.6643886"><ele>25.333333333333336</ele><time>2026-04-11T08:08:45.727Z</time></trkpt><trkpt lat="45.0358359" lon="10.6644828"><ele>25.666666666666668</ele><time>2026-04-11T08:08:46.724Z</time></trkpt><trkpt lat="45.0358121" lon="10.6645715"><ele>26.0</ele><time>2026-04-11T08:08:47.724Z</time></trkpt><trkpt lat="45.0357877" lon="10.6646607"><ele>26.333333333333336</ele><time>2026-04-11T08:08:48.725Z</time></trkpt><trkpt lat="45.0357617" lon="10.6647446"><ele>26.666666666666668</ele><time>2026-04-11T08:08:49.724Z</time></trkpt><trkpt lat="45.035714" lon="10.6648905"><ele>27.0</ele><time>2026-04-11T08:08:51.726Z</time></trkpt><trkpt lat="45.0357083" lon="10.66502"><ele>27.0</ele><time>2026-04-11T08:08:53.724Z</time></trkpt><trkpt lat="45.0357383" lon="10.665145"><ele>27.000000000000004</ele><time>2026-04-11T08:08:55.724Z</time></trkpt><trkpt lat="45.0357883" lon="10.665315"><ele>27.000000000000004</ele><time>2026-04-11T08:08:57.724Z</time></trkpt><trkpt lat="45.03583" lon="10.6654117"><ele>27.0</ele><time>2026-04-11T08:08:58.723Z</time></trkpt><trkpt lat="45.0358717" lon="10.6655133"><ele>27.0</ele><time>2026-04-11T08:08:59.722Z</time></trkpt><trkpt lat="45.0359067" lon="10.66561"><ele>26.833333333333332</ele><time>2026-04-11T08:09:00.723Z</time></trkpt><trkpt lat="45.03594" lon="10.6656933"><ele>26.666666666666664</ele><time>2026-04-11T08:09:01.724Z</time></trkpt><trkpt lat="45.0359783" lon="10.665835"><ele>26.5</ele><time>2026-04-11T08:09:03.724Z</time></trkpt><trkpt lat="45.0359433" lon="10.66594"><ele>26.333333333333332</ele><time>2026-04-11T08:09:05.724Z</time></trkpt><trkpt lat="45.035845" lon="10.66598"><ele>26.166666666666664</ele><time>2026-04-11T08:09:07.724Z</time></trkpt><trkpt lat="45.03576" lon="10.6660017"><ele>26.0</ele><time>2026-04-11T08:09:08.726Z</time></trkpt><trkpt lat="45.03566" lon="10.6660367"><ele>25.8</ele><time>2026-04-11T08:09:09.726Z</time></trkpt><trkpt lat="45.0355533" lon="10.6660833"><ele>25.6</ele><time>2026-04-11T08:09:10.724Z</time></trkpt><trkpt lat="45.0354467" lon="10.6661283"><ele>25.4</ele><time>2026-04-11T08:09:11.723Z</time></trkpt><trkpt lat="45.0353383" lon="10.6661717"><ele>25.2</ele><time>2026-04-11T08:09:12.724Z</time></trkpt><trkpt lat="45.0352333" lon="10.6662117"><ele>25.0</ele><time>2026-04-11T08:09:13.724Z</time></trkpt><trkpt lat="45.0351383" lon="10.666245"><ele>23.666666666666668</ele><time>2026-04-11T08:09:14.724Z</time></trkpt><trkpt lat="45.0350567" lon="10.6662683"><ele>22.333333333333336</ele><time>2026-04-11T08:09:15.723Z</time></trkpt><trkpt lat="45.034985" lon="10.6662883"><ele>21.0</ele><time>2026-04-11T08:09:16.724Z</time></trkpt><trkpt lat="45.034915" lon="10.6663067"><ele>19.666666666666668</ele><time>2026-04-11T08:09:17.723Z</time></trkpt><trkpt lat="45.0348417" lon="10.66633"><ele>18.333333333333336</ele><time>2026-04-11T08:09:18.723Z</time></trkpt><trkpt lat="45.034765" lon="10.66636"><ele>17.0</ele><time>2026-04-11T08:09:19.724Z</time></trkpt><trkpt lat="45.0346883" lon="10.6663933"><ele>17.0</ele><time>2026-04-11T08:09:20.724Z</time></trkpt><trkpt lat="45.03461" lon="10.66642"><ele>17.0</ele><time>2026-04-11T08:09:21.724Z</time></trkpt><trkpt lat="45.0345317" lon="10.6664467"><ele>17.0</ele><time>2026-04-11T08:09:22.725Z</time></trkpt><trkpt lat="45.0344533" lon="10.6664833"><ele>17.0</ele><time>2026-04-11T08:09:23.723Z</time></trkpt><trkpt lat="45.0343767" lon="10.6665167"><ele>17.0</ele><time>2026-04-11T08:09:24.724Z</time></trkpt><trkpt lat="45.0343033" lon="10.6665517"><ele>17.0</ele><time>2026-04-11T08:09:25.723Z</time></trkpt><trkpt lat="45.0342333" lon="10.6665883"><ele>16.999999999999996</ele><time>2026-04-11T08:09:26.724Z</time></trkpt><trkpt lat="45.0341683" lon="10.66663"><ele>17.0</ele><time>2026-04-11T08:09:27.723Z</time></trkpt><trkpt lat="45.0341067" lon="10.6666683"><ele>17.0</ele><time>2026-04-11T08:09:28.724Z</time></trkpt><trkpt lat="45.0340417" lon="10.6667117"><ele>17.0</ele><time>2026-04-11T08:09:29.722Z</time></trkpt><trkpt lat="45.0339733" lon="10.6667567"><ele>17.0</ele><time>2026-04-11T08:09:30.724Z</time></trkpt><trkpt lat="45.0339067" lon="10.6668017"><ele>16.999999999999996</ele><time>2026-04-11T08:09:31.724Z</time></trkpt><trkpt lat="45.0338367" lon="10.666845"><ele>17.0</ele><time>2026-04-11T08:09:32.724Z</time></trkpt><trkpt lat="45.0337667" lon="10.6668917"><ele>17.166666666666668</ele><time>2026-04-11T08:09:33.724Z</time></trkpt><trkpt lat="45.0336917" lon="10.66695"><ele>17.333333333333336</ele><time>2026-04-11T08:09:34.724Z</time></trkpt><trkpt lat="45.0336283" lon="10.667"><ele>17.5</ele><time>2026-04-11T08:09:35.724Z</time></trkpt><trkpt lat="45.0335583" lon="10.6670583"><ele>17.666666666666668</ele><time>2026-04-11T08:09:36.724Z</time></trkpt><trkpt lat="45.0334917" lon="10.667095"><ele>17.833333333333332</ele><time>2026-04-11T08:09:37.723Z</time></trkpt><trkpt lat="45.0334217" lon="10.6671467"><ele>18.0</ele><time>2026-04-11T08:09:38.724Z</time></trkpt><trkpt lat="45.0333467" lon="10.6672"><ele>18.6</ele><time>2026-04-11T08:09:39.723Z</time></trkpt><trkpt lat="45.0332683" lon="10.6672617"><ele>19.200000000000003</ele><time>2026-04-11T08:09:40.724Z</time></trkpt><trkpt lat="45.033185" lon="10.6673183"><ele>19.8</ele><time>2026-04-11T08:09:41.724Z</time></trkpt><trkpt lat="45.0331017" lon="10.6673783"><ele>20.400000000000002</ele><time>2026-04-11T08:09:42.723Z</time></trkpt><trkpt lat="45.0330083" lon="10.6674417"><ele>21.0</ele><time>2026-04-11T08:09:43.723Z</time></trkpt><trkpt lat="45.03292" lon="10.6675033"><ele>21.0</ele><time>2026-04-11T08:09:44.724Z</time></trkpt><trkpt lat="45.0328367" lon="10.66756"><ele>21.0</ele><time>2026-04-11T08:09:45.724Z</time></trkpt><trkpt lat="45.0327567" lon="10.6676117"><ele>21.0</ele><time>2026-04-11T08:09:46.725Z</time></trkpt><trkpt lat="45.0326817" lon="10.6676633"><ele>21.0</ele><time>2026-04-11T08:09:47.723Z</time></trkpt><trkpt lat="45.0325983" lon="10.6677217"><ele>21.0</ele><time>2026-04-11T08:09:48.724Z</time></trkpt><trkpt lat="45.03251" lon="10.6677867"><ele>20.8</ele><time>2026-04-11T08:09:49.723Z</time></trkpt><trkpt lat="45.0324233" lon="10.667865"><ele>20.6</ele><time>2026-04-11T08:09:50.724Z</time></trkpt><trkpt lat="45.0323283" lon="10.6679567"><ele>20.4</ele><time>2026-04-11T08:09:51.724Z</time></trkpt><trkpt lat="45.032235" lon="10.6680417"><ele>20.2</ele><time>2026-04-11T08:09:52.724Z</time></trkpt><trkpt lat="45.0321433" lon="10.66813"><ele>20.0</ele><time>2026-04-11T08:09:53.723Z</time></trkpt><trkpt lat="45.03205" lon="10.6682183"><ele>20.0</ele><time>2026-04-11T08:09:54.724Z</time></trkpt><trkpt lat="45.0319533" lon="10.6683083"><ele>20.0</ele><time>2026-04-11T08:09:55.723Z</time></trkpt><trkpt lat="45.0318583" lon="10.6684033"><ele>20.0</ele><time>2026-04-11T08:09:56.724Z</time></trkpt><trkpt lat="45.03177" lon="10.668485"><ele>20.0</ele><time>2026-04-11T08:09:57.724Z</time></trkpt><trkpt lat="45.03168" lon="10.6685783"><ele>20.0</ele><time>2026-04-11T08:09:58.723Z</time></trkpt><trkpt lat="45.0315967" lon="10.668665"><ele>20.0</ele><time>2026-04-11T08:09:59.723Z</time></trkpt><trkpt lat="45.0315167" lon="10.6687517"><ele>20.0</ele><time>2026-04-11T08:10:00.724Z</time></trkpt><trkpt lat="45.031435" lon="10.6688433"><ele>20.0</ele><time>2026-04-11T08:10:01.724Z</time></trkpt><trkpt lat="45.0313583" lon="10.6689333"><ele>20.0</ele><time>2026-04-11T08:10:02.724Z</time></trkpt><trkpt lat="45.031275" lon="10.6690267"><ele>20.0</ele><time>2026-04-11T08:10:03.724Z</time></trkpt><trkpt lat="45.0311983" lon="10.669115"><ele>20.0</ele><time>2026-04-11T08:10:04.724Z</time></trkpt><trkpt lat="45.03112" lon="10.6692033"><ele>20.0</ele><time>2026-04-11T08:10:05.723Z</time></trkpt><trkpt lat="45.0310417" lon="10.6692883"><ele>20.0</ele><time>2026-04-11T08:10:06.724Z</time></trkpt><trkpt lat="45.030965" lon="10.669375"><ele>20.0</ele><time>2026-04-11T08:10:07.724Z</time></trkpt><trkpt lat="45.0308867" lon="10.6694617"><ele>20.0</ele><time>2026-04-11T08:10:08.725Z</time></trkpt><trkpt lat="45.03081" lon="10.6695517"><ele>19.8</ele><time>2026-04-11T08:10:09.725Z</time></trkpt><trkpt lat="45.03073" lon="10.6696383"><ele>19.6</ele><time>2026-04-11T08:10:10.725Z</time></trkpt><trkpt lat="45.03065" lon="10.6697217"><ele>19.4</ele><time>2026-04-11T08:10:11.726Z</time></trkpt><trkpt lat="45.03057" lon="10.6698067"><ele>19.2</ele><time>2026-04-11T08:10:12.725Z</time></trkpt><trkpt lat="45.03049" lon="10.6698917"><ele>19.0</ele><time>2026-04-11T08:10:13.722Z</time></trkpt><trkpt lat="45.030415" lon="10.669975"><ele>19.0</ele><time>2026-04-11T08:10:14.724Z</time></trkpt><trkpt lat="45.03034" lon="10.670055"><ele>19.0</ele><time>2026-04-11T08:10:15.724Z</time></trkpt><trkpt lat="45.0302717" lon="10.670135"><ele>19.0</ele><time>2026-04-11T08:10:16.723Z</time></trkpt><trkpt lat="45.030205" lon="10.6702133"><ele>19.0</ele><time>2026-04-11T08:10:17.723Z</time></trkpt><trkpt lat="45.03014" lon="10.67029"><ele>19.0</ele><time>2026-04-11T08:10:18.725Z</time></trkpt><trkpt lat="45.0300767" lon="10.6703667"><ele>19.0</ele><time>2026-04-11T08:10:19.725Z</time></trkpt><trkpt lat="45.030015" lon="10.6704317"><ele>19.0</ele><time>2026-04-11T08:10:20.725Z</time></trkpt><trkpt lat="45.0299567" lon="10.6704817"><ele>19.0</ele><time>2026-04-11T08:10:21.724Z</time></trkpt><trkpt lat="45.0298467" lon="10.670535"><ele>19.0</ele><time>2026-04-11T08:10:23.723Z</time></trkpt><trkpt lat="45.02972" lon="10.67055"><ele>19.0</ele><time>2026-04-11T08:10:25.722Z</time></trkpt><trkpt lat="45.0296483" lon="10.6705533"><ele>19.0</ele><time>2026-04-11T08:10:26.724Z</time></trkpt><trkpt lat="45.0295783" lon="10.6705567"><ele>19.0</ele><time>2026-04-11T08:10:27.723Z</time></trkpt><trkpt lat="45.0295133" lon="10.6705733"><ele>19.0</ele><time>2026-04-11T08:10:28.724Z</time></trkpt><trkpt lat="45.029445" lon="10.670605"><ele>19.0</ele><time>2026-04-11T08:10:29.724Z</time></trkpt><trkpt lat="45.0293733" lon="10.6706583"><ele>19.0</ele><time>2026-04-11T08:10:30.723Z</time></trkpt><trkpt lat="45.0293033" lon="10.670705"><ele>19.0</ele><time>2026-04-11T08:10:31.724Z</time></trkpt><trkpt lat="45.0292317" lon="10.6707417"><ele>19.0</ele><time>2026-04-11T08:10:32.724Z</time></trkpt><trkpt lat="45.029155" lon="10.6707717"><ele>19.2</ele><time>2026-04-11T08:10:33.724Z</time></trkpt><trkpt lat="45.02907" lon="10.6708033"><ele>19.4</ele><time>2026-04-11T08:10:34.724Z</time></trkpt><trkpt lat="45.0289821" lon="10.6708297"><ele>19.6</ele><time>2026-04-11T08:10:35.725Z</time></trkpt><trkpt lat="45.0288923" lon="10.6708541"><ele>19.8</ele><time>2026-04-11T08:10:36.725Z</time></trkpt><trkpt lat="45.0287991" lon="10.6708875"><ele>20.0</ele><time>2026-04-11T08:10:37.725Z</time></trkpt><trkpt lat="45.0287037" lon="10.6709315"><ele>20.0</ele><time>2026-04-11T08:10:38.725Z</time></trkpt><trkpt lat="45.0286085" lon="10.6709753"><ele>20.0</ele><time>2026-04-11T08:10:39.725Z</time></trkpt><trkpt lat="45.0285136" lon="10.6710144"><ele>20.0</ele><time>2026-04-11T08:10:40.725Z</time></trkpt><trkpt lat="45.0284212" lon="10.6710446"><ele>20.0</ele><time>2026-04-11T08:10:41.725Z</time></trkpt><trkpt lat="45.0283366" lon="10.6710676"><ele>20.0</ele><time>2026-04-11T08:10:42.724Z</time></trkpt><trkpt lat="45.0282548" lon="10.6710834"><ele>19.833333333333336</ele><time>2026-04-11T08:10:43.723Z</time></trkpt><trkpt lat="45.0281718" lon="10.6710995"><ele>19.666666666666668</ele><time>2026-04-11T08:10:44.723Z</time></trkpt><trkpt lat="45.0280873" lon="10.6711169"><ele>19.5</ele><time>2026-04-11T08:10:45.724Z</time></trkpt><trkpt lat="45.0280023" lon="10.6711406"><ele>19.333333333333332</ele><time>2026-04-11T08:10:46.724Z</time></trkpt><trkpt lat="45.0279224" lon="10.6711669"><ele>19.166666666666664</ele><time>2026-04-11T08:10:47.723Z</time></trkpt><trkpt lat="45.0278486" lon="10.6711995"><ele>19.0</ele><time>2026-04-11T08:10:48.723Z</time></trkpt><trkpt lat="45.027772" lon="10.6712424"><ele>19.0</ele><time>2026-04-11T08:10:49.724Z</time></trkpt><trkpt lat="45.0276907" lon="10.6713011"><ele>19.0</ele><time>2026-04-11T08:10:50.724Z</time></trkpt><trkpt lat="45.0276102" lon="10.6713685"><ele>19.0</ele><time>2026-04-11T08:10:51.725Z</time></trkpt><trkpt lat="45.0275264" lon="10.6714412"><ele>19.0</ele><time>2026-04-11T08:10:52.725Z</time></trkpt><trkpt lat="45.0274403" lon="10.6715202"><ele>19.0</ele><time>2026-04-11T08:10:53.724Z</time></trkpt><trkpt lat="45.0273571" lon="10.6715991"><ele>19.0</ele><time>2026-04-11T08:10:54.725Z</time></trkpt><trkpt lat="45.0272741" lon="10.6716681"><ele>19.0</ele><time>2026-04-11T08:10:55.725Z</time></trkpt><trkpt lat="45.0271867" lon="10.6717343"><ele>19.0</ele><time>2026-04-11T08:10:56.724Z</time></trkpt><trkpt lat="45.0271007" lon="10.6718101"><ele>19.0</ele><time>2026-04-11T08:10:57.724Z</time></trkpt><trkpt lat="45.0270221" lon="10.6718878"><ele>19.0</ele><time>2026-04-11T08:10:58.724Z</time></trkpt><trkpt lat="45.0269545" lon="10.6719597"><ele>19.0</ele><time>2026-04-11T08:10:59.726Z</time></trkpt><trkpt lat="45.0268914" lon="10.6720301"><ele>19.0</ele><time>2026-04-11T08:11:00.724Z</time></trkpt><trkpt lat="45.0268276" lon="10.672094"><ele>19.0</ele><time>2026-04-11T08:11:01.723Z</time></trkpt><trkpt lat="45.0267638" lon="10.6721489"><ele>19.0</ele><time>2026-04-11T08:11:02.723Z</time></trkpt><trkpt lat="45.0266971" lon="10.6721914"><ele>19.0</ele><time>2026-04-11T08:11:03.724Z</time></trkpt><trkpt lat="45.0266286" lon="10.6722194"><ele>19.0</ele><time>2026-04-11T08:11:04.724Z</time></trkpt><trkpt lat="45.0265555" lon="10.672234"><ele>18.833333333333332</ele><time>2026-04-11T08:11:05.723Z</time></trkpt><trkpt lat="45.0264771" lon="10.6722272"><ele>18.666666666666664</ele><time>2026-04-11T08:11:06.723Z</time></trkpt><trkpt lat="45.0263936" lon="10.6722085"><ele>18.5</ele><time>2026-04-11T08:11:07.724Z</time></trkpt><trkpt lat="45.0263085" lon="10.6721789"><ele>18.333333333333332</ele><time>2026-04-11T08:11:08.724Z</time></trkpt><trkpt lat="45.0262206" lon="10.6721391"><ele>18.166666666666668</ele><time>2026-04-11T08:11:09.724Z</time></trkpt><trkpt lat="45.0261292" lon="10.6720993"><ele>18.0</ele><time>2026-04-11T08:11:10.724Z</time></trkpt><trkpt lat="45.0260381" lon="10.6720637"><ele>18.0</ele><time>2026-04-11T08:11:11.724Z</time></trkpt><trkpt lat="45.0259545" lon="10.6720325"><ele>18.0</ele><time>2026-04-11T08:11:12.724Z</time></trkpt><trkpt lat="45.0258742" lon="10.6720108"><ele>18.0</ele><time>2026-04-11T08:11:13.723Z</time></trkpt><trkpt lat="45.0257918" lon="10.6720025"><ele>18.0</ele><time>2026-04-11T08:11:14.724Z</time></trkpt><trkpt lat="45.0257075" lon="10.6720068"><ele>18.0</ele><time>2026-04-11T08:11:15.724Z</time></trkpt><trkpt lat="45.0256227" lon="10.6720244"><ele>18.0</ele><time>2026-04-11T08:11:16.724Z</time></trkpt><trkpt lat="45.0255337" lon="10.6720562"><ele>18.166666666666668</ele><time>2026-04-11T08:11:17.723Z</time></trkpt><trkpt lat="45.0254474" lon="10.6720942"><ele>18.333333333333332</ele><time>2026-04-11T08:11:18.725Z</time></trkpt><trkpt lat="45.0253621" lon="10.6721323"><ele>18.5</ele><time>2026-04-11T08:11:19.724Z</time></trkpt><trkpt lat="45.0252794" lon="10.6721729"><ele>18.666666666666664</ele><time>2026-04-11T08:11:20.725Z</time></trkpt><trkpt lat="45.025198" lon="10.6722136"><ele>18.833333333333332</ele><time>2026-04-11T08:11:21.725Z</time></trkpt><trkpt lat="45.0251194" lon="10.6722556"><ele>19.0</ele><time>2026-04-11T08:11:22.725Z</time></trkpt><trkpt lat="45.0250424" lon="10.6723009"><ele>19.333333333333332</ele><time>2026-04-11T08:11:23.725Z</time></trkpt><trkpt lat="45.024966" lon="10.6723546"><ele>19.666666666666664</ele><time>2026-04-11T08:11:24.724Z</time></trkpt><trkpt lat="45.0248898" lon="10.6724078"><ele>20.0</ele><time>2026-04-11T08:11:25.725Z</time></trkpt><trkpt lat="45.0248121" lon="10.6724617"><ele>20.333333333333332</ele><time>2026-04-11T08:11:26.723Z</time></trkpt><trkpt lat="45.0247325" lon="10.6725207"><ele>20.666666666666668</ele><time>2026-04-11T08:11:27.725Z</time></trkpt><trkpt lat="45.0246562" lon="10.6725816"><ele>21.0</ele><time>2026-04-11T08:11:28.723Z</time></trkpt><trkpt lat="45.0245824" lon="10.6726543"><ele>21.0</ele><time>2026-04-11T08:11:29.724Z</time></trkpt><trkpt lat="45.0245132" lon="10.672739"><ele>21.0</ele><time>2026-04-11T08:11:30.725Z</time></trkpt><trkpt lat="45.0244489" lon="10.6728301"><ele>21.0</ele><time>2026-04-11T08:11:31.724Z</time></trkpt><trkpt lat="45.0243813" lon="10.6729333"><ele>21.0</ele><time>2026-04-11T08:11:32.726Z</time></trkpt><trkpt lat="45.0243234" lon="10.6730268"><ele>21.0</ele><time>2026-04-11T08:11:33.725Z</time></trkpt><trkpt lat="45.0242734" lon="10.6731161"><ele>20.833333333333332</ele><time>2026-04-11T08:11:34.723Z</time></trkpt><trkpt lat="45.0242276" lon="10.673197"><ele>20.666666666666668</ele><time>2026-04-11T08:11:35.725Z</time></trkpt><trkpt lat="45.0241792" lon="10.6732676"><ele>20.5</ele><time>2026-04-11T08:11:36.723Z</time></trkpt><trkpt lat="45.0241224" lon="10.6733306"><ele>20.333333333333336</ele><time>2026-04-11T08:11:37.724Z</time></trkpt><trkpt lat="45.0240519" lon="10.6733876"><ele>20.166666666666668</ele><time>2026-04-11T08:11:38.723Z</time></trkpt><trkpt lat="45.0239628" lon="10.6734269"><ele>20.0</ele><time>2026-04-11T08:11:39.725Z</time></trkpt><trkpt lat="45.0238749" lon="10.6734523"><ele>20.0</ele><time>2026-04-11T08:11:40.724Z</time></trkpt><trkpt lat="45.0237927" lon="10.6734749"><ele>20.0</ele><time>2026-04-11T08:11:41.726Z</time></trkpt><trkpt lat="45.0237175" lon="10.6734966"><ele>20.0</ele><time>2026-04-11T08:11:42.723Z</time></trkpt><trkpt lat="45.0236466" lon="10.6735149"><ele>20.0</ele><time>2026-04-11T08:11:43.724Z</time></trkpt><trkpt lat="45.0235797" lon="10.6735254"><ele>20.0</ele><time>2026-04-11T08:11:44.723Z</time></trkpt><trkpt lat="45.0235161" lon="10.673528"><ele>20.0</ele><time>2026-04-11T08:11:45.725Z</time></trkpt><trkpt lat="45.0234504" lon="10.6735177"><ele>20.0</ele><time>2026-04-11T08:11:46.723Z</time></trkpt><trkpt lat="45.0233864" lon="10.6734916"><ele>20.0</ele><time>2026-04-11T08:11:47.724Z</time></trkpt><trkpt lat="45.0233244" lon="10.6734591"><ele>20.0</ele><time>2026-04-11T08:11:48.724Z</time></trkpt><trkpt lat="45.023209" lon="10.6734178"><ele>20.0</ele><time>2026-04-11T08:11:50.723Z</time></trkpt><trkpt lat="45.0230838" lon="10.6734295"><ele>20.0</ele><time>2026-04-11T08:11:52.723Z</time></trkpt><trkpt lat="45.0229727" lon="10.6734623"><ele>20.0</ele><time>2026-04-11T08:11:54.727Z</time></trkpt><trkpt lat="45.0228919" lon="10.6734951"><ele>20.0</ele><time>2026-04-11T08:11:56.723Z</time></trkpt><trkpt lat="45.0228183" lon="10.6734967"><ele>20.0</ele><time>2026-04-11T08:12:07.723Z</time></trkpt><trkpt lat="45.0227283" lon="10.673495"><ele>20.0</ele><time>2026-04-11T08:12:09.724Z</time></trkpt><trkpt lat="45.0226367" lon="10.6735033"><ele>20.0</ele><time>2026-04-11T08:12:11.724Z</time></trkpt><trkpt lat="45.0225733" lon="10.6735033"><ele>20.0</ele><time>2026-04-11T08:12:13.723Z</time></trkpt><trkpt lat="45.0225083" lon="10.6735117"><ele>20.0</ele><time>2026-04-11T08:12:17.724Z</time></trkpt><trkpt lat="45.0224283" lon="10.6735083"><ele>19.833333333333336</ele><time>2026-04-11T08:12:21.725Z</time></trkpt><trkpt lat="45.022355" lon="10.6735033"><ele>19.666666666666668</ele><time>2026-04-11T08:12:23.724Z</time></trkpt><trkpt lat="45.022275" lon="10.6735067"><ele>19.5</ele><time>2026-04-11T08:12:25.724Z</time></trkpt><trkpt lat="45.0222" lon="10.6734983"><ele>19.333333333333332</ele><time>2026-04-11T08:12:27.724Z</time></trkpt><trkpt lat="45.022125" lon="10.6734667"><ele>19.166666666666664</ele><time>2026-04-11T08:12:29.724Z</time></trkpt><trkpt lat="45.022045" lon="10.6734633"><ele>19.0</ele><time>2026-04-11T08:12:31.724Z</time></trkpt><trkpt lat="45.0219533" lon="10.673495"><ele>19.0</ele><time>2026-04-11T08:12:33.725Z</time></trkpt><trkpt lat="45.021855" lon="10.6735217"><ele>19.0</ele><time>2026-04-11T08:12:35.723Z</time></trkpt><trkpt lat="45.0217533" lon="10.673535"><ele>19.0</ele><time>2026-04-11T08:12:37.724Z</time></trkpt><trkpt lat="45.02166" lon="10.6735283"><ele>19.0</ele><time>2026-04-11T08:12:39.725Z</time></trkpt><trkpt lat="45.0215683" lon="10.67352"><ele>19.0</ele><time>2026-04-11T08:12:41.724Z</time></trkpt><trkpt lat="45.0214783" lon="10.6735117"><ele>19.4</ele><time>2026-04-11T08:12:43.724Z</time></trkpt><trkpt lat="45.0213933" lon="10.6735017"><ele>19.799999999999997</ele><time>2026-04-11T08:12:45.724Z</time></trkpt><trkpt lat="45.0212967" lon="10.6735117"><ele>20.200000000000003</ele><time>2026-04-11T08:12:47.724Z</time></trkpt><trkpt lat="45.0212" lon="10.6735267"><ele>20.6</ele><time>2026-04-11T08:12:49.722Z</time></trkpt><trkpt lat="45.0211" lon="10.6735217"><ele>21.0</ele><time>2026-04-11T08:12:51.725Z</time></trkpt><trkpt lat="45.020995" lon="10.6735233"><ele>21.0</ele><time>2026-04-11T08:12:53.724Z</time></trkpt><trkpt lat="45.0208867" lon="10.6735233"><ele>21.0</ele><time>2026-04-11T08:12:55.724Z</time></trkpt><trkpt lat="45.0207833" lon="10.67351"><ele>21.0</ele><time>2026-04-11T08:12:57.724Z</time></trkpt><trkpt lat="45.0206817" lon="10.673525"><ele>21.0</ele><time>2026-04-11T08:12:59.724Z</time></trkpt><trkpt lat="45.0205733" lon="10.673545"><ele>21.0</ele><time>2026-04-11T08:13:01.723Z</time></trkpt><trkpt lat="45.0204633" lon="10.67357"><ele>20.400000000000002</ele><time>2026-04-11T08:13:03.723Z</time></trkpt><trkpt lat="45.020355" lon="10.6736183"><ele>19.8</ele><time>2026-04-11T08:13:05.724Z</time></trkpt><trkpt lat="45.020255" lon="10.6736633"><ele>19.200000000000003</ele><time>2026-04-11T08:13:07.722Z</time></trkpt><trkpt lat="45.020155" lon="10.6736917"><ele>18.6</ele><time>2026-04-11T08:13:09.724Z</time></trkpt><trkpt lat="45.02005" lon="10.6737183"><ele>18.0</ele><time>2026-04-11T08:13:11.723Z</time></trkpt><trkpt lat="45.0199533" lon="10.6737567"><ele>18.0</ele><time>2026-04-11T08:13:13.723Z</time></trkpt><trkpt lat="45.0198367" lon="10.673785"><ele>18.0</ele><time>2026-04-11T08:13:15.724Z</time></trkpt><trkpt lat="45.0197333" lon="10.67381"><ele>18.0</ele><time>2026-04-11T08:13:17.724Z</time></trkpt><trkpt lat="45.0196333" lon="10.6738667"><ele>18.0</ele><time>2026-04-11T08:13:19.724Z</time></trkpt><trkpt lat="45.01953" lon="10.673935"><ele>18.0</ele><time>2026-04-11T08:13:21.725Z</time></trkpt><trkpt lat="45.0194233" lon="10.6739983"><ele>18.0</ele><time>2026-04-11T08:13:23.724Z</time></trkpt><trkpt lat="45.01934" lon="10.6740517"><ele>18.0</ele><time>2026-04-11T08:13:25.723Z</time></trkpt><trkpt lat="45.0192717" lon="10.674095"><ele>18.0</ele><time>2026-04-11T08:13:28.724Z</time></trkpt><trkpt lat="45.0192117" lon="10.674125"><ele>18.0</ele><time>2026-04-11T08:14:13.724Z</time></trkpt><trkpt lat="45.01912" lon="10.6741517"><ele>18.0</ele><time>2026-04-11T08:14:15.725Z</time></trkpt><trkpt lat="45.0190533" lon="10.6741667"><ele>18.0</ele><time>2026-04-11T08:14:17.724Z</time></trkpt><trkpt lat="45.0189883" lon="10.674175"><ele>18.000000000000004</ele><time>2026-04-11T08:14:26.723Z</time></trkpt><trkpt lat="45.018925" lon="10.6741967"><ele>18.0</ele><time>2026-04-11T08:14:28.724Z</time></trkpt><trkpt lat="45.0188583" lon="10.6742083"><ele>18.0</ele><time>2026-04-11T08:14:30.724Z</time></trkpt><trkpt lat="45.0187917" lon="10.6742367"><ele>18.0</ele><time>2026-04-11T08:14:32.724Z</time></trkpt><trkpt lat="45.018725" lon="10.6742533"><ele>18.0</ele><time>2026-04-11T08:14:35.724Z</time></trkpt><trkpt lat="45.0186467" lon="10.674275"><ele>18.000000000000004</ele><time>2026-04-11T08:14:58.723Z</time></trkpt><trkpt lat="45.0185533" lon="10.674295"><ele>18.0</ele><time>2026-04-11T08:15:00.723Z</time></trkpt><trkpt lat="45.018475" lon="10.67432"><ele>18.0</ele><time>2026-04-11T08:15:02.723Z</time></trkpt><trkpt lat="45.0184017" lon="10.674345"><ele>18.0</ele><time>2026-04-11T08:15:04.723Z</time></trkpt><trkpt lat="45.0183117" lon="10.6743883"><ele>18.0</ele><time>2026-04-11T08:15:17.724Z</time></trkpt><trkpt lat="45.0182267" lon="10.6744183"><ele>18.0</ele><time>2026-04-11T08:15:20.724Z</time></trkpt><trkpt lat="45.0181467" lon="10.6744483"><ele>18.0</ele><time>2026-04-11T08:15:23.724Z</time></trkpt><trkpt lat="45.018075" lon="10.6744817"><ele>18.0</ele><time>2026-04-11T08:15:25.722Z</time></trkpt><trkpt lat="45.0179833" lon="10.6745167"><ele>17.8</ele><time>2026-04-11T08:15:27.725Z</time></trkpt><trkpt lat="45.0179017" lon="10.67455"><ele>17.6</ele><time>2026-04-11T08:15:29.724Z</time></trkpt><trkpt lat="45.0178233" lon="10.6745917"><ele>17.4</ele><time>2026-04-11T08:15:31.723Z</time></trkpt><trkpt lat="45.017745" lon="10.6746217"><ele>17.2</ele><time>2026-04-11T08:15:33.725Z</time></trkpt><trkpt lat="45.0176583" lon="10.6746717"><ele>17.0</ele><time>2026-04-11T08:15:35.724Z</time></trkpt><trkpt lat="45.0175467" lon="10.674735"><ele>17.4</ele><time>2026-04-11T08:15:37.723Z</time></trkpt><trkpt lat="45.017445" lon="10.674785"><ele>17.799999999999997</ele><time>2026-04-11T08:15:39.724Z</time></trkpt><trkpt lat="45.0173567" lon="10.67483"><ele>18.2</ele><time>2026-04-11T08:15:41.723Z</time></trkpt><trkpt lat="45.0172683" lon="10.6748783"><ele>18.599999999999998</ele><time>2026-04-11T08:15:43.724Z</time></trkpt><trkpt lat="45.017175" lon="10.6749333"><ele>19.0</ele><time>2026-04-11T08:15:45.724Z</time></trkpt><trkpt lat="45.0170717" lon="10.6749967"><ele>19.0</ele><time>2026-04-11T08:15:47.722Z</time></trkpt><trkpt lat="45.0169767" lon="10.675045"><ele>19.0</ele><time>2026-04-11T08:15:49.723Z</time></trkpt><trkpt lat="45.0169" lon="10.675095"><ele>19.0</ele><time>2026-04-11T08:15:51.724Z</time></trkpt><trkpt lat="45.0168417" lon="10.6751467"><ele>19.0</ele><time>2026-04-11T08:15:53.724Z</time></trkpt><trkpt lat="45.0167633" lon="10.6752167"><ele>19.0</ele><time>2026-04-11T08:16:03.724Z</time></trkpt><trkpt lat="45.01669" lon="10.6752783"><ele>19.0</ele><time>2026-04-11T08:16:05.724Z</time></trkpt><trkpt lat="45.0166117" lon="10.6753467"><ele>19.2</ele><time>2026-04-11T08:16:07.723Z</time></trkpt><trkpt lat="45.0165233" lon="10.675425"><ele>19.4</ele><time>2026-04-11T08:16:09.723Z</time></trkpt><trkpt lat="45.0164317" lon="10.675505"><ele>19.6</ele><time>2026-04-11T08:16:11.723Z</time></trkpt><trkpt lat="45.01634" lon="10.6755867"><ele>19.8</ele><time>2026-04-11T08:16:13.725Z</time></trkpt><trkpt lat="45.016255" lon="10.6756517"><ele>20.0</ele><time>2026-04-11T08:16:15.725Z</time></trkpt><trkpt lat="45.016175" lon="10.67572"><ele>20.0</ele><time>2026-04-11T08:16:17.722Z</time></trkpt><trkpt lat="45.0160933" lon="10.6758"><ele>20.0</ele><time>2026-04-11T08:16:19.724Z</time></trkpt><trkpt lat="45.0160033" lon="10.6758817"><ele>20.0</ele><time>2026-04-11T08:16:21.724Z</time></trkpt><trkpt lat="45.0159167" lon="10.675955"><ele>20.0</ele><time>2026-04-11T08:16:23.724Z</time></trkpt><trkpt lat="45.0158267" lon="10.6760333"><ele>20.0</ele><time>2026-04-11T08:16:25.725Z</time></trkpt><trkpt lat="45.0157283" lon="10.6761267"><ele>19.833333333333336</ele><time>2026-04-11T08:16:27.724Z</time></trkpt><trkpt lat="45.0156383" lon="10.6762367"><ele>19.666666666666668</ele><time>2026-04-11T08:16:29.723Z</time></trkpt><trkpt lat="45.0155867" lon="10.6762883"><ele>19.5</ele><time>2026-04-11T08:16:30.724Z</time></trkpt><trkpt lat="45.01548" lon="10.6763933"><ele>19.333333333333332</ele><time>2026-04-11T08:16:32.724Z</time></trkpt><trkpt lat="45.015425" lon="10.676455"><ele>19.166666666666664</ele><time>2026-04-11T08:16:33.723Z</time></trkpt><trkpt lat="45.0153717" lon="10.676505"><ele>19.0</ele><time>2026-04-11T08:16:34.723Z</time></trkpt><trkpt lat="45.015315" lon="10.6765467"><ele>19.0</ele><time>2026-04-11T08:16:35.723Z</time></trkpt><trkpt lat="45.015195" lon="10.6766067"><ele>19.0</ele><time>2026-04-11T08:16:37.724Z</time></trkpt><trkpt lat="45.01513" lon="10.6766333"><ele>19.0</ele><time>2026-04-11T08:16:38.724Z</time></trkpt><trkpt lat="45.01506" lon="10.6766833"><ele>19.0</ele><time>2026-04-11T08:16:39.724Z</time></trkpt><trkpt lat="45.01498" lon="10.67675"><ele>19.0</ele><time>2026-04-11T08:16:40.724Z</time></trkpt><trkpt lat="45.0148817" lon="10.6768417"><ele>19.0</ele><time>2026-04-11T08:16:41.724Z</time></trkpt><trkpt lat="45.0147867" lon="10.6769367"><ele>19.0</ele><time>2026-04-11T08:16:42.724Z</time></trkpt><trkpt lat="45.0147017" lon="10.6770133"><ele>19.0</ele><time>2026-04-11T08:16:43.723Z</time></trkpt><trkpt lat="45.0146233" lon="10.67709"><ele>19.0</ele><time>2026-04-11T08:16:44.724Z</time></trkpt><trkpt lat="45.0145483" lon="10.6771633"><ele>19.0</ele><time>2026-04-11T08:16:45.724Z</time></trkpt><trkpt lat="45.01448" lon="10.677225"><ele>19.0</ele><time>2026-04-11T08:16:46.724Z</time></trkpt><trkpt lat="45.0144117" lon="10.6772883"><ele>19.0</ele><time>2026-04-11T08:16:47.723Z</time></trkpt><trkpt lat="45.0143467" lon="10.6773517"><ele>19.0</ele><time>2026-04-11T08:16:48.724Z</time></trkpt><trkpt lat="45.01428" lon="10.6774167"><ele>19.0</ele><time>2026-04-11T08:16:49.723Z</time></trkpt><trkpt lat="45.0142152" lon="10.6774795"><ele>19.0</ele><time>2026-04-11T08:16:50.724Z</time></trkpt><trkpt lat="45.0141504" lon="10.6775395"><ele>19.0</ele><time>2026-04-11T08:16:51.724Z</time></trkpt><trkpt lat="45.0140843" lon="10.6776015"><ele>18.833333333333332</ele><time>2026-04-11T08:16:52.724Z</time></trkpt><trkpt lat="45.014019" lon="10.6776625"><ele>18.666666666666664</ele><time>2026-04-11T08:16:53.722Z</time></trkpt><trkpt lat="45.0139503" lon="10.6777275"><ele>18.5</ele><time>2026-04-11T08:16:54.724Z</time></trkpt><trkpt lat="45.0138851" lon="10.6777918"><ele>18.333333333333332</ele><time>2026-04-11T08:16:55.723Z</time></trkpt><trkpt lat="45.0138243" lon="10.677855"><ele>18.166666666666668</ele><time>2026-04-11T08:16:56.724Z</time></trkpt><trkpt lat="45.0137651" lon="10.6779178"><ele>18.0</ele><time>2026-04-11T08:16:57.724Z</time></trkpt><trkpt lat="45.0137036" lon="10.677988"><ele>18.0</ele><time>2026-04-11T08:16:58.723Z</time></trkpt><trkpt lat="45.0136446" lon="10.6780578"><ele>18.0</ele><time>2026-04-11T08:16:59.723Z</time></trkpt><trkpt lat="45.0135865" lon="10.678131"><ele>18.0</ele><time>2026-04-11T08:17:00.723Z</time></trkpt><trkpt lat="45.0135321" lon="10.6781984"><ele>18.0</ele><time>2026-04-11T08:17:01.724Z</time></trkpt><trkpt lat="45.0134734" lon="10.6782633"><ele>18.0</ele><time>2026-04-11T08:17:02.724Z</time></trkpt><trkpt lat="45.0134082" lon="10.6783331"><ele>18.0</ele><time>2026-04-11T08:17:03.724Z</time></trkpt><trkpt lat="45.013342" lon="10.6784048"><ele>18.166666666666668</ele><time>2026-04-11T08:17:04.723Z</time></trkpt><trkpt lat="45.0132792" lon="10.6784698"><ele>18.333333333333332</ele><time>2026-04-11T08:17:05.724Z</time></trkpt><trkpt lat="45.013219" lon="10.6785418"><ele>18.5</ele><time>2026-04-11T08:17:06.724Z</time></trkpt><trkpt lat="45.0131623" lon="10.6786132"><ele>18.666666666666664</ele><time>2026-04-11T08:17:07.724Z</time></trkpt><trkpt lat="45.0131111" lon="10.6786721"><ele>18.833333333333332</ele><time>2026-04-11T08:17:08.725Z</time></trkpt><trkpt lat="45.0130532" lon="10.6787435"><ele>19.0</ele><time>2026-04-11T08:17:09.724Z</time></trkpt><trkpt lat="45.0129933" lon="10.6788158"><ele>19.0</ele><time>2026-04-11T08:17:10.724Z</time></trkpt><trkpt lat="45.0129337" lon="10.6788877"><ele>19.0</ele><time>2026-04-11T08:17:11.724Z</time></trkpt><trkpt lat="45.012876" lon="10.678968"><ele>19.0</ele><time>2026-04-11T08:17:12.724Z</time></trkpt><trkpt lat="45.0128223" lon="10.6790428"><ele>19.0</ele><time>2026-04-11T08:17:13.724Z</time></trkpt><trkpt lat="45.0127668" lon="10.6791177"><ele>19.0</ele><time>2026-04-11T08:17:14.724Z</time></trkpt><trkpt lat="45.0127094" lon="10.6791925"><ele>19.0</ele><time>2026-04-11T08:17:15.724Z</time></trkpt><trkpt lat="45.0126537" lon="10.679269"><ele>19.0</ele><time>2026-04-11T08:17:16.724Z</time></trkpt><trkpt lat="45.0126064" lon="10.6793422"><ele>19.0</ele><time>2026-04-11T08:17:17.723Z</time></trkpt><trkpt lat="45.0125627" lon="10.6794156"><ele>19.0</ele><time>2026-04-11T08:17:18.724Z</time></trkpt><trkpt lat="45.0125159" lon="10.6794892"><ele>19.0</ele><time>2026-04-11T08:17:19.723Z</time></trkpt><trkpt lat="45.012468" lon="10.6795672"><ele>19.0</ele><time>2026-04-11T08:17:20.725Z</time></trkpt><trkpt lat="45.0124202" lon="10.6796395"><ele>19.0</ele><time>2026-04-11T08:17:21.725Z</time></trkpt><trkpt lat="45.0123706" lon="10.679714"><ele>19.0</ele><time>2026-04-11T08:17:22.725Z</time></trkpt><trkpt lat="45.0123267" lon="10.6797833"><ele>19.0</ele><time>2026-04-11T08:17:23.725Z</time></trkpt><trkpt lat="45.0122867" lon="10.6798617"><ele>19.0</ele><time>2026-04-11T08:17:24.725Z</time></trkpt><trkpt lat="45.01222" lon="10.67999"><ele>19.0</ele><time>2026-04-11T08:17:26.725Z</time></trkpt><trkpt lat="45.0121467" lon="10.6801217"><ele>19.0</ele><time>2026-04-11T08:17:28.724Z</time></trkpt><trkpt lat="45.012075" lon="10.6802517"><ele>19.0</ele><time>2026-04-11T08:17:30.725Z</time></trkpt><trkpt lat="45.0120333" lon="10.6803233"><ele>18.833333333333332</ele><time>2026-04-11T08:17:31.723Z</time></trkpt><trkpt lat="45.0119883" lon="10.6803967"><ele>18.666666666666664</ele><time>2026-04-11T08:17:32.724Z</time></trkpt><trkpt lat="45.0119433" lon="10.6804833"><ele>18.5</ele><time>2026-04-11T08:17:33.724Z</time></trkpt><trkpt lat="45.0118983" lon="10.6805833"><ele>18.333333333333332</ele><time>2026-04-11T08:17:34.723Z</time></trkpt><trkpt lat="45.011855" lon="10.68068"><ele>18.166666666666668</ele><time>2026-04-11T08:17:35.722Z</time></trkpt><trkpt lat="45.01181" lon="10.6807717"><ele>18.0</ele><time>2026-04-11T08:17:36.724Z</time></trkpt><trkpt lat="45.01177" lon="10.6808567"><ele>18.0</ele><time>2026-04-11T08:17:37.723Z</time></trkpt><trkpt lat="45.0117317" lon="10.6809383"><ele>18.0</ele><time>2026-04-11T08:17:38.725Z</time></trkpt><trkpt lat="45.0116583" lon="10.6810767"><ele>18.0</ele><time>2026-04-11T08:17:40.723Z</time></trkpt><trkpt lat="45.01159" lon="10.6812"><ele>18.0</ele><time>2026-04-11T08:17:42.723Z</time></trkpt><trkpt lat="45.0115283" lon="10.6813"><ele>18.0</ele><time>2026-04-11T08:17:44.724Z</time></trkpt><trkpt lat="45.0114717" lon="10.6813983"><ele>18.0</ele><time>2026-04-11T08:17:46.724Z</time></trkpt><trkpt lat="45.011435" lon="10.6814933"><ele>18.0</ele><time>2026-04-11T08:17:48.724Z</time></trkpt><trkpt lat="45.0113967" lon="10.681605"><ele>18.0</ele><time>2026-04-11T08:17:50.724Z</time></trkpt><trkpt lat="45.01137" lon="10.6817383"><ele>18.0</ele><time>2026-04-11T08:17:52.723Z</time></trkpt><trkpt lat="45.0113183" lon="10.681905"><ele>18.0</ele><time>2026-04-11T08:17:54.724Z</time></trkpt><trkpt lat="45.0112883" lon="10.6819883"><ele>18.333333333333332</ele><time>2026-04-11T08:17:55.724Z</time></trkpt><trkpt lat="45.0112567" lon="10.6820667"><ele>18.666666666666668</ele><time>2026-04-11T08:17:56.724Z</time></trkpt><trkpt lat="45.0112183" lon="10.6821583"><ele>19.0</ele><time>2026-04-11T08:17:57.724Z</time></trkpt><trkpt lat="45.0111833" lon="10.68225"><ele>19.333333333333336</ele><time>2026-04-11T08:17:58.724Z</time></trkpt><trkpt lat="45.0111467" lon="10.68234"><ele>19.666666666666668</ele><time>2026-04-11T08:17:59.724Z</time></trkpt><trkpt lat="45.011105" lon="10.68244"><ele>20.0</ele><time>2026-04-11T08:18:00.725Z</time></trkpt><trkpt lat="45.0110583" lon="10.6825433"><ele>20.0</ele><time>2026-04-11T08:18:01.724Z</time></trkpt><trkpt lat="45.0110083" lon="10.6826517"><ele>20.0</ele><time>2026-04-11T08:18:02.724Z</time></trkpt><trkpt lat="45.0109583" lon="10.6827717"><ele>20.0</ele><time>2026-04-11T08:18:03.724Z</time></trkpt><trkpt lat="45.0109083" lon="10.68289"><ele>20.0</ele><time>2026-04-11T08:18:04.724Z</time></trkpt><trkpt lat="45.0108633" lon="10.683005"><ele>20.0</ele><time>2026-04-11T08:18:05.722Z</time></trkpt><trkpt lat="45.01082" lon="10.6831167"><ele>20.2</ele><time>2026-04-11T08:18:06.725Z</time></trkpt><trkpt lat="45.010775" lon="10.683225"><ele>20.4</ele><time>2026-04-11T08:18:07.725Z</time></trkpt><trkpt lat="45.0107333" lon="10.6833383"><ele>20.6</ele><time>2026-04-11T08:18:08.724Z</time></trkpt><trkpt lat="45.0106917" lon="10.68346"><ele>20.8</ele><time>2026-04-11T08:18:09.724Z</time></trkpt><trkpt lat="45.0106533" lon="10.6835867"><ele>21.0</ele><time>2026-04-11T08:18:10.724Z</time></trkpt><trkpt lat="45.0106083" lon="10.6837117"><ele>21.0</ele><time>2026-04-11T08:18:11.722Z</time></trkpt><trkpt lat="45.0105583" lon="10.6838517"><ele>21.0</ele><time>2026-04-11T08:18:12.723Z</time></trkpt><trkpt lat="45.0105033" lon="10.6840083"><ele>21.0</ele><time>2026-04-11T08:18:13.725Z</time></trkpt><trkpt lat="45.01045" lon="10.6841633"><ele>21.0</ele><time>2026-04-11T08:18:14.725Z</time></trkpt><trkpt lat="45.010405" lon="10.68431"><ele>21.200000000000003</ele><time>2026-04-11T08:18:15.725Z</time></trkpt><trkpt lat="45.0103633" lon="10.6844517"><ele>21.400000000000002</ele><time>2026-04-11T08:18:16.726Z</time></trkpt><trkpt lat="45.010325" lon="10.6845867"><ele>21.6</ele><time>2026-04-11T08:18:17.723Z</time></trkpt><trkpt lat="45.0102883" lon="10.684725"><ele>21.8</ele><time>2026-04-11T08:18:18.724Z</time></trkpt><trkpt lat="45.0102517" lon="10.6848617"><ele>22.0</ele><time>2026-04-11T08:18:19.724Z</time></trkpt><trkpt lat="45.0102183" lon="10.684995"><ele>22.0</ele><time>2026-04-11T08:18:20.724Z</time></trkpt><trkpt lat="45.0101783" lon="10.6851167"><ele>22.0</ele><time>2026-04-11T08:18:21.725Z</time></trkpt><trkpt lat="45.0101417" lon="10.68523"><ele>22.0</ele><time>2026-04-11T08:18:22.724Z</time></trkpt><trkpt lat="45.0101067" lon="10.6853417"><ele>22.0</ele><time>2026-04-11T08:18:23.724Z</time></trkpt><trkpt lat="45.0100767" lon="10.68545"><ele>22.0</ele><time>2026-04-11T08:18:24.725Z</time></trkpt><trkpt lat="45.0100467" lon="10.6855583"><ele>22.0</ele><time>2026-04-11T08:18:25.724Z</time></trkpt><trkpt lat="45.0100233" lon="10.6856633"><ele>21.857142857142858</ele><time>2026-04-11T08:18:26.725Z</time></trkpt><trkpt lat="45.01" lon="10.6857567"><ele>21.714285714285715</ele><time>2026-04-11T08:18:27.723Z</time></trkpt><trkpt lat="45.0099767" lon="10.685845"><ele>21.57142857142857</ele><time>2026-04-11T08:18:28.724Z</time></trkpt><trkpt lat="45.0099567" lon="10.68593"><ele>21.42857142857143</ele><time>2026-04-11T08:18:29.724Z</time></trkpt><trkpt lat="45.0099367" lon="10.6860183"><ele>21.285714285714285</ele><time>2026-04-11T08:18:30.724Z</time></trkpt><trkpt lat="45.00991" lon="10.68611"><ele>21.142857142857142</ele><time>2026-04-11T08:18:31.726Z</time></trkpt><trkpt lat="45.0098767" lon="10.6862167"><ele>21.0</ele><time>2026-04-11T08:18:32.724Z</time></trkpt><trkpt lat="45.0098417" lon="10.6863217"><ele>21.0</ele><time>2026-04-11T08:18:33.724Z</time></trkpt><trkpt lat="45.009805" lon="10.68643"><ele>21.0</ele><time>2026-04-11T08:18:34.724Z</time></trkpt><trkpt lat="45.009765" lon="10.686525"><ele>21.0</ele><time>2026-04-11T08:18:35.725Z</time></trkpt><trkpt lat="45.0097217" lon="10.6866117"><ele>21.0</ele><time>2026-04-11T08:18:36.725Z</time></trkpt><trkpt lat="45.0096717" lon="10.6866917"><ele>21.0</ele><time>2026-04-11T08:18:37.725Z</time></trkpt><trkpt lat="45.0096133" lon="10.68676"><ele>21.0</ele><time>2026-04-11T08:18:38.724Z</time></trkpt><trkpt lat="45.0095467" lon="10.686825"><ele>21.0</ele><time>2026-04-11T08:18:39.724Z</time></trkpt><trkpt lat="45.0094717" lon="10.686885"><ele>21.0</ele><time>2026-04-11T08:18:40.724Z</time></trkpt><trkpt lat="45.0093933" lon="10.686945"><ele>21.0</ele><time>2026-04-11T08:18:41.722Z</time></trkpt><trkpt lat="45.00931" lon="10.6870033"><ele>21.0</ele><time>2026-04-11T08:18:42.724Z</time></trkpt><trkpt lat="45.009225" lon="10.6870617"><ele>21.0</ele><time>2026-04-11T08:18:43.725Z</time></trkpt><trkpt lat="45.0091333" lon="10.6871183"><ele>20.8</ele><time>2026-04-11T08:18:44.725Z</time></trkpt><trkpt lat="45.0090417" lon="10.6871817"><ele>20.6</ele><time>2026-04-11T08:18:45.725Z</time></trkpt><trkpt lat="45.0089483" lon="10.687245"><ele>20.4</ele><time>2026-04-11T08:18:46.725Z</time></trkpt><trkpt lat="45.0088533" lon="10.687305"><ele>20.2</ele><time>2026-04-11T08:18:47.723Z</time></trkpt><trkpt lat="45.0087617" lon="10.6873617"><ele>20.0</ele><time>2026-04-11T08:18:48.725Z</time></trkpt><trkpt lat="45.00867" lon="10.6874167"><ele>20.0</ele><time>2026-04-11T08:18:49.724Z</time></trkpt><trkpt lat="45.008575" lon="10.687475"><ele>20.0</ele><time>2026-04-11T08:18:50.724Z</time></trkpt><trkpt lat="45.00848" lon="10.6875333"><ele>20.0</ele><time>2026-04-11T08:18:51.724Z</time></trkpt><trkpt lat="45.008385" lon="10.68759"><ele>20.0</ele><time>2026-04-11T08:18:52.724Z</time></trkpt><trkpt lat="45.0082917" lon="10.6876467"><ele>20.0</ele><time>2026-04-11T08:18:53.723Z</time></trkpt><trkpt lat="45.0081967" lon="10.6877067"><ele>20.2</ele><time>2026-04-11T08:18:54.723Z</time></trkpt><trkpt lat="45.0081033" lon="10.68777"><ele>20.4</ele><time>2026-04-11T08:18:55.724Z</time></trkpt><trkpt lat="45.0080133" lon="10.6878283"><ele>20.6</ele><time>2026-04-11T08:18:56.723Z</time></trkpt><trkpt lat="45.007925" lon="10.687885"><ele>20.8</ele><time>2026-04-11T08:18:57.724Z</time></trkpt><trkpt lat="45.00784" lon="10.6879383"><ele>21.0</ele><time>2026-04-11T08:18:58.724Z</time></trkpt><trkpt lat="45.007755" lon="10.6879933"><ele>21.0</ele><time>2026-04-11T08:18:59.724Z</time></trkpt><trkpt lat="45.0076733" lon="10.6880417"><ele>21.0</ele><time>2026-04-11T08:19:00.724Z</time></trkpt><trkpt lat="45.0075917" lon="10.68808"><ele>21.0</ele><time>2026-04-11T08:19:01.724Z</time></trkpt><trkpt lat="45.00751" lon="10.6881117"><ele>21.0</ele><time>2026-04-11T08:19:02.724Z</time></trkpt><trkpt lat="45.0074267" lon="10.6881367"><ele>21.0</ele><time>2026-04-11T08:19:03.724Z</time></trkpt><trkpt lat="45.00734" lon="10.6881533"><ele>21.0</ele><time>2026-04-11T08:19:04.723Z</time></trkpt><trkpt lat="45.0072517" lon="10.6881699"><ele>20.8</ele><time>2026-04-11T08:19:05.726Z</time></trkpt><trkpt lat="45.007159" lon="10.6881801"><ele>20.6</ele><time>2026-04-11T08:19:06.724Z</time></trkpt><trkpt lat="45.0070639" lon="10.6881894"><ele>20.4</ele><time>2026-04-11T08:19:07.724Z</time></trkpt><trkpt lat="45.0069685" lon="10.6881992"><ele>20.2</ele><time>2026-04-11T08:19:08.724Z</time></trkpt><trkpt lat="45.0068763" lon="10.6882091"><ele>20.0</ele><time>2026-04-11T08:19:09.723Z</time></trkpt><trkpt lat="45.0067845" lon="10.6882208"><ele>20.0</ele><time>2026-04-11T08:19:10.724Z</time></trkpt><trkpt lat="45.0066904" lon="10.6882295"><ele>20.0</ele><time>2026-04-11T08:19:11.723Z</time></trkpt><trkpt lat="45.006595" lon="10.6882333"><ele>20.0</ele><time>2026-04-11T08:19:12.724Z</time></trkpt><trkpt lat="45.0065002" lon="10.6882353"><ele>20.0</ele><time>2026-04-11T08:19:13.724Z</time></trkpt><trkpt lat="45.0064052" lon="10.6882407"><ele>20.0</ele><time>2026-04-11T08:19:14.725Z</time></trkpt><trkpt lat="45.00631" lon="10.6882465"><ele>19.8</ele><time>2026-04-11T08:19:15.723Z</time></trkpt><trkpt lat="45.006215" lon="10.688247"><ele>19.6</ele><time>2026-04-11T08:19:16.724Z</time></trkpt><trkpt lat="45.0061228" lon="10.6882429"><ele>19.4</ele><time>2026-04-11T08:19:17.723Z</time></trkpt><trkpt lat="45.0060326" lon="10.6882297"><ele>19.2</ele><time>2026-04-11T08:19:18.724Z</time></trkpt><trkpt lat="45.0059417" lon="10.688209"><ele>19.0</ele><time>2026-04-11T08:19:19.724Z</time></trkpt><trkpt lat="45.0058457" lon="10.6881825"><ele>19.0</ele><time>2026-04-11T08:19:20.725Z</time></trkpt><trkpt lat="45.0057457" lon="10.6881517"><ele>19.0</ele><time>2026-04-11T08:19:21.724Z</time></trkpt><trkpt lat="45.0056423" lon="10.6881157"><ele>19.0</ele><time>2026-04-11T08:19:22.723Z</time></trkpt><trkpt lat="45.0055394" lon="10.6880727"><ele>19.0</ele><time>2026-04-11T08:19:23.724Z</time></trkpt><trkpt lat="45.0054365" lon="10.6880238"><ele>19.0</ele><time>2026-04-11T08:19:24.725Z</time></trkpt><trkpt lat="45.0053361" lon="10.6879714"><ele>19.0</ele><time>2026-04-11T08:19:25.724Z</time></trkpt><trkpt lat="45.0052364" lon="10.6879185"><ele>19.0</ele><time>2026-04-11T08:19:26.725Z</time></trkpt><trkpt lat="45.0051368" lon="10.6878627"><ele>19.0</ele><time>2026-04-11T08:19:27.724Z</time></trkpt><trkpt lat="45.0050355" lon="10.6878072"><ele>19.0</ele><time>2026-04-11T08:19:28.724Z</time></trkpt><trkpt lat="45.0049366" lon="10.6877545"><ele>19.0</ele><time>2026-04-11T08:19:29.723Z</time></trkpt><trkpt lat="45.00484" lon="10.6877037"><ele>19.4</ele><time>2026-04-11T08:19:30.724Z</time></trkpt><trkpt lat="45.0047464" lon="10.6876551"><ele>19.799999999999997</ele><time>2026-04-11T08:19:31.723Z</time></trkpt><trkpt lat="45.0046516" lon="10.6876054"><ele>20.200000000000003</ele><time>2026-04-11T08:19:32.723Z</time></trkpt><trkpt lat="45.004555" lon="10.6875564"><ele>20.6</ele><time>2026-04-11T08:19:33.724Z</time></trkpt><trkpt lat="45.0044597" lon="10.687513"><ele>21.0</ele><time>2026-04-11T08:19:34.724Z</time></trkpt><trkpt lat="45.004363" lon="10.6874713"><ele>21.0</ele><time>2026-04-11T08:19:35.726Z</time></trkpt><trkpt lat="45.0042684" lon="10.6874303"><ele>21.0</ele><time>2026-04-11T08:19:36.724Z</time></trkpt><trkpt lat="45.0041718" lon="10.6873903"><ele>21.0</ele><time>2026-04-11T08:19:37.723Z</time></trkpt><trkpt lat="45.0040772" lon="10.6873491"><ele>21.0</ele><time>2026-04-11T08:19:38.723Z</time></trkpt><trkpt lat="45.003987" lon="10.6873074"><ele>21.0</ele><time>2026-04-11T08:19:39.724Z</time></trkpt><trkpt lat="45.0038948" lon="10.6872621"><ele>21.0</ele><time>2026-04-11T08:19:40.724Z</time></trkpt><trkpt lat="45.0037984" lon="10.6872181"><ele>21.0</ele><time>2026-04-11T08:19:41.723Z</time></trkpt><trkpt lat="45.0037042" lon="10.6871767"><ele>21.0</ele><time>2026-04-11T08:19:42.724Z</time></trkpt><trkpt lat="45.0036099" lon="10.687143"><ele>21.0</ele><time>2026-04-11T08:19:43.722Z</time></trkpt><trkpt lat="45.0035139" lon="10.6871202"><ele>21.0</ele><time>2026-04-11T08:19:44.724Z</time></trkpt><trkpt lat="45.0034158" lon="10.6871081"><ele>20.6</ele><time>2026-04-11T08:19:45.724Z</time></trkpt><trkpt lat="45.0033174" lon="10.6871091"><ele>20.200000000000003</ele><time>2026-04-11T08:19:46.723Z</time></trkpt><trkpt lat="45.0032193" lon="10.6871158"><ele>19.799999999999997</ele><time>2026-04-11T08:19:47.723Z</time></trkpt><trkpt lat="45.0031213" lon="10.6871263"><ele>19.4</ele><time>2026-04-11T08:19:48.724Z</time></trkpt><trkpt lat="45.0030231" lon="10.6871395"><ele>19.0</ele><time>2026-04-11T08:19:49.724Z</time></trkpt><trkpt lat="45.0029249" lon="10.6871524"><ele>19.0</ele><time>2026-04-11T08:19:50.724Z</time></trkpt><trkpt lat="45.0028281" lon="10.6871607"><ele>19.0</ele><time>2026-04-11T08:19:51.724Z</time></trkpt><trkpt lat="45.0027301" lon="10.6871612"><ele>19.0</ele><time>2026-04-11T08:19:52.724Z</time></trkpt><trkpt lat="45.0026333" lon="10.6871486"><ele>19.0</ele><time>2026-04-11T08:19:53.722Z</time></trkpt><trkpt lat="45.0025355" lon="10.687128"><ele>19.0</ele><time>2026-04-11T08:19:54.724Z</time></trkpt><trkpt lat="45.002437" lon="10.6871008"><ele>18.8</ele><time>2026-04-11T08:19:55.723Z</time></trkpt><trkpt lat="45.0023368" lon="10.6870699"><ele>18.599999999999998</ele><time>2026-04-11T08:19:56.725Z</time></trkpt><trkpt lat="45.0022324" lon="10.6870351"><ele>18.4</ele><time>2026-04-11T08:19:57.725Z</time></trkpt><trkpt lat="45.0021252" lon="10.687001"><ele>18.2</ele><time>2026-04-11T08:19:58.725Z</time></trkpt><trkpt lat="45.0020156" lon="10.6869681"><ele>18.0</ele><time>2026-04-11T08:19:59.724Z</time></trkpt><trkpt lat="45.0019052" lon="10.6869382"><ele>18.4</ele><time>2026-04-11T08:20:00.724Z</time></trkpt><trkpt lat="45.0017949" lon="10.6869133"><ele>18.8</ele><time>2026-04-11T08:20:01.724Z</time></trkpt><trkpt lat="45.001686" lon="10.6868892"><ele>19.2</ele><time>2026-04-11T08:20:02.723Z</time></trkpt><trkpt lat="45.001577" lon="10.686862"><ele>19.6</ele><time>2026-04-11T08:20:03.724Z</time></trkpt><trkpt lat="45.0014669" lon="10.6868357"><ele>20.0</ele><time>2026-04-11T08:20:04.723Z</time></trkpt><trkpt lat="45.0013566" lon="10.6868072"><ele>20.0</ele><time>2026-04-11T08:20:05.723Z</time></trkpt><trkpt lat="45.0012453" lon="10.6867779"><ele>20.0</ele><time>2026-04-11T08:20:06.724Z</time></trkpt><trkpt lat="45.0011345" lon="10.6867496"><ele>20.0</ele><time>2026-04-11T08:20:07.724Z</time></trkpt><trkpt lat="45.0010243" lon="10.6867174"><ele>20.0</ele><time>2026-04-11T08:20:08.724Z</time></trkpt><trkpt lat="45.0009173" lon="10.6866858"><ele>20.0</ele><time>2026-04-11T08:20:09.723Z</time></trkpt><trkpt lat="45.0008113" lon="10.6866543"><ele>19.8</ele><time>2026-04-11T08:20:10.726Z</time></trkpt><trkpt lat="45.0007026" lon="10.6866227"><ele>19.6</ele><time>2026-04-11T08:20:11.725Z</time></trkpt><trkpt lat="45.0005949" lon="10.6865908"><ele>19.4</ele><time>2026-04-11T08:20:12.726Z</time></trkpt><trkpt lat="45.0004883" lon="10.6865605"><ele>19.2</ele><time>2026-04-11T08:20:13.724Z</time></trkpt><trkpt lat="45.0003858" lon="10.6865308"><ele>19.0</ele><time>2026-04-11T08:20:14.724Z</time></trkpt><trkpt lat="45.0002847" lon="10.6864959"><ele>19.0</ele><time>2026-04-11T08:20:15.724Z</time></trkpt><trkpt lat="45.0001861" lon="10.6864565"><ele>19.0</ele><time>2026-04-11T08:20:16.723Z</time></trkpt><trkpt lat="45.0000909" lon="10.6864131"><ele>19.0</ele><time>2026-04-11T08:20:17.724Z</time></trkpt><trkpt lat="45.0000002" lon="10.6863673"><ele>19.0</ele><time>2026-04-11T08:20:18.724Z</time></trkpt><trkpt lat="44.9999079" lon="10.6863277"><ele>19.0</ele><time>2026-04-11T08:20:19.724Z</time></trkpt><trkpt lat="44.9998148" lon="10.6862926"><ele>19.0</ele><time>2026-04-11T08:20:20.724Z</time></trkpt><trkpt lat="44.9997213" lon="10.68626"><ele>19.0</ele><time>2026-04-11T08:20:21.724Z</time></trkpt><trkpt lat="44.9996225" lon="10.6862317"><ele>19.0</ele><time>2026-04-11T08:20:22.723Z</time></trkpt><trkpt lat="44.9995156" lon="10.686208"><ele>19.0</ele><time>2026-04-11T08:20:23.724Z</time></trkpt><trkpt lat="44.9994095" lon="10.6861853"><ele>19.0</ele><time>2026-04-11T08:20:24.724Z</time></trkpt><trkpt lat="44.9993052" lon="10.6861617"><ele>19.0</ele><time>2026-04-11T08:20:25.723Z</time></trkpt><trkpt lat="44.9992018" lon="10.686141"><ele>19.0</ele><time>2026-04-11T08:20:26.725Z</time></trkpt><trkpt lat="44.9991" lon="10.6861178"><ele>19.0</ele><time>2026-04-11T08:20:27.724Z</time></trkpt><trkpt lat="44.9989995" lon="10.6860893"><ele>19.0</ele><time>2026-04-11T08:20:28.725Z</time></trkpt><trkpt lat="44.9988979" lon="10.6860578"><ele>19.0</ele><time>2026-04-11T08:20:29.725Z</time></trkpt><trkpt lat="44.9987912" lon="10.6860312"><ele>19.6</ele><time>2026-04-11T08:20:30.724Z</time></trkpt><trkpt lat="44.9986868" lon="10.6860038"><ele>20.2</ele><time>2026-04-11T08:20:31.723Z</time></trkpt><trkpt lat="44.9985806" lon="10.6859836"><ele>20.8</ele><time>2026-04-11T08:20:32.725Z</time></trkpt><trkpt lat="44.9984713" lon="10.6859643"><ele>21.400000000000002</ele><time>2026-04-11T08:20:33.724Z</time></trkpt><trkpt lat="44.9983623" lon="10.6859475"><ele>22.0</ele><time>2026-04-11T08:20:34.723Z</time></trkpt><trkpt lat="44.9982524" lon="10.6859268"><ele>22.0</ele><time>2026-04-11T08:20:35.724Z</time></trkpt><trkpt lat="44.9981464" lon="10.6859036"><ele>22.0</ele><time>2026-04-11T08:20:36.724Z</time></trkpt><trkpt lat="44.9980428" lon="10.6858803"><ele>22.0</ele><time>2026-04-11T08:20:37.724Z</time></trkpt><trkpt lat="44.9979408" lon="10.6858614"><ele>22.0</ele><time>2026-04-11T08:20:38.725Z</time></trkpt><trkpt lat="44.9978367" lon="10.6858411"><ele>22.0</ele><time>2026-04-11T08:20:39.724Z</time></trkpt><trkpt lat="44.9977347" lon="10.6858211"><ele>22.0</ele><time>2026-04-11T08:20:40.722Z</time></trkpt><trkpt lat="44.9976333" lon="10.6858039"><ele>22.0</ele><time>2026-04-11T08:20:41.724Z</time></trkpt><trkpt lat="44.9975319" lon="10.6857862"><ele>22.0</ele><time>2026-04-11T08:20:42.725Z</time></trkpt><trkpt lat="44.9974302" lon="10.6857724"><ele>22.0</ele><time>2026-04-11T08:20:43.724Z</time></trkpt><trkpt lat="44.9973272" lon="10.6857635"><ele>22.0</ele><time>2026-04-11T08:20:44.724Z</time></trkpt><trkpt lat="44.9972236" lon="10.6857568"><ele>21.8</ele><time>2026-04-11T08:20:45.725Z</time></trkpt><trkpt lat="44.9971188" lon="10.6857551"><ele>21.6</ele><time>2026-04-11T08:20:46.723Z</time></trkpt><trkpt lat="44.9970135" lon="10.6857569"><ele>21.400000000000002</ele><time>2026-04-11T08:20:47.723Z</time></trkpt><trkpt lat="44.9969068" lon="10.6857599"><ele>21.200000000000003</ele><time>2026-04-11T08:20:48.723Z</time></trkpt><trkpt lat="44.9968026" lon="10.6857619"><ele>21.0</ele><time>2026-04-11T08:20:49.724Z</time></trkpt><trkpt lat="44.9966982" lon="10.685762"><ele>21.200000000000003</ele><time>2026-04-11T08:20:50.725Z</time></trkpt><trkpt lat="44.9965946" lon="10.6857661"><ele>21.400000000000002</ele><time>2026-04-11T08:20:51.727Z</time></trkpt><trkpt lat="44.9964911" lon="10.6857761"><ele>21.6</ele><time>2026-04-11T08:20:52.725Z</time></trkpt><trkpt lat="44.9963877" lon="10.6857805"><ele>21.8</ele><time>2026-04-11T08:20:53.726Z</time></trkpt><trkpt lat="44.9962855" lon="10.6857829"><ele>22.0</ele><time>2026-04-11T08:20:54.724Z</time></trkpt><trkpt lat="44.9961818" lon="10.6857817"><ele>22.0</ele><time>2026-04-11T08:20:55.725Z</time></trkpt><trkpt lat="44.9960782" lon="10.6857759"><ele>22.0</ele><time>2026-04-11T08:20:56.725Z</time></trkpt><trkpt lat="44.9959709" lon="10.6857646"><ele>22.0</ele><time>2026-04-11T08:20:57.725Z</time></trkpt><trkpt lat="44.9958664" lon="10.6857556"><ele>22.0</ele><time>2026-04-11T08:20:58.724Z</time></trkpt><trkpt lat="44.9957627" lon="10.6857458"><ele>22.0</ele><time>2026-04-11T08:20:59.724Z</time></trkpt><trkpt lat="44.9956605" lon="10.6857364"><ele>22.200000000000003</ele><time>2026-04-11T08:21:00.725Z</time></trkpt><trkpt lat="44.9955634" lon="10.6857277"><ele>22.4</ele><time>2026-04-11T08:21:01.725Z</time></trkpt><trkpt lat="44.9954691" lon="10.6857184"><ele>22.6</ele><time>2026-04-11T08:21:02.725Z</time></trkpt><trkpt lat="44.9953701" lon="10.6857102"><ele>22.799999999999997</ele><time>2026-04-11T08:21:03.725Z</time></trkpt><trkpt lat="44.9952672" lon="10.6856978"><ele>23.0</ele><time>2026-04-11T08:21:04.724Z</time></trkpt><trkpt lat="44.9951624" lon="10.6856765"><ele>23.0</ele><time>2026-04-11T08:21:05.725Z</time></trkpt><trkpt lat="44.9950565" lon="10.6856434"><ele>23.0</ele><time>2026-04-11T08:21:06.725Z</time></trkpt><trkpt lat="44.994947" lon="10.685601"><ele>23.0</ele><time>2026-04-11T08:21:07.725Z</time></trkpt><trkpt lat="44.9948353" lon="10.685554"><ele>23.0</ele><time>2026-04-11T08:21:08.726Z</time></trkpt><trkpt lat="44.9947234" lon="10.6855114"><ele>23.4</ele><time>2026-04-11T08:21:09.725Z</time></trkpt><trkpt lat="44.9946162" lon="10.6854706"><ele>23.799999999999997</ele><time>2026-04-11T08:21:10.723Z</time></trkpt><trkpt lat="44.994514" lon="10.6854344"><ele>24.2</ele><time>2026-04-11T08:21:11.725Z</time></trkpt><trkpt lat="44.9944131" lon="10.685406"><ele>24.6</ele><time>2026-04-11T08:21:12.725Z</time></trkpt><trkpt lat="44.9943133" lon="10.6853854"><ele>25.0</ele><time>2026-04-11T08:21:13.724Z</time></trkpt><trkpt lat="44.9942147" lon="10.6853645"><ele>24.8</ele><time>2026-04-11T08:21:14.726Z</time></trkpt><trkpt lat="44.9941203" lon="10.6853448"><ele>24.6</ele><time>2026-04-11T08:21:15.725Z</time></trkpt><trkpt lat="44.994032" lon="10.6853264"><ele>24.4</ele><time>2026-04-11T08:21:16.724Z</time></trkpt><trkpt lat="44.9939501" lon="10.6853148"><ele>24.2</ele><time>2026-04-11T08:21:17.725Z</time></trkpt><trkpt lat="44.9938791" lon="10.6853051"><ele>24.0</ele><time>2026-04-11T08:21:18.724Z</time></trkpt><trkpt lat="44.9937696" lon="10.6852771"><ele>24.166666666666668</ele><time>2026-04-11T08:21:20.724Z</time></trkpt><trkpt lat="44.9937132" lon="10.6852037"><ele>24.333333333333336</ele><time>2026-04-11T08:21:22.724Z</time></trkpt><trkpt lat="44.9937345" lon="10.6850665"><ele>24.5</ele><time>2026-04-11T08:21:24.726Z</time></trkpt><trkpt lat="44.9937805" lon="10.6849949"><ele>24.666666666666668</ele><time>2026-04-11T08:21:25.725Z</time></trkpt><trkpt lat="44.9938455" lon="10.6849155"><ele>24.833333333333336</ele><time>2026-04-11T08:21:26.726Z</time></trkpt><trkpt lat="44.9939272" lon="10.6848272"><ele>25.0</ele><time>2026-04-11T08:21:27.727Z</time></trkpt><trkpt lat="44.9940193" lon="10.6847396"><ele>25.0</ele><time>2026-04-11T08:21:28.725Z</time></trkpt><trkpt lat="44.9941079" lon="10.6846532"><ele>25.0</ele><time>2026-04-11T08:21:29.725Z</time></trkpt><trkpt lat="44.9941916" lon="10.6845753"><ele>25.0</ele><time>2026-04-11T08:21:30.723Z</time></trkpt><trkpt lat="44.9942679" lon="10.6845041"><ele>25.0</ele><time>2026-04-11T08:21:31.723Z</time></trkpt><trkpt lat="44.9943394" lon="10.6844479"><ele>25.0</ele><time>2026-04-11T08:21:32.725Z</time></trkpt><trkpt lat="44.9944068" lon="10.6843983"><ele>24.666666666666668</ele><time>2026-04-11T08:21:33.725Z</time></trkpt><trkpt lat="44.9944728" lon="10.6843497"><ele>24.333333333333336</ele><time>2026-04-11T08:21:34.724Z</time></trkpt><trkpt lat="44.9945406" lon="10.6843034"><ele>24.0</ele><time>2026-04-11T08:21:35.724Z</time></trkpt><trkpt lat="44.9946102" lon="10.6842532"><ele>23.666666666666668</ele><time>2026-04-11T08:21:36.725Z</time></trkpt><trkpt lat="44.9946765" lon="10.6841999"><ele>23.333333333333336</ele><time>2026-04-11T08:21:37.725Z</time></trkpt><trkpt lat="44.9947365" lon="10.6841396"><ele>23.0</ele><time>2026-04-11T08:21:38.724Z</time></trkpt><trkpt lat="44.9947975" lon="10.6840734"><ele>23.0</ele><time>2026-04-11T08:21:39.725Z</time></trkpt><trkpt lat="44.9948613" lon="10.6839967"><ele>23.0</ele><time>2026-04-11T08:21:40.726Z</time></trkpt><trkpt lat="44.994926" lon="10.6839084"><ele>23.0</ele><time>2026-04-11T08:21:41.726Z</time></trkpt><trkpt lat="44.9949867" lon="10.6838134"><ele>23.0</ele><time>2026-04-11T08:21:42.724Z</time></trkpt><trkpt lat="44.9950358" lon="10.6837206"><ele>23.0</ele><time>2026-04-11T08:21:43.725Z</time></trkpt><trkpt lat="44.99508" lon="10.683619"><ele>23.0</ele><time>2026-04-11T08:21:44.727Z</time></trkpt><trkpt lat="44.9951102" lon="10.6835071"><ele>23.166666666666668</ele><time>2026-04-11T08:21:45.725Z</time></trkpt><trkpt lat="44.995128" lon="10.6833876"><ele>23.333333333333336</ele><time>2026-04-11T08:21:46.725Z</time></trkpt><trkpt lat="44.9951325" lon="10.6832649"><ele>23.5</ele><time>2026-04-11T08:21:47.725Z</time></trkpt><trkpt lat="44.9951217" lon="10.6831417"><ele>23.666666666666668</ele><time>2026-04-11T08:21:48.725Z</time></trkpt><trkpt lat="44.9951001" lon="10.6830249"><ele>23.833333333333332</ele><time>2026-04-11T08:21:49.725Z</time></trkpt><trkpt lat="44.995066" lon="10.6829077"><ele>24.0</ele><time>2026-04-11T08:21:50.726Z</time></trkpt><trkpt lat="44.9950105" lon="10.6827701"><ele>24.0</ele><time>2026-04-11T08:21:51.726Z</time></trkpt><trkpt lat="44.9949446" lon="10.6826311"><ele>24.0</ele><time>2026-04-11T08:21:52.725Z</time></trkpt><trkpt lat="44.9948788" lon="10.6825025"><ele>24.0</ele><time>2026-04-11T08:21:53.726Z</time></trkpt><trkpt lat="44.9948173" lon="10.6823853"><ele>24.0</ele><time>2026-04-11T08:21:54.724Z</time></trkpt><trkpt lat="44.9947591" lon="10.6822707"><ele>24.0</ele><time>2026-04-11T08:21:55.725Z</time></trkpt><trkpt lat="44.9947094" lon="10.6821553"><ele>24.0</ele><time>2026-04-11T08:21:56.725Z</time></trkpt><trkpt lat="44.9946543" lon="10.6820429"><ele>24.0</ele><time>2026-04-11T08:21:57.725Z</time></trkpt><trkpt lat="44.994599" lon="10.6819325"><ele>24.0</ele><time>2026-04-11T08:21:58.724Z</time></trkpt><trkpt lat="44.9945462" lon="10.6818202"><ele>24.0</ele><time>2026-04-11T08:21:59.725Z</time></trkpt><trkpt lat="44.9944928" lon="10.6817035"><ele>24.0</ele><time>2026-04-11T08:22:00.725Z</time></trkpt><trkpt lat="44.9944399" lon="10.6815944"><ele>23.799999999999997</ele><time>2026-04-11T08:22:01.725Z</time></trkpt><trkpt lat="44.9943842" lon="10.6814886"><ele>23.599999999999998</ele><time>2026-04-11T08:22:02.723Z</time></trkpt><trkpt lat="44.9943223" lon="10.6813847"><ele>23.4</ele><time>2026-04-11T08:22:03.726Z</time></trkpt><trkpt lat="44.9942674" lon="10.6812747"><ele>23.2</ele><time>2026-04-11T08:22:04.724Z</time></trkpt><trkpt lat="44.9942073" lon="10.6811567"><ele>23.0</ele><time>2026-04-11T08:22:05.726Z</time></trkpt><trkpt lat="44.9941557" lon="10.6810371"><ele>22.833333333333336</ele><time>2026-04-11T08:22:06.724Z</time></trkpt><trkpt lat="44.9941059" lon="10.6809147"><ele>22.666666666666668</ele><time>2026-04-11T08:22:07.725Z</time></trkpt><trkpt lat="44.9940527" lon="10.6808018"><ele>22.5</ele><time>2026-04-11T08:22:08.725Z</time></trkpt><trkpt lat="44.9940008" lon="10.6806944"><ele>22.333333333333332</ele><time>2026-04-11T08:22:09.726Z</time></trkpt><trkpt lat="44.9939557" lon="10.6806001"><ele>22.166666666666664</ele><time>2026-04-11T08:22:10.725Z</time></trkpt><trkpt lat="44.9939163" lon="10.6805081"><ele>22.0</ele><time>2026-04-11T08:22:11.725Z</time></trkpt><trkpt lat="44.9938719" lon="10.6804152"><ele>22.0</ele><time>2026-04-11T08:22:12.726Z</time></trkpt><trkpt lat="44.9938207" lon="10.680328"><ele>22.0</ele><time>2026-04-11T08:22:13.725Z</time></trkpt><trkpt lat="44.99377" lon="10.6802469"><ele>22.0</ele><time>2026-04-11T08:22:14.725Z</time></trkpt><trkpt lat="44.9937161" lon="10.6801743"><ele>22.0</ele><time>2026-04-11T08:22:15.727Z</time></trkpt><trkpt lat="44.9936674" lon="10.6801149"><ele>22.0</ele><time>2026-04-11T08:22:16.725Z</time></trkpt><trkpt lat="44.9936156" lon="10.6800468"><ele>22.0</ele><time>2026-04-11T08:22:17.725Z</time></trkpt><trkpt lat="44.9935695" lon="10.6799705"><ele>22.0</ele><time>2026-04-11T08:22:18.724Z</time></trkpt><trkpt lat="44.9935314" lon="10.6798889"><ele>22.0</ele><time>2026-04-11T08:22:19.725Z</time></trkpt><trkpt lat="44.9935075" lon="10.6797972"><ele>22.0</ele><time>2026-04-11T08:22:20.724Z</time></trkpt><trkpt lat="44.9934892" lon="10.6796978"><ele>22.0</ele><time>2026-04-11T08:22:21.726Z</time></trkpt><trkpt lat="44.9934763" lon="10.6795998"><ele>22.0</ele><time>2026-04-11T08:22:22.724Z</time></trkpt><trkpt lat="44.9934704" lon="10.679508"><ele>22.0</ele><time>2026-04-11T08:22:23.725Z</time></trkpt><trkpt lat="44.9934824" lon="10.6793533"><ele>22.0</ele><time>2026-04-11T08:22:25.724Z</time></trkpt><trkpt lat="44.9934875" lon="10.6792191"><ele>22.0</ele><time>2026-04-11T08:22:27.726Z</time></trkpt><trkpt lat="44.9934528" lon="10.6791445"><ele>22.0</ele><time>2026-04-11T08:22:29.726Z</time></trkpt><trkpt lat="44.9933845" lon="10.6791678"><ele>22.0</ele><time>2026-04-11T08:22:31.726Z</time></trkpt><trkpt lat="44.9933147" lon="10.6792498"><ele>22.0</ele><time>2026-04-11T08:22:33.725Z</time></trkpt><trkpt lat="44.9932231" lon="10.6793629"><ele>22.0</ele><time>2026-04-11T08:22:35.724Z</time></trkpt><trkpt lat="44.9931659" lon="10.6794188"><ele>22.0</ele><time>2026-04-11T08:22:36.724Z</time></trkpt><trkpt lat="44.9931064" lon="10.6794737"><ele>22.0</ele><time>2026-04-11T08:22:37.724Z</time></trkpt><trkpt lat="44.9930469" lon="10.6795295"><ele>22.0</ele><time>2026-04-11T08:22:38.725Z</time></trkpt><trkpt lat="44.9929851" lon="10.6795877"><ele>22.0</ele><time>2026-04-11T08:22:39.725Z</time></trkpt><trkpt lat="44.9929201" lon="10.6796467"><ele>22.0</ele><time>2026-04-11T08:22:40.724Z</time></trkpt><trkpt lat="44.9928516" lon="10.6797083"><ele>22.0</ele><time>2026-04-11T08:22:41.724Z</time></trkpt><trkpt lat="44.9927825" lon="10.6797764"><ele>22.0</ele><time>2026-04-11T08:22:42.725Z</time></trkpt><trkpt lat="44.9927106" lon="10.6798482"><ele>22.0</ele><time>2026-04-11T08:22:43.725Z</time></trkpt><trkpt lat="44.9926341" lon="10.6799202"><ele>22.0</ele><time>2026-04-11T08:22:44.725Z</time></trkpt><trkpt lat="44.9925541" lon="10.6799927"><ele>22.0</ele><time>2026-04-11T08:22:45.726Z</time></trkpt><trkpt lat="44.9924696" lon="10.6800689"><ele>22.0</ele><time>2026-04-11T08:22:46.724Z</time></trkpt><trkpt lat="44.9923842" lon="10.6801486"><ele>22.0</ele><time>2026-04-11T08:22:47.725Z</time></trkpt><trkpt lat="44.9923016" lon="10.68023"><ele>22.5</ele><time>2026-04-11T08:22:48.725Z</time></trkpt><trkpt lat="44.9922212" lon="10.6803091"><ele>23.0</ele><time>2026-04-11T08:22:49.725Z</time></trkpt><trkpt lat="44.992151" lon="10.6803817"><ele>23.5</ele><time>2026-04-11T08:22:50.724Z</time></trkpt><trkpt lat="44.9920818" lon="10.6804527"><ele>24.0</ele><time>2026-04-11T08:22:51.727Z</time></trkpt><trkpt lat="44.9920111" lon="10.6805227"><ele>24.500000000000004</ele><time>2026-04-11T08:22:52.726Z</time></trkpt><trkpt lat="44.9919385" lon="10.6805939"><ele>25.0</ele><time>2026-04-11T08:22:53.726Z</time></trkpt><trkpt lat="44.9918655" lon="10.6806628"><ele>25.0</ele><time>2026-04-11T08:22:54.725Z</time></trkpt><trkpt lat="44.9917934" lon="10.6807336"><ele>25.0</ele><time>2026-04-11T08:22:55.725Z</time></trkpt><trkpt lat="44.9917218" lon="10.6808038"><ele>25.0</ele><time>2026-04-11T08:22:56.727Z</time></trkpt><trkpt lat="44.9916477" lon="10.6808752"><ele>25.0</ele><time>2026-04-11T08:22:57.727Z</time></trkpt><trkpt lat="44.9915712" lon="10.6809447"><ele>25.0</ele><time>2026-04-11T08:22:58.724Z</time></trkpt><trkpt lat="44.9914911" lon="10.6810186"><ele>25.0</ele><time>2026-04-11T08:22:59.725Z</time></trkpt><trkpt lat="44.9914121" lon="10.6810951"><ele>25.0</ele><time>2026-04-11T08:23:00.725Z</time></trkpt><trkpt lat="44.9913324" lon="10.681172"><ele>25.0</ele><time>2026-04-11T08:23:01.725Z</time></trkpt><trkpt lat="44.9912549" lon="10.6812486"><ele>25.0</ele><time>2026-04-11T08:23:02.725Z</time></trkpt><trkpt lat="44.9911793" lon="10.6813251"><ele>25.0</ele><time>2026-04-11T08:23:03.725Z</time></trkpt><trkpt lat="44.9910988" lon="10.6814032"><ele>25.000000000000004</ele><time>2026-04-11T08:23:04.724Z</time></trkpt><trkpt lat="44.9910199" lon="10.6814781"><ele>25.0</ele><time>2026-04-11T08:23:05.724Z</time></trkpt><trkpt lat="44.9909455" lon="10.6815528"><ele>25.0</ele><time>2026-04-11T08:23:06.723Z</time></trkpt><trkpt lat="44.9908752" lon="10.6816246"><ele>25.0</ele><time>2026-04-11T08:23:07.725Z</time></trkpt><trkpt lat="44.9908046" lon="10.6816974"><ele>25.000000000000004</ele><time>2026-04-11T08:23:08.725Z</time></trkpt><trkpt lat="44.9907362" lon="10.681768"><ele>25.0</ele><time>2026-04-11T08:23:09.725Z</time></trkpt><trkpt lat="44.9906708" lon="10.6818335"><ele>25.000000000000004</ele><time>2026-04-11T08:23:10.726Z</time></trkpt><trkpt lat="44.9906061" lon="10.6818992"><ele>25.0</ele><time>2026-04-11T08:23:11.725Z</time></trkpt><trkpt lat="44.9905412" lon="10.6819656"><ele>25.0</ele><time>2026-04-11T08:23:12.724Z</time></trkpt><trkpt lat="44.9904765" lon="10.6820331"><ele>25.0</ele><time>2026-04-11T08:23:13.725Z</time></trkpt><trkpt lat="44.9904171" lon="10.6820916"><ele>25.000000000000004</ele><time>2026-04-11T08:23:14.725Z</time></trkpt><trkpt lat="44.9903279" lon="10.6821689"><ele>25.0</ele><time>2026-04-11T08:23:16.724Z</time></trkpt><trkpt lat="44.9902655" lon="10.6822264"><ele>25.000000000000004</ele><time>2026-04-11T08:23:18.725Z</time></trkpt><trkpt lat="44.9902163" lon="10.6822894"><ele>25.0</ele><time>2026-04-11T08:23:20.725Z</time></trkpt><trkpt lat="44.9901503" lon="10.6823574"><ele>25.0</ele><time>2026-04-11T08:23:23.725Z</time></trkpt><trkpt lat="44.9900788" lon="10.6822537"><ele>25.0</ele><time>2026-04-11T08:23:26.724Z</time></trkpt><trkpt lat="44.9900221" lon="10.6821749"><ele>25.000000000000004</ele><time>2026-04-11T08:23:28.724Z</time></trkpt><trkpt lat="44.9899612" lon="10.6820854"><ele>25.0</ele><time>2026-04-11T08:23:30.724Z</time></trkpt><trkpt lat="44.9898955" lon="10.6819663"><ele>25.0</ele><time>2026-04-11T08:23:32.729Z</time></trkpt><trkpt lat="44.9898321" lon="10.6818462"><ele>25.0</ele><time>2026-04-11T08:23:34.724Z</time></trkpt><trkpt lat="44.9897617" lon="10.6817133"><ele>25.0</ele><time>2026-04-11T08:23:36.724Z</time></trkpt><trkpt lat="44.9896817" lon="10.6815733"><ele>25.0</ele><time>2026-04-11T08:23:38.725Z</time></trkpt><trkpt lat="44.9896417" lon="10.6815017"><ele>25.0</ele><time>2026-04-11T08:23:39.724Z</time></trkpt><trkpt lat="44.9895983" lon="10.68142"><ele>25.000000000000004</ele><time>2026-04-11T08:23:40.725Z</time></trkpt><trkpt lat="44.9895533" lon="10.6813367"><ele>25.0</ele><time>2026-04-11T08:23:41.724Z</time></trkpt><trkpt lat="44.9895067" lon="10.68125"><ele>25.0</ele><time>2026-04-11T08:23:42.724Z</time></trkpt><trkpt lat="44.9894633" lon="10.6811683"><ele>25.0</ele><time>2026-04-11T08:23:43.725Z</time></trkpt><trkpt lat="44.9894217" lon="10.681085"><ele>25.0</ele><time>2026-04-11T08:23:44.724Z</time></trkpt><trkpt lat="44.98938" lon="10.681"><ele>25.000000000000004</ele><time>2026-04-11T08:23:45.725Z</time></trkpt><trkpt lat="44.9893383" lon="10.6809217"><ele>25.0</ele><time>2026-04-11T08:23:46.723Z</time></trkpt><trkpt lat="44.9892983" lon="10.6808433"><ele>24.714285714285715</ele><time>2026-04-11T08:23:47.724Z</time></trkpt><trkpt lat="44.989255" lon="10.680765"><ele>24.42857142857143</ele><time>2026-04-11T08:23:48.725Z</time></trkpt><trkpt lat="44.989215" lon="10.68069"><ele>24.142857142857146</ele><time>2026-04-11T08:23:49.727Z</time></trkpt><trkpt lat="44.9891733" lon="10.680615"><ele>23.857142857142858</ele><time>2026-04-11T08:23:50.726Z</time></trkpt><trkpt lat="44.9891333" lon="10.68054"><ele>23.57142857142857</ele><time>2026-04-11T08:23:51.726Z</time></trkpt><trkpt lat="44.989095" lon="10.6804683"><ele>23.28571428571429</ele><time>2026-04-11T08:23:52.725Z</time></trkpt><trkpt lat="44.98903" lon="10.68035"><ele>23.0</ele><time>2026-04-11T08:23:54.725Z</time></trkpt><trkpt lat="44.98897" lon="10.6802417"><ele>23.666666666666668</ele><time>2026-04-11T08:23:56.724Z</time></trkpt><trkpt lat="44.988915" lon="10.6801267"><ele>24.333333333333336</ele><time>2026-04-11T08:23:58.725Z</time></trkpt><trkpt lat="44.9888433" lon="10.6799967"><ele>25.0</ele><time>2026-04-11T08:24:00.725Z</time></trkpt><trkpt lat="44.9888017" lon="10.67992"><ele>25.666666666666668</ele><time>2026-04-11T08:24:01.725Z</time></trkpt><trkpt lat="44.9887567" lon="10.6798367"><ele>26.333333333333332</ele><time>2026-04-11T08:24:02.724Z</time></trkpt><trkpt lat="44.9887117" lon="10.6797533"><ele>27.0</ele><time>2026-04-11T08:24:03.725Z</time></trkpt><trkpt lat="44.9886667" lon="10.6796683"><ele>27.0</ele><time>2026-04-11T08:24:04.724Z</time></trkpt><trkpt lat="44.9886217" lon="10.679585"><ele>27.0</ele><time>2026-04-11T08:24:05.725Z</time></trkpt><trkpt lat="44.9885767" lon="10.6795"><ele>27.0</ele><time>2026-04-11T08:24:06.724Z</time></trkpt><trkpt lat="44.9885283" lon="10.6794117"><ele>27.0</ele><time>2026-04-11T08:24:07.725Z</time></trkpt><trkpt lat="44.9884783" lon="10.6793217"><ele>27.0</ele><time>2026-04-11T08:24:08.723Z</time></trkpt><trkpt lat="44.9884233" lon="10.6792283"><ele>27.0</ele><time>2026-04-11T08:24:09.725Z</time></trkpt><trkpt lat="44.98837" lon="10.6791367"><ele>26.142857142857142</ele><time>2026-04-11T08:24:10.725Z</time></trkpt><trkpt lat="44.9883217" lon="10.67905"><ele>25.285714285714285</ele><time>2026-04-11T08:24:11.725Z</time></trkpt><trkpt lat="44.9882733" lon="10.678965"><ele>24.42857142857143</ele><time>2026-04-11T08:24:12.724Z</time></trkpt><trkpt lat="44.98823" lon="10.6788867"><ele>23.57142857142857</ele><time>2026-04-11T08:24:13.725Z</time></trkpt><trkpt lat="44.988185" lon="10.67881"><ele>22.714285714285715</ele><time>2026-04-11T08:24:14.724Z</time></trkpt><trkpt lat="44.9881433" lon="10.678735"><ele>21.857142857142858</ele><time>2026-04-11T08:24:15.725Z</time></trkpt><trkpt lat="44.9881017" lon="10.678655"><ele>21.0</ele><time>2026-04-11T08:24:16.724Z</time></trkpt><trkpt lat="44.9880517" lon="10.678575"><ele>20.857142857142858</ele><time>2026-04-11T08:24:17.724Z</time></trkpt><trkpt lat="44.988005" lon="10.6784917"><ele>20.714285714285715</ele><time>2026-04-11T08:24:18.725Z</time></trkpt><trkpt lat="44.9879583" lon="10.6784083"><ele>20.57142857142857</ele><time>2026-04-11T08:24:19.726Z</time></trkpt><trkpt lat="44.987915" lon="10.6783233"><ele>20.42857142857143</ele><time>2026-04-11T08:24:20.724Z</time></trkpt><trkpt lat="44.987875" lon="10.678245"><ele>20.285714285714285</ele><time>2026-04-11T08:24:21.725Z</time></trkpt><trkpt lat="44.987835" lon="10.6781733"><ele>20.142857142857142</ele><time>2026-04-11T08:24:22.724Z</time></trkpt><trkpt lat="44.9877967" lon="10.6781017"><ele>20.0</ele><time>2026-04-11T08:24:23.725Z</time></trkpt><trkpt lat="44.9877267" lon="10.6779733"><ele>20.0</ele><time>2026-04-11T08:24:25.725Z</time></trkpt><trkpt lat="44.9876533" lon="10.6778433"><ele>20.0</ele><time>2026-04-11T08:24:27.724Z</time></trkpt><trkpt lat="44.9875767" lon="10.677715"><ele>20.0</ele><time>2026-04-11T08:24:29.724Z</time></trkpt><trkpt lat="44.987505" lon="10.6776"><ele>20.0</ele><time>2026-04-11T08:24:31.726Z</time></trkpt><trkpt lat="44.9874367" lon="10.6774883"><ele>20.0</ele><time>2026-04-11T08:24:33.725Z</time></trkpt><trkpt lat="44.9873667" lon="10.677375"><ele>19.8</ele><time>2026-04-11T08:24:35.725Z</time></trkpt><trkpt lat="44.9872967" lon="10.6772533"><ele>19.6</ele><time>2026-04-11T08:24:37.725Z</time></trkpt><trkpt lat="44.987225" lon="10.6771283"><ele>19.4</ele><time>2026-04-11T08:24:39.726Z</time></trkpt><trkpt lat="44.9871533" lon="10.6770133"><ele>19.2</ele><time>2026-04-11T08:24:41.724Z</time></trkpt><trkpt lat="44.9870883" lon="10.67691"><ele>19.0</ele><time>2026-04-11T08:24:43.725Z</time></trkpt><trkpt lat="44.98701" lon="10.6768033"><ele>18.833333333333332</ele><time>2026-04-11T08:24:45.725Z</time></trkpt><trkpt lat="44.9869667" lon="10.6767317"><ele>18.666666666666664</ele><time>2026-04-11T08:24:46.724Z</time></trkpt><trkpt lat="44.98692" lon="10.6766483"><ele>18.5</ele><time>2026-04-11T08:24:47.726Z</time></trkpt><trkpt lat="44.98687" lon="10.6765617"><ele>18.333333333333332</ele><time>2026-04-11T08:24:48.726Z</time></trkpt><trkpt lat="44.98682" lon="10.676475"><ele>18.166666666666668</ele><time>2026-04-11T08:24:49.724Z</time></trkpt><trkpt lat="44.9867633" lon="10.6763917"><ele>18.0</ele><time>2026-04-11T08:24:50.725Z</time></trkpt><trkpt lat="44.9867083" lon="10.6763083"><ele>18.142857142857146</ele><time>2026-04-11T08:24:51.725Z</time></trkpt><trkpt lat="44.986655" lon="10.67623"><ele>18.285714285714285</ele><time>2026-04-11T08:24:52.724Z</time></trkpt><trkpt lat="44.9866033" lon="10.6761533"><ele>18.42857142857143</ele><time>2026-04-11T08:24:53.725Z</time></trkpt><trkpt lat="44.9865533" lon="10.67608"><ele>18.571428571428573</ele><time>2026-04-11T08:24:54.725Z</time></trkpt><trkpt lat="44.9865033" lon="10.6760067"><ele>18.714285714285715</ele><time>2026-04-11T08:24:55.725Z</time></trkpt><trkpt lat="44.9864517" lon="10.675935"><ele>18.857142857142858</ele><time>2026-04-11T08:24:56.725Z</time></trkpt><trkpt lat="44.9864017" lon="10.6758617"><ele>19.0</ele><time>2026-04-11T08:24:57.725Z</time></trkpt><trkpt lat="44.98635" lon="10.6757883"><ele>19.0</ele><time>2026-04-11T08:24:58.724Z</time></trkpt><trkpt lat="44.9862967" lon="10.6757117"><ele>19.0</ele><time>2026-04-11T08:24:59.724Z</time></trkpt><trkpt lat="44.9862483" lon="10.675645"><ele>19.0</ele><time>2026-04-11T08:25:00.725Z</time></trkpt><trkpt lat="44.986195" lon="10.6755733"><ele>19.0</ele><time>2026-04-11T08:25:01.724Z</time></trkpt><trkpt lat="44.98614" lon="10.675495"><ele>19.0</ele><time>2026-04-11T08:25:02.725Z</time></trkpt><trkpt lat="44.98609" lon="10.6754233"><ele>19.0</ele><time>2026-04-11T08:25:03.726Z</time></trkpt><trkpt lat="44.9860383" lon="10.67535"><ele>19.0</ele><time>2026-04-11T08:25:04.724Z</time></trkpt><trkpt lat="44.9859867" lon="10.6752833"><ele>19.166666666666664</ele><time>2026-04-11T08:25:05.725Z</time></trkpt><trkpt lat="44.9859367" lon="10.675215"><ele>19.333333333333332</ele><time>2026-04-11T08:25:06.725Z</time></trkpt><trkpt lat="44.9858817" lon="10.6751433"><ele>19.5</ele><time>2026-04-11T08:25:07.724Z</time></trkpt><trkpt lat="44.985825" lon="10.6750683"><ele>19.666666666666668</ele><time>2026-04-11T08:25:08.723Z</time></trkpt><trkpt lat="44.9857717" lon="10.674995"><ele>19.833333333333336</ele><time>2026-04-11T08:25:09.725Z</time></trkpt><trkpt lat="44.9857233" lon="10.6749283"><ele>20.0</ele><time>2026-04-11T08:25:10.724Z</time></trkpt><trkpt lat="44.985635" lon="10.6748083"><ele>20.0</ele><time>2026-04-11T08:25:12.726Z</time></trkpt><trkpt lat="44.9855817" lon="10.6747383"><ele>20.0</ele><time>2026-04-11T08:25:13.725Z</time></trkpt><trkpt lat="44.9855217" lon="10.6746617"><ele>20.0</ele><time>2026-04-11T08:25:14.725Z</time></trkpt><trkpt lat="44.9854633" lon="10.6745883"><ele>20.0</ele><time>2026-04-11T08:25:15.725Z</time></trkpt><trkpt lat="44.9854083" lon="10.67452"><ele>20.0</ele><time>2026-04-11T08:25:16.725Z</time></trkpt><trkpt lat="44.9853567" lon="10.6744567"><ele>20.0</ele><time>2026-04-11T08:25:17.725Z</time></trkpt><trkpt lat="44.98528" lon="10.6743567"><ele>20.0</ele><time>2026-04-11T08:25:19.724Z</time></trkpt><trkpt lat="44.9852033" lon="10.67425"><ele>20.0</ele><time>2026-04-11T08:25:21.725Z</time></trkpt><trkpt lat="44.9851567" lon="10.6741883"><ele>20.0</ele><time>2026-04-11T08:25:22.723Z</time></trkpt><trkpt lat="44.985105" lon="10.674125"><ele>20.0</ele><time>2026-04-11T08:25:23.725Z</time></trkpt><trkpt lat="44.985055" lon="10.6740633"><ele>20.0</ele><time>2026-04-11T08:25:24.724Z</time></trkpt><trkpt lat="44.9849983" lon="10.6739917"><ele>20.0</ele><time>2026-04-11T08:25:25.725Z</time></trkpt><trkpt lat="44.9849433" lon="10.6739267"><ele>20.0</ele><time>2026-04-11T08:25:26.724Z</time></trkpt><trkpt lat="44.9848883" lon="10.6738617"><ele>20.0</ele><time>2026-04-11T08:25:27.726Z</time></trkpt><trkpt lat="44.9848367" lon="10.6737967"><ele>20.0</ele><time>2026-04-11T08:25:28.727Z</time></trkpt><trkpt lat="44.9847483" lon="10.6736867"><ele>20.0</ele><time>2026-04-11T08:25:30.724Z</time></trkpt><trkpt lat="44.9847" lon="10.673625"><ele>20.0</ele><time>2026-04-11T08:25:31.724Z</time></trkpt><trkpt lat="44.9846483" lon="10.673565"><ele>20.0</ele><time>2026-04-11T08:25:32.725Z</time></trkpt><trkpt lat="44.9845933" lon="10.6735017"><ele>19.833333333333336</ele><time>2026-04-11T08:25:33.725Z</time></trkpt><trkpt lat="44.9845433" lon="10.6734433"><ele>19.666666666666668</ele><time>2026-04-11T08:25:34.724Z</time></trkpt><trkpt lat="44.9844917" lon="10.6733817"><ele>19.5</ele><time>2026-04-11T08:25:35.725Z</time></trkpt><trkpt lat="44.98441" lon="10.6732783"><ele>19.333333333333332</ele><time>2026-04-11T08:25:37.725Z</time></trkpt><trkpt lat="44.98436" lon="10.6732117"><ele>19.166666666666664</ele><time>2026-04-11T08:25:39.725Z</time></trkpt><trkpt lat="44.9843183" lon="10.6731183"><ele>19.0</ele><time>2026-04-11T08:25:44.725Z</time></trkpt><trkpt lat="44.9842483" lon="10.6730633"><ele>19.0</ele><time>2026-04-11T08:25:47.725Z</time></trkpt><trkpt lat="44.9841633" lon="10.6730067"><ele>19.0</ele><time>2026-04-11T08:25:50.723Z</time></trkpt><trkpt lat="44.9840933" lon="10.67297"><ele>19.0</ele><time>2026-04-11T08:25:52.724Z</time></trkpt><trkpt lat="44.984025" lon="10.6729183"><ele>19.0</ele><time>2026-04-11T08:25:54.725Z</time></trkpt><trkpt lat="44.983965" lon="10.6728467"><ele>19.0</ele><time>2026-04-11T08:25:56.723Z</time></trkpt><trkpt lat="44.9839183" lon="10.6727483"><ele>19.0</ele><time>2026-04-11T08:25:58.724Z</time></trkpt><trkpt lat="44.98387" lon="10.6726683"><ele>19.2</ele><time>2026-04-11T08:26:00.723Z</time></trkpt><trkpt lat="44.9838117" lon="10.672605"><ele>19.4</ele><time>2026-04-11T08:26:02.723Z</time></trkpt><trkpt lat="44.983735" lon="10.672535"><ele>19.6</ele><time>2026-04-11T08:26:04.724Z</time></trkpt><trkpt lat="44.98363" lon="10.67247"><ele>19.8</ele><time>2026-04-11T08:26:06.726Z</time></trkpt><trkpt lat="44.9835317" lon="10.672395"><ele>20.0</ele><time>2026-04-11T08:26:08.725Z</time></trkpt><trkpt lat="44.9834383" lon="10.67231"><ele>20.0</ele><time>2026-04-11T08:26:10.724Z</time></trkpt><trkpt lat="44.98335" lon="10.6721883"><ele>20.0</ele><time>2026-04-11T08:26:12.725Z</time></trkpt><trkpt lat="44.9833" lon="10.67213"><ele>20.0</ele><time>2026-04-11T08:26:13.725Z</time></trkpt><trkpt lat="44.9832433" lon="10.6720867"><ele>20.0</ele><time>2026-04-11T08:26:14.725Z</time></trkpt><trkpt lat="44.9831767" lon="10.6720483"><ele>20.0</ele><time>2026-04-11T08:26:15.725Z</time></trkpt><trkpt lat="44.9830767" lon="10.6719583"><ele>20.0</ele><time>2026-04-11T08:26:17.724Z</time></trkpt><trkpt lat="44.9830183" lon="10.6718433"><ele>19.833333333333336</ele><time>2026-04-11T08:26:19.723Z</time></trkpt><trkpt lat="44.98305" lon="10.67175"><ele>19.666666666666668</ele><time>2026-04-11T08:26:27.724Z</time></trkpt><trkpt lat="44.9830967" lon="10.671685"><ele>19.5</ele><time>2026-04-11T08:26:29.725Z</time></trkpt><trkpt lat="44.98315" lon="10.6716017"><ele>19.333333333333332</ele><time>2026-04-11T08:26:31.726Z</time></trkpt><trkpt lat="44.9831933" lon="10.6714933"><ele>19.166666666666664</ele><time>2026-04-11T08:26:33.725Z</time></trkpt><trkpt lat="44.9832283" lon="10.6713733"><ele>19.0</ele><time>2026-04-11T08:26:35.724Z</time></trkpt><trkpt lat="44.9832333" lon="10.6712767"><ele>19.0</ele><time>2026-04-11T08:26:37.724Z</time></trkpt><trkpt lat="44.9832217" lon="10.6711883"><ele>19.0</ele><time>2026-04-11T08:26:39.725Z</time></trkpt><trkpt lat="44.98318" lon="10.6711067"><ele>19.0</ele><time>2026-04-11T08:26:41.725Z</time></trkpt><trkpt lat="44.9831233" lon="10.6710383"><ele>19.0</ele><time>2026-04-11T08:26:43.725Z</time></trkpt><trkpt lat="44.983065" lon="10.6709717"><ele>19.0</ele><time>2026-04-11T08:26:45.725Z</time></trkpt><trkpt lat="44.98301" lon="10.6709067"><ele>19.0</ele><time>2026-04-11T08:26:47.724Z</time></trkpt><trkpt lat="44.9829517" lon="10.670835"><ele>19.0</ele><time>2026-04-11T08:26:49.724Z</time></trkpt><trkpt lat="44.9829" lon="10.670765"><ele>19.166666666666664</ele><time>2026-04-11T08:26:51.724Z</time></trkpt><trkpt lat="44.982845" lon="10.6706867"><ele>19.333333333333332</ele><time>2026-04-11T08:26:54.725Z</time></trkpt><trkpt lat="44.98279" lon="10.6706083"><ele>19.5</ele><time>2026-04-11T08:27:04.724Z</time></trkpt><trkpt lat="44.98275" lon="10.6705217"><ele>19.666666666666668</ele><time>2026-04-11T08:27:06.724Z</time></trkpt><trkpt lat="44.982705" lon="10.6704333"><ele>19.833333333333336</ele><time>2026-04-11T08:27:08.725Z</time></trkpt><trkpt lat="44.9826617" lon="10.6703367"><ele>20.0</ele><time>2026-04-11T08:27:10.724Z</time></trkpt><trkpt lat="44.982605" lon="10.6702083"><ele>20.0</ele><time>2026-04-11T08:27:12.724Z</time></trkpt><trkpt lat="44.9825433" lon="10.6700783"><ele>20.0</ele><time>2026-04-11T08:27:14.724Z</time></trkpt><trkpt lat="44.9824783" lon="10.6699783"><ele>20.0</ele><time>2026-04-11T08:27:16.724Z</time></trkpt><trkpt lat="44.9824217" lon="10.6698733"><ele>20.0</ele><time>2026-04-11T08:27:18.724Z</time></trkpt><trkpt lat="44.9823767" lon="10.669785"><ele>20.0</ele><time>2026-04-11T08:27:20.725Z</time></trkpt><trkpt lat="44.9823017" lon="10.6697333"><ele>20.142857142857142</ele><time>2026-04-11T08:27:57.725Z</time></trkpt><trkpt lat="44.9822483" lon="10.6698267"><ele>20.285714285714285</ele><time>2026-04-11T08:28:00.723Z</time></trkpt><trkpt lat="44.9822633" lon="10.6699133"><ele>20.42857142857143</ele><time>2026-04-11T08:28:02.724Z</time></trkpt><trkpt lat="44.9823183" lon="10.6699817"><ele>20.57142857142857</ele><time>2026-04-11T08:28:04.724Z</time></trkpt><trkpt lat="44.9823833" lon="10.6700333"><ele>20.714285714285715</ele><time>2026-04-11T08:28:06.725Z</time></trkpt><trkpt lat="44.98241" lon="10.6701317"><ele>20.857142857142858</ele><time>2026-04-11T08:28:08.724Z</time></trkpt><trkpt lat="44.982345" lon="10.6701817"><ele>21.0</ele><time>2026-04-11T08:28:11.723Z</time></trkpt><trkpt lat="44.9822533" lon="10.6701017"><ele>21.0</ele><time>2026-04-11T08:28:13.724Z</time></trkpt><trkpt lat="44.9821983" lon="10.6700433"><ele>21.0</ele><time>2026-04-11T08:28:14.724Z</time></trkpt><trkpt lat="44.9821483" lon="10.6699833"><ele>21.0</ele><time>2026-04-11T08:28:15.725Z</time></trkpt><trkpt lat="44.982045" lon="10.6698733"><ele>21.0</ele><time>2026-04-11T08:28:17.724Z</time></trkpt><trkpt lat="44.98198" lon="10.6697983"><ele>21.0</ele><time>2026-04-11T08:28:18.725Z</time></trkpt><trkpt lat="44.9819033" lon="10.6697117"><ele>21.0</ele><time>2026-04-11T08:28:19.725Z</time></trkpt><trkpt lat="44.98183" lon="10.669625"><ele>21.0</ele><time>2026-04-11T08:28:20.726Z</time></trkpt><trkpt lat="44.9817617" lon="10.66955"><ele>21.0</ele><time>2026-04-11T08:28:21.726Z</time></trkpt><trkpt lat="44.9817" lon="10.6695033"><ele>21.0</ele><time>2026-04-11T08:28:22.726Z</time></trkpt><trkpt lat="44.9816383" lon="10.6694817"><ele>21.0</ele><time>2026-04-11T08:28:23.725Z</time></trkpt><trkpt lat="44.9815517" lon="10.6696"><ele>21.0</ele><time>2026-04-11T08:28:25.725Z</time></trkpt><trkpt lat="44.9815233" lon="10.6696917"><ele>21.0</ele><time>2026-04-11T08:28:26.725Z</time></trkpt><trkpt lat="44.98148" lon="10.6698383"><ele>20.8</ele><time>2026-04-11T08:28:28.725Z</time></trkpt><trkpt lat="44.981435" lon="10.6699967"><ele>20.6</ele><time>2026-04-11T08:28:30.726Z</time></trkpt><trkpt lat="44.9814083" lon="10.670085"><ele>20.4</ele><time>2026-04-11T08:28:31.725Z</time></trkpt><trkpt lat="44.9814017" lon="10.6702417"><ele>20.2</ele><time>2026-04-11T08:28:33.724Z</time></trkpt><trkpt lat="44.9814733" lon="10.670365"><ele>20.0</ele><time>2026-04-11T08:28:35.724Z</time></trkpt><trkpt lat="44.981545" lon="10.67042"><ele>20.0</ele><time>2026-04-11T08:28:36.725Z</time></trkpt><trkpt lat="44.9816283" lon="10.670475"><ele>20.0</ele><time>2026-04-11T08:28:37.724Z</time></trkpt><trkpt lat="44.9817017" lon="10.6705217"><ele>20.0</ele><time>2026-04-11T08:28:38.725Z</time></trkpt><trkpt lat="44.98179" lon="10.6706033"><ele>20.0</ele><time>2026-04-11T08:28:40.725Z</time></trkpt><trkpt lat="44.9817333" lon="10.670475"><ele>20.0</ele><time>2026-04-11T08:28:45.725Z</time></trkpt><trkpt lat="44.9816617" lon="10.6704317"><ele>20.0</ele><time>2026-04-11T08:28:46.724Z</time></trkpt><trkpt lat="44.9815883" lon="10.6703767"><ele>20.0</ele><time>2026-04-11T08:28:47.727Z</time></trkpt><trkpt lat="44.9815317" lon="10.670325"><ele>20.0</ele><time>2026-04-11T08:28:48.725Z</time></trkpt><trkpt lat="44.9814717" lon="10.6702533"><ele>20.0</ele><time>2026-04-11T08:28:50.725Z</time></trkpt><trkpt lat="44.981455" lon="10.6701583"><ele>20.0</ele><time>2026-04-11T08:28:53.725Z</time></trkpt><trkpt lat="44.98157" lon="10.670205"><ele>20.0</ele><time>2026-04-11T08:29:48.725Z</time></trkpt><trkpt lat="44.9816517" lon="10.6702567"><ele>20.0</ele><time>2026-04-11T08:29:50.725Z</time></trkpt><trkpt lat="44.9817467" lon="10.6703333"><ele>20.0</ele><time>2026-04-11T08:29:52.725Z</time></trkpt><trkpt lat="44.9817983" lon="10.6703867"><ele>20.0</ele><time>2026-04-11T08:29:53.726Z</time></trkpt><trkpt lat="44.9818417" lon="10.6704583"><ele>20.0</ele><time>2026-04-11T08:29:54.726Z</time></trkpt><trkpt lat="44.9818867" lon="10.6705383"><ele>20.0</ele><time>2026-04-11T08:29:55.725Z</time></trkpt><trkpt lat="44.9819217" lon="10.6706367"><ele>20.0</ele><time>2026-04-11T08:29:56.724Z</time></trkpt><trkpt lat="44.981955" lon="10.6707483"><ele>20.0</ele><time>2026-04-11T08:29:57.725Z</time></trkpt><trkpt lat="44.981985" lon="10.670855"><ele>20.0</ele><time>2026-04-11T08:29:58.725Z</time></trkpt><trkpt lat="44.982015" lon="10.6709383"><ele>20.0</ele><time>2026-04-11T08:29:59.724Z</time></trkpt><trkpt lat="44.982115" lon="10.671015"><ele>20.0</ele><time>2026-04-11T08:30:01.726Z</time></trkpt><trkpt lat="44.982195" lon="10.6710083"><ele>20.0</ele><time>2026-04-11T08:30:02.724Z</time></trkpt><trkpt lat="44.9822783" lon="10.6710067"><ele>20.0</ele><time>2026-04-11T08:30:03.725Z</time></trkpt><trkpt lat="44.9823567" lon="10.6710217"><ele>20.0</ele><time>2026-04-11T08:30:04.724Z</time></trkpt><trkpt lat="44.9824267" lon="10.67105"><ele>20.0</ele><time>2026-04-11T08:30:05.725Z</time></trkpt><trkpt lat="44.9824883" lon="10.6710933"><ele>20.0</ele><time>2026-04-11T08:30:06.726Z</time></trkpt><trkpt lat="44.9825417" lon="10.6711583"><ele>20.0</ele><time>2026-04-11T08:30:07.725Z</time></trkpt><trkpt lat="44.9825917" lon="10.67123"><ele>20.0</ele><time>2026-04-11T08:30:08.725Z</time></trkpt><trkpt lat="44.9826917" lon="10.6712983"><ele>20.0</ele><time>2026-04-11T08:30:10.724Z</time></trkpt><trkpt lat="44.9827567" lon="10.6712267"><ele>20.0</ele><time>2026-04-11T08:30:12.725Z</time></trkpt><trkpt lat="44.982705" lon="10.6710817"><ele>20.0</ele><time>2026-04-11T08:30:14.725Z</time></trkpt><trkpt lat="44.98265" lon="10.6710117"><ele>20.0</ele><time>2026-04-11T08:30:15.725Z</time></trkpt><trkpt lat="44.9825967" lon="10.670945"><ele>20.0</ele><time>2026-04-11T08:30:16.725Z</time></trkpt><trkpt lat="44.9825467" lon="10.6708317"><ele>20.0</ele><time>2026-04-11T08:30:18.725Z</time></trkpt><trkpt lat="44.9825983" lon="10.6707667"><ele>20.0</ele><time>2026-04-11T08:30:20.724Z</time></trkpt><trkpt lat="44.9826617" lon="10.6708067"><ele>20.0</ele><time>2026-04-11T08:30:21.725Z</time></trkpt><trkpt lat="44.982715" lon="10.6708667"><ele>20.0</ele><time>2026-04-11T08:30:22.725Z</time></trkpt><trkpt lat="44.9827517" lon="10.67095"><ele>20.0</ele><time>2026-04-11T08:30:23.725Z</time></trkpt><trkpt lat="44.98278" lon="10.6710433"><ele>20.0</ele><time>2026-04-11T08:30:24.724Z</time></trkpt><trkpt lat="44.9828117" lon="10.671145"><ele>20.0</ele><time>2026-04-11T08:30:25.724Z</time></trkpt><trkpt lat="44.9828517" lon="10.6712567"><ele>20.0</ele><time>2026-04-11T08:30:26.725Z</time></trkpt><trkpt lat="44.98289" lon="10.6713517"><ele>19.8</ele><time>2026-04-11T08:30:27.725Z</time></trkpt><trkpt lat="44.9829683" lon="10.6714467"><ele>19.6</ele><time>2026-04-11T08:30:29.724Z</time></trkpt><trkpt lat="44.9830633" lon="10.6713617"><ele>19.4</ele><time>2026-04-11T08:30:31.726Z</time></trkpt><trkpt lat="44.9831317" lon="10.671255"><ele>19.2</ele><time>2026-04-11T08:30:33.726Z</time></trkpt><trkpt lat="44.9831583" lon="10.67139"><ele>19.0</ele><time>2026-04-11T08:30:36.725Z</time></trkpt><trkpt lat="44.98311" lon="10.6714583"><ele>19.0</ele><time>2026-04-11T08:30:37.725Z</time></trkpt><trkpt lat="44.9830417" lon="10.6715333"><ele>19.0</ele><time>2026-04-11T08:30:38.725Z</time></trkpt><trkpt lat="44.98299" lon="10.6716017"><ele>19.0</ele><time>2026-04-11T08:30:39.726Z</time></trkpt><trkpt lat="44.982955" lon="10.6717267"><ele>19.0</ele><time>2026-04-11T08:30:41.727Z</time></trkpt><trkpt lat="44.9830283" lon="10.6717483"><ele>19.0</ele><time>2026-04-11T08:30:43.724Z</time></trkpt><trkpt lat="44.98313" lon="10.6716217"><ele>19.0</ele><time>2026-04-11T08:30:45.725Z</time></trkpt><trkpt lat="44.983175" lon="10.6715267"><ele>19.0</ele><time>2026-04-11T08:30:46.725Z</time></trkpt><trkpt lat="44.9832067" lon="10.67144"><ele>19.0</ele><time>2026-04-11T08:30:47.724Z</time></trkpt><trkpt lat="44.9832317" lon="10.6712783"><ele>19.0</ele><time>2026-04-11T08:30:49.724Z</time></trkpt><trkpt lat="44.9831967" lon="10.6711083"><ele>19.0</ele><time>2026-04-11T08:30:51.725Z</time></trkpt><trkpt lat="44.98315" lon="10.671025"><ele>19.166666666666664</ele><time>2026-04-11T08:30:52.725Z</time></trkpt><trkpt lat="44.9830833" lon="10.67095"><ele>19.333333333333332</ele><time>2026-04-11T08:30:53.724Z</time></trkpt><trkpt lat="44.9830233" lon="10.6708817"><ele>19.5</ele><time>2026-04-11T08:30:54.725Z</time></trkpt><trkpt lat="44.9829583" lon="10.6708117"><ele>19.666666666666668</ele><time>2026-04-11T08:30:55.724Z</time></trkpt><trkpt lat="44.982895" lon="10.6707333"><ele>19.833333333333336</ele><time>2026-04-11T08:30:56.724Z</time></trkpt><trkpt lat="44.9828383" lon="10.6706633"><ele>20.0</ele><time>2026-04-11T08:30:57.725Z</time></trkpt><trkpt lat="44.98279" lon="10.6705983"><ele>20.0</ele><time>2026-04-11T08:30:58.725Z</time></trkpt><trkpt lat="44.98272" lon="10.670465"><ele>20.0</ele><time>2026-04-11T08:31:00.725Z</time></trkpt><trkpt lat="44.98265" lon="10.6703267"><ele>20.0</ele><time>2026-04-11T08:31:02.725Z</time></trkpt><trkpt lat="44.9826133" lon="10.6702533"><ele>20.0</ele><time>2026-04-11T08:31:03.727Z</time></trkpt><trkpt lat="44.98253" lon="10.6701083"><ele>20.0</ele><time>2026-04-11T08:31:05.724Z</time></trkpt><trkpt lat="44.9824783" lon="10.670015"><ele>20.166666666666668</ele><time>2026-04-11T08:31:06.725Z</time></trkpt><trkpt lat="44.982425" lon="10.669915"><ele>20.333333333333336</ele><time>2026-04-11T08:31:07.725Z</time></trkpt><trkpt lat="44.982375" lon="10.66982"><ele>20.5</ele><time>2026-04-11T08:31:08.725Z</time></trkpt><trkpt lat="44.9823233" lon="10.6697533"><ele>20.666666666666668</ele><time>2026-04-11T08:31:09.725Z</time></trkpt><trkpt lat="44.9822383" lon="10.66976"><ele>20.833333333333332</ele><time>2026-04-11T08:31:11.724Z</time></trkpt><trkpt lat="44.9822267" lon="10.6698633"><ele>21.0</ele><time>2026-04-11T08:31:13.724Z</time></trkpt><trkpt lat="44.9823017" lon="10.6699483"><ele>21.0</ele><time>2026-04-11T08:31:14.725Z</time></trkpt><trkpt lat="44.9823683" lon="10.6700217"><ele>21.0</ele><time>2026-04-11T08:31:15.725Z</time></trkpt><trkpt lat="44.98243" lon="10.6701383"><ele>21.0</ele><time>2026-04-11T08:31:17.724Z</time></trkpt><trkpt lat="44.9823633" lon="10.6701783"><ele>21.0</ele><time>2026-04-11T08:31:19.724Z</time></trkpt><trkpt lat="44.9822433" lon="10.6700767"><ele>21.0</ele><time>2026-04-11T08:31:21.725Z</time></trkpt><trkpt lat="44.9821767" lon="10.6700067"><ele>21.0</ele><time>2026-04-11T08:31:22.725Z</time></trkpt><trkpt lat="44.98212" lon="10.6699483"><ele>21.0</ele><time>2026-04-11T08:31:23.724Z</time></trkpt><trkpt lat="44.9820617" lon="10.6698833"><ele>21.0</ele><time>2026-04-11T08:31:24.725Z</time></trkpt><trkpt lat="44.9819867" lon="10.6698017"><ele>21.0</ele><time>2026-04-11T08:31:25.723Z</time></trkpt><trkpt lat="44.9819" lon="10.6697"><ele>21.0</ele><time>2026-04-11T08:31:26.725Z</time></trkpt><trkpt lat="44.981815" lon="10.6696033"><ele>21.0</ele><time>2026-04-11T08:31:27.724Z</time></trkpt><trkpt lat="44.9817467" lon="10.669535"><ele>21.0</ele><time>2026-04-11T08:31:28.725Z</time></trkpt><trkpt lat="44.981685" lon="10.66949"><ele>21.0</ele><time>2026-04-11T08:31:29.725Z</time></trkpt><trkpt lat="44.9815767" lon="10.6695417"><ele>21.0</ele><time>2026-04-11T08:31:31.724Z</time></trkpt><trkpt lat="44.9815333" lon="10.6696517"><ele>21.0</ele><time>2026-04-11T08:31:32.727Z</time></trkpt><trkpt lat="44.9815033" lon="10.66974"><ele>21.0</ele><time>2026-04-11T08:31:33.726Z</time></trkpt><trkpt lat="44.981445" lon="10.6699067"><ele>20.833333333333332</ele><time>2026-04-11T08:31:35.726Z</time></trkpt><trkpt lat="44.9814167" lon="10.6700083"><ele>20.666666666666668</ele><time>2026-04-11T08:31:36.726Z</time></trkpt><trkpt lat="44.9813933" lon="10.670115"><ele>20.5</ele><time>2026-04-11T08:31:37.726Z</time></trkpt><trkpt lat="44.981395" lon="10.670215"><ele>20.333333333333336</ele><time>2026-04-11T08:31:38.726Z</time></trkpt><trkpt lat="44.981415" lon="10.670315"><ele>20.166666666666668</ele><time>2026-04-11T08:31:39.726Z</time></trkpt><trkpt lat="44.9814717" lon="10.6703933"><ele>20.0</ele><time>2026-04-11T08:31:40.726Z</time></trkpt><trkpt lat="44.9815633" lon="10.6704583"><ele>20.0</ele><time>2026-04-11T08:31:41.726Z</time></trkpt><trkpt lat="44.9816533" lon="10.67052"><ele>20.0</ele><time>2026-04-11T08:31:42.724Z</time></trkpt><trkpt lat="44.9817333" lon="10.67057"><ele>20.0</ele><time>2026-04-11T08:31:43.724Z</time></trkpt><trkpt lat="44.981795" lon="10.6706183"><ele>20.0</ele><time>2026-04-11T08:31:44.725Z</time></trkpt><trkpt lat="44.9818583" lon="10.67062"><ele>20.0</ele><time>2026-04-11T08:31:46.724Z</time></trkpt><trkpt lat="44.9818133" lon="10.6705233"><ele>20.0</ele><time>2026-04-11T08:31:48.725Z</time></trkpt><trkpt lat="44.9817567" lon="10.6704667"><ele>20.0</ele><time>2026-04-11T08:31:49.723Z</time></trkpt><trkpt lat="44.981685" lon="10.6704167"><ele>20.0</ele><time>2026-04-11T08:31:50.725Z</time></trkpt><trkpt lat="44.9816067" lon="10.6703533"><ele>20.0</ele><time>2026-04-11T08:31:51.723Z</time></trkpt><trkpt lat="44.98154" lon="10.6702917"><ele>20.0</ele><time>2026-04-11T08:31:52.724Z</time></trkpt><trkpt lat="44.9814833" lon="10.6701933"><ele>20.0</ele><time>2026-04-11T08:31:54.725Z</time></trkpt><trkpt lat="44.981555" lon="10.6701867"><ele>20.0</ele><time>2026-04-11T08:31:57.725Z</time></trkpt><trkpt lat="44.9816183" lon="10.6702417"><ele>20.0</ele><time>2026-04-11T08:31:58.724Z</time></trkpt><trkpt lat="44.981685" lon="10.6702917"><ele>20.0</ele><time>2026-04-11T08:31:59.725Z</time></trkpt><trkpt lat="44.9817533" lon="10.670345"><ele>20.0</ele><time>2026-04-11T08:32:00.725Z</time></trkpt><trkpt lat="44.9818217" lon="10.6704117"><ele>20.0</ele><time>2026-04-11T08:32:01.724Z</time></trkpt><trkpt lat="44.9818833" lon="10.6704933"><ele>20.0</ele><time>2026-04-11T08:32:02.726Z</time></trkpt><trkpt lat="44.9819383" lon="10.67059"><ele>20.0</ele><time>2026-04-11T08:32:03.726Z</time></trkpt><trkpt lat="44.9819767" lon="10.6707083"><ele>20.0</ele><time>2026-04-11T08:32:04.725Z</time></trkpt><trkpt lat="44.9820067" lon="10.6708283"><ele>20.0</ele><time>2026-04-11T08:32:05.724Z</time></trkpt><trkpt lat="44.982035" lon="10.67092"><ele>20.0</ele><time>2026-04-11T08:32:06.725Z</time></trkpt><trkpt lat="44.9821083" lon="10.6710217"><ele>20.0</ele><time>2026-04-11T08:32:08.725Z</time></trkpt><trkpt lat="44.9821783" lon="10.6710167"><ele>20.0</ele><time>2026-04-11T08:32:09.724Z</time></trkpt><trkpt lat="44.98226" lon="10.671015"><ele>20.0</ele><time>2026-04-11T08:32:10.725Z</time></trkpt><trkpt lat="44.9823417" lon="10.6710283"><ele>20.0</ele><time>2026-04-11T08:32:11.725Z</time></trkpt><trkpt lat="44.9824217" lon="10.6710483"><ele>20.0</ele><time>2026-04-11T08:32:12.724Z</time></trkpt><trkpt lat="44.98249" lon="10.67109"><ele>20.0</ele><time>2026-04-11T08:32:13.724Z</time></trkpt><trkpt lat="44.9825517" lon="10.671155"><ele>20.0</ele><time>2026-04-11T08:32:14.725Z</time></trkpt><trkpt lat="44.9826067" lon="10.67123"><ele>20.0</ele><time>2026-04-11T08:32:15.725Z</time></trkpt><trkpt lat="44.9826567" lon="10.6712917"><ele>20.0</ele><time>2026-04-11T08:32:16.724Z</time></trkpt><trkpt lat="44.9827367" lon="10.67129"><ele>20.0</ele><time>2026-04-11T08:32:18.725Z</time></trkpt><trkpt lat="44.9827717" lon="10.6711683"><ele>20.0</ele><time>2026-04-11T08:32:20.725Z</time></trkpt><trkpt lat="44.982735" lon="10.671075"><ele>20.0</ele><time>2026-04-11T08:32:21.725Z</time></trkpt><trkpt lat="44.9826817" lon="10.6709933"><ele>20.0</ele><time>2026-04-11T08:32:22.725Z</time></trkpt><trkpt lat="44.98263" lon="10.6709317"><ele>20.0</ele><time>2026-04-11T08:32:23.724Z</time></trkpt><trkpt lat="44.9825783" lon="10.6708167"><ele>20.0</ele><time>2026-04-11T08:32:25.724Z</time></trkpt><trkpt lat="44.9826767" lon="10.6708067"><ele>20.0</ele><time>2026-04-11T08:32:28.725Z</time></trkpt><trkpt lat="44.98273" lon="10.670885"><ele>20.0</ele><time>2026-04-11T08:32:29.725Z</time></trkpt><trkpt lat="44.9827683" lon="10.6709733"><ele>20.0</ele><time>2026-04-11T08:32:30.725Z</time></trkpt><trkpt lat="44.9828033" lon="10.6710733"><ele>20.0</ele><time>2026-04-11T08:32:31.727Z</time></trkpt><trkpt lat="44.9828417" lon="10.6711883"><ele>20.0</ele><time>2026-04-11T08:32:32.724Z</time></trkpt><trkpt lat="44.9828817" lon="10.6713033"><ele>20.0</ele><time>2026-04-11T08:32:33.725Z</time></trkpt><trkpt lat="44.98292" lon="10.6713917"><ele>19.833333333333336</ele><time>2026-04-11T08:32:34.725Z</time></trkpt><trkpt lat="44.9830083" lon="10.6714167"><ele>19.666666666666668</ele><time>2026-04-11T08:32:36.724Z</time></trkpt><trkpt lat="44.9830817" lon="10.6713067"><ele>19.5</ele><time>2026-04-11T08:32:38.726Z</time></trkpt><trkpt lat="44.9831567" lon="10.6712333"><ele>19.333333333333332</ele><time>2026-04-11T08:32:40.727Z</time></trkpt><trkpt lat="44.983165" lon="10.6713383"><ele>19.166666666666664</ele><time>2026-04-11T08:32:42.725Z</time></trkpt><trkpt lat="44.9831233" lon="10.6714067"><ele>19.0</ele><time>2026-04-11T08:32:43.725Z</time></trkpt><trkpt lat="44.9830617" lon="10.671485"><ele>19.0</ele><time>2026-04-11T08:32:44.725Z</time></trkpt><trkpt lat="44.983005" lon="10.67156"><ele>19.0</ele><time>2026-04-11T08:32:45.725Z</time></trkpt><trkpt lat="44.9829683" lon="10.67164"><ele>19.0</ele><time>2026-04-11T08:32:46.725Z</time></trkpt><trkpt lat="44.9829733" lon="10.6717583"><ele>19.0</ele><time>2026-04-11T08:32:48.725Z</time></trkpt><trkpt lat="44.98306" lon="10.6717383"><ele>19.0</ele><time>2026-04-11T08:32:50.725Z</time></trkpt><trkpt lat="44.9831483" lon="10.6715917"><ele>19.0</ele><time>2026-04-11T08:32:52.725Z</time></trkpt><trkpt lat="44.9831917" lon="10.6714917"><ele>19.0</ele><time>2026-04-11T08:32:53.724Z</time></trkpt><trkpt lat="44.9832217" lon="10.6713917"><ele>19.0</ele><time>2026-04-11T08:32:54.725Z</time></trkpt><trkpt lat="44.9832433" lon="10.67129"><ele>19.0</ele><time>2026-04-11T08:32:55.724Z</time></trkpt><trkpt lat="44.9832133" lon="10.671105"><ele>19.0</ele><time>2026-04-11T08:32:57.724Z</time></trkpt><trkpt lat="44.9831517" lon="10.6710133"><ele>19.166666666666664</ele><time>2026-04-11T08:32:58.725Z</time></trkpt><trkpt lat="44.9830767" lon="10.6709317"><ele>19.333333333333332</ele><time>2026-04-11T08:32:59.724Z</time></trkpt><trkpt lat="44.9830067" lon="10.670855"><ele>19.5</ele><time>2026-04-11T08:33:00.726Z</time></trkpt><trkpt lat="44.98294" lon="10.6707733"><ele>19.666666666666668</ele><time>2026-04-11T08:33:01.727Z</time></trkpt><trkpt lat="44.9828717" lon="10.6706917"><ele>19.833333333333336</ele><time>2026-04-11T08:33:02.725Z</time></trkpt><trkpt lat="44.982815" lon="10.6706183"><ele>20.0</ele><time>2026-04-11T08:33:03.725Z</time></trkpt><trkpt lat="44.9827717" lon="10.6705433"><ele>20.0</ele><time>2026-04-11T08:33:04.724Z</time></trkpt><trkpt lat="44.98273" lon="10.6704667"><ele>20.0</ele><time>2026-04-11T08:33:05.725Z</time></trkpt><trkpt lat="44.98269" lon="10.670395"><ele>20.0</ele><time>2026-04-11T08:33:06.725Z</time></trkpt><trkpt lat="44.9826483" lon="10.6703167"><ele>20.0</ele><time>2026-04-11T08:33:07.724Z</time></trkpt><trkpt lat="44.9826083" lon="10.6702383"><ele>20.0</ele><time>2026-04-11T08:33:08.727Z</time></trkpt><trkpt lat="44.9825617" lon="10.670155"><ele>20.0</ele><time>2026-04-11T08:33:09.725Z</time></trkpt><trkpt lat="44.9825133" lon="10.6700683"><ele>20.0</ele><time>2026-04-11T08:33:10.725Z</time></trkpt><trkpt lat="44.9824667" lon="10.6699717"><ele>20.166666666666668</ele><time>2026-04-11T08:33:11.725Z</time></trkpt><trkpt lat="44.9824117" lon="10.6698717"><ele>20.333333333333336</ele><time>2026-04-11T08:33:12.724Z</time></trkpt><trkpt lat="44.9823533" lon="10.6697817"><ele>20.5</ele><time>2026-04-11T08:33:13.725Z</time></trkpt><trkpt lat="44.9822967" lon="10.6697217"><ele>20.666666666666668</ele><time>2026-04-11T08:33:14.725Z</time></trkpt><trkpt lat="44.9822367" lon="10.6697867"><ele>20.833333333333332</ele><time>2026-04-11T08:33:16.725Z</time></trkpt><trkpt lat="44.9822667" lon="10.6699233"><ele>21.0</ele><time>2026-04-11T08:33:18.723Z</time></trkpt><trkpt lat="44.982335" lon="10.67"><ele>21.0</ele><time>2026-04-11T08:33:19.724Z</time></trkpt><trkpt lat="44.9824083" lon="10.67013"><ele>21.0</ele><time>2026-04-11T08:33:21.725Z</time></trkpt><trkpt lat="44.9823267" lon="10.6701583"><ele>21.0</ele><time>2026-04-11T08:33:24.725Z</time></trkpt><trkpt lat="44.982265" lon="10.670095"><ele>21.0</ele><time>2026-04-11T08:33:25.724Z</time></trkpt><trkpt lat="44.982195" lon="10.67002"><ele>21.0</ele><time>2026-04-11T08:33:26.724Z</time></trkpt><trkpt lat="44.9821217" lon="10.6699467"><ele>21.0</ele><time>2026-04-11T08:33:27.725Z</time></trkpt><trkpt lat="44.9820483" lon="10.6698617"><ele>21.0</ele><time>2026-04-11T08:33:28.725Z</time></trkpt><trkpt lat="44.9819633" lon="10.669765"><ele>21.0</ele><time>2026-04-11T08:33:29.724Z</time></trkpt><trkpt lat="44.9818767" lon="10.6696633"><ele>21.0</ele><time>2026-04-11T08:33:30.725Z</time></trkpt><trkpt lat="44.98179" lon="10.66957"><ele>21.0</ele><time>2026-04-11T08:33:31.724Z</time></trkpt><trkpt lat="44.9817133" lon="10.66951"><ele>20.833333333333332</ele><time>2026-04-11T08:33:32.724Z</time></trkpt><trkpt lat="44.981645" lon="10.6694933"><ele>20.666666666666668</ele><time>2026-04-11T08:33:33.725Z</time></trkpt><trkpt lat="44.981545" lon="10.6696267"><ele>20.5</ele><time>2026-04-11T08:33:35.724Z</time></trkpt><trkpt lat="44.9815117" lon="10.6697233"><ele>20.333333333333336</ele><time>2026-04-11T08:33:36.726Z</time></trkpt><trkpt lat="44.98148" lon="10.6698133"><ele>20.166666666666668</ele><time>2026-04-11T08:33:37.725Z</time></trkpt><trkpt lat="44.9814483" lon="10.6699083"><ele>20.0</ele><time>2026-04-11T08:33:38.725Z</time></trkpt><trkpt lat="44.9814133" lon="10.6700183"><ele>20.0</ele><time>2026-04-11T08:33:39.726Z</time></trkpt><trkpt lat="44.9813883" lon="10.670125"><ele>20.0</ele><time>2026-04-11T08:33:40.727Z</time></trkpt><trkpt lat="44.981385" lon="10.670215"><ele>20.0</ele><time>2026-04-11T08:33:41.726Z</time></trkpt><trkpt lat="44.9814517" lon="10.670365"><ele>20.0</ele><time>2026-04-11T08:33:43.725Z</time></trkpt><trkpt lat="44.981525" lon="10.6704333"><ele>20.0</ele><time>2026-04-11T08:33:44.724Z</time></trkpt><trkpt lat="44.9816283" lon="10.670495"><ele>20.0</ele><time>2026-04-11T08:33:45.725Z</time></trkpt><trkpt lat="44.9817183" lon="10.6705533"><ele>20.0</ele><time>2026-04-11T08:33:46.724Z</time></trkpt><trkpt lat="44.98178" lon="10.6706067"><ele>20.0</ele><time>2026-04-11T08:33:47.725Z</time></trkpt><trkpt lat="44.9818467" lon="10.6705967"><ele>20.0</ele><time>2026-04-11T08:33:49.725Z</time></trkpt><trkpt lat="44.9818283" lon="10.6705067"><ele>20.0</ele><time>2026-04-11T08:33:51.725Z</time></trkpt><trkpt lat="44.9817633" lon="10.67047"><ele>20.0</ele><time>2026-04-11T08:33:52.724Z</time></trkpt><trkpt lat="44.981675" lon="10.6704217"><ele>20.0</ele><time>2026-04-11T08:33:53.724Z</time></trkpt><trkpt lat="44.981595" lon="10.6703617"><ele>20.0</ele><time>2026-04-11T08:33:54.725Z</time></trkpt><trkpt lat="44.9815317" lon="10.6703067"><ele>20.0</ele><time>2026-04-11T08:33:55.724Z</time></trkpt><trkpt lat="44.981485" lon="10.6702033"><ele>20.0</ele><time>2026-04-11T08:33:57.725Z</time></trkpt><trkpt lat="44.981595" lon="10.6701983"><ele>20.0</ele><time>2026-04-11T08:34:00.724Z</time></trkpt><trkpt lat="44.9816517" lon="10.670245"><ele>20.0</ele><time>2026-04-11T08:34:01.725Z</time></trkpt><trkpt lat="44.9817183" lon="10.6703033"><ele>20.0</ele><time>2026-04-11T08:34:02.726Z</time></trkpt><trkpt lat="44.9817883" lon="10.670375"><ele>20.0</ele><time>2026-04-11T08:34:03.727Z</time></trkpt><trkpt lat="44.9818567" lon="10.6704633"><ele>20.0</ele><time>2026-04-11T08:34:04.726Z</time></trkpt><trkpt lat="44.981915" lon="10.6705667"><ele>20.0</ele><time>2026-04-11T08:34:05.726Z</time></trkpt><trkpt lat="44.9819617" lon="10.6706883"><ele>20.0</ele><time>2026-04-11T08:34:06.726Z</time></trkpt><trkpt lat="44.9819967" lon="10.6708167"><ele>20.0</ele><time>2026-04-11T08:34:07.725Z</time></trkpt><trkpt lat="44.9820317" lon="10.6709233"><ele>20.0</ele><time>2026-04-11T08:34:08.725Z</time></trkpt><trkpt lat="44.982125" lon="10.671015"><ele>20.0</ele><time>2026-04-11T08:34:10.725Z</time></trkpt><trkpt lat="44.98221" lon="10.67101"><ele>20.0</ele><time>2026-04-11T08:34:11.725Z</time></trkpt><trkpt lat="44.9823" lon="10.6710117"><ele>20.0</ele><time>2026-04-11T08:34:12.725Z</time></trkpt><trkpt lat="44.9823883" lon="10.671025"><ele>20.0</ele><time>2026-04-11T08:34:13.725Z</time></trkpt><trkpt lat="44.9824617" lon="10.6710633"><ele>20.0</ele><time>2026-04-11T08:34:14.724Z</time></trkpt><trkpt lat="44.9825267" lon="10.6711267"><ele>20.0</ele><time>2026-04-11T08:34:15.725Z</time></trkpt><trkpt lat="44.9825817" lon="10.6712017"><ele>20.0</ele><time>2026-04-11T08:34:16.723Z</time></trkpt><trkpt lat="44.982635" lon="10.6712717"><ele>20.0</ele><time>2026-04-11T08:34:17.724Z</time></trkpt><trkpt lat="44.9827317" lon="10.6713"><ele>20.0</ele><time>2026-04-11T08:34:19.723Z</time></trkpt><trkpt lat="44.98275" lon="10.6711633"><ele>20.0</ele><time>2026-04-11T08:34:21.725Z</time></trkpt><trkpt lat="44.9826733" lon="10.671005"><ele>20.0</ele><time>2026-04-11T08:34:23.724Z</time></trkpt><trkpt lat="44.9826133" lon="10.6709383"><ele>20.0</ele><time>2026-04-11T08:34:24.724Z</time></trkpt><trkpt lat="44.98254" lon="10.6708183"><ele>20.0</ele><time>2026-04-11T08:34:26.724Z</time></trkpt><trkpt lat="44.9826017" lon="10.6707683"><ele>20.0</ele><time>2026-04-11T08:34:28.724Z</time></trkpt><trkpt lat="44.9827067" lon="10.670875"><ele>20.0</ele><time>2026-04-11T08:34:30.725Z</time></trkpt><trkpt lat="44.9827483" lon="10.6709717"><ele>20.0</ele><time>2026-04-11T08:34:31.723Z</time></trkpt><trkpt lat="44.9827867" lon="10.6710667"><ele>20.0</ele><time>2026-04-11T08:34:32.726Z</time></trkpt><trkpt lat="44.9828333" lon="10.6711867"><ele>20.0</ele><time>2026-04-11T08:34:33.725Z</time></trkpt><trkpt lat="44.9828817" lon="10.6712983"><ele>20.0</ele><time>2026-04-11T08:34:34.724Z</time></trkpt><trkpt lat="44.9829233" lon="10.6713917"><ele>20.0</ele><time>2026-04-11T08:34:35.726Z</time></trkpt><trkpt lat="44.983015" lon="10.671425"><ele>19.8</ele><time>2026-04-11T08:34:37.727Z</time></trkpt><trkpt lat="44.9830817" lon="10.6713233"><ele>19.6</ele><time>2026-04-11T08:34:39.725Z</time></trkpt><trkpt lat="44.9831533" lon="10.67126"><ele>19.4</ele><time>2026-04-11T08:34:41.725Z</time></trkpt><trkpt lat="44.9831717" lon="10.6713567"><ele>19.2</ele><time>2026-04-11T08:34:43.725Z</time></trkpt><trkpt lat="44.9830617" lon="10.6715033"><ele>19.0</ele><time>2026-04-11T08:34:45.725Z</time></trkpt><trkpt lat="44.9830033" lon="10.67158"><ele>19.0</ele><time>2026-04-11T08:34:46.724Z</time></trkpt><trkpt lat="44.9829583" lon="10.6716617"><ele>19.0</ele><time>2026-04-11T08:34:47.724Z</time></trkpt><trkpt lat="44.9829567" lon="10.6717833"><ele>19.0</ele><time>2026-04-11T08:34:49.724Z</time></trkpt><trkpt lat="44.9830567" lon="10.6717233"><ele>19.0</ele><time>2026-04-11T08:34:51.725Z</time></trkpt><trkpt lat="44.98311" lon="10.6716417"><ele>19.0</ele><time>2026-04-11T08:34:52.726Z</time></trkpt><trkpt lat="44.983155" lon="10.6715483"><ele>19.0</ele><time>2026-04-11T08:34:53.726Z</time></trkpt><trkpt lat="44.983195" lon="10.6714467"><ele>19.0</ele><time>2026-04-11T08:34:54.726Z</time></trkpt><trkpt lat="44.9832267" lon="10.6713467"><ele>19.0</ele><time>2026-04-11T08:34:55.725Z</time></trkpt><trkpt lat="44.9832417" lon="10.6712483"><ele>19.0</ele><time>2026-04-11T08:34:56.725Z</time></trkpt><trkpt lat="44.9832333" lon="10.6711517"><ele>19.0</ele><time>2026-04-11T08:34:57.725Z</time></trkpt><trkpt lat="44.9832" lon="10.67106"><ele>19.0</ele><time>2026-04-11T08:34:58.724Z</time></trkpt><trkpt lat="44.98313" lon="10.6709783"><ele>19.0</ele><time>2026-04-11T08:34:59.724Z</time></trkpt><trkpt lat="44.9830617" lon="10.67091"><ele>19.166666666666664</ele><time>2026-04-11T08:35:00.723Z</time></trkpt><trkpt lat="44.9829867" lon="10.6708367"><ele>19.333333333333332</ele><time>2026-04-11T08:35:01.725Z</time></trkpt><trkpt lat="44.9829133" lon="10.6707517"><ele>19.5</ele><time>2026-04-11T08:35:02.724Z</time></trkpt><trkpt lat="44.982845" lon="10.67067"><ele>19.666666666666668</ele><time>2026-04-11T08:35:03.724Z</time></trkpt><trkpt lat="44.98279" lon="10.6705933"><ele>19.833333333333336</ele><time>2026-04-11T08:35:04.724Z</time></trkpt><trkpt lat="44.9827483" lon="10.6705117"><ele>20.0</ele><time>2026-04-11T08:35:05.725Z</time></trkpt><trkpt lat="44.982705" lon="10.67043"><ele>20.0</ele><time>2026-04-11T08:35:06.726Z</time></trkpt><trkpt lat="44.9826617" lon="10.67036"><ele>20.0</ele><time>2026-04-11T08:35:07.725Z</time></trkpt><trkpt lat="44.9826167" lon="10.6702783"><ele>20.0</ele><time>2026-04-11T08:35:08.725Z</time></trkpt><trkpt lat="44.982575" lon="10.6701933"><ele>20.0</ele><time>2026-04-11T08:35:09.725Z</time></trkpt><trkpt lat="44.9825283" lon="10.6701083"><ele>20.0</ele><time>2026-04-11T08:35:10.724Z</time></trkpt><trkpt lat="44.98248" lon="10.6700233"><ele>20.0</ele><time>2026-04-11T08:35:11.725Z</time></trkpt><trkpt lat="44.9824367" lon="10.6699367"><ele>20.0</ele><time>2026-04-11T08:35:12.725Z</time></trkpt><trkpt lat="44.9823933" lon="10.66986"><ele>21.0</ele><time>2026-04-11T08:35:13.724Z</time></trkpt><trkpt lat="44.9823383" lon="10.6697633"><ele>21.0</ele><time>2026-04-11T08:35:15.725Z</time></trkpt><trkpt lat="44.9823209" lon="10.669676"><ele>21.0</ele><time>2026-04-11T08:35:49.768Z</time></trkpt></trkseg><trkseg><trkpt lat="44.9823711" lon="10.6695589"><ele>21.0</ele><time>2026-04-11T08:49:03.737Z</time></trkpt><trkpt lat="44.9822384" lon="10.6694669"><ele>21.0</ele><time>2026-04-11T08:50:03.724Z</time></trkpt><trkpt lat="44.9821578" lon="10.669432"><ele>21.0</ele><time>2026-04-11T08:50:04.723Z</time></trkpt><trkpt lat="44.9820817" lon="10.6694021"><ele>21.0</ele><time>2026-04-11T08:50:05.722Z</time></trkpt><trkpt lat="44.9820042" lon="10.6693727"><ele>21.0</ele><time>2026-04-11T08:50:06.723Z</time></trkpt><trkpt lat="44.9819257" lon="10.6693372"><ele>21.0</ele><time>2026-04-11T08:50:07.727Z</time></trkpt><trkpt lat="44.9818462" lon="10.669292"><ele>21.0</ele><time>2026-04-11T08:50:08.724Z</time></trkpt><trkpt lat="44.9817753" lon="10.6692445"><ele>21.0</ele><time>2026-04-11T08:50:09.724Z</time></trkpt><trkpt lat="44.9817158" lon="10.669212"><ele>21.0</ele><time>2026-04-11T08:50:10.724Z</time></trkpt><trkpt lat="44.9816093" lon="10.6692309"><ele>21.0</ele><time>2026-04-11T08:50:12.723Z</time></trkpt><trkpt lat="44.9815558" lon="10.6693674"><ele>21.0</ele><time>2026-04-11T08:50:14.723Z</time></trkpt><trkpt lat="44.9815381" lon="10.6694767"><ele>20.833333333333332</ele><time>2026-04-11T08:50:15.725Z</time></trkpt><trkpt lat="44.9815116" lon="10.6695892"><ele>20.666666666666668</ele><time>2026-04-11T08:50:16.724Z</time></trkpt><trkpt lat="44.9814731" lon="10.669707"><ele>20.5</ele><time>2026-04-11T08:50:17.724Z</time></trkpt><trkpt lat="44.9814365" lon="10.669821"><ele>20.333333333333336</ele><time>2026-04-11T08:50:18.724Z</time></trkpt><trkpt lat="44.9814068" lon="10.6699254"><ele>20.166666666666668</ele><time>2026-04-11T08:50:19.724Z</time></trkpt><trkpt lat="44.9813785" lon="10.6700146"><ele>20.0</ele><time>2026-04-11T08:50:20.723Z</time></trkpt><trkpt lat="44.9813129" lon="10.6701346"><ele>20.0</ele><time>2026-04-11T08:50:22.723Z</time></trkpt><trkpt lat="44.9812036" lon="10.6701615"><ele>20.0</ele><time>2026-04-11T08:50:24.724Z</time></trkpt><trkpt lat="44.9811335" lon="10.6701307"><ele>20.0</ele><time>2026-04-11T08:50:25.725Z</time></trkpt><trkpt lat="44.9810629" lon="10.6700853"><ele>20.0</ele><time>2026-04-11T08:50:26.724Z</time></trkpt><trkpt lat="44.9809912" lon="10.6700283"><ele>20.0</ele><time>2026-04-11T08:50:27.725Z</time></trkpt><trkpt lat="44.9809174" lon="10.669967"><ele>20.0</ele><time>2026-04-11T08:50:28.723Z</time></trkpt><trkpt lat="44.9808436" lon="10.6699009"><ele>19.857142857142858</ele><time>2026-04-11T08:50:29.724Z</time></trkpt><trkpt lat="44.9807774" lon="10.6698333"><ele>19.714285714285715</ele><time>2026-04-11T08:50:30.724Z</time></trkpt><trkpt lat="44.9807178" lon="10.669771"><ele>19.57142857142857</ele><time>2026-04-11T08:50:31.724Z</time></trkpt><trkpt lat="44.9806606" lon="10.669709"><ele>19.42857142857143</ele><time>2026-04-11T08:50:32.724Z</time></trkpt><trkpt lat="44.9806017" lon="10.6696504"><ele>19.28571428571429</ele><time>2026-04-11T08:50:33.724Z</time></trkpt><trkpt lat="44.9805384" lon="10.6695935"><ele>19.142857142857142</ele><time>2026-04-11T08:50:34.724Z</time></trkpt><trkpt lat="44.9804687" lon="10.669556"><ele>19.0</ele><time>2026-04-11T08:50:35.724Z</time></trkpt><trkpt lat="44.9803958" lon="10.6695266"><ele>19.0</ele><time>2026-04-11T08:50:36.723Z</time></trkpt><trkpt lat="44.980319" lon="10.6694865"><ele>19.0</ele><time>2026-04-11T08:50:37.723Z</time></trkpt><trkpt lat="44.9802478" lon="10.6694404"><ele>19.0</ele><time>2026-04-11T08:50:38.724Z</time></trkpt><trkpt lat="44.9801868" lon="10.6693987"><ele>19.0</ele><time>2026-04-11T08:50:39.725Z</time></trkpt><trkpt lat="44.9801206" lon="10.669359"><ele>19.0</ele><time>2026-04-11T08:50:40.724Z</time></trkpt><trkpt lat="44.9800475" lon="10.6693143"><ele>19.0</ele><time>2026-04-11T08:50:41.724Z</time></trkpt><trkpt lat="44.9799659" lon="10.6692635"><ele>19.0</ele><time>2026-04-11T08:50:42.724Z</time></trkpt><trkpt lat="44.9798834" lon="10.6692199"><ele>19.0</ele><time>2026-04-11T08:50:43.724Z</time></trkpt><trkpt lat="44.9798002" lon="10.6691849"><ele>19.0</ele><time>2026-04-11T08:50:44.724Z</time></trkpt><trkpt lat="44.9797181" lon="10.6691523"><ele>19.0</ele><time>2026-04-11T08:50:45.726Z</time></trkpt><trkpt lat="44.9796456" lon="10.6691285"><ele>19.0</ele><time>2026-04-11T08:50:46.725Z</time></trkpt><trkpt lat="44.9795829" lon="10.6691062"><ele>19.0</ele><time>2026-04-11T08:50:47.725Z</time></trkpt><trkpt lat="44.979486" lon="10.6690603"><ele>19.0</ele><time>2026-04-11T08:50:49.725Z</time></trkpt><trkpt lat="44.9794112" lon="10.6690629"><ele>19.0</ele><time>2026-04-11T08:50:51.726Z</time></trkpt><trkpt lat="44.9793109" lon="10.6690721"><ele>19.0</ele><time>2026-04-11T08:50:54.724Z</time></trkpt><trkpt lat="44.9791968" lon="10.6690147"><ele>19.0</ele><time>2026-04-11T08:50:56.724Z</time></trkpt><trkpt lat="44.9790818" lon="10.6689636"><ele>19.0</ele><time>2026-04-11T08:50:58.724Z</time></trkpt><trkpt lat="44.9790195" lon="10.6689383"><ele>19.4</ele><time>2026-04-11T08:50:59.724Z</time></trkpt><trkpt lat="44.9789084" lon="10.6688945"><ele>19.799999999999997</ele><time>2026-04-11T08:51:01.724Z</time></trkpt><trkpt lat="44.9788014" lon="10.6688852"><ele>20.200000000000003</ele><time>2026-04-11T08:51:03.726Z</time></trkpt><trkpt lat="44.9786948" lon="10.6688937"><ele>20.6</ele><time>2026-04-11T08:51:05.724Z</time></trkpt><trkpt lat="44.9785848" lon="10.6688397"><ele>21.0</ele><time>2026-04-11T08:51:07.723Z</time></trkpt><trkpt lat="44.9784839" lon="10.6687745"><ele>21.0</ele><time>2026-04-11T08:51:09.724Z</time></trkpt><trkpt lat="44.9783812" lon="10.6687091"><ele>21.0</ele><time>2026-04-11T08:51:11.724Z</time></trkpt><trkpt lat="44.9782796" lon="10.668682"><ele>21.0</ele><time>2026-04-11T08:51:13.724Z</time></trkpt><trkpt lat="44.9781801" lon="10.6686477"><ele>21.0</ele><time>2026-04-11T08:51:15.726Z</time></trkpt><trkpt lat="44.9780643" lon="10.6685999"><ele>21.0</ele><time>2026-04-11T08:51:17.725Z</time></trkpt><trkpt lat="44.9779992" lon="10.6685706"><ele>21.0</ele><time>2026-04-11T08:51:18.725Z</time></trkpt><trkpt lat="44.9779322" lon="10.6685469"><ele>21.0</ele><time>2026-04-11T08:51:19.723Z</time></trkpt><trkpt lat="44.9778668" lon="10.6685096"><ele>21.0</ele><time>2026-04-11T08:51:20.725Z</time></trkpt><trkpt lat="44.9778046" lon="10.6684747"><ele>21.0</ele><time>2026-04-11T08:51:21.726Z</time></trkpt><trkpt lat="44.977743" lon="10.6684377"><ele>21.0</ele><time>2026-04-11T08:51:22.725Z</time></trkpt><trkpt lat="44.9776786" lon="10.6683955"><ele>21.0</ele><time>2026-04-11T08:51:23.725Z</time></trkpt><trkpt lat="44.9776121" lon="10.6683513"><ele>21.0</ele><time>2026-04-11T08:51:24.725Z</time></trkpt><trkpt lat="44.9775499" lon="10.6683049"><ele>21.6</ele><time>2026-04-11T08:51:25.726Z</time></trkpt><trkpt lat="44.977494" lon="10.6682635"><ele>22.200000000000003</ele><time>2026-04-11T08:51:26.726Z</time></trkpt><trkpt lat="44.977395" lon="10.6681955"><ele>22.799999999999997</ele><time>2026-04-11T08:51:28.725Z</time></trkpt><trkpt lat="44.9773004" lon="10.668122"><ele>23.4</ele><time>2026-04-11T08:51:30.726Z</time></trkpt><trkpt lat="44.9771988" lon="10.6680523"><ele>24.0</ele><time>2026-04-11T08:51:32.726Z</time></trkpt><trkpt lat="44.9770953" lon="10.6680033"><ele>24.0</ele><time>2026-04-11T08:51:34.724Z</time></trkpt><trkpt lat="44.9770057" lon="10.6680074"><ele>24.0</ele><time>2026-04-11T08:51:36.724Z</time></trkpt><trkpt lat="44.9769323" lon="10.6680051"><ele>24.0</ele><time>2026-04-11T08:51:38.725Z</time></trkpt><trkpt lat="44.9768163" lon="10.6679725"><ele>24.0</ele><time>2026-04-11T08:51:40.723Z</time></trkpt><trkpt lat="44.9766991" lon="10.6679516"><ele>24.0</ele><time>2026-04-11T08:51:42.724Z</time></trkpt><trkpt lat="44.9765757" lon="10.6679257"><ele>23.666666666666668</ele><time>2026-04-11T08:51:44.723Z</time></trkpt><trkpt lat="44.9765095" lon="10.6679191"><ele>23.333333333333332</ele><time>2026-04-11T08:51:45.724Z</time></trkpt><trkpt lat="44.9764439" lon="10.6679194"><ele>23.0</ele><time>2026-04-11T08:51:46.724Z</time></trkpt><trkpt lat="44.9763806" lon="10.6679199"><ele>22.666666666666664</ele><time>2026-04-11T08:51:47.724Z</time></trkpt><trkpt lat="44.9762587" lon="10.6679244"><ele>22.333333333333332</ele><time>2026-04-11T08:51:49.725Z</time></trkpt><trkpt lat="44.9761932" lon="10.6679381"><ele>22.0</ele><time>2026-04-11T08:51:50.724Z</time></trkpt><trkpt lat="44.9761209" lon="10.6679522"><ele>22.0</ele><time>2026-04-11T08:51:51.724Z</time></trkpt><trkpt lat="44.9760515" lon="10.6679537"><ele>22.0</ele><time>2026-04-11T08:51:52.726Z</time></trkpt><trkpt lat="44.9759786" lon="10.6679582"><ele>22.0</ele><time>2026-04-11T08:51:53.725Z</time></trkpt><trkpt lat="44.9759053" lon="10.6679633"><ele>22.0</ele><time>2026-04-11T08:51:54.725Z</time></trkpt><trkpt lat="44.975784" lon="10.6679546"><ele>22.0</ele><time>2026-04-11T08:51:56.726Z</time></trkpt><trkpt lat="44.9757127" lon="10.6679578"><ele>22.0</ele><time>2026-04-11T08:51:57.726Z</time></trkpt><trkpt lat="44.9756436" lon="10.667952"><ele>21.42857142857143</ele><time>2026-04-11T08:51:58.725Z</time></trkpt><trkpt lat="44.9755748" lon="10.6679327"><ele>20.857142857142858</ele><time>2026-04-11T08:51:59.725Z</time></trkpt><trkpt lat="44.9755138" lon="10.6679061"><ele>20.285714285714285</ele><time>2026-04-11T08:52:00.725Z</time></trkpt><trkpt lat="44.9754141" lon="10.6678597"><ele>19.714285714285715</ele><time>2026-04-11T08:52:02.724Z</time></trkpt><trkpt lat="44.9753516" lon="10.6678405"><ele>19.142857142857142</ele><time>2026-04-11T08:52:03.724Z</time></trkpt><trkpt lat="44.9752817" lon="10.6678192"><ele>18.571428571428573</ele><time>2026-04-11T08:52:04.724Z</time></trkpt><trkpt lat="44.9752087" lon="10.667798"><ele>18.0</ele><time>2026-04-11T08:52:05.724Z</time></trkpt><trkpt lat="44.9751426" lon="10.6677834"><ele>18.714285714285715</ele><time>2026-04-11T08:52:06.725Z</time></trkpt><trkpt lat="44.9750798" lon="10.6677753"><ele>19.42857142857143</ele><time>2026-04-11T08:52:07.724Z</time></trkpt><trkpt lat="44.975014" lon="10.6677762"><ele>20.142857142857146</ele><time>2026-04-11T08:52:08.724Z</time></trkpt><trkpt lat="44.9749442" lon="10.667773"><ele>20.857142857142858</ele><time>2026-04-11T08:52:09.723Z</time></trkpt><trkpt lat="44.9748742" lon="10.667758"><ele>21.57142857142857</ele><time>2026-04-11T08:52:10.725Z</time></trkpt><trkpt lat="44.9748035" lon="10.667744"><ele>22.28571428571429</ele><time>2026-04-11T08:52:11.724Z</time></trkpt><trkpt lat="44.9747397" lon="10.667741"><ele>23.0</ele><time>2026-04-11T08:52:12.725Z</time></trkpt><trkpt lat="44.9746135" lon="10.6677253"><ele>23.0</ele><time>2026-04-11T08:52:14.724Z</time></trkpt><trkpt lat="44.9745457" lon="10.6677195"><ele>23.0</ele><time>2026-04-11T08:52:15.724Z</time></trkpt><trkpt lat="44.9744772" lon="10.6677227"><ele>23.0</ele><time>2026-04-11T08:52:16.724Z</time></trkpt><trkpt lat="44.9744115" lon="10.6677229"><ele>23.0</ele><time>2026-04-11T08:52:17.724Z</time></trkpt><trkpt lat="44.9742897" lon="10.6677148"><ele>23.0</ele><time>2026-04-11T08:52:19.723Z</time></trkpt><trkpt lat="44.9741664" lon="10.667699"><ele>23.0</ele><time>2026-04-11T08:52:21.726Z</time></trkpt><trkpt lat="44.9740962" lon="10.6676947"><ele>22.666666666666668</ele><time>2026-04-11T08:52:22.725Z</time></trkpt><trkpt lat="44.9740205" lon="10.6676826"><ele>22.333333333333336</ele><time>2026-04-11T08:52:23.723Z</time></trkpt><trkpt lat="44.9739468" lon="10.6676613"><ele>22.0</ele><time>2026-04-11T08:52:24.726Z</time></trkpt><trkpt lat="44.973875" lon="10.6676357"><ele>21.666666666666668</ele><time>2026-04-11T08:52:25.725Z</time></trkpt><trkpt lat="44.9738034" lon="10.6676135"><ele>21.333333333333332</ele><time>2026-04-11T08:52:26.726Z</time></trkpt><trkpt lat="44.9737261" lon="10.6675977"><ele>21.0</ele><time>2026-04-11T08:52:27.726Z</time></trkpt><trkpt lat="44.9736481" lon="10.6675942"><ele>21.0</ele><time>2026-04-11T08:52:28.725Z</time></trkpt><trkpt lat="44.9735729" lon="10.6675988"><ele>21.0</ele><time>2026-04-11T08:52:29.725Z</time></trkpt><trkpt lat="44.9734971" lon="10.6676029"><ele>21.0</ele><time>2026-04-11T08:52:30.724Z</time></trkpt><trkpt lat="44.9734222" lon="10.6676061"><ele>21.0</ele><time>2026-04-11T08:52:31.724Z</time></trkpt><trkpt lat="44.9733503" lon="10.6676119"><ele>21.0</ele><time>2026-04-11T08:52:32.723Z</time></trkpt><trkpt lat="44.9732785" lon="10.6676123"><ele>21.0</ele><time>2026-04-11T08:52:33.725Z</time></trkpt><trkpt lat="44.9732057" lon="10.6676127"><ele>21.0</ele><time>2026-04-11T08:52:34.724Z</time></trkpt><trkpt lat="44.9731304" lon="10.6676194"><ele>20.857142857142858</ele><time>2026-04-11T08:52:35.725Z</time></trkpt><trkpt lat="44.9730526" lon="10.6676227"><ele>20.714285714285715</ele><time>2026-04-11T08:52:36.724Z</time></trkpt><trkpt lat="44.972981" lon="10.6676066"><ele>20.57142857142857</ele><time>2026-04-11T08:52:37.724Z</time></trkpt><trkpt lat="44.9729137" lon="10.6675912"><ele>20.42857142857143</ele><time>2026-04-11T08:52:38.724Z</time></trkpt><trkpt lat="44.9728476" lon="10.6675821"><ele>20.285714285714285</ele><time>2026-04-11T08:52:39.725Z</time></trkpt><trkpt lat="44.9727757" lon="10.6675815"><ele>20.142857142857142</ele><time>2026-04-11T08:52:40.724Z</time></trkpt><trkpt lat="44.9727034" lon="10.66759"><ele>20.0</ele><time>2026-04-11T08:52:41.724Z</time></trkpt><trkpt lat="44.9726317" lon="10.6675981"><ele>20.0</ele><time>2026-04-11T08:52:42.724Z</time></trkpt><trkpt lat="44.9725603" lon="10.667608"><ele>20.0</ele><time>2026-04-11T08:52:43.723Z</time></trkpt><trkpt lat="44.9724902" lon="10.6676233"><ele>20.0</ele><time>2026-04-11T08:52:44.725Z</time></trkpt><trkpt lat="44.9724176" lon="10.6676473"><ele>20.0</ele><time>2026-04-11T08:52:45.725Z</time></trkpt><trkpt lat="44.9723483" lon="10.6676592"><ele>20.0</ele><time>2026-04-11T08:52:46.724Z</time></trkpt><trkpt lat="44.9722753" lon="10.6676652"><ele>20.0</ele><time>2026-04-11T08:52:47.724Z</time></trkpt><trkpt lat="44.9721944" lon="10.6676622"><ele>20.0</ele><time>2026-04-11T08:52:48.724Z</time></trkpt><trkpt lat="44.9721106" lon="10.6676567"><ele>20.0</ele><time>2026-04-11T08:52:49.725Z</time></trkpt><trkpt lat="44.9720331" lon="10.6676527"><ele>20.0</ele><time>2026-04-11T08:52:50.724Z</time></trkpt><trkpt lat="44.9719534" lon="10.6676482"><ele>20.0</ele><time>2026-04-11T08:52:51.727Z</time></trkpt><trkpt lat="44.9718722" lon="10.667647"><ele>20.0</ele><time>2026-04-11T08:52:52.725Z</time></trkpt><trkpt lat="44.971788" lon="10.6676513"><ele>20.0</ele><time>2026-04-11T08:52:53.724Z</time></trkpt><trkpt lat="44.9717057" lon="10.6676522"><ele>20.0</ele><time>2026-04-11T08:52:54.724Z</time></trkpt><trkpt lat="44.9716224" lon="10.6676697"><ele>20.0</ele><time>2026-04-11T08:52:55.726Z</time></trkpt><trkpt lat="44.9715358" lon="10.6676928"><ele>20.0</ele><time>2026-04-11T08:52:56.725Z</time></trkpt><trkpt lat="44.9714517" lon="10.6677061"><ele>20.0</ele><time>2026-04-11T08:52:57.727Z</time></trkpt><trkpt lat="44.971367" lon="10.6677082"><ele>20.0</ele><time>2026-04-11T08:52:58.725Z</time></trkpt><trkpt lat="44.9712833" lon="10.6676962"><ele>20.0</ele><time>2026-04-11T08:52:59.726Z</time></trkpt><trkpt lat="44.971206" lon="10.6676756"><ele>20.0</ele><time>2026-04-11T08:53:00.723Z</time></trkpt><trkpt lat="44.971128" lon="10.6676516"><ele>20.0</ele><time>2026-04-11T08:53:01.725Z</time></trkpt><trkpt lat="44.9710474" lon="10.6676367"><ele>20.0</ele><time>2026-04-11T08:53:02.724Z</time></trkpt><trkpt lat="44.9709715" lon="10.6676194"><ele>20.0</ele><time>2026-04-11T08:53:03.725Z</time></trkpt><trkpt lat="44.9708904" lon="10.6676088"><ele>20.0</ele><time>2026-04-11T08:53:04.724Z</time></trkpt><trkpt lat="44.9708039" lon="10.6676129"><ele>20.0</ele><time>2026-04-11T08:53:05.723Z</time></trkpt><trkpt lat="44.9707205" lon="10.6676139"><ele>20.0</ele><time>2026-04-11T08:53:06.724Z</time></trkpt><trkpt lat="44.9706359" lon="10.6676106"><ele>20.333333333333336</ele><time>2026-04-11T08:53:07.725Z</time></trkpt><trkpt lat="44.970549" lon="10.6676067"><ele>20.666666666666668</ele><time>2026-04-11T08:53:08.724Z</time></trkpt><trkpt lat="44.9704666" lon="10.6676049"><ele>21.0</ele><time>2026-04-11T08:53:09.725Z</time></trkpt><trkpt lat="44.9703867" lon="10.6676081"><ele>21.333333333333332</ele><time>2026-04-11T08:53:10.724Z</time></trkpt><trkpt lat="44.9703036" lon="10.6676166"><ele>21.666666666666664</ele><time>2026-04-11T08:53:11.724Z</time></trkpt><trkpt lat="44.9702223" lon="10.6676207"><ele>22.0</ele><time>2026-04-11T08:53:12.723Z</time></trkpt><trkpt lat="44.9701448" lon="10.6676145"><ele>22.0</ele><time>2026-04-11T08:53:13.724Z</time></trkpt><trkpt lat="44.9700698" lon="10.6676081"><ele>22.0</ele><time>2026-04-11T08:53:14.723Z</time></trkpt><trkpt lat="44.9699996" lon="10.6676021"><ele>22.0</ele><time>2026-04-11T08:53:15.724Z</time></trkpt><trkpt lat="44.9699255" lon="10.6675925"><ele>22.0</ele><time>2026-04-11T08:53:16.723Z</time></trkpt><trkpt lat="44.9698405" lon="10.6675763"><ele>22.0</ele><time>2026-04-11T08:53:17.725Z</time></trkpt><trkpt lat="44.9697527" lon="10.6675606"><ele>22.0</ele><time>2026-04-11T08:53:18.725Z</time></trkpt><trkpt lat="44.9696684" lon="10.6675364"><ele>22.142857142857142</ele><time>2026-04-11T08:53:19.724Z</time></trkpt><trkpt lat="44.9695882" lon="10.6675082"><ele>22.285714285714285</ele><time>2026-04-11T08:53:20.723Z</time></trkpt><trkpt lat="44.9695141" lon="10.6674852"><ele>22.42857142857143</ele><time>2026-04-11T08:53:21.725Z</time></trkpt><trkpt lat="44.9694478" lon="10.667468"><ele>22.57142857142857</ele><time>2026-04-11T08:53:22.723Z</time></trkpt><trkpt lat="44.9693798" lon="10.6674529"><ele>22.71428571428571</ele><time>2026-04-11T08:53:23.724Z</time></trkpt><trkpt lat="44.9693118" lon="10.6674382"><ele>22.857142857142858</ele><time>2026-04-11T08:53:24.724Z</time></trkpt><trkpt lat="44.9692414" lon="10.6674201"><ele>23.0</ele><time>2026-04-11T08:53:25.724Z</time></trkpt><trkpt lat="44.9691702" lon="10.6674061"><ele>23.0</ele><time>2026-04-11T08:53:26.723Z</time></trkpt><trkpt lat="44.9691027" lon="10.6673951"><ele>23.0</ele><time>2026-04-11T08:53:27.724Z</time></trkpt><trkpt lat="44.969035" lon="10.667387"><ele>23.0</ele><time>2026-04-11T08:53:28.723Z</time></trkpt><trkpt lat="44.9689638" lon="10.6673817"><ele>23.0</ele><time>2026-04-11T08:53:29.724Z</time></trkpt><trkpt lat="44.9688965" lon="10.6673723"><ele>23.0</ele><time>2026-04-11T08:53:30.723Z</time></trkpt><trkpt lat="44.9688313" lon="10.6673434"><ele>23.0</ele><time>2026-04-11T08:53:31.724Z</time></trkpt><trkpt lat="44.9687273" lon="10.6672473"><ele>23.0</ele><time>2026-04-11T08:53:33.723Z</time></trkpt><trkpt lat="44.9686798" lon="10.6671822"><ele>23.0</ele><time>2026-04-11T08:53:34.727Z</time></trkpt><trkpt lat="44.9686245" lon="10.6671258"><ele>23.0</ele><time>2026-04-11T08:53:35.723Z</time></trkpt><trkpt lat="44.9685628" lon="10.6670879"><ele>23.0</ele><time>2026-04-11T08:53:36.723Z</time></trkpt><trkpt lat="44.9684954" lon="10.6670522"><ele>23.0</ele><time>2026-04-11T08:53:37.724Z</time></trkpt><trkpt lat="44.9684343" lon="10.6670096"><ele>23.0</ele><time>2026-04-11T08:53:38.723Z</time></trkpt><trkpt lat="44.9683807" lon="10.666958"><ele>23.0</ele><time>2026-04-11T08:53:39.724Z</time></trkpt><trkpt lat="44.9682853" lon="10.6668566"><ele>24.4</ele><time>2026-04-11T08:53:41.724Z</time></trkpt><trkpt lat="44.9681725" lon="10.6668372"><ele>25.799999999999997</ele><time>2026-04-11T08:53:43.724Z</time></trkpt><trkpt lat="44.9681072" lon="10.6668489"><ele>27.2</ele><time>2026-04-11T08:53:44.723Z</time></trkpt><trkpt lat="44.9679875" lon="10.666871"><ele>28.6</ele><time>2026-04-11T08:53:46.724Z</time></trkpt><trkpt lat="44.9678618" lon="10.6668777"><ele>30.0</ele><time>2026-04-11T08:53:48.723Z</time></trkpt><trkpt lat="44.9677399" lon="10.6668849"><ele>30.0</ele><time>2026-04-11T08:53:50.724Z</time></trkpt><trkpt lat="44.9676254" lon="10.6668764"><ele>30.0</ele><time>2026-04-11T08:53:52.723Z</time></trkpt><trkpt lat="44.9675103" lon="10.6668315"><ele>30.0</ele><time>2026-04-11T08:53:54.724Z</time></trkpt><trkpt lat="44.9674114" lon="10.6667853"><ele>30.0</ele><time>2026-04-11T08:53:56.724Z</time></trkpt><trkpt lat="44.9673148" lon="10.6667428"><ele>30.0</ele><time>2026-04-11T08:53:58.723Z</time></trkpt><trkpt lat="44.9672119" lon="10.666717"><ele>30.0</ele><time>2026-04-11T08:54:00.723Z</time></trkpt><trkpt lat="44.967138" lon="10.6666562"><ele>30.0</ele><time>2026-04-11T08:54:02.724Z</time></trkpt><trkpt lat="44.9671032" lon="10.6665581"><ele>30.0</ele><time>2026-04-11T08:54:04.723Z</time></trkpt><trkpt lat="44.9670474" lon="10.666509"><ele>30.0</ele><time>2026-04-11T08:54:06.723Z</time></trkpt><trkpt lat="44.9669892" lon="10.6664561"><ele>30.0</ele><time>2026-04-11T08:54:10.723Z</time></trkpt><trkpt lat="44.966944" lon="10.6663602"><ele>30.0</ele><time>2026-04-11T08:54:14.725Z</time></trkpt><trkpt lat="44.9668685" lon="10.666308"><ele>30.0</ele><time>2026-04-11T08:54:16.723Z</time></trkpt><trkpt lat="44.9668022" lon="10.6662819"><ele>30.0</ele><time>2026-04-11T08:54:17.723Z</time></trkpt><trkpt lat="44.9666861" lon="10.6662193"><ele>30.0</ele><time>2026-04-11T08:54:19.724Z</time></trkpt><trkpt lat="44.9665855" lon="10.6661278"><ele>30.0</ele><time>2026-04-11T08:54:21.724Z</time></trkpt><trkpt lat="44.9665312" lon="10.6660754"><ele>30.0</ele><time>2026-04-11T08:54:22.723Z</time></trkpt><trkpt lat="44.9664765" lon="10.666024"><ele>30.0</ele><time>2026-04-11T08:54:23.724Z</time></trkpt><trkpt lat="44.9664216" lon="10.6659794"><ele>29.833333333333332</ele><time>2026-04-11T08:54:24.723Z</time></trkpt><trkpt lat="44.9663398" lon="10.6658827"><ele>29.666666666666664</ele><time>2026-04-11T08:54:26.723Z</time></trkpt><trkpt lat="44.9662795" lon="10.6657385"><ele>29.5</ele><time>2026-04-11T08:54:28.723Z</time></trkpt><trkpt lat="44.9662563" lon="10.6656416"><ele>29.333333333333332</ele><time>2026-04-11T08:54:29.725Z</time></trkpt><trkpt lat="44.9662394" lon="10.6655418"><ele>29.166666666666664</ele><time>2026-04-11T08:54:30.724Z</time></trkpt><trkpt lat="44.9662231" lon="10.6654362"><ele>29.0</ele><time>2026-04-11T08:54:31.725Z</time></trkpt><trkpt lat="44.9662093" lon="10.6652716"><ele>29.0</ele><time>2026-04-11T08:54:33.726Z</time></trkpt><trkpt lat="44.9662136" lon="10.6651186"><ele>29.0</ele><time>2026-04-11T08:54:35.724Z</time></trkpt><trkpt lat="44.9662248" lon="10.6649523"><ele>29.0</ele><time>2026-04-11T08:54:37.724Z</time></trkpt><trkpt lat="44.9661965" lon="10.6647739"><ele>29.0</ele><time>2026-04-11T08:54:39.723Z</time></trkpt><trkpt lat="44.9661158" lon="10.6646477"><ele>29.000000000000004</ele><time>2026-04-11T08:54:41.724Z</time></trkpt><trkpt lat="44.9660563" lon="10.6645905"><ele>29.0</ele><time>2026-04-11T08:54:42.723Z</time></trkpt><trkpt lat="44.9659997" lon="10.6645301"><ele>29.000000000000004</ele><time>2026-04-11T08:54:43.723Z</time></trkpt><trkpt lat="44.9659437" lon="10.6644725"><ele>29.000000000000004</ele><time>2026-04-11T08:54:44.724Z</time></trkpt><trkpt lat="44.9658957" lon="10.6644033"><ele>29.0</ele><time>2026-04-11T08:54:45.724Z</time></trkpt><trkpt lat="44.9658461" lon="10.6643313"><ele>29.000000000000004</ele><time>2026-04-11T08:54:46.725Z</time></trkpt><trkpt lat="44.9657926" lon="10.6642551"><ele>29.000000000000004</ele><time>2026-04-11T08:54:47.724Z</time></trkpt><trkpt lat="44.965736" lon="10.6641786"><ele>28.666666666666664</ele><time>2026-04-11T08:54:48.724Z</time></trkpt><trkpt lat="44.9656652" lon="10.6640895"><ele>28.333333333333332</ele><time>2026-04-11T08:54:49.727Z</time></trkpt><trkpt lat="44.965592" lon="10.6639931"><ele>28.0</ele><time>2026-04-11T08:54:50.724Z</time></trkpt><trkpt lat="44.9655201" lon="10.6639009"><ele>27.666666666666664</ele><time>2026-04-11T08:54:51.724Z</time></trkpt><trkpt lat="44.9654595" lon="10.6638204"><ele>27.333333333333332</ele><time>2026-04-11T08:54:52.724Z</time></trkpt><trkpt lat="44.9654136" lon="10.6637403"><ele>27.0</ele><time>2026-04-11T08:54:53.724Z</time></trkpt><trkpt lat="44.9653794" lon="10.6636541"><ele>26.6</ele><time>2026-04-11T08:54:54.725Z</time></trkpt><trkpt lat="44.9653535" lon="10.6635634"><ele>26.200000000000003</ele><time>2026-04-11T08:54:55.724Z</time></trkpt><trkpt lat="44.9653305" lon="10.6633958"><ele>25.8</ele><time>2026-04-11T08:54:57.725Z</time></trkpt><trkpt lat="44.9653197" lon="10.663222"><ele>25.4</ele><time>2026-04-11T08:54:59.723Z</time></trkpt><trkpt lat="44.9653134" lon="10.6631248"><ele>25.0</ele><time>2026-04-11T08:55:00.725Z</time></trkpt><trkpt lat="44.965312" lon="10.6629978"><ele>25.0</ele><time>2026-04-11T08:55:01.724Z</time></trkpt><trkpt lat="44.9653047" lon="10.6628743"><ele>25.0</ele><time>2026-04-11T08:55:02.724Z</time></trkpt><trkpt lat="44.9653018" lon="10.6627472"><ele>25.0</ele><time>2026-04-11T08:55:03.724Z</time></trkpt><trkpt lat="44.9652998" lon="10.6626131"><ele>25.0</ele><time>2026-04-11T08:55:04.724Z</time></trkpt><trkpt lat="44.965299" lon="10.6624805"><ele>25.0</ele><time>2026-04-11T08:55:05.722Z</time></trkpt><trkpt lat="44.9652991" lon="10.6623518"><ele>25.333333333333336</ele><time>2026-04-11T08:55:06.725Z</time></trkpt><trkpt lat="44.9652984" lon="10.6622216"><ele>25.666666666666668</ele><time>2026-04-11T08:55:07.722Z</time></trkpt><trkpt lat="44.9652915" lon="10.6621037"><ele>26.0</ele><time>2026-04-11T08:55:08.724Z</time></trkpt><trkpt lat="44.9652727" lon="10.6619917"><ele>26.333333333333336</ele><time>2026-04-11T08:55:09.724Z</time></trkpt><trkpt lat="44.9652535" lon="10.6618944"><ele>26.666666666666668</ele><time>2026-04-11T08:55:10.724Z</time></trkpt><trkpt lat="44.96523" lon="10.6618075"><ele>27.0</ele><time>2026-04-11T08:55:11.724Z</time></trkpt><trkpt lat="44.9652045" lon="10.6617189"><ele>27.0</ele><time>2026-04-11T08:55:12.725Z</time></trkpt><trkpt lat="44.9651754" lon="10.6616215"><ele>27.0</ele><time>2026-04-11T08:55:13.724Z</time></trkpt><trkpt lat="44.9651435" lon="10.6615206"><ele>27.0</ele><time>2026-04-11T08:55:14.724Z</time></trkpt><trkpt lat="44.9651134" lon="10.6614127"><ele>27.0</ele><time>2026-04-11T08:55:15.724Z</time></trkpt><trkpt lat="44.9650852" lon="10.6613066"><ele>27.0</ele><time>2026-04-11T08:55:16.724Z</time></trkpt><trkpt lat="44.9650559" lon="10.6611958"><ele>27.0</ele><time>2026-04-11T08:55:17.724Z</time></trkpt><trkpt lat="44.9650196" lon="10.661084"><ele>25.666666666666668</ele><time>2026-04-11T08:55:18.725Z</time></trkpt><trkpt lat="44.9649822" lon="10.6609741"><ele>24.333333333333332</ele><time>2026-04-11T08:55:19.727Z</time></trkpt><trkpt lat="44.9649482" lon="10.6608679"><ele>23.0</ele><time>2026-04-11T08:55:20.724Z</time></trkpt><trkpt lat="44.9649162" lon="10.660771"><ele>21.666666666666664</ele><time>2026-04-11T08:55:21.726Z</time></trkpt><trkpt lat="44.964887" lon="10.6606784"><ele>20.333333333333332</ele><time>2026-04-11T08:55:22.725Z</time></trkpt><trkpt lat="44.9648543" lon="10.6605926"><ele>19.0</ele><time>2026-04-11T08:55:23.724Z</time></trkpt><trkpt lat="44.964803" lon="10.6604513"><ele>19.5</ele><time>2026-04-11T08:55:25.724Z</time></trkpt><trkpt lat="44.9647599" lon="10.660279"><ele>20.0</ele><time>2026-04-11T08:55:27.724Z</time></trkpt><trkpt lat="44.9647432" lon="10.6601884"><ele>20.5</ele><time>2026-04-11T08:55:28.722Z</time></trkpt><trkpt lat="44.9647206" lon="10.6600977"><ele>21.0</ele><time>2026-04-11T08:55:29.725Z</time></trkpt><trkpt lat="44.9646849" lon="10.6600016"><ele>21.5</ele><time>2026-04-11T08:55:30.724Z</time></trkpt><trkpt lat="44.9646462" lon="10.6599133"><ele>22.0</ele><time>2026-04-11T08:55:31.724Z</time></trkpt><trkpt lat="44.9646125" lon="10.6598342"><ele>22.0</ele><time>2026-04-11T08:55:32.724Z</time></trkpt><trkpt lat="44.9645773" lon="10.6597395"><ele>22.0</ele><time>2026-04-11T08:55:33.724Z</time></trkpt><trkpt lat="44.9645465" lon="10.6596504"><ele>22.0</ele><time>2026-04-11T08:55:34.723Z</time></trkpt><trkpt lat="44.9645151" lon="10.6595581"><ele>22.0</ele><time>2026-04-11T08:55:35.724Z</time></trkpt><trkpt lat="44.9644831" lon="10.6594667"><ele>22.0</ele><time>2026-04-11T08:55:36.724Z</time></trkpt><trkpt lat="44.9644458" lon="10.6593702"><ele>22.0</ele><time>2026-04-11T08:55:37.724Z</time></trkpt><trkpt lat="44.9644035" lon="10.6592796"><ele>22.0</ele><time>2026-04-11T08:55:38.723Z</time></trkpt><trkpt lat="44.964354" lon="10.6591872"><ele>21.857142857142858</ele><time>2026-04-11T08:55:39.725Z</time></trkpt><trkpt lat="44.9642987" lon="10.659102"><ele>21.714285714285715</ele><time>2026-04-11T08:55:40.723Z</time></trkpt><trkpt lat="44.9642431" lon="10.659026"><ele>21.57142857142857</ele><time>2026-04-11T08:55:41.724Z</time></trkpt><trkpt lat="44.9641893" lon="10.6589561"><ele>21.42857142857143</ele><time>2026-04-11T08:55:42.725Z</time></trkpt><trkpt lat="44.9641395" lon="10.6588825"><ele>21.285714285714285</ele><time>2026-04-11T08:55:43.724Z</time></trkpt><trkpt lat="44.9640971" lon="10.6588028"><ele>21.142857142857142</ele><time>2026-04-11T08:55:44.723Z</time></trkpt><trkpt lat="44.9640613" lon="10.6587234"><ele>21.0</ele><time>2026-04-11T08:55:45.725Z</time></trkpt><trkpt lat="44.9640206" lon="10.6586496"><ele>21.333333333333332</ele><time>2026-04-11T08:55:46.724Z</time></trkpt><trkpt lat="44.9639694" lon="10.6585705"><ele>21.666666666666668</ele><time>2026-04-11T08:55:47.723Z</time></trkpt><trkpt lat="44.9639169" lon="10.6584942"><ele>22.0</ele><time>2026-04-11T08:55:48.725Z</time></trkpt><trkpt lat="44.9638632" lon="10.6584224"><ele>22.333333333333336</ele><time>2026-04-11T08:55:49.726Z</time></trkpt><trkpt lat="44.9638144" lon="10.6583648"><ele>22.666666666666668</ele><time>2026-04-11T08:55:50.724Z</time></trkpt><trkpt lat="44.9637191" lon="10.6582839"><ele>23.0</ele><time>2026-04-11T08:55:52.723Z</time></trkpt><trkpt lat="44.9636238" lon="10.6581903"><ele>23.0</ele><time>2026-04-11T08:55:54.722Z</time></trkpt><trkpt lat="44.9635659" lon="10.6581303"><ele>23.0</ele><time>2026-04-11T08:55:55.724Z</time></trkpt><trkpt lat="44.9635111" lon="10.6580609"><ele>23.0</ele><time>2026-04-11T08:55:56.725Z</time></trkpt><trkpt lat="44.9634532" lon="10.6579853"><ele>23.0</ele><time>2026-04-11T08:55:57.725Z</time></trkpt><trkpt lat="44.9633979" lon="10.6579149"><ele>23.0</ele><time>2026-04-11T08:55:58.724Z</time></trkpt><trkpt lat="44.9633432" lon="10.6578485"><ele>23.0</ele><time>2026-04-11T08:55:59.724Z</time></trkpt><trkpt lat="44.9632919" lon="10.6577853"><ele>23.0</ele><time>2026-04-11T08:56:00.723Z</time></trkpt><trkpt lat="44.9632302" lon="10.6576638"><ele>23.0</ele><time>2026-04-11T08:56:02.724Z</time></trkpt><trkpt lat="44.9632366" lon="10.6574992"><ele>23.0</ele><time>2026-04-11T08:56:04.724Z</time></trkpt><trkpt lat="44.9632663" lon="10.6573869"><ele>23.0</ele><time>2026-04-11T08:56:05.723Z</time></trkpt><trkpt lat="44.9633193" lon="10.6572459"><ele>23.0</ele><time>2026-04-11T08:56:06.724Z</time></trkpt><trkpt lat="44.9633713" lon="10.6571078"><ele>23.0</ele><time>2026-04-11T08:56:07.723Z</time></trkpt><trkpt lat="44.9634128" lon="10.6569821"><ele>22.833333333333336</ele><time>2026-04-11T08:56:08.724Z</time></trkpt><trkpt lat="44.9634467" lon="10.6568686"><ele>22.666666666666668</ele><time>2026-04-11T08:56:09.724Z</time></trkpt><trkpt lat="44.9634808" lon="10.6567603"><ele>22.5</ele><time>2026-04-11T08:56:10.724Z</time></trkpt><trkpt lat="44.9635176" lon="10.6566464"><ele>22.333333333333332</ele><time>2026-04-11T08:56:11.724Z</time></trkpt><trkpt lat="44.9635546" lon="10.6565279"><ele>22.166666666666664</ele><time>2026-04-11T08:56:12.726Z</time></trkpt><trkpt lat="44.9635886" lon="10.6564104"><ele>22.0</ele><time>2026-04-11T08:56:13.725Z</time></trkpt><trkpt lat="44.9636161" lon="10.6562975"><ele>22.0</ele><time>2026-04-11T08:56:14.725Z</time></trkpt><trkpt lat="44.9636423" lon="10.6561855"><ele>22.0</ele><time>2026-04-11T08:56:15.724Z</time></trkpt><trkpt lat="44.9636671" lon="10.6560808"><ele>22.0</ele><time>2026-04-11T08:56:16.725Z</time></trkpt><trkpt lat="44.9636904" lon="10.6559909"><ele>22.0</ele><time>2026-04-11T08:56:17.726Z</time></trkpt><trkpt lat="44.9637086" lon="10.6558514"><ele>22.0</ele><time>2026-04-11T08:56:19.724Z</time></trkpt><trkpt lat="44.9636559" lon="10.655753"><ele>22.0</ele><time>2026-04-11T08:56:21.724Z</time></trkpt><trkpt lat="44.9635478" lon="10.6557123"><ele>21.833333333333332</ele><time>2026-04-11T08:56:23.724Z</time></trkpt><trkpt lat="44.9634234" lon="10.6557391"><ele>21.666666666666664</ele><time>2026-04-11T08:56:25.724Z</time></trkpt><trkpt lat="44.9633648" lon="10.6557732"><ele>21.5</ele><time>2026-04-11T08:56:26.723Z</time></trkpt><trkpt lat="44.9633075" lon="10.6558139"><ele>21.333333333333332</ele><time>2026-04-11T08:56:27.723Z</time></trkpt><trkpt lat="44.9632494" lon="10.6558556"><ele>21.166666666666668</ele><time>2026-04-11T08:56:28.724Z</time></trkpt><trkpt lat="44.9631923" lon="10.655901"><ele>21.0</ele><time>2026-04-11T08:56:29.724Z</time></trkpt><trkpt lat="44.9631325" lon="10.6559507"><ele>21.166666666666668</ele><time>2026-04-11T08:56:30.723Z</time></trkpt><trkpt lat="44.9630705" lon="10.6559969"><ele>21.333333333333332</ele><time>2026-04-11T08:56:31.722Z</time></trkpt><trkpt lat="44.9630072" lon="10.656039"><ele>21.5</ele><time>2026-04-11T08:56:32.725Z</time></trkpt><trkpt lat="44.9629448" lon="10.6560862"><ele>21.666666666666664</ele><time>2026-04-11T08:56:33.724Z</time></trkpt><trkpt lat="44.9628773" lon="10.6561452"><ele>21.833333333333332</ele><time>2026-04-11T08:56:34.724Z</time></trkpt><trkpt lat="44.9628044" lon="10.6562106"><ele>22.0</ele><time>2026-04-11T08:56:35.724Z</time></trkpt><trkpt lat="44.9627265" lon="10.6562766"><ele>22.0</ele><time>2026-04-11T08:56:36.724Z</time></trkpt><trkpt lat="44.9626477" lon="10.6563379"><ele>22.0</ele><time>2026-04-11T08:56:37.724Z</time></trkpt><trkpt lat="44.9625717" lon="10.6563995"><ele>22.0</ele><time>2026-04-11T08:56:38.725Z</time></trkpt><trkpt lat="44.9624975" lon="10.6564612"><ele>22.0</ele><time>2026-04-11T08:56:39.724Z</time></trkpt><trkpt lat="44.9624256" lon="10.656524"><ele>22.0</ele><time>2026-04-11T08:56:40.724Z</time></trkpt><trkpt lat="44.9623599" lon="10.6565804"><ele>22.0</ele><time>2026-04-11T08:56:41.722Z</time></trkpt><trkpt lat="44.9622964" lon="10.6566283"><ele>22.0</ele><time>2026-04-11T08:56:42.724Z</time></trkpt><trkpt lat="44.9621883" lon="10.656705"><ele>22.0</ele><time>2026-04-11T08:56:44.724Z</time></trkpt><trkpt lat="44.9620817" lon="10.656725"><ele>22.0</ele><time>2026-04-11T08:56:46.724Z</time></trkpt><trkpt lat="44.961965" lon="10.6566883"><ele>22.0</ele><time>2026-04-11T08:56:48.725Z</time></trkpt><trkpt lat="44.961895" lon="10.6566533"><ele>22.0</ele><time>2026-04-11T08:56:49.724Z</time></trkpt><trkpt lat="44.9618233" lon="10.65661"><ele>22.0</ele><time>2026-04-11T08:56:50.725Z</time></trkpt><trkpt lat="44.9617567" lon="10.6565633"><ele>22.0</ele><time>2026-04-11T08:56:51.724Z</time></trkpt><trkpt lat="44.9616917" lon="10.656515"><ele>22.0</ele><time>2026-04-11T08:56:52.725Z</time></trkpt><trkpt lat="44.961625" lon="10.6564683"><ele>22.0</ele><time>2026-04-11T08:56:53.726Z</time></trkpt><trkpt lat="44.961555" lon="10.6564233"><ele>22.0</ele><time>2026-04-11T08:56:54.725Z</time></trkpt><trkpt lat="44.96148" lon="10.6563833"><ele>22.0</ele><time>2026-04-11T08:56:55.724Z</time></trkpt><trkpt lat="44.9614067" lon="10.65634"><ele>21.833333333333332</ele><time>2026-04-11T08:56:56.724Z</time></trkpt><trkpt lat="44.9613317" lon="10.6562983"><ele>21.666666666666664</ele><time>2026-04-11T08:56:57.723Z</time></trkpt><trkpt lat="44.9612633" lon="10.6562467"><ele>21.5</ele><time>2026-04-11T08:56:58.724Z</time></trkpt><trkpt lat="44.9611983" lon="10.65619"><ele>21.333333333333332</ele><time>2026-04-11T08:56:59.725Z</time></trkpt><trkpt lat="44.961135" lon="10.6561383"><ele>21.166666666666668</ele><time>2026-04-11T08:57:00.725Z</time></trkpt><trkpt lat="44.9610683" lon="10.6560983"><ele>21.0</ele><time>2026-04-11T08:57:01.725Z</time></trkpt><trkpt lat="44.960995" lon="10.656055"><ele>21.0</ele><time>2026-04-11T08:57:02.725Z</time></trkpt><trkpt lat="44.9609167" lon="10.65601"><ele>21.0</ele><time>2026-04-11T08:57:03.724Z</time></trkpt><trkpt lat="44.96084" lon="10.6559583"><ele>21.0</ele><time>2026-04-11T08:57:04.725Z</time></trkpt><trkpt lat="44.9607617" lon="10.655905"><ele>21.0</ele><time>2026-04-11T08:57:05.724Z</time></trkpt><trkpt lat="44.9606833" lon="10.65585"><ele>21.0</ele><time>2026-04-11T08:57:06.725Z</time></trkpt><trkpt lat="44.96061" lon="10.655805"><ele>21.0</ele><time>2026-04-11T08:57:07.726Z</time></trkpt><trkpt lat="44.9605367" lon="10.6557517"><ele>20.666666666666668</ele><time>2026-04-11T08:57:08.724Z</time></trkpt><trkpt lat="44.9604667" lon="10.6556933"><ele>20.333333333333332</ele><time>2026-04-11T08:57:09.725Z</time></trkpt><trkpt lat="44.9603933" lon="10.6556383"><ele>20.0</ele><time>2026-04-11T08:57:10.724Z</time></trkpt><trkpt lat="44.960325" lon="10.655585"><ele>19.666666666666664</ele><time>2026-04-11T08:57:11.725Z</time></trkpt><trkpt lat="44.9602483" lon="10.6555333"><ele>19.333333333333332</ele><time>2026-04-11T08:57:12.728Z</time></trkpt><trkpt lat="44.9601783" lon="10.65549"><ele>19.0</ele><time>2026-04-11T08:57:13.724Z</time></trkpt><trkpt lat="44.9601117" lon="10.655455"><ele>19.0</ele><time>2026-04-11T08:57:14.725Z</time></trkpt><trkpt lat="44.9600417" lon="10.6554217"><ele>19.0</ele><time>2026-04-11T08:57:15.727Z</time></trkpt><trkpt lat="44.9599717" lon="10.6553883"><ele>19.0</ele><time>2026-04-11T08:57:16.724Z</time></trkpt><trkpt lat="44.9599" lon="10.6553533"><ele>19.0</ele><time>2026-04-11T08:57:17.724Z</time></trkpt><trkpt lat="44.9598317" lon="10.655305"><ele>19.0</ele><time>2026-04-11T08:57:18.725Z</time></trkpt><trkpt lat="44.95977" lon="10.655255"><ele>19.0</ele><time>2026-04-11T08:57:19.725Z</time></trkpt><trkpt lat="44.959705" lon="10.6552067"><ele>19.0</ele><time>2026-04-11T08:57:20.725Z</time></trkpt><trkpt lat="44.95964" lon="10.6551583"><ele>19.333333333333332</ele><time>2026-04-11T08:57:21.724Z</time></trkpt><trkpt lat="44.959575" lon="10.6551083"><ele>19.666666666666664</ele><time>2026-04-11T08:57:22.724Z</time></trkpt><trkpt lat="44.959505" lon="10.655065"><ele>20.0</ele><time>2026-04-11T08:57:23.724Z</time></trkpt><trkpt lat="44.9594383" lon="10.655025"><ele>20.333333333333332</ele><time>2026-04-11T08:57:24.725Z</time></trkpt><trkpt lat="44.95937" lon="10.6549733"><ele>20.666666666666668</ele><time>2026-04-11T08:57:25.724Z</time></trkpt><trkpt lat="44.9592983" lon="10.6549333"><ele>21.0</ele><time>2026-04-11T08:57:26.724Z</time></trkpt><trkpt lat="44.9592183" lon="10.6548867"><ele>21.4</ele><time>2026-04-11T08:57:27.724Z</time></trkpt><trkpt lat="44.9591533" lon="10.6548483"><ele>21.8</ele><time>2026-04-11T08:57:28.724Z</time></trkpt><trkpt lat="44.9590767" lon="10.65479"><ele>22.2</ele><time>2026-04-11T08:57:29.723Z</time></trkpt><trkpt lat="44.9589967" lon="10.6547217"><ele>22.599999999999998</ele><time>2026-04-11T08:57:30.724Z</time></trkpt><trkpt lat="44.9589067" lon="10.6546467"><ele>23.0</ele><time>2026-04-11T08:57:31.724Z</time></trkpt><trkpt lat="44.9588133" lon="10.6545767"><ele>23.0</ele><time>2026-04-11T08:57:32.723Z</time></trkpt><trkpt lat="44.95872" lon="10.654505"><ele>23.0</ele><time>2026-04-11T08:57:33.724Z</time></trkpt><trkpt lat="44.958635" lon="10.654445"><ele>23.0</ele><time>2026-04-11T08:57:34.723Z</time></trkpt><trkpt lat="44.9585533" lon="10.6543917"><ele>23.0</ele><time>2026-04-11T08:57:35.724Z</time></trkpt><trkpt lat="44.958475" lon="10.654345"><ele>23.0</ele><time>2026-04-11T08:57:36.724Z</time></trkpt><trkpt lat="44.9584" lon="10.6542967"><ele>23.0</ele><time>2026-04-11T08:57:37.724Z</time></trkpt><trkpt lat="44.958325" lon="10.6542417"><ele>23.0</ele><time>2026-04-11T08:57:38.724Z</time></trkpt><trkpt lat="44.9582517" lon="10.65418"><ele>23.0</ele><time>2026-04-11T08:57:39.723Z</time></trkpt><trkpt lat="44.958175" lon="10.6541117"><ele>23.0</ele><time>2026-04-11T08:57:40.724Z</time></trkpt><trkpt lat="44.958095" lon="10.65404"><ele>23.0</ele><time>2026-04-11T08:57:41.725Z</time></trkpt><trkpt lat="44.9580167" lon="10.6539667"><ele>23.0</ele><time>2026-04-11T08:57:42.724Z</time></trkpt><trkpt lat="44.95794" lon="10.6538933"><ele>23.0</ele><time>2026-04-11T08:57:43.724Z</time></trkpt><trkpt lat="44.9578667" lon="10.6538233"><ele>23.0</ele><time>2026-04-11T08:57:44.724Z</time></trkpt><trkpt lat="44.957795" lon="10.6537517"><ele>23.0</ele><time>2026-04-11T08:57:45.725Z</time></trkpt><trkpt lat="44.9577267" lon="10.6536733"><ele>23.0</ele><time>2026-04-11T08:57:46.724Z</time></trkpt><trkpt lat="44.9576567" lon="10.6535933"><ele>23.0</ele><time>2026-04-11T08:57:47.724Z</time></trkpt><trkpt lat="44.957585" lon="10.653515"><ele>23.0</ele><time>2026-04-11T08:57:48.725Z</time></trkpt><trkpt lat="44.9575133" lon="10.653435"><ele>22.666666666666668</ele><time>2026-04-11T08:57:49.724Z</time></trkpt><trkpt lat="44.9574467" lon="10.653355"><ele>22.333333333333336</ele><time>2026-04-11T08:57:50.725Z</time></trkpt><trkpt lat="44.9573833" lon="10.653275"><ele>22.0</ele><time>2026-04-11T08:57:51.724Z</time></trkpt><trkpt lat="44.9573283" lon="10.653195"><ele>21.666666666666668</ele><time>2026-04-11T08:57:52.724Z</time></trkpt><trkpt lat="44.9572833" lon="10.6531167"><ele>21.333333333333332</ele><time>2026-04-11T08:57:53.725Z</time></trkpt><trkpt lat="44.9572367" lon="10.65303"><ele>21.0</ele><time>2026-04-11T08:57:54.726Z</time></trkpt><trkpt lat="44.9571883" lon="10.6529483"><ele>21.0</ele><time>2026-04-11T08:57:55.725Z</time></trkpt><trkpt lat="44.9571417" lon="10.65288"><ele>21.0</ele><time>2026-04-11T08:57:56.725Z</time></trkpt><trkpt lat="44.957095" lon="10.65282"><ele>21.0</ele><time>2026-04-11T08:57:57.724Z</time></trkpt><trkpt lat="44.9570067" lon="10.6526967"><ele>21.0</ele><time>2026-04-11T08:57:59.723Z</time></trkpt><trkpt lat="44.95696" lon="10.652635"><ele>21.0</ele><time>2026-04-11T08:58:00.725Z</time></trkpt><trkpt lat="44.9569133" lon="10.6525717"><ele>21.0</ele><time>2026-04-11T08:58:01.724Z</time></trkpt><trkpt lat="44.9568633" lon="10.6525033"><ele>21.0</ele><time>2026-04-11T08:58:02.725Z</time></trkpt><trkpt lat="44.9568133" lon="10.6524367"><ele>21.0</ele><time>2026-04-11T08:58:03.723Z</time></trkpt><trkpt lat="44.9567617" lon="10.652365"><ele>21.0</ele><time>2026-04-11T08:58:04.725Z</time></trkpt><trkpt lat="44.956715" lon="10.6522883"><ele>21.0</ele><time>2026-04-11T08:58:05.724Z</time></trkpt><trkpt lat="44.9566667" lon="10.6522033"><ele>21.0</ele><time>2026-04-11T08:58:06.725Z</time></trkpt><trkpt lat="44.956615" lon="10.6521183"><ele>21.0</ele><time>2026-04-11T08:58:07.724Z</time></trkpt><trkpt lat="44.9565567" lon="10.6520367"><ele>21.0</ele><time>2026-04-11T08:58:08.724Z</time></trkpt><trkpt lat="44.9564883" lon="10.6519683"><ele>21.0</ele><time>2026-04-11T08:58:09.725Z</time></trkpt><trkpt lat="44.9564183" lon="10.651915"><ele>21.0</ele><time>2026-04-11T08:58:10.724Z</time></trkpt><trkpt lat="44.956345" lon="10.65187"><ele>21.0</ele><time>2026-04-11T08:58:11.724Z</time></trkpt><trkpt lat="44.9562733" lon="10.65182"><ele>21.0</ele><time>2026-04-11T08:58:12.724Z</time></trkpt><trkpt lat="44.9562017" lon="10.651765"><ele>21.0</ele><time>2026-04-11T08:58:13.725Z</time></trkpt><trkpt lat="44.9561317" lon="10.6517033"><ele>21.333333333333332</ele><time>2026-04-11T08:58:14.724Z</time></trkpt><trkpt lat="44.9560633" lon="10.6516333"><ele>21.666666666666668</ele><time>2026-04-11T08:58:15.726Z</time></trkpt><trkpt lat="44.9560017" lon="10.6515533"><ele>22.0</ele><time>2026-04-11T08:58:16.724Z</time></trkpt><trkpt lat="44.9559467" lon="10.651465"><ele>22.333333333333336</ele><time>2026-04-11T08:58:17.725Z</time></trkpt><trkpt lat="44.955895" lon="10.6513767"><ele>22.666666666666668</ele><time>2026-04-11T08:58:18.724Z</time></trkpt><trkpt lat="44.955845" lon="10.651285"><ele>23.0</ele><time>2026-04-11T08:58:19.724Z</time></trkpt><trkpt lat="44.95579" lon="10.651195"><ele>23.5</ele><time>2026-04-11T08:58:20.724Z</time></trkpt><trkpt lat="44.95573" lon="10.6511183"><ele>24.0</ele><time>2026-04-11T08:58:21.725Z</time></trkpt><trkpt lat="44.955665" lon="10.651045"><ele>24.5</ele><time>2026-04-11T08:58:22.726Z</time></trkpt><trkpt lat="44.9556017" lon="10.6509733"><ele>25.0</ele><time>2026-04-11T08:58:23.726Z</time></trkpt><trkpt lat="44.9555483" lon="10.65091"><ele>25.499999999999996</ele><time>2026-04-11T08:58:24.726Z</time></trkpt><trkpt lat="44.95549" lon="10.65085"><ele>26.0</ele><time>2026-04-11T08:58:25.724Z</time></trkpt><trkpt lat="44.9554383" lon="10.6507967"><ele>26.0</ele><time>2026-04-11T08:58:26.724Z</time></trkpt><trkpt lat="44.9553833" lon="10.6507483"><ele>26.0</ele><time>2026-04-11T08:58:27.725Z</time></trkpt><trkpt lat="44.9553217" lon="10.65069"><ele>26.0</ele><time>2026-04-11T08:58:28.723Z</time></trkpt><trkpt lat="44.9552617" lon="10.6506283"><ele>26.0</ele><time>2026-04-11T08:58:29.724Z</time></trkpt><trkpt lat="44.9552117" lon="10.6505633"><ele>26.0</ele><time>2026-04-11T08:58:30.724Z</time></trkpt><trkpt lat="44.955165" lon="10.6504983"><ele>26.0</ele><time>2026-04-11T08:58:31.725Z</time></trkpt><trkpt lat="44.955125" lon="10.650425"><ele>26.0</ele><time>2026-04-11T08:58:32.724Z</time></trkpt><trkpt lat="44.9550867" lon="10.6503467"><ele>26.6</ele><time>2026-04-11T08:58:33.725Z</time></trkpt><trkpt lat="44.9550433" lon="10.6502567"><ele>27.200000000000003</ele><time>2026-04-11T08:58:34.725Z</time></trkpt><trkpt lat="44.9550033" lon="10.6501633"><ele>27.799999999999997</ele><time>2026-04-11T08:58:35.725Z</time></trkpt><trkpt lat="44.9549667" lon="10.65008"><ele>28.4</ele><time>2026-04-11T08:58:36.723Z</time></trkpt><trkpt lat="44.9548867" lon="10.64997"><ele>29.0</ele><time>2026-04-11T08:58:38.726Z</time></trkpt><trkpt lat="44.95477" lon="10.649885"><ele>27.999999999999996</ele><time>2026-04-11T08:58:40.724Z</time></trkpt><trkpt lat="44.9547083" lon="10.6498283"><ele>27.0</ele><time>2026-04-11T08:58:41.724Z</time></trkpt><trkpt lat="44.954645" lon="10.6497667"><ele>26.0</ele><time>2026-04-11T08:58:42.724Z</time></trkpt><trkpt lat="44.9545883" lon="10.6496933"><ele>25.0</ele><time>2026-04-11T08:58:43.725Z</time></trkpt><trkpt lat="44.954535" lon="10.6496117"><ele>24.0</ele><time>2026-04-11T08:58:44.724Z</time></trkpt><trkpt lat="44.9544867" lon="10.6495317"><ele>23.0</ele><time>2026-04-11T08:58:45.724Z</time></trkpt><trkpt lat="44.95444" lon="10.6494433"><ele>23.0</ele><time>2026-04-11T08:58:46.723Z</time></trkpt><trkpt lat="44.9543883" lon="10.64936"><ele>23.0</ele><time>2026-04-11T08:58:47.724Z</time></trkpt><trkpt lat="44.9543367" lon="10.6492833"><ele>23.0</ele><time>2026-04-11T08:58:48.725Z</time></trkpt><trkpt lat="44.9542933" lon="10.6492117"><ele>23.0</ele><time>2026-04-11T08:58:49.725Z</time></trkpt><trkpt lat="44.954245" lon="10.6490667"><ele>23.0</ele><time>2026-04-11T08:58:51.725Z</time></trkpt><trkpt lat="44.9542" lon="10.6489167"><ele>23.0</ele><time>2026-04-11T08:58:53.724Z</time></trkpt><trkpt lat="44.9541533" lon="10.648755"><ele>22.799999999999997</ele><time>2026-04-11T08:58:55.725Z</time></trkpt><trkpt lat="44.9541233" lon="10.64859"><ele>22.6</ele><time>2026-04-11T08:58:57.725Z</time></trkpt><trkpt lat="44.9541083" lon="10.6484533"><ele>22.4</ele><time>2026-04-11T08:58:59.725Z</time></trkpt><trkpt lat="44.9540433" lon="10.648325"><ele>22.200000000000003</ele><time>2026-04-11T08:59:01.724Z</time></trkpt><trkpt lat="44.9539983" lon="10.64826"><ele>22.0</ele><time>2026-04-11T08:59:02.724Z</time></trkpt><trkpt lat="44.9539133" lon="10.6481267"><ele>22.0</ele><time>2026-04-11T08:59:04.724Z</time></trkpt><trkpt lat="44.9538667" lon="10.6480583"><ele>22.0</ele><time>2026-04-11T08:59:05.725Z</time></trkpt><trkpt lat="44.953795" lon="10.6479933"><ele>22.0</ele><time>2026-04-11T08:59:06.724Z</time></trkpt><trkpt lat="44.9537267" lon="10.64795"><ele>22.0</ele><time>2026-04-11T08:59:07.724Z</time></trkpt><trkpt lat="44.9536483" lon="10.6479133"><ele>22.0</ele><time>2026-04-11T08:59:08.724Z</time></trkpt><trkpt lat="44.953575" lon="10.647865"><ele>22.0</ele><time>2026-04-11T08:59:09.725Z</time></trkpt><trkpt lat="44.953495" lon="10.64782"><ele>21.833333333333332</ele><time>2026-04-11T08:59:10.723Z</time></trkpt><trkpt lat="44.9534183" lon="10.647765"><ele>21.666666666666664</ele><time>2026-04-11T08:59:11.725Z</time></trkpt><trkpt lat="44.9533383" lon="10.647705"><ele>21.5</ele><time>2026-04-11T08:59:12.724Z</time></trkpt><trkpt lat="44.9532633" lon="10.6476467"><ele>21.333333333333332</ele><time>2026-04-11T08:59:13.725Z</time></trkpt><trkpt lat="44.9531883" lon="10.64759"><ele>21.166666666666668</ele><time>2026-04-11T08:59:14.724Z</time></trkpt><trkpt lat="44.9531217" lon="10.6475333"><ele>21.0</ele><time>2026-04-11T08:59:15.724Z</time></trkpt><trkpt lat="44.9530583" lon="10.6474867"><ele>21.0</ele><time>2026-04-11T08:59:16.724Z</time></trkpt><trkpt lat="44.952995" lon="10.6474417"><ele>21.0</ele><time>2026-04-11T08:59:17.724Z</time></trkpt><trkpt lat="44.952935" lon="10.6474067"><ele>21.0</ele><time>2026-04-11T08:59:18.724Z</time></trkpt><trkpt lat="44.952815" lon="10.6473433"><ele>21.0</ele><time>2026-04-11T08:59:20.725Z</time></trkpt><trkpt lat="44.952755" lon="10.6473133"><ele>21.0</ele><time>2026-04-11T08:59:21.726Z</time></trkpt><trkpt lat="44.9526417" lon="10.6472483"><ele>21.0</ele><time>2026-04-11T08:59:23.726Z</time></trkpt><trkpt lat="44.95254" lon="10.6471567"><ele>21.0</ele><time>2026-04-11T08:59:25.725Z</time></trkpt><trkpt lat="44.9524933" lon="10.6470933"><ele>21.0</ele><time>2026-04-11T08:59:26.725Z</time></trkpt><trkpt lat="44.9524483" lon="10.6470133"><ele>21.0</ele><time>2026-04-11T08:59:27.725Z</time></trkpt><trkpt lat="44.9524033" lon="10.6469217"><ele>21.0</ele><time>2026-04-11T08:59:28.726Z</time></trkpt><trkpt lat="44.95236" lon="10.6468333"><ele>21.0</ele><time>2026-04-11T08:59:29.726Z</time></trkpt><trkpt lat="44.9523167" lon="10.6467433"><ele>22.166666666666668</ele><time>2026-04-11T08:59:30.726Z</time></trkpt><trkpt lat="44.9522717" lon="10.6466533"><ele>23.333333333333336</ele><time>2026-04-11T08:59:31.726Z</time></trkpt><trkpt lat="44.9522267" lon="10.6465683"><ele>24.5</ele><time>2026-04-11T08:59:32.724Z</time></trkpt><trkpt lat="44.9521867" lon="10.6464917"><ele>25.666666666666668</ele><time>2026-04-11T08:59:33.725Z</time></trkpt><trkpt lat="44.9521117" lon="10.6463833"><ele>26.833333333333336</ele><time>2026-04-11T08:59:35.724Z</time></trkpt><trkpt lat="44.9520133" lon="10.6462967"><ele>28.0</ele><time>2026-04-11T08:59:37.725Z</time></trkpt><trkpt lat="44.9519017" lon="10.6462067"><ele>28.000000000000004</ele><time>2026-04-11T08:59:39.724Z</time></trkpt><trkpt lat="44.9518517" lon="10.6461517"><ele>28.0</ele><time>2026-04-11T08:59:40.724Z</time></trkpt><trkpt lat="44.9517683" lon="10.6460267"><ele>28.0</ele><time>2026-04-11T08:59:42.724Z</time></trkpt><trkpt lat="44.95173" lon="10.645945"><ele>28.0</ele><time>2026-04-11T08:59:43.724Z</time></trkpt><trkpt lat="44.9516917" lon="10.6458583"><ele>28.000000000000004</ele><time>2026-04-11T08:59:44.724Z</time></trkpt><trkpt lat="44.951655" lon="10.6457717"><ele>28.0</ele><time>2026-04-11T08:59:45.725Z</time></trkpt><trkpt lat="44.9516167" lon="10.6456867"><ele>28.0</ele><time>2026-04-11T08:59:46.724Z</time></trkpt><trkpt lat="44.9515767" lon="10.645595"><ele>28.0</ele><time>2026-04-11T08:59:47.725Z</time></trkpt><trkpt lat="44.9515367" lon="10.6455033"><ele>28.0</ele><time>2026-04-11T08:59:48.725Z</time></trkpt><trkpt lat="44.9514917" lon="10.6454167"><ele>28.0</ele><time>2026-04-11T08:59:49.725Z</time></trkpt><trkpt lat="44.95145" lon="10.645335"><ele>28.0</ele><time>2026-04-11T08:59:50.725Z</time></trkpt><trkpt lat="44.9514083" lon="10.6452567"><ele>28.0</ele><time>2026-04-11T08:59:51.726Z</time></trkpt><trkpt lat="44.9513667" lon="10.6451833"><ele>28.0</ele><time>2026-04-11T08:59:52.724Z</time></trkpt><trkpt lat="44.9513267" lon="10.645105"><ele>28.000000000000004</ele><time>2026-04-11T08:59:53.725Z</time></trkpt><trkpt lat="44.9512833" lon="10.64502"><ele>28.0</ele><time>2026-04-11T08:59:54.725Z</time></trkpt><trkpt lat="44.9512367" lon="10.6449317"><ele>28.0</ele><time>2026-04-11T08:59:55.725Z</time></trkpt><trkpt lat="44.95119" lon="10.6448383"><ele>28.0</ele><time>2026-04-11T08:59:56.727Z</time></trkpt><trkpt lat="44.9511467" lon="10.6447483"><ele>28.000000000000004</ele><time>2026-04-11T08:59:57.727Z</time></trkpt><trkpt lat="44.9510967" lon="10.644655"><ele>28.0</ele><time>2026-04-11T08:59:58.726Z</time></trkpt><trkpt lat="44.9510467" lon="10.6445567"><ele>28.0</ele><time>2026-04-11T08:59:59.726Z</time></trkpt><trkpt lat="44.9509933" lon="10.6444583"><ele>27.999999999999996</ele><time>2026-04-11T09:00:00.726Z</time></trkpt><trkpt lat="44.9509383" lon="10.644355"><ele>27.999999999999996</ele><time>2026-04-11T09:00:01.725Z</time></trkpt><trkpt lat="44.9508833" lon="10.6442483"><ele>28.0</ele><time>2026-04-11T09:00:02.726Z</time></trkpt><trkpt lat="44.9508267" lon="10.6441417"><ele>28.0</ele><time>2026-04-11T09:00:03.726Z</time></trkpt><trkpt lat="44.950765" lon="10.64403"><ele>27.4</ele><time>2026-04-11T09:00:04.725Z</time></trkpt><trkpt lat="44.950705" lon="10.6439217"><ele>26.799999999999997</ele><time>2026-04-11T09:00:05.726Z</time></trkpt><trkpt lat="44.9506433" lon="10.6438133"><ele>26.2</ele><time>2026-04-11T09:00:06.725Z</time></trkpt><trkpt lat="44.9505867" lon="10.6437083"><ele>25.6</ele><time>2026-04-11T09:00:07.726Z</time></trkpt><trkpt lat="44.9505283" lon="10.643605"><ele>25.0</ele><time>2026-04-11T09:00:08.726Z</time></trkpt><trkpt lat="44.9504733" lon="10.6435017"><ele>25.000000000000004</ele><time>2026-04-11T09:00:09.727Z</time></trkpt><trkpt lat="44.9504183" lon="10.6433967"><ele>25.0</ele><time>2026-04-11T09:00:10.725Z</time></trkpt><trkpt lat="44.9503633" lon="10.643295"><ele>25.0</ele><time>2026-04-11T09:00:11.726Z</time></trkpt><trkpt lat="44.95031" lon="10.643195"><ele>25.0</ele><time>2026-04-11T09:00:12.727Z</time></trkpt><trkpt lat="44.950255" lon="10.6430933"><ele>25.000000000000004</ele><time>2026-04-11T09:00:13.726Z</time></trkpt><trkpt lat="44.9502033" lon="10.642995"><ele>25.0</ele><time>2026-04-11T09:00:14.725Z</time></trkpt><trkpt lat="44.95015" lon="10.6428933"><ele>25.0</ele><time>2026-04-11T09:00:15.726Z</time></trkpt><trkpt lat="44.9500967" lon="10.6427933"><ele>25.0</ele><time>2026-04-11T09:00:16.726Z</time></trkpt><trkpt lat="44.9500433" lon="10.642695"><ele>25.0</ele><time>2026-04-11T09:00:17.726Z</time></trkpt><trkpt lat="44.9499883" lon="10.6426"><ele>25.0</ele><time>2026-04-11T09:00:18.726Z</time></trkpt><trkpt lat="44.9499233" lon="10.6424983"><ele>25.0</ele><time>2026-04-11T09:00:19.725Z</time></trkpt><trkpt lat="44.9498533" lon="10.6423917"><ele>25.0</ele><time>2026-04-11T09:00:20.726Z</time></trkpt><trkpt lat="44.9497817" lon="10.64228"><ele>25.0</ele><time>2026-04-11T09:00:21.726Z</time></trkpt><trkpt lat="44.94971" lon="10.6421767"><ele>25.0</ele><time>2026-04-11T09:00:22.725Z</time></trkpt><trkpt lat="44.94964" lon="10.6420633"><ele>25.0</ele><time>2026-04-11T09:00:23.725Z</time></trkpt><trkpt lat="44.9495683" lon="10.6419583"><ele>25.0</ele><time>2026-04-11T09:00:24.725Z</time></trkpt><trkpt lat="44.9494933" lon="10.6418533"><ele>24.8</ele><time>2026-04-11T09:00:25.725Z</time></trkpt><trkpt lat="44.9494267" lon="10.6417517"><ele>24.6</ele><time>2026-04-11T09:00:26.723Z</time></trkpt><trkpt lat="44.9493617" lon="10.6416517"><ele>24.4</ele><time>2026-04-11T09:00:27.725Z</time></trkpt><trkpt lat="44.9492967" lon="10.64156"><ele>24.2</ele><time>2026-04-11T09:00:28.724Z</time></trkpt><trkpt lat="44.94923" lon="10.6414667"><ele>24.0</ele><time>2026-04-11T09:00:29.725Z</time></trkpt><trkpt lat="44.949165" lon="10.6413767"><ele>23.799999999999997</ele><time>2026-04-11T09:00:30.726Z</time></trkpt><trkpt lat="44.9491033" lon="10.641285"><ele>23.599999999999998</ele><time>2026-04-11T09:00:31.725Z</time></trkpt><trkpt lat="44.9490367" lon="10.6411983"><ele>23.4</ele><time>2026-04-11T09:00:32.724Z</time></trkpt><trkpt lat="44.94897" lon="10.6411133"><ele>23.2</ele><time>2026-04-11T09:00:33.725Z</time></trkpt><trkpt lat="44.9489017" lon="10.6410217"><ele>23.0</ele><time>2026-04-11T09:00:34.724Z</time></trkpt><trkpt lat="44.94883" lon="10.64093"><ele>23.0</ele><time>2026-04-11T09:00:35.726Z</time></trkpt><trkpt lat="44.948755" lon="10.6408367"><ele>23.0</ele><time>2026-04-11T09:00:36.726Z</time></trkpt><trkpt lat="44.9486817" lon="10.6407433"><ele>23.0</ele><time>2026-04-11T09:00:37.726Z</time></trkpt><trkpt lat="44.9486067" lon="10.6406533"><ele>23.0</ele><time>2026-04-11T09:00:38.725Z</time></trkpt><trkpt lat="44.94853" lon="10.6405683"><ele>23.0</ele><time>2026-04-11T09:00:39.725Z</time></trkpt><trkpt lat="44.9484567" lon="10.6404867"><ele>23.0</ele><time>2026-04-11T09:00:40.724Z</time></trkpt><trkpt lat="44.9483883" lon="10.6404033"><ele>23.0</ele><time>2026-04-11T09:00:41.724Z</time></trkpt><trkpt lat="44.9483183" lon="10.6403217"><ele>23.0</ele><time>2026-04-11T09:00:42.724Z</time></trkpt><trkpt lat="44.94825" lon="10.6402417"><ele>23.0</ele><time>2026-04-11T09:00:43.725Z</time></trkpt><trkpt lat="44.9481817" lon="10.6401633"><ele>23.0</ele><time>2026-04-11T09:00:44.725Z</time></trkpt><trkpt lat="44.948115" lon="10.6400867"><ele>23.0</ele><time>2026-04-11T09:00:45.725Z</time></trkpt><trkpt lat="44.94805" lon="10.640015"><ele>22.333333333333336</ele><time>2026-04-11T09:00:46.724Z</time></trkpt><trkpt lat="44.9479933" lon="10.6399433"><ele>21.666666666666668</ele><time>2026-04-11T09:00:47.725Z</time></trkpt><trkpt lat="44.9479367" lon="10.639875"><ele>21.0</ele><time>2026-04-11T09:00:48.724Z</time></trkpt><trkpt lat="44.947875" lon="10.6398083"><ele>20.333333333333332</ele><time>2026-04-11T09:00:49.725Z</time></trkpt><trkpt lat="44.9478117" lon="10.6397367"><ele>19.666666666666664</ele><time>2026-04-11T09:00:50.725Z</time></trkpt><trkpt lat="44.9477517" lon="10.6396633"><ele>19.0</ele><time>2026-04-11T09:00:51.726Z</time></trkpt><trkpt lat="44.94769" lon="10.6395883"><ele>19.0</ele><time>2026-04-11T09:00:52.725Z</time></trkpt><trkpt lat="44.9476317" lon="10.6395117"><ele>19.0</ele><time>2026-04-11T09:00:53.727Z</time></trkpt><trkpt lat="44.9475767" lon="10.6394417"><ele>19.0</ele><time>2026-04-11T09:00:54.726Z</time></trkpt><trkpt lat="44.9475133" lon="10.639375"><ele>19.0</ele><time>2026-04-11T09:00:55.725Z</time></trkpt><trkpt lat="44.9474483" lon="10.63931"><ele>19.0</ele><time>2026-04-11T09:00:56.725Z</time></trkpt><trkpt lat="44.9473833" lon="10.6392467"><ele>19.0</ele><time>2026-04-11T09:00:57.725Z</time></trkpt><trkpt lat="44.9473217" lon="10.639185"><ele>19.5</ele><time>2026-04-11T09:00:58.725Z</time></trkpt><trkpt lat="44.9472583" lon="10.6391133"><ele>20.0</ele><time>2026-04-11T09:00:59.726Z</time></trkpt><trkpt lat="44.9471917" lon="10.6390467"><ele>20.5</ele><time>2026-04-11T09:01:00.725Z</time></trkpt><trkpt lat="44.947125" lon="10.6389783"><ele>21.0</ele><time>2026-04-11T09:01:01.724Z</time></trkpt><trkpt lat="44.9470567" lon="10.63891"><ele>21.5</ele><time>2026-04-11T09:01:02.726Z</time></trkpt><trkpt lat="44.9469867" lon="10.63885"><ele>22.0</ele><time>2026-04-11T09:01:03.725Z</time></trkpt><trkpt lat="44.9469183" lon="10.6387917"><ele>22.0</ele><time>2026-04-11T09:01:04.726Z</time></trkpt><trkpt lat="44.9468617" lon="10.638745"><ele>22.0</ele><time>2026-04-11T09:01:05.726Z</time></trkpt><trkpt lat="44.94679" lon="10.6386817"><ele>22.0</ele><time>2026-04-11T09:01:06.726Z</time></trkpt><trkpt lat="44.946715" lon="10.6386183"><ele>22.0</ele><time>2026-04-11T09:01:07.726Z</time></trkpt><trkpt lat="44.9466417" lon="10.638555"><ele>22.0</ele><time>2026-04-11T09:01:08.726Z</time></trkpt><trkpt lat="44.9465717" lon="10.638495"><ele>22.0</ele><time>2026-04-11T09:01:09.727Z</time></trkpt><trkpt lat="44.9465" lon="10.6384317"><ele>22.0</ele><time>2026-04-11T09:01:10.725Z</time></trkpt><trkpt lat="44.946425" lon="10.6383667"><ele>22.0</ele><time>2026-04-11T09:01:11.726Z</time></trkpt><trkpt lat="44.9463467" lon="10.638295"><ele>22.0</ele><time>2026-04-11T09:01:12.726Z</time></trkpt><trkpt lat="44.9462683" lon="10.638225"><ele>22.0</ele><time>2026-04-11T09:01:13.726Z</time></trkpt><trkpt lat="44.9461867" lon="10.6381533"><ele>22.0</ele><time>2026-04-11T09:01:14.726Z</time></trkpt><trkpt lat="44.9461" lon="10.6380783"><ele>22.0</ele><time>2026-04-11T09:01:15.727Z</time></trkpt><trkpt lat="44.9460067" lon="10.6380033"><ele>22.0</ele><time>2026-04-11T09:01:16.724Z</time></trkpt><trkpt lat="44.94591" lon="10.637925"><ele>22.0</ele><time>2026-04-11T09:01:17.725Z</time></trkpt><trkpt lat="44.94581" lon="10.6378483"><ele>22.0</ele><time>2026-04-11T09:01:18.725Z</time></trkpt><trkpt lat="44.9457133" lon="10.6377717"><ele>22.0</ele><time>2026-04-11T09:01:19.725Z</time></trkpt><trkpt lat="44.9456117" lon="10.637695"><ele>22.0</ele><time>2026-04-11T09:01:20.726Z</time></trkpt><trkpt lat="44.9455083" lon="10.6376167"><ele>22.0</ele><time>2026-04-11T09:01:21.725Z</time></trkpt><trkpt lat="44.94541" lon="10.6375467"><ele>22.0</ele><time>2026-04-11T09:01:22.726Z</time></trkpt><trkpt lat="44.94532" lon="10.6374783"><ele>22.0</ele><time>2026-04-11T09:01:23.726Z</time></trkpt><trkpt lat="44.94523" lon="10.637415"><ele>22.0</ele><time>2026-04-11T09:01:24.726Z</time></trkpt><trkpt lat="44.9451417" lon="10.6373533"><ele>22.0</ele><time>2026-04-11T09:01:25.726Z</time></trkpt><trkpt lat="44.945055" lon="10.6372917"><ele>22.0</ele><time>2026-04-11T09:01:26.726Z</time></trkpt><trkpt lat="44.9449667" lon="10.6372317"><ele>22.0</ele><time>2026-04-11T09:01:27.727Z</time></trkpt><trkpt lat="44.9448833" lon="10.6371733"><ele>22.0</ele><time>2026-04-11T09:01:28.725Z</time></trkpt><trkpt lat="44.9448" lon="10.6371183"><ele>22.0</ele><time>2026-04-11T09:01:29.726Z</time></trkpt><trkpt lat="44.94472" lon="10.637065"><ele>21.5</ele><time>2026-04-11T09:01:30.726Z</time></trkpt><trkpt lat="44.9446367" lon="10.6370167"><ele>21.0</ele><time>2026-04-11T09:01:31.726Z</time></trkpt><trkpt lat="44.9445517" lon="10.6369617"><ele>20.5</ele><time>2026-04-11T09:01:32.726Z</time></trkpt><trkpt lat="44.94447" lon="10.636905"><ele>20.0</ele><time>2026-04-11T09:01:33.727Z</time></trkpt><trkpt lat="44.94439" lon="10.6368533"><ele>19.5</ele><time>2026-04-11T09:01:34.726Z</time></trkpt><trkpt lat="44.9443117" lon="10.636805"><ele>19.0</ele><time>2026-04-11T09:01:35.727Z</time></trkpt><trkpt lat="44.9442433" lon="10.6367617"><ele>19.6</ele><time>2026-04-11T09:01:36.723Z</time></trkpt><trkpt lat="44.9441833" lon="10.636725"><ele>20.2</ele><time>2026-04-11T09:01:37.725Z</time></trkpt><trkpt lat="44.9440883" lon="10.636665"><ele>20.8</ele><time>2026-04-11T09:01:39.725Z</time></trkpt><trkpt lat="44.9439783" lon="10.6366017"><ele>21.400000000000002</ele><time>2026-04-11T09:01:41.725Z</time></trkpt><trkpt lat="44.94386" lon="10.6365383"><ele>22.0</ele><time>2026-04-11T09:01:43.724Z</time></trkpt><trkpt lat="44.9438" lon="10.6365083"><ele>22.0</ele><time>2026-04-11T09:01:44.724Z</time></trkpt><trkpt lat="44.9437383" lon="10.6364733"><ele>22.0</ele><time>2026-04-11T09:01:45.724Z</time></trkpt><trkpt lat="44.9436767" lon="10.6364317"><ele>22.0</ele><time>2026-04-11T09:01:46.725Z</time></trkpt><trkpt lat="44.94361" lon="10.6363933"><ele>22.0</ele><time>2026-04-11T09:01:47.725Z</time></trkpt><trkpt lat="44.943535" lon="10.6363533"><ele>22.0</ele><time>2026-04-11T09:01:48.723Z</time></trkpt><trkpt lat="44.9434583" lon="10.636305"><ele>22.0</ele><time>2026-04-11T09:01:49.722Z</time></trkpt><trkpt lat="44.9433767" lon="10.6362567"><ele>21.8</ele><time>2026-04-11T09:01:50.722Z</time></trkpt><trkpt lat="44.9432883" lon="10.636205"><ele>21.6</ele><time>2026-04-11T09:01:51.725Z</time></trkpt><trkpt lat="44.9431967" lon="10.636155"><ele>21.400000000000002</ele><time>2026-04-11T09:01:52.722Z</time></trkpt><trkpt lat="44.943105" lon="10.636105"><ele>21.200000000000003</ele><time>2026-04-11T09:01:53.723Z</time></trkpt><trkpt lat="44.94301" lon="10.6360567"><ele>21.0</ele><time>2026-04-11T09:01:54.723Z</time></trkpt><trkpt lat="44.9429167" lon="10.6360083"><ele>21.0</ele><time>2026-04-11T09:01:55.723Z</time></trkpt><trkpt lat="44.94282" lon="10.6359583"><ele>21.0</ele><time>2026-04-11T09:01:56.724Z</time></trkpt><trkpt lat="44.9427233" lon="10.6359083"><ele>21.0</ele><time>2026-04-11T09:01:57.725Z</time></trkpt><trkpt lat="44.942625" lon="10.63586"><ele>21.0</ele><time>2026-04-11T09:01:58.724Z</time></trkpt><trkpt lat="44.9425233" lon="10.635815"><ele>21.0</ele><time>2026-04-11T09:01:59.723Z</time></trkpt><trkpt lat="44.9424183" lon="10.6357667"><ele>21.25</ele><time>2026-04-11T09:02:00.724Z</time></trkpt><trkpt lat="44.94231" lon="10.6357167"><ele>21.5</ele><time>2026-04-11T09:02:01.725Z</time></trkpt><trkpt lat="44.9421967" lon="10.6356667"><ele>21.75</ele><time>2026-04-11T09:02:02.723Z</time></trkpt><trkpt lat="44.94208" lon="10.6356167"><ele>22.0</ele><time>2026-04-11T09:02:03.725Z</time></trkpt><trkpt lat="44.9419617" lon="10.6355667"><ele>22.0</ele><time>2026-04-11T09:02:04.724Z</time></trkpt><trkpt lat="44.9418417" lon="10.6355217"><ele>22.0</ele><time>2026-04-11T09:02:05.724Z</time></trkpt><trkpt lat="44.941725" lon="10.635475"><ele>22.0</ele><time>2026-04-11T09:02:06.724Z</time></trkpt><trkpt lat="44.9416117" lon="10.635425"><ele>22.0</ele><time>2026-04-11T09:02:07.723Z</time></trkpt><trkpt lat="44.9415" lon="10.6353767"><ele>21.8</ele><time>2026-04-11T09:02:08.724Z</time></trkpt><trkpt lat="44.9413983" lon="10.6353333"><ele>21.6</ele><time>2026-04-11T09:02:09.724Z</time></trkpt><trkpt lat="44.941305" lon="10.6352933"><ele>21.400000000000002</ele><time>2026-04-11T09:02:10.724Z</time></trkpt><trkpt lat="44.9412117" lon="10.6352617"><ele>21.200000000000003</ele><time>2026-04-11T09:02:11.725Z</time></trkpt><trkpt lat="44.9411267" lon="10.6352233"><ele>21.0</ele><time>2026-04-11T09:02:12.723Z</time></trkpt><trkpt lat="44.94105" lon="10.6351917"><ele>20.857142857142858</ele><time>2026-04-11T09:02:13.724Z</time></trkpt><trkpt lat="44.9409717" lon="10.635165"><ele>20.714285714285715</ele><time>2026-04-11T09:02:14.723Z</time></trkpt><trkpt lat="44.9408967" lon="10.6351367"><ele>20.57142857142857</ele><time>2026-04-11T09:02:15.723Z</time></trkpt><trkpt lat="44.94083" lon="10.6351117"><ele>20.42857142857143</ele><time>2026-04-11T09:02:16.725Z</time></trkpt><trkpt lat="44.9407667" lon="10.6350867"><ele>20.285714285714285</ele><time>2026-04-11T09:02:17.723Z</time></trkpt><trkpt lat="44.9407067" lon="10.635055"><ele>20.142857142857142</ele><time>2026-04-11T09:02:18.724Z</time></trkpt><trkpt lat="44.940645" lon="10.63502"><ele>20.0</ele><time>2026-04-11T09:02:19.725Z</time></trkpt><trkpt lat="44.940595" lon="10.6349617"><ele>20.0</ele><time>2026-04-11T09:02:20.722Z</time></trkpt><trkpt lat="44.9405467" lon="10.6349017"><ele>20.0</ele><time>2026-04-11T09:02:21.724Z</time></trkpt><trkpt lat="44.9404917" lon="10.634845"><ele>20.0</ele><time>2026-04-11T09:02:22.723Z</time></trkpt><trkpt lat="44.9404333" lon="10.634795"><ele>20.0</ele><time>2026-04-11T09:02:23.724Z</time></trkpt><trkpt lat="44.9403683" lon="10.6347583"><ele>20.0</ele><time>2026-04-11T09:02:24.722Z</time></trkpt><trkpt lat="44.9403067" lon="10.6347317"><ele>20.0</ele><time>2026-04-11T09:02:25.724Z</time></trkpt><trkpt lat="44.940245" lon="10.634705"><ele>20.0</ele><time>2026-04-11T09:02:26.724Z</time></trkpt><trkpt lat="44.9401833" lon="10.6346733"><ele>20.0</ele><time>2026-04-11T09:02:27.724Z</time></trkpt><trkpt lat="44.9400783" lon="10.634615"><ele>20.0</ele><time>2026-04-11T09:02:29.724Z</time></trkpt><trkpt lat="44.9399917" lon="10.6345567"><ele>20.0</ele><time>2026-04-11T09:02:31.724Z</time></trkpt><trkpt lat="44.9398967" lon="10.6344933"><ele>20.0</ele><time>2026-04-11T09:02:33.724Z</time></trkpt><trkpt lat="44.939785" lon="10.6344283"><ele>20.0</ele><time>2026-04-11T09:02:35.724Z</time></trkpt><trkpt lat="44.939675" lon="10.6343667"><ele>20.5</ele><time>2026-04-11T09:02:37.725Z</time></trkpt><trkpt lat="44.939565" lon="10.6343017"><ele>21.0</ele><time>2026-04-11T09:02:39.726Z</time></trkpt><trkpt lat="44.9394583" lon="10.634245"><ele>21.5</ele><time>2026-04-11T09:02:41.724Z</time></trkpt><trkpt lat="44.9393533" lon="10.634195"><ele>22.0</ele><time>2026-04-11T09:02:43.724Z</time></trkpt><trkpt lat="44.9392417" lon="10.6341517"><ele>21.25</ele><time>2026-04-11T09:02:45.724Z</time></trkpt><trkpt lat="44.939125" lon="10.6341183"><ele>20.5</ele><time>2026-04-11T09:02:47.724Z</time></trkpt><trkpt lat="44.9390017" lon="10.63409"><ele>19.75</ele><time>2026-04-11T09:02:49.723Z</time></trkpt><trkpt lat="44.9388817" lon="10.634055"><ele>19.0</ele><time>2026-04-11T09:02:51.724Z</time></trkpt><trkpt lat="44.9387683" lon="10.63402"><ele>19.0</ele><time>2026-04-11T09:02:53.723Z</time></trkpt><trkpt lat="44.9386633" lon="10.6339783"><ele>19.0</ele><time>2026-04-11T09:02:55.723Z</time></trkpt><trkpt lat="44.9385733" lon="10.6339417"><ele>19.0</ele><time>2026-04-11T09:02:57.723Z</time></trkpt><trkpt lat="44.9385" lon="10.633905"><ele>19.0</ele><time>2026-04-11T09:02:59.723Z</time></trkpt><trkpt lat="44.9384367" lon="10.6338617"><ele>19.0</ele><time>2026-04-11T09:03:02.726Z</time></trkpt><trkpt lat="44.9383067" lon="10.633825"><ele>19.0</ele><time>2026-04-11T09:03:47.724Z</time></trkpt><trkpt lat="44.93822" lon="10.6338267"><ele>19.0</ele><time>2026-04-11T09:03:49.723Z</time></trkpt><trkpt lat="44.9381367" lon="10.6338333"><ele>19.0</ele><time>2026-04-11T09:03:51.725Z</time></trkpt><trkpt lat="44.9380483" lon="10.6338467"><ele>19.0</ele><time>2026-04-11T09:04:14.722Z</time></trkpt><trkpt lat="44.937935" lon="10.6338583"><ele>19.0</ele><time>2026-04-11T09:04:16.724Z</time></trkpt><trkpt lat="44.9378233" lon="10.6338467"><ele>19.0</ele><time>2026-04-11T09:04:18.724Z</time></trkpt><trkpt lat="44.9377483" lon="10.6338333"><ele>19.0</ele><time>2026-04-11T09:04:20.725Z</time></trkpt><trkpt lat="44.93766" lon="10.6338167"><ele>19.0</ele><time>2026-04-11T09:04:23.724Z</time></trkpt><trkpt lat="44.93758" lon="10.633785"><ele>19.0</ele><time>2026-04-11T09:05:18.725Z</time></trkpt><trkpt lat="44.9374867" lon="10.6337617"><ele>19.0</ele><time>2026-04-11T09:05:20.726Z</time></trkpt><trkpt lat="44.9373883" lon="10.6337317"><ele>19.0</ele><time>2026-04-11T09:05:22.725Z</time></trkpt><trkpt lat="44.93728" lon="10.6337017"><ele>19.4</ele><time>2026-04-11T09:05:24.725Z</time></trkpt><trkpt lat="44.9371717" lon="10.633675"><ele>19.799999999999997</ele><time>2026-04-11T09:05:26.724Z</time></trkpt><trkpt lat="44.9370717" lon="10.6336483"><ele>20.200000000000003</ele><time>2026-04-11T09:05:28.724Z</time></trkpt><trkpt lat="44.9369817" lon="10.63361"><ele>20.6</ele><time>2026-04-11T09:05:30.724Z</time></trkpt><trkpt lat="44.936905" lon="10.6335917"><ele>21.0</ele><time>2026-04-11T09:05:32.724Z</time></trkpt><trkpt lat="44.936815" lon="10.6335767"><ele>21.0</ele><time>2026-04-11T09:06:18.723Z</time></trkpt><trkpt lat="44.936745" lon="10.6335567"><ele>21.0</ele><time>2026-04-11T09:06:20.723Z</time></trkpt><trkpt lat="44.9366517" lon="10.6335433"><ele>21.0</ele><time>2026-04-11T09:06:22.724Z</time></trkpt><trkpt lat="44.9365533" lon="10.6335333"><ele>21.0</ele><time>2026-04-11T09:06:24.723Z</time></trkpt><trkpt lat="44.9364583" lon="10.6335233"><ele>21.0</ele><time>2026-04-11T09:06:26.724Z</time></trkpt><trkpt lat="44.936355" lon="10.633515"><ele>21.0</ele><time>2026-04-11T09:06:28.723Z</time></trkpt><trkpt lat="44.9362483" lon="10.6335133"><ele>21.0</ele><time>2026-04-11T09:06:30.727Z</time></trkpt><trkpt lat="44.936155" lon="10.6335083"><ele>21.0</ele><time>2026-04-11T09:06:32.723Z</time></trkpt><trkpt lat="44.9360633" lon="10.6335033"><ele>21.0</ele><time>2026-04-11T09:06:34.723Z</time></trkpt><trkpt lat="44.9359833" lon="10.6335083"><ele>21.0</ele><time>2026-04-11T09:06:36.724Z</time></trkpt><trkpt lat="44.9358933" lon="10.6335117"><ele>20.8</ele><time>2026-04-11T09:06:38.725Z</time></trkpt><trkpt lat="44.9358" lon="10.633515"><ele>20.6</ele><time>2026-04-11T09:06:40.725Z</time></trkpt><trkpt lat="44.935705" lon="10.633505"><ele>20.4</ele><time>2026-04-11T09:06:42.723Z</time></trkpt><trkpt lat="44.9356067" lon="10.6335"><ele>20.2</ele><time>2026-04-11T09:06:44.723Z</time></trkpt><trkpt lat="44.9355083" lon="10.6335067"><ele>20.0</ele><time>2026-04-11T09:06:46.723Z</time></trkpt><trkpt lat="44.9354117" lon="10.6335133"><ele>20.0</ele><time>2026-04-11T09:06:48.724Z</time></trkpt><trkpt lat="44.93532" lon="10.633525"><ele>20.0</ele><time>2026-04-11T09:06:50.723Z</time></trkpt><trkpt lat="44.9352133" lon="10.633545"><ele>20.0</ele><time>2026-04-11T09:06:52.724Z</time></trkpt><trkpt lat="44.9351117" lon="10.6335533"><ele>20.0</ele><time>2026-04-11T09:06:54.723Z</time></trkpt><trkpt lat="44.93503" lon="10.6334967"><ele>20.0</ele><time>2026-04-11T09:06:56.724Z</time></trkpt><trkpt lat="44.934945" lon="10.6334383"><ele>19.6</ele><time>2026-04-11T09:06:58.728Z</time></trkpt><trkpt lat="44.9348483" lon="10.6334033"><ele>19.2</ele><time>2026-04-11T09:07:00.724Z</time></trkpt><trkpt lat="44.9347633" lon="10.63337"><ele>18.8</ele><time>2026-04-11T09:07:02.724Z</time></trkpt><trkpt lat="44.9346817" lon="10.63332"><ele>18.4</ele><time>2026-04-11T09:07:04.726Z</time></trkpt><trkpt lat="44.9345883" lon="10.6332733"><ele>18.0</ele><time>2026-04-11T09:07:06.724Z</time></trkpt><trkpt lat="44.934485" lon="10.6332567"><ele>18.0</ele><time>2026-04-11T09:07:08.725Z</time></trkpt><trkpt lat="44.9343767" lon="10.6332533"><ele>18.0</ele><time>2026-04-11T09:07:10.725Z</time></trkpt><trkpt lat="44.93427" lon="10.633235"><ele>18.0</ele><time>2026-04-11T09:07:12.725Z</time></trkpt><trkpt lat="44.9341617" lon="10.6331767"><ele>18.0</ele><time>2026-04-11T09:07:14.726Z</time></trkpt><trkpt lat="44.9341067" lon="10.633125"><ele>18.0</ele><time>2026-04-11T09:07:15.725Z</time></trkpt><trkpt lat="44.934055" lon="10.6330717"><ele>18.333333333333332</ele><time>2026-04-11T09:07:16.724Z</time></trkpt><trkpt lat="44.9339717" lon="10.632985"><ele>18.666666666666668</ele><time>2026-04-11T09:07:18.723Z</time></trkpt><trkpt lat="44.9339083" lon="10.6329017"><ele>19.0</ele><time>2026-04-11T09:07:20.724Z</time></trkpt><trkpt lat="44.9338317" lon="10.6328767"><ele>19.333333333333336</ele><time>2026-04-11T09:07:22.724Z</time></trkpt><trkpt lat="44.9337583" lon="10.63286"><ele>19.666666666666668</ele><time>2026-04-11T09:07:24.724Z</time></trkpt><trkpt lat="44.9337083" lon="10.6328"><ele>20.0</ele><time>2026-04-11T09:07:26.724Z</time></trkpt><trkpt lat="44.9336933" lon="10.632675"><ele>20.0</ele><time>2026-04-11T09:07:29.725Z</time></trkpt><trkpt lat="44.9336133" lon="10.632615"><ele>20.0</ele><time>2026-04-11T09:07:32.724Z</time></trkpt><trkpt lat="44.933545" lon="10.6325817"><ele>20.0</ele><time>2026-04-11T09:07:34.723Z</time></trkpt><trkpt lat="44.9334683" lon="10.6325183"><ele>20.0</ele><time>2026-04-11T09:07:36.723Z</time></trkpt><trkpt lat="44.9333967" lon="10.6324467"><ele>20.0</ele><time>2026-04-11T09:07:38.724Z</time></trkpt><trkpt lat="44.9333333" lon="10.6323767"><ele>20.0</ele><time>2026-04-11T09:07:40.726Z</time></trkpt><trkpt lat="44.93326" lon="10.6323017"><ele>20.0</ele><time>2026-04-11T09:07:42.726Z</time></trkpt><trkpt lat="44.9331917" lon="10.6322233"><ele>20.0</ele><time>2026-04-11T09:07:44.723Z</time></trkpt><trkpt lat="44.933115" lon="10.6322033"><ele>20.0</ele><time>2026-04-11T09:07:46.723Z</time></trkpt><trkpt lat="44.93303" lon="10.632185"><ele>20.0</ele><time>2026-04-11T09:07:48.724Z</time></trkpt><trkpt lat="44.9329583" lon="10.632135"><ele>20.0</ele><time>2026-04-11T09:07:50.724Z</time></trkpt><trkpt lat="44.9328817" lon="10.6320767"><ele>20.0</ele><time>2026-04-11T09:07:52.724Z</time></trkpt><trkpt lat="44.9328" lon="10.63202"><ele>20.333333333333336</ele><time>2026-04-11T09:07:54.724Z</time></trkpt><trkpt lat="44.9327217" lon="10.6319567"><ele>20.666666666666668</ele><time>2026-04-11T09:07:56.724Z</time></trkpt><trkpt lat="44.9326483" lon="10.6318867"><ele>21.0</ele><time>2026-04-11T09:07:58.724Z</time></trkpt><trkpt lat="44.932585" lon="10.6318083"><ele>21.333333333333332</ele><time>2026-04-11T09:08:00.726Z</time></trkpt><trkpt lat="44.932575" lon="10.6317167"><ele>21.666666666666664</ele><time>2026-04-11T09:08:02.724Z</time></trkpt><trkpt lat="44.932615" lon="10.6315967"><ele>22.0</ele><time>2026-04-11T09:08:04.722Z</time></trkpt><trkpt lat="44.9326467" lon="10.63151"><ele>22.0</ele><time>2026-04-11T09:08:05.723Z</time></trkpt><trkpt lat="44.9326783" lon="10.6314167"><ele>22.0</ele><time>2026-04-11T09:08:06.724Z</time></trkpt><trkpt lat="44.9327083" lon="10.63133"><ele>22.0</ele><time>2026-04-11T09:08:07.724Z</time></trkpt><trkpt lat="44.9327433" lon="10.6311983"><ele>22.0</ele><time>2026-04-11T09:08:09.725Z</time></trkpt><trkpt lat="44.9326967" lon="10.6311067"><ele>22.0</ele><time>2026-04-11T09:08:18.727Z</time></trkpt><trkpt lat="44.9326333" lon="10.6310883"><ele>22.0</ele><time>2026-04-11T09:08:20.723Z</time></trkpt><trkpt lat="44.9325467" lon="10.6310617"><ele>22.0</ele><time>2026-04-11T09:08:22.724Z</time></trkpt><trkpt lat="44.9324533" lon="10.6310383"><ele>22.0</ele><time>2026-04-11T09:08:24.724Z</time></trkpt><trkpt lat="44.9323567" lon="10.6310183"><ele>22.0</ele><time>2026-04-11T09:08:26.724Z</time></trkpt><trkpt lat="44.9322617" lon="10.6309817"><ele>22.0</ele><time>2026-04-11T09:08:28.724Z</time></trkpt><trkpt lat="44.9321717" lon="10.63093"><ele>22.0</ele><time>2026-04-11T09:08:30.725Z</time></trkpt><trkpt lat="44.9320683" lon="10.6308983"><ele>22.0</ele><time>2026-04-11T09:08:32.725Z</time></trkpt><trkpt lat="44.93197" lon="10.6308867"><ele>22.0</ele><time>2026-04-11T09:08:34.725Z</time></trkpt><trkpt lat="44.9318883" lon="10.6308383"><ele>22.0</ele><time>2026-04-11T09:08:36.725Z</time></trkpt><trkpt lat="44.9318383" lon="10.6307583"><ele>22.0</ele><time>2026-04-11T09:08:38.726Z</time></trkpt><trkpt lat="44.9317817" lon="10.6307"><ele>22.0</ele><time>2026-04-11T09:08:40.725Z</time></trkpt><trkpt lat="44.9316933" lon="10.6306967"><ele>22.0</ele><time>2026-04-11T09:08:42.725Z</time></trkpt><trkpt lat="44.9316" lon="10.6307117"><ele>21.8</ele><time>2026-04-11T09:08:44.727Z</time></trkpt><trkpt lat="44.931495" lon="10.6307183"><ele>21.6</ele><time>2026-04-11T09:08:46.724Z</time></trkpt><trkpt lat="44.9313833" lon="10.63069"><ele>21.400000000000002</ele><time>2026-04-11T09:08:48.724Z</time></trkpt><trkpt lat="44.9312833" lon="10.6306417"><ele>21.200000000000003</ele><time>2026-04-11T09:08:50.724Z</time></trkpt><trkpt lat="44.931175" lon="10.6305883"><ele>21.0</ele><time>2026-04-11T09:08:52.724Z</time></trkpt><trkpt lat="44.9310733" lon="10.63053"><ele>21.0</ele><time>2026-04-11T09:08:54.725Z</time></trkpt><trkpt lat="44.9309733" lon="10.630475"><ele>21.0</ele><time>2026-04-11T09:08:56.726Z</time></trkpt><trkpt lat="44.9308767" lon="10.6304233"><ele>21.0</ele><time>2026-04-11T09:08:58.725Z</time></trkpt><trkpt lat="44.9307767" lon="10.6303683"><ele>21.0</ele><time>2026-04-11T09:09:00.726Z</time></trkpt><trkpt lat="44.9306733" lon="10.6303117"><ele>21.0</ele><time>2026-04-11T09:09:02.725Z</time></trkpt><trkpt lat="44.93057" lon="10.6302483"><ele>21.0</ele><time>2026-04-11T09:09:04.724Z</time></trkpt><trkpt lat="44.9304667" lon="10.630195"><ele>21.0</ele><time>2026-04-11T09:09:06.724Z</time></trkpt><trkpt lat="44.9303667" lon="10.63014"><ele>21.0</ele><time>2026-04-11T09:09:08.724Z</time></trkpt><trkpt lat="44.9302583" lon="10.63009"><ele>21.0</ele><time>2026-04-11T09:09:10.724Z</time></trkpt><trkpt lat="44.9301483" lon="10.63003"><ele>21.0</ele><time>2026-04-11T09:09:12.726Z</time></trkpt><trkpt lat="44.93004" lon="10.629965"><ele>20.8</ele><time>2026-04-11T09:09:14.726Z</time></trkpt><trkpt lat="44.92993" lon="10.62989"><ele>20.6</ele><time>2026-04-11T09:09:16.724Z</time></trkpt><trkpt lat="44.929815" lon="10.62981"><ele>20.4</ele><time>2026-04-11T09:09:18.725Z</time></trkpt><trkpt lat="44.9297467" lon="10.6297733"><ele>20.2</ele><time>2026-04-11T09:09:19.726Z</time></trkpt><trkpt lat="44.9296733" lon="10.6297367"><ele>20.0</ele><time>2026-04-11T09:09:20.726Z</time></trkpt><trkpt lat="44.9295983" lon="10.6297017"><ele>20.0</ele><time>2026-04-11T09:09:21.726Z</time></trkpt><trkpt lat="44.9295233" lon="10.629675"><ele>20.0</ele><time>2026-04-11T09:09:22.724Z</time></trkpt><trkpt lat="44.9294517" lon="10.629645"><ele>20.0</ele><time>2026-04-11T09:09:23.724Z</time></trkpt><trkpt lat="44.9293883" lon="10.6296067"><ele>20.0</ele><time>2026-04-11T09:09:24.724Z</time></trkpt><trkpt lat="44.9293267" lon="10.6295567"><ele>20.0</ele><time>2026-04-11T09:09:25.724Z</time></trkpt><trkpt lat="44.9292667" lon="10.6295033"><ele>20.0</ele><time>2026-04-11T09:09:26.725Z</time></trkpt><trkpt lat="44.9292067" lon="10.62945"><ele>20.0</ele><time>2026-04-11T09:09:27.726Z</time></trkpt><trkpt lat="44.929145" lon="10.6293967"><ele>20.166666666666668</ele><time>2026-04-11T09:09:28.726Z</time></trkpt><trkpt lat="44.9290767" lon="10.6293367"><ele>20.333333333333336</ele><time>2026-04-11T09:09:29.725Z</time></trkpt><trkpt lat="44.929005" lon="10.629275"><ele>20.5</ele><time>2026-04-11T09:09:30.726Z</time></trkpt><trkpt lat="44.9289317" lon="10.6292133"><ele>20.666666666666668</ele><time>2026-04-11T09:09:31.725Z</time></trkpt><trkpt lat="44.9288617" lon="10.6291517"><ele>20.833333333333332</ele><time>2026-04-11T09:09:32.725Z</time></trkpt><trkpt lat="44.9287867" lon="10.62909"><ele>21.0</ele><time>2026-04-11T09:09:33.724Z</time></trkpt><trkpt lat="44.92871" lon="10.629025"><ele>21.0</ele><time>2026-04-11T09:09:34.724Z</time></trkpt><trkpt lat="44.9286367" lon="10.6289633"><ele>21.0</ele><time>2026-04-11T09:09:35.724Z</time></trkpt><trkpt lat="44.9285667" lon="10.6289033"><ele>21.0</ele><time>2026-04-11T09:09:36.723Z</time></trkpt><trkpt lat="44.9285083" lon="10.62885"><ele>21.0</ele><time>2026-04-11T09:09:37.724Z</time></trkpt><trkpt lat="44.92845" lon="10.6287867"><ele>21.0</ele><time>2026-04-11T09:09:38.725Z</time></trkpt><trkpt lat="44.9283967" lon="10.6287217"><ele>21.0</ele><time>2026-04-11T09:09:39.724Z</time></trkpt><trkpt lat="44.9283383" lon="10.62865"><ele>21.166666666666668</ele><time>2026-04-11T09:09:40.725Z</time></trkpt><trkpt lat="44.928275" lon="10.6285717"><ele>21.333333333333332</ele><time>2026-04-11T09:09:41.722Z</time></trkpt><trkpt lat="44.92821" lon="10.6285"><ele>21.5</ele><time>2026-04-11T09:09:42.724Z</time></trkpt><trkpt lat="44.92815" lon="10.6284317"><ele>21.666666666666664</ele><time>2026-04-11T09:09:43.724Z</time></trkpt><trkpt lat="44.9280883" lon="10.6283617"><ele>21.833333333333332</ele><time>2026-04-11T09:09:44.724Z</time></trkpt><trkpt lat="44.9280267" lon="10.6282867"><ele>22.0</ele><time>2026-04-11T09:09:45.723Z</time></trkpt><trkpt lat="44.9279633" lon="10.62821"><ele>22.0</ele><time>2026-04-11T09:09:46.724Z</time></trkpt><trkpt lat="44.9278983" lon="10.6281367"><ele>22.0</ele><time>2026-04-11T09:09:47.724Z</time></trkpt><trkpt lat="44.92783" lon="10.6280617"><ele>22.0</ele><time>2026-04-11T09:09:48.723Z</time></trkpt><trkpt lat="44.927765" lon="10.6279867"><ele>22.0</ele><time>2026-04-11T09:09:49.724Z</time></trkpt><trkpt lat="44.9276833" lon="10.6279117"><ele>22.0</ele><time>2026-04-11T09:09:50.725Z</time></trkpt><trkpt lat="44.9276083" lon="10.62784"><ele>22.0</ele><time>2026-04-11T09:09:51.726Z</time></trkpt><trkpt lat="44.9275383" lon="10.6277667"><ele>22.6</ele><time>2026-04-11T09:09:52.724Z</time></trkpt><trkpt lat="44.9274667" lon="10.6276833"><ele>23.200000000000003</ele><time>2026-04-11T09:09:53.723Z</time></trkpt><trkpt lat="44.9274067" lon="10.6275867"><ele>23.8</ele><time>2026-04-11T09:09:54.725Z</time></trkpt><trkpt lat="44.9273533" lon="10.6274767"><ele>24.4</ele><time>2026-04-11T09:09:55.725Z</time></trkpt><trkpt lat="44.927305" lon="10.627365"><ele>25.0</ele><time>2026-04-11T09:09:56.727Z</time></trkpt><trkpt lat="44.927255" lon="10.62725"><ele>25.0</ele><time>2026-04-11T09:09:57.725Z</time></trkpt><trkpt lat="44.9272017" lon="10.6271333"><ele>25.0</ele><time>2026-04-11T09:09:58.724Z</time></trkpt><trkpt lat="44.9271533" lon="10.6270217"><ele>25.0</ele><time>2026-04-11T09:09:59.725Z</time></trkpt><trkpt lat="44.9271083" lon="10.626915"><ele>25.0</ele><time>2026-04-11T09:10:00.727Z</time></trkpt><trkpt lat="44.92706" lon="10.626805"><ele>25.0</ele><time>2026-04-11T09:10:01.725Z</time></trkpt><trkpt lat="44.9270133" lon="10.6266883"><ele>24.833333333333336</ele><time>2026-04-11T09:10:02.724Z</time></trkpt><trkpt lat="44.9269683" lon="10.62658"><ele>24.666666666666668</ele><time>2026-04-11T09:10:03.724Z</time></trkpt><trkpt lat="44.92692" lon="10.6264667"><ele>24.5</ele><time>2026-04-11T09:10:04.725Z</time></trkpt><trkpt lat="44.9268767" lon="10.6263633"><ele>24.333333333333336</ele><time>2026-04-11T09:10:05.724Z</time></trkpt><trkpt lat="44.9268317" lon="10.6262683"><ele>24.166666666666668</ele><time>2026-04-11T09:10:06.724Z</time></trkpt><trkpt lat="44.9267917" lon="10.6261817"><ele>24.0</ele><time>2026-04-11T09:10:07.722Z</time></trkpt><trkpt lat="44.9267233" lon="10.6260317"><ele>24.0</ele><time>2026-04-11T09:10:09.725Z</time></trkpt><trkpt lat="44.9266717" lon="10.6258917"><ele>24.0</ele><time>2026-04-11T09:10:11.723Z</time></trkpt><trkpt lat="44.9266183" lon="10.6257567"><ele>24.0</ele><time>2026-04-11T09:10:13.723Z</time></trkpt><trkpt lat="44.92656" lon="10.625605"><ele>24.0</ele><time>2026-04-11T09:10:15.723Z</time></trkpt><trkpt lat="44.92653" lon="10.62551"><ele>24.0</ele><time>2026-04-11T09:10:16.724Z</time></trkpt><trkpt lat="44.9264983" lon="10.6254117"><ele>24.428571428571427</ele><time>2026-04-11T09:10:17.724Z</time></trkpt><trkpt lat="44.9264717" lon="10.6253117"><ele>24.857142857142858</ele><time>2026-04-11T09:10:18.725Z</time></trkpt><trkpt lat="44.9264433" lon="10.6252067"><ele>25.285714285714285</ele><time>2026-04-11T09:10:19.724Z</time></trkpt><trkpt lat="44.92642" lon="10.625105"><ele>25.714285714285715</ele><time>2026-04-11T09:10:20.726Z</time></trkpt><trkpt lat="44.9263967" lon="10.6250083"><ele>26.142857142857142</ele><time>2026-04-11T09:10:21.726Z</time></trkpt><trkpt lat="44.926365" lon="10.6249183"><ele>26.57142857142857</ele><time>2026-04-11T09:10:22.726Z</time></trkpt><trkpt lat="44.9263333" lon="10.6248233"><ele>27.0</ele><time>2026-04-11T09:10:23.724Z</time></trkpt><trkpt lat="44.9263" lon="10.62473"><ele>27.0</ele><time>2026-04-11T09:10:24.724Z</time></trkpt><trkpt lat="44.926265" lon="10.624635"><ele>27.0</ele><time>2026-04-11T09:10:25.724Z</time></trkpt><trkpt lat="44.9262317" lon="10.6245467"><ele>27.0</ele><time>2026-04-11T09:10:26.724Z</time></trkpt><trkpt lat="44.9262083" lon="10.6244633"><ele>27.0</ele><time>2026-04-11T09:10:27.725Z</time></trkpt><trkpt lat="44.9261783" lon="10.6243533"><ele>27.0</ele><time>2026-04-11T09:10:29.725Z</time></trkpt><trkpt lat="44.92615" lon="10.6242683"><ele>27.0</ele><time>2026-04-11T09:10:31.724Z</time></trkpt><trkpt lat="44.92612" lon="10.6241717"><ele>27.0</ele><time>2026-04-11T09:10:33.724Z</time></trkpt><trkpt lat="44.92609" lon="10.6240617"><ele>27.0</ele><time>2026-04-11T09:10:36.724Z</time></trkpt><trkpt lat="44.92602" lon="10.6239533"><ele>27.0</ele><time>2026-04-11T09:10:44.723Z</time></trkpt><trkpt lat="44.92599" lon="10.6238617"><ele>27.0</ele><time>2026-04-11T09:10:46.724Z</time></trkpt><trkpt lat="44.925955" lon="10.6237717"><ele>27.0</ele><time>2026-04-11T09:10:48.724Z</time></trkpt><trkpt lat="44.9259483" lon="10.62368"><ele>27.0</ele><time>2026-04-11T09:10:50.725Z</time></trkpt><trkpt lat="44.9259633" lon="10.6235833"><ele>27.0</ele><time>2026-04-11T09:10:52.726Z</time></trkpt><trkpt lat="44.925995" lon="10.62346"><ele>27.200000000000003</ele><time>2026-04-11T09:10:54.726Z</time></trkpt><trkpt lat="44.926035" lon="10.623325"><ele>27.400000000000002</ele><time>2026-04-11T09:10:56.726Z</time></trkpt><trkpt lat="44.92606" lon="10.623195"><ele>27.599999999999998</ele><time>2026-04-11T09:10:58.724Z</time></trkpt><trkpt lat="44.9260733" lon="10.6230833"><ele>27.799999999999997</ele><time>2026-04-11T09:11:00.726Z</time></trkpt><trkpt lat="44.9260733" lon="10.6229617"><ele>28.0</ele><time>2026-04-11T09:11:02.725Z</time></trkpt><trkpt lat="44.926055" lon="10.6228367"><ele>28.0</ele><time>2026-04-11T09:11:04.725Z</time></trkpt><trkpt lat="44.9259983" lon="10.6227033"><ele>27.999999999999996</ele><time>2026-04-11T09:11:06.726Z</time></trkpt><trkpt lat="44.92594" lon="10.62257"><ele>27.999999999999996</ele><time>2026-04-11T09:11:08.724Z</time></trkpt><trkpt lat="44.92589" lon="10.6224367"><ele>28.0</ele><time>2026-04-11T09:11:10.724Z</time></trkpt><trkpt lat="44.9258333" lon="10.6222883"><ele>28.0</ele><time>2026-04-11T09:11:12.724Z</time></trkpt><trkpt lat="44.9257983" lon="10.622205"><ele>27.500000000000004</ele><time>2026-04-11T09:11:13.724Z</time></trkpt><trkpt lat="44.9257617" lon="10.622115"><ele>27.0</ele><time>2026-04-11T09:11:14.725Z</time></trkpt><trkpt lat="44.92573" lon="10.6220283"><ele>26.5</ele><time>2026-04-11T09:11:15.726Z</time></trkpt><trkpt lat="44.9256717" lon="10.6218817"><ele>26.0</ele><time>2026-04-11T09:11:17.726Z</time></trkpt><trkpt lat="44.9256383" lon="10.621805"><ele>25.500000000000004</ele><time>2026-04-11T09:11:18.726Z</time></trkpt><trkpt lat="44.925595" lon="10.62167"><ele>25.0</ele><time>2026-04-11T09:11:20.726Z</time></trkpt><trkpt lat="44.9255967" lon="10.6215417"><ele>25.000000000000004</ele><time>2026-04-11T09:11:22.725Z</time></trkpt><trkpt lat="44.9256333" lon="10.6214667"><ele>25.0</ele><time>2026-04-11T09:11:24.726Z</time></trkpt><trkpt lat="44.9256983" lon="10.621415"><ele>25.0</ele><time>2026-04-11T09:11:26.726Z</time></trkpt><trkpt lat="44.92578" lon="10.6213567"><ele>25.0</ele><time>2026-04-11T09:11:28.724Z</time></trkpt><trkpt lat="44.925845" lon="10.6212733"><ele>25.000000000000004</ele><time>2026-04-11T09:11:30.724Z</time></trkpt><trkpt lat="44.925865" lon="10.6211617"><ele>25.0</ele><time>2026-04-11T09:11:32.723Z</time></trkpt><trkpt lat="44.9258517" lon="10.6210317"><ele>24.833333333333336</ele><time>2026-04-11T09:11:34.724Z</time></trkpt><trkpt lat="44.925805" lon="10.6208867"><ele>24.666666666666668</ele><time>2026-04-11T09:11:36.724Z</time></trkpt><trkpt lat="44.92577" lon="10.62081"><ele>24.5</ele><time>2026-04-11T09:11:37.723Z</time></trkpt><trkpt lat="44.92572" lon="10.620675"><ele>24.333333333333336</ele><time>2026-04-11T09:11:39.727Z</time></trkpt><trkpt lat="44.92568" lon="10.6205933"><ele>24.166666666666668</ele><time>2026-04-11T09:11:41.725Z</time></trkpt><trkpt lat="44.9256733" lon="10.62049"><ele>24.0</ele><time>2026-04-11T09:11:51.726Z</time></trkpt><trkpt lat="44.92563" lon="10.62036"><ele>24.0</ele><time>2026-04-11T09:11:53.725Z</time></trkpt><trkpt lat="44.9255733" lon="10.62019"><ele>24.0</ele><time>2026-04-11T09:11:55.723Z</time></trkpt><trkpt lat="44.925545" lon="10.6200967"><ele>24.0</ele><time>2026-04-11T09:11:56.723Z</time></trkpt><trkpt lat="44.9255133" lon="10.61999"><ele>24.0</ele><time>2026-04-11T09:11:57.724Z</time></trkpt><trkpt lat="44.925475" lon="10.6198917"><ele>24.0</ele><time>2026-04-11T09:11:58.724Z</time></trkpt><trkpt lat="44.925435" lon="10.6197933"><ele>24.0</ele><time>2026-04-11T09:11:59.724Z</time></trkpt><trkpt lat="44.9253983" lon="10.6196967"><ele>23.999999999999996</ele><time>2026-04-11T09:12:00.724Z</time></trkpt><trkpt lat="44.92535" lon="10.619595"><ele>24.0</ele><time>2026-04-11T09:12:01.724Z</time></trkpt><trkpt lat="44.9253117" lon="10.6195017"><ele>24.0</ele><time>2026-04-11T09:12:02.724Z</time></trkpt><trkpt lat="44.9252767" lon="10.6194167"><ele>24.0</ele><time>2026-04-11T09:12:03.724Z</time></trkpt><trkpt lat="44.9252417" lon="10.6193383"><ele>24.0</ele><time>2026-04-11T09:12:04.723Z</time></trkpt><trkpt lat="44.9251983" lon="10.6192633"><ele>23.999999999999996</ele><time>2026-04-11T09:12:06.725Z</time></trkpt><trkpt lat="44.925145" lon="10.61921"><ele>24.0</ele><time>2026-04-11T09:12:08.723Z</time></trkpt><trkpt lat="44.9250367" lon="10.619165"><ele>23.6</ele><time>2026-04-11T09:12:18.726Z</time></trkpt><trkpt lat="44.9249667" lon="10.61908"><ele>23.2</ele><time>2026-04-11T09:12:20.725Z</time></trkpt><trkpt lat="44.92491" lon="10.61896"><ele>22.8</ele><time>2026-04-11T09:12:22.725Z</time></trkpt><trkpt lat="44.9248733" lon="10.61881"><ele>22.400000000000002</ele><time>2026-04-11T09:12:24.726Z</time></trkpt><trkpt lat="44.92484" lon="10.6186433"><ele>22.0</ele><time>2026-04-11T09:12:26.725Z</time></trkpt><trkpt lat="44.92482" lon="10.61855"><ele>22.0</ele><time>2026-04-11T09:12:27.724Z</time></trkpt><trkpt lat="44.9248033" lon="10.6184617"><ele>22.0</ele><time>2026-04-11T09:12:28.724Z</time></trkpt><trkpt lat="44.9247867" lon="10.61836"><ele>22.0</ele><time>2026-04-11T09:12:29.724Z</time></trkpt><trkpt lat="44.924765" lon="10.61825"><ele>22.0</ele><time>2026-04-11T09:12:30.724Z</time></trkpt><trkpt lat="44.924745" lon="10.6181367"><ele>22.0</ele><time>2026-04-11T09:12:31.723Z</time></trkpt><trkpt lat="44.9247217" lon="10.6180267"><ele>22.0</ele><time>2026-04-11T09:12:32.728Z</time></trkpt><trkpt lat="44.9247033" lon="10.6179283"><ele>22.0</ele><time>2026-04-11T09:12:33.725Z</time></trkpt><trkpt lat="44.92468" lon="10.617825"><ele>22.0</ele><time>2026-04-11T09:12:34.724Z</time></trkpt><trkpt lat="44.9246517" lon="10.617715"><ele>22.0</ele><time>2026-04-11T09:12:35.725Z</time></trkpt><trkpt lat="44.924625" lon="10.617605"><ele>22.0</ele><time>2026-04-11T09:12:36.724Z</time></trkpt><trkpt lat="44.9245967" lon="10.6174867"><ele>22.0</ele><time>2026-04-11T09:12:37.723Z</time></trkpt><trkpt lat="44.924575" lon="10.6173783"><ele>22.0</ele><time>2026-04-11T09:12:38.725Z</time></trkpt><trkpt lat="44.924555" lon="10.6172733"><ele>22.0</ele><time>2026-04-11T09:12:39.725Z</time></trkpt><trkpt lat="44.9245383" lon="10.6171767"><ele>22.0</ele><time>2026-04-11T09:12:40.726Z</time></trkpt><trkpt lat="44.924515" lon="10.6170767"><ele>22.0</ele><time>2026-04-11T09:12:41.724Z</time></trkpt><trkpt lat="44.9244983" lon="10.6169833"><ele>22.0</ele><time>2026-04-11T09:12:42.723Z</time></trkpt><trkpt lat="44.9244783" lon="10.6168817"><ele>22.0</ele><time>2026-04-11T09:12:43.724Z</time></trkpt><trkpt lat="44.9244467" lon="10.6167067"><ele>22.0</ele><time>2026-04-11T09:12:45.725Z</time></trkpt><trkpt lat="44.9244283" lon="10.616615"><ele>22.166666666666664</ele><time>2026-04-11T09:12:46.724Z</time></trkpt><trkpt lat="44.9244133" lon="10.616515"><ele>22.333333333333332</ele><time>2026-04-11T09:12:47.724Z</time></trkpt><trkpt lat="44.924395" lon="10.6164"><ele>22.5</ele><time>2026-04-11T09:12:48.725Z</time></trkpt><trkpt lat="44.9243717" lon="10.6162783"><ele>22.666666666666668</ele><time>2026-04-11T09:12:49.726Z</time></trkpt><trkpt lat="44.924345" lon="10.616155"><ele>22.833333333333336</ele><time>2026-04-11T09:12:50.726Z</time></trkpt><trkpt lat="44.9243217" lon="10.6160283"><ele>23.0</ele><time>2026-04-11T09:12:51.727Z</time></trkpt><trkpt lat="44.9243083" lon="10.6159267"><ele>23.0</ele><time>2026-04-11T09:12:52.725Z</time></trkpt><trkpt lat="44.9242783" lon="10.6158217"><ele>23.0</ele><time>2026-04-11T09:12:53.726Z</time></trkpt><trkpt lat="44.9242567" lon="10.61571"><ele>23.0</ele><time>2026-04-11T09:12:54.725Z</time></trkpt><trkpt lat="44.92423" lon="10.6155933"><ele>23.0</ele><time>2026-04-11T09:12:55.726Z</time></trkpt><trkpt lat="44.9242067" lon="10.6154833"><ele>23.0</ele><time>2026-04-11T09:12:56.725Z</time></trkpt><trkpt lat="44.9241833" lon="10.6153783"><ele>23.0</ele><time>2026-04-11T09:12:57.727Z</time></trkpt><trkpt lat="44.9241617" lon="10.6152817"><ele>23.0</ele><time>2026-04-11T09:12:58.726Z</time></trkpt><trkpt lat="44.9241417" lon="10.6151833"><ele>23.0</ele><time>2026-04-11T09:12:59.726Z</time></trkpt><trkpt lat="44.924125" lon="10.6150867"><ele>23.0</ele><time>2026-04-11T09:13:00.726Z</time></trkpt><trkpt lat="44.9241083" lon="10.614995"><ele>23.0</ele><time>2026-04-11T09:13:01.726Z</time></trkpt><trkpt lat="44.924075" lon="10.6148383"><ele>23.0</ele><time>2026-04-11T09:13:03.727Z</time></trkpt><trkpt lat="44.924085" lon="10.6147467"><ele>23.0</ele><time>2026-04-11T09:13:05.727Z</time></trkpt><trkpt lat="44.9240583" lon="10.61465"><ele>23.0</ele><time>2026-04-11T09:13:07.724Z</time></trkpt><trkpt lat="44.924025" lon="10.61453"><ele>23.0</ele><time>2026-04-11T09:13:09.725Z</time></trkpt><trkpt lat="44.9239983" lon="10.6143867"><ele>23.0</ele><time>2026-04-11T09:14:31.724Z</time></trkpt><trkpt lat="44.9239783" lon="10.6142817"><ele>23.0</ele><time>2026-04-11T09:14:32.725Z</time></trkpt><trkpt lat="44.923955" lon="10.6141683"><ele>23.0</ele><time>2026-04-11T09:14:33.724Z</time></trkpt><trkpt lat="44.92393" lon="10.6140483"><ele>23.0</ele><time>2026-04-11T09:14:34.724Z</time></trkpt><trkpt lat="44.923905" lon="10.613925"><ele>22.833333333333336</ele><time>2026-04-11T09:14:35.725Z</time></trkpt><trkpt lat="44.9238783" lon="10.6138133"><ele>22.666666666666668</ele><time>2026-04-11T09:14:36.725Z</time></trkpt><trkpt lat="44.9238567" lon="10.6137083"><ele>22.5</ele><time>2026-04-11T09:14:37.725Z</time></trkpt><trkpt lat="44.9238333" lon="10.613605"><ele>22.333333333333332</ele><time>2026-04-11T09:14:38.725Z</time></trkpt><trkpt lat="44.92381" lon="10.6134983"><ele>22.166666666666664</ele><time>2026-04-11T09:14:39.725Z</time></trkpt><trkpt lat="44.92379" lon="10.6133867"><ele>22.0</ele><time>2026-04-11T09:14:40.723Z</time></trkpt><trkpt lat="44.9237683" lon="10.6132783"><ele>21.8</ele><time>2026-04-11T09:14:41.724Z</time></trkpt><trkpt lat="44.9237433" lon="10.6131733"><ele>21.6</ele><time>2026-04-11T09:14:42.723Z</time></trkpt><trkpt lat="44.9237267" lon="10.6130817"><ele>21.400000000000002</ele><time>2026-04-11T09:14:43.724Z</time></trkpt><trkpt lat="44.923695" lon="10.6129217"><ele>21.200000000000003</ele><time>2026-04-11T09:14:45.725Z</time></trkpt><trkpt lat="44.9236583" lon="10.6127517"><ele>21.0</ele><time>2026-04-11T09:14:47.725Z</time></trkpt><trkpt lat="44.9236383" lon="10.61266"><ele>21.428571428571427</ele><time>2026-04-11T09:14:48.726Z</time></trkpt><trkpt lat="44.9236183" lon="10.6125683"><ele>21.857142857142858</ele><time>2026-04-11T09:14:49.726Z</time></trkpt><trkpt lat="44.9236" lon="10.6124683"><ele>22.285714285714285</ele><time>2026-04-11T09:14:50.726Z</time></trkpt><trkpt lat="44.9235783" lon="10.6123633"><ele>22.714285714285715</ele><time>2026-04-11T09:14:51.726Z</time></trkpt><trkpt lat="44.92356" lon="10.6122667"><ele>23.142857142857142</ele><time>2026-04-11T09:14:52.725Z</time></trkpt><trkpt lat="44.92354" lon="10.6121683"><ele>23.57142857142857</ele><time>2026-04-11T09:14:53.725Z</time></trkpt><trkpt lat="44.9235217" lon="10.6120733"><ele>24.0</ele><time>2026-04-11T09:14:54.726Z</time></trkpt><trkpt lat="44.9235017" lon="10.6119817"><ele>23.999999999999996</ele><time>2026-04-11T09:14:55.725Z</time></trkpt><trkpt lat="44.92348" lon="10.6118817"><ele>24.0</ele><time>2026-04-11T09:14:56.725Z</time></trkpt><trkpt lat="44.9234617" lon="10.6117833"><ele>24.0</ele><time>2026-04-11T09:14:57.725Z</time></trkpt><trkpt lat="44.9234417" lon="10.611695"><ele>24.0</ele><time>2026-04-11T09:14:58.725Z</time></trkpt><trkpt lat="44.9234183" lon="10.6116017"><ele>24.0</ele><time>2026-04-11T09:14:59.724Z</time></trkpt><trkpt lat="44.923395" lon="10.6115"><ele>23.999999999999996</ele><time>2026-04-11T09:15:00.725Z</time></trkpt><trkpt lat="44.9233733" lon="10.6114"><ele>24.0</ele><time>2026-04-11T09:15:01.726Z</time></trkpt><trkpt lat="44.9233483" lon="10.611295"><ele>24.0</ele><time>2026-04-11T09:15:02.725Z</time></trkpt><trkpt lat="44.923325" lon="10.6111883"><ele>24.0</ele><time>2026-04-11T09:15:03.725Z</time></trkpt><trkpt lat="44.9233033" lon="10.6110817"><ele>24.0</ele><time>2026-04-11T09:15:04.724Z</time></trkpt><trkpt lat="44.923275" lon="10.61096"><ele>24.0</ele><time>2026-04-11T09:15:05.724Z</time></trkpt><trkpt lat="44.9232483" lon="10.61084"><ele>24.0</ele><time>2026-04-11T09:15:06.725Z</time></trkpt><trkpt lat="44.9232217" lon="10.61072"><ele>24.0</ele><time>2026-04-11T09:15:07.724Z</time></trkpt><trkpt lat="44.9231933" lon="10.6105967"><ele>24.0</ele><time>2026-04-11T09:15:08.724Z</time></trkpt><trkpt lat="44.9231617" lon="10.61047"><ele>24.0</ele><time>2026-04-11T09:15:09.725Z</time></trkpt><trkpt lat="44.9231317" lon="10.61035"><ele>24.0</ele><time>2026-04-11T09:15:10.724Z</time></trkpt><trkpt lat="44.9231" lon="10.610235"><ele>24.0</ele><time>2026-04-11T09:15:11.723Z</time></trkpt><trkpt lat="44.92307" lon="10.6101117"><ele>24.0</ele><time>2026-04-11T09:15:12.725Z</time></trkpt><trkpt lat="44.9230367" lon="10.6099883"><ele>24.2</ele><time>2026-04-11T09:15:13.724Z</time></trkpt><trkpt lat="44.9229933" lon="10.6098667"><ele>24.4</ele><time>2026-04-11T09:15:14.724Z</time></trkpt><trkpt lat="44.92295" lon="10.609745"><ele>24.6</ele><time>2026-04-11T09:15:15.725Z</time></trkpt><trkpt lat="44.9229033" lon="10.60963"><ele>24.8</ele><time>2026-04-11T09:15:16.724Z</time></trkpt><trkpt lat="44.9228567" lon="10.6095117"><ele>25.0</ele><time>2026-04-11T09:15:17.724Z</time></trkpt><trkpt lat="44.9228117" lon="10.6093967"><ele>25.833333333333336</ele><time>2026-04-11T09:15:18.725Z</time></trkpt><trkpt lat="44.9227717" lon="10.6092867"><ele>26.666666666666668</ele><time>2026-04-11T09:15:19.724Z</time></trkpt><trkpt lat="44.922735" lon="10.6091767"><ele>27.5</ele><time>2026-04-11T09:15:20.725Z</time></trkpt><trkpt lat="44.9227017" lon="10.6090733"><ele>28.333333333333336</ele><time>2026-04-11T09:15:21.724Z</time></trkpt><trkpt lat="44.92267" lon="10.608975"><ele>29.166666666666668</ele><time>2026-04-11T09:15:22.725Z</time></trkpt><trkpt lat="44.9226367" lon="10.60887"><ele>30.0</ele><time>2026-04-11T09:15:23.724Z</time></trkpt><trkpt lat="44.922595" lon="10.6087667"><ele>28.4</ele><time>2026-04-11T09:15:24.726Z</time></trkpt><trkpt lat="44.92255" lon="10.6086683"><ele>26.8</ele><time>2026-04-11T09:15:25.725Z</time></trkpt><trkpt lat="44.9224983" lon="10.6085617"><ele>25.200000000000003</ele><time>2026-04-11T09:15:26.726Z</time></trkpt><trkpt lat="44.92244" lon="10.6084617"><ele>23.6</ele><time>2026-04-11T09:15:27.726Z</time></trkpt><trkpt lat="44.9223767" lon="10.60836"><ele>22.0</ele><time>2026-04-11T09:15:28.726Z</time></trkpt><trkpt lat="44.9223133" lon="10.6082567"><ele>22.0</ele><time>2026-04-11T09:15:29.725Z</time></trkpt><trkpt lat="44.922255" lon="10.608165"><ele>22.0</ele><time>2026-04-11T09:15:30.725Z</time></trkpt><trkpt lat="44.9222" lon="10.6080783"><ele>22.0</ele><time>2026-04-11T09:15:31.723Z</time></trkpt><trkpt lat="44.9221483" lon="10.6080017"><ele>22.0</ele><time>2026-04-11T09:15:32.725Z</time></trkpt><trkpt lat="44.922105" lon="10.607935"><ele>22.0</ele><time>2026-04-11T09:15:33.725Z</time></trkpt><trkpt lat="44.92205" lon="10.6078617"><ele>22.0</ele><time>2026-04-11T09:15:35.724Z</time></trkpt><trkpt lat="44.922065" lon="10.60777"><ele>21.8</ele><time>2026-04-11T09:32:54.724Z</time></trkpt><trkpt lat="44.92204" lon="10.607655"><ele>21.6</ele><time>2026-04-11T09:32:57.725Z</time></trkpt><trkpt lat="44.9220217" lon="10.60755"><ele>21.400000000000002</ele><time>2026-04-11T09:32:59.725Z</time></trkpt><trkpt lat="44.9219983" lon="10.6074167"><ele>21.200000000000003</ele><time>2026-04-11T09:33:01.724Z</time></trkpt><trkpt lat="44.9219783" lon="10.607275"><ele>21.0</ele><time>2026-04-11T09:33:03.725Z</time></trkpt><trkpt lat="44.9219567" lon="10.6071217"><ele>21.200000000000003</ele><time>2026-04-11T09:33:05.725Z</time></trkpt><trkpt lat="44.9219383" lon="10.6069617"><ele>21.400000000000002</ele><time>2026-04-11T09:33:07.726Z</time></trkpt><trkpt lat="44.9219283" lon="10.6068733"><ele>21.6</ele><time>2026-04-11T09:33:08.726Z</time></trkpt><trkpt lat="44.92192" lon="10.606785"><ele>21.8</ele><time>2026-04-11T09:33:09.726Z</time></trkpt><trkpt lat="44.9218967" lon="10.6066267"><ele>22.0</ele><time>2026-04-11T09:33:11.726Z</time></trkpt><trkpt lat="44.9218767" lon="10.6064733"><ele>22.0</ele><time>2026-04-11T09:33:13.724Z</time></trkpt><trkpt lat="44.9218583" lon="10.606295"><ele>22.0</ele><time>2026-04-11T09:33:15.725Z</time></trkpt><trkpt lat="44.9218483" lon="10.6061983"><ele>22.0</ele><time>2026-04-11T09:33:16.724Z</time></trkpt><trkpt lat="44.9218383" lon="10.606105"><ele>22.0</ele><time>2026-04-11T09:33:17.724Z</time></trkpt><trkpt lat="44.9218267" lon="10.6060133"><ele>22.0</ele><time>2026-04-11T09:33:18.725Z</time></trkpt><trkpt lat="44.9218183" lon="10.60592"><ele>22.0</ele><time>2026-04-11T09:33:19.724Z</time></trkpt><trkpt lat="44.9218083" lon="10.6058283"><ele>22.0</ele><time>2026-04-11T09:33:20.723Z</time></trkpt><trkpt lat="44.9218" lon="10.6057333"><ele>22.0</ele><time>2026-04-11T09:33:21.724Z</time></trkpt><trkpt lat="44.9217917" lon="10.6056367"><ele>22.0</ele><time>2026-04-11T09:33:22.726Z</time></trkpt><trkpt lat="44.9217817" lon="10.6055383"><ele>22.0</ele><time>2026-04-11T09:33:23.724Z</time></trkpt><trkpt lat="44.9217717" lon="10.60544"><ele>22.0</ele><time>2026-04-11T09:33:24.725Z</time></trkpt><trkpt lat="44.9217617" lon="10.605345"><ele>22.0</ele><time>2026-04-11T09:33:25.725Z</time></trkpt><trkpt lat="44.92175" lon="10.6052533"><ele>22.0</ele><time>2026-04-11T09:33:26.726Z</time></trkpt><trkpt lat="44.9217383" lon="10.60516"><ele>22.285714285714285</ele><time>2026-04-11T09:33:27.726Z</time></trkpt><trkpt lat="44.9217267" lon="10.6050667"><ele>22.57142857142857</ele><time>2026-04-11T09:33:28.726Z</time></trkpt><trkpt lat="44.921715" lon="10.60497"><ele>22.857142857142854</ele><time>2026-04-11T09:33:29.725Z</time></trkpt><trkpt lat="44.9217067" lon="10.6048717"><ele>23.142857142857142</ele><time>2026-04-11T09:33:30.726Z</time></trkpt><trkpt lat="44.9216967" lon="10.6047717"><ele>23.428571428571427</ele><time>2026-04-11T09:33:31.726Z</time></trkpt><trkpt lat="44.92169" lon="10.60467"><ele>23.71428571428571</ele><time>2026-04-11T09:33:32.726Z</time></trkpt><trkpt lat="44.9216883" lon="10.6045667"><ele>24.0</ele><time>2026-04-11T09:33:33.725Z</time></trkpt><trkpt lat="44.92169" lon="10.604465"><ele>24.0</ele><time>2026-04-11T09:33:34.725Z</time></trkpt><trkpt lat="44.921695" lon="10.60437"><ele>24.0</ele><time>2026-04-11T09:33:35.724Z</time></trkpt><trkpt lat="44.9217" lon="10.6042717"><ele>24.0</ele><time>2026-04-11T09:33:36.725Z</time></trkpt><trkpt lat="44.9217183" lon="10.6041067"><ele>24.0</ele><time>2026-04-11T09:33:38.725Z</time></trkpt><trkpt lat="44.92175" lon="10.603965"><ele>24.0</ele><time>2026-04-11T09:33:40.725Z</time></trkpt><trkpt lat="44.921775" lon="10.6038133"><ele>24.0</ele><time>2026-04-11T09:33:42.725Z</time></trkpt><trkpt lat="44.9217933" lon="10.6036583"><ele>24.0</ele><time>2026-04-11T09:33:44.724Z</time></trkpt><trkpt lat="44.9218183" lon="10.6034833"><ele>24.0</ele><time>2026-04-11T09:33:46.725Z</time></trkpt><trkpt lat="44.9218517" lon="10.6033267"><ele>24.0</ele><time>2026-04-11T09:33:48.725Z</time></trkpt><trkpt lat="44.9218933" lon="10.6031767"><ele>24.0</ele><time>2026-04-11T09:33:50.724Z</time></trkpt><trkpt lat="44.9219283" lon="10.6030533"><ele>24.0</ele><time>2026-04-11T09:33:52.724Z</time></trkpt><trkpt lat="44.9219533" lon="10.6029667"><ele>24.0</ele><time>2026-04-11T09:33:54.724Z</time></trkpt><trkpt lat="44.922015" lon="10.6028167"><ele>24.0</ele><time>2026-04-11T09:35:10.724Z</time></trkpt><trkpt lat="44.9220583" lon="10.6027317"><ele>24.0</ele><time>2026-04-11T09:35:14.724Z</time></trkpt><trkpt lat="44.9221033" lon="10.6026517"><ele>24.0</ele><time>2026-04-11T09:35:17.724Z</time></trkpt><trkpt lat="44.9221617" lon="10.60256"><ele>24.428571428571427</ele><time>2026-04-11T09:35:20.724Z</time></trkpt><trkpt lat="44.922205" lon="10.6024783"><ele>24.857142857142858</ele><time>2026-04-11T09:35:23.725Z</time></trkpt><trkpt lat="44.9222517" lon="10.6023867"><ele>25.285714285714285</ele><time>2026-04-11T09:35:26.726Z</time></trkpt><trkpt lat="44.9222917" lon="10.6023167"><ele>25.714285714285715</ele><time>2026-04-11T09:35:29.723Z</time></trkpt><trkpt lat="44.922335" lon="10.6022233"><ele>26.142857142857142</ele><time>2026-04-11T09:35:32.724Z</time></trkpt><trkpt lat="44.9223767" lon="10.602155"><ele>26.57142857142857</ele><time>2026-04-11T09:35:35.724Z</time></trkpt><trkpt lat="44.922425" lon="10.6020783"><ele>27.0</ele><time>2026-04-11T09:35:39.725Z</time></trkpt><trkpt lat="44.9224733" lon="10.6019817"><ele>27.166666666666668</ele><time>2026-04-11T09:35:44.722Z</time></trkpt><trkpt lat="44.9225167" lon="10.6018983"><ele>27.333333333333336</ele><time>2026-04-11T09:35:47.724Z</time></trkpt><trkpt lat="44.92256" lon="10.601825"><ele>27.5</ele><time>2026-04-11T09:35:50.725Z</time></trkpt><trkpt lat="44.92262" lon="10.6017267"><ele>27.666666666666668</ele><time>2026-04-11T09:35:53.726Z</time></trkpt><trkpt lat="44.9226633" lon="10.60162"><ele>27.833333333333336</ele><time>2026-04-11T09:35:56.723Z</time></trkpt><trkpt lat="44.9226967" lon="10.6015133"><ele>28.0</ele><time>2026-04-11T09:35:59.724Z</time></trkpt><trkpt lat="44.9227367" lon="10.6013867"><ele>27.571428571428573</ele><time>2026-04-11T09:36:02.723Z</time></trkpt><trkpt lat="44.92277" lon="10.60129"><ele>27.142857142857142</ele><time>2026-04-11T09:36:04.724Z</time></trkpt><trkpt lat="44.9227967" lon="10.6011967"><ele>26.714285714285715</ele><time>2026-04-11T09:36:06.723Z</time></trkpt><trkpt lat="44.9228217" lon="10.60111"><ele>26.285714285714285</ele><time>2026-04-11T09:36:08.723Z</time></trkpt><trkpt lat="44.9228483" lon="10.6010183"><ele>25.857142857142858</ele><time>2026-04-11T09:36:10.723Z</time></trkpt><trkpt lat="44.9228867" lon="10.6009167"><ele>25.42857142857143</ele><time>2026-04-11T09:36:13.724Z</time></trkpt><trkpt lat="44.92294" lon="10.6008433"><ele>25.0</ele><time>2026-04-11T09:36:26.723Z</time></trkpt><trkpt lat="44.922985" lon="10.6007217"><ele>25.0</ele><time>2026-04-11T09:36:29.724Z</time></trkpt><trkpt lat="44.9230283" lon="10.6006"><ele>25.0</ele><time>2026-04-11T09:36:31.722Z</time></trkpt><trkpt lat="44.9230683" lon="10.600455"><ele>25.0</ele><time>2026-04-11T09:36:33.725Z</time></trkpt><trkpt lat="44.9231067" lon="10.6003183"><ele>25.0</ele><time>2026-04-11T09:36:35.724Z</time></trkpt><trkpt lat="44.9231517" lon="10.6001833"><ele>25.0</ele><time>2026-04-11T09:36:37.723Z</time></trkpt><trkpt lat="44.9231883" lon="10.600055"><ele>24.75</ele><time>2026-04-11T09:36:39.724Z</time></trkpt><trkpt lat="44.9232383" lon="10.5999067"><ele>24.5</ele><time>2026-04-11T09:36:41.724Z</time></trkpt><trkpt lat="44.923285" lon="10.5997617"><ele>24.25</ele><time>2026-04-11T09:36:43.724Z</time></trkpt><trkpt lat="44.9233167" lon="10.5996167"><ele>24.0</ele><time>2026-04-11T09:36:45.724Z</time></trkpt><trkpt lat="44.9233617" lon="10.5994433"><ele>24.0</ele><time>2026-04-11T09:36:47.725Z</time></trkpt><trkpt lat="44.92339" lon="10.5993467"><ele>24.0</ele><time>2026-04-11T09:36:48.723Z</time></trkpt><trkpt lat="44.9234183" lon="10.59925"><ele>24.0</ele><time>2026-04-11T09:36:49.724Z</time></trkpt><trkpt lat="44.9234467" lon="10.599155"><ele>24.0</ele><time>2026-04-11T09:36:50.725Z</time></trkpt><trkpt lat="44.9234733" lon="10.5990617"><ele>24.0</ele><time>2026-04-11T09:36:51.725Z</time></trkpt><trkpt lat="44.9235" lon="10.598975"><ele>24.0</ele><time>2026-04-11T09:36:52.726Z</time></trkpt><trkpt lat="44.9235483" lon="10.5988233"><ele>24.799999999999997</ele><time>2026-04-11T09:36:54.726Z</time></trkpt><trkpt lat="44.9235883" lon="10.5986833"><ele>25.599999999999998</ele><time>2026-04-11T09:36:56.724Z</time></trkpt><trkpt lat="44.9236283" lon="10.5986017"><ele>26.4</ele><time>2026-04-11T09:36:58.724Z</time></trkpt><trkpt lat="44.923705" lon="10.5985683"><ele>27.2</ele><time>2026-04-11T09:37:00.725Z</time></trkpt><trkpt lat="44.9238017" lon="10.5985583"><ele>28.0</ele><time>2026-04-11T09:37:02.725Z</time></trkpt><trkpt lat="44.9239183" lon="10.5985733"><ele>28.0</ele><time>2026-04-11T09:37:04.726Z</time></trkpt><trkpt lat="44.924045" lon="10.5986017"><ele>28.0</ele><time>2026-04-11T09:37:06.724Z</time></trkpt><trkpt lat="44.924165" lon="10.598625"><ele>28.0</ele><time>2026-04-11T09:37:08.726Z</time></trkpt><trkpt lat="44.924275" lon="10.5986433"><ele>28.0</ele><time>2026-04-11T09:37:10.725Z</time></trkpt><trkpt lat="44.92437" lon="10.59864"><ele>28.166666666666668</ele><time>2026-04-11T09:37:12.725Z</time></trkpt><trkpt lat="44.924445" lon="10.598655"><ele>28.333333333333336</ele><time>2026-04-11T09:37:14.724Z</time></trkpt><trkpt lat="44.9245283" lon="10.59871"><ele>28.5</ele><time>2026-04-11T09:37:16.723Z</time></trkpt><trkpt lat="44.9246317" lon="10.598775"><ele>28.666666666666664</ele><time>2026-04-11T09:37:18.724Z</time></trkpt><trkpt lat="44.92469" lon="10.5988117"><ele>28.833333333333332</ele><time>2026-04-11T09:37:19.724Z</time></trkpt><trkpt lat="44.92475" lon="10.59885"><ele>29.0</ele><time>2026-04-11T09:37:20.724Z</time></trkpt><trkpt lat="44.924865" lon="10.5989117"><ele>29.0</ele><time>2026-04-11T09:37:22.725Z</time></trkpt><trkpt lat="44.92496" lon="10.598965"><ele>29.0</ele><time>2026-04-11T09:37:24.726Z</time></trkpt><trkpt lat="44.9250483" lon="10.5990183"><ele>29.0</ele><time>2026-04-11T09:37:26.723Z</time></trkpt><trkpt lat="44.9251383" lon="10.5990767"><ele>29.0</ele><time>2026-04-11T09:37:28.724Z</time></trkpt><trkpt lat="44.9252283" lon="10.5991317"><ele>29.0</ele><time>2026-04-11T09:37:30.724Z</time></trkpt><trkpt lat="44.925295" lon="10.5991567"><ele>27.6</ele><time>2026-04-11T09:37:32.725Z</time></trkpt><trkpt lat="44.925355" lon="10.599045"><ele>26.2</ele><time>2026-04-11T09:37:35.723Z</time></trkpt><trkpt lat="44.92537" lon="10.598915"><ele>24.8</ele><time>2026-04-11T09:37:37.725Z</time></trkpt><trkpt lat="44.9253733" lon="10.5987767"><ele>23.400000000000002</ele><time>2026-04-11T09:37:39.723Z</time></trkpt><trkpt lat="44.92538" lon="10.5986267"><ele>22.0</ele><time>2026-04-11T09:37:41.724Z</time></trkpt><trkpt lat="44.925375" lon="10.5984817"><ele>22.0</ele><time>2026-04-11T09:37:43.723Z</time></trkpt><trkpt lat="44.92537" lon="10.5983467"><ele>22.0</ele><time>2026-04-11T09:37:45.724Z</time></trkpt><trkpt lat="44.9253667" lon="10.5982067"><ele>22.0</ele><time>2026-04-11T09:37:47.724Z</time></trkpt><trkpt lat="44.9253583" lon="10.5980783"><ele>22.0</ele><time>2026-04-11T09:37:49.725Z</time></trkpt><trkpt lat="44.9253567" lon="10.5979383"><ele>22.0</ele><time>2026-04-11T09:37:51.724Z</time></trkpt><trkpt lat="44.925355" lon="10.597805"><ele>22.0</ele><time>2026-04-11T09:37:53.725Z</time></trkpt><trkpt lat="44.9253533" lon="10.597685"><ele>22.0</ele><time>2026-04-11T09:37:55.724Z</time></trkpt><trkpt lat="44.9253533" lon="10.5975633"><ele>22.0</ele><time>2026-04-11T09:37:57.725Z</time></trkpt><trkpt lat="44.9253517" lon="10.59744"><ele>22.0</ele><time>2026-04-11T09:37:59.724Z</time></trkpt><trkpt lat="44.9253567" lon="10.59731"><ele>22.0</ele><time>2026-04-11T09:38:01.724Z</time></trkpt><trkpt lat="44.9253517" lon="10.597185"><ele>22.0</ele><time>2026-04-11T09:38:03.723Z</time></trkpt><trkpt lat="44.9253517" lon="10.5970617"><ele>21.666666666666664</ele><time>2026-04-11T09:38:05.724Z</time></trkpt><trkpt lat="44.92535" lon="10.5969483"><ele>21.333333333333332</ele><time>2026-04-11T09:38:07.725Z</time></trkpt><trkpt lat="44.92535" lon="10.5968317"><ele>21.0</ele><time>2026-04-11T09:38:09.725Z</time></trkpt><trkpt lat="44.9253417" lon="10.5967167"><ele>20.666666666666668</ele><time>2026-04-11T09:38:11.724Z</time></trkpt><trkpt lat="44.9253583" lon="10.596595"><ele>20.333333333333336</ele><time>2026-04-11T09:38:14.723Z</time></trkpt><trkpt lat="44.9254167" lon="10.596665"><ele>20.0</ele><time>2026-04-11T09:38:18.724Z</time></trkpt><trkpt lat="44.925425" lon="10.5967933"><ele>20.0</ele><time>2026-04-11T09:38:20.724Z</time></trkpt><trkpt lat="44.9254233" lon="10.5969685"><ele>20.0</ele><time>2026-04-11T09:38:22.724Z</time></trkpt><trkpt lat="44.9254302" lon="10.5970688"><ele>20.0</ele><time>2026-04-11T09:38:23.723Z</time></trkpt><trkpt lat="44.9254397" lon="10.5971728"><ele>20.0</ele><time>2026-04-11T09:38:24.725Z</time></trkpt><trkpt lat="44.9254486" lon="10.5972729"><ele>20.0</ele><time>2026-04-11T09:38:25.723Z</time></trkpt><trkpt lat="44.9254572" lon="10.5973687"><ele>20.0</ele><time>2026-04-11T09:38:26.724Z</time></trkpt><trkpt lat="44.9254724" lon="10.597517"><ele>20.333333333333336</ele><time>2026-04-11T09:38:28.724Z</time></trkpt><trkpt lat="44.925495" lon="10.5976117"><ele>20.666666666666668</ele><time>2026-04-11T09:38:30.724Z</time></trkpt><trkpt lat="44.9255617" lon="10.59762"><ele>21.0</ele><time>2026-04-11T09:38:33.725Z</time></trkpt><trkpt lat="44.92558" lon="10.5975333"><ele>21.333333333333332</ele><time>2026-04-11T09:38:35.724Z</time></trkpt><trkpt lat="44.92558" lon="10.59735"><ele>21.666666666666664</ele><time>2026-04-11T09:38:37.724Z</time></trkpt><trkpt lat="44.9255833" lon="10.5972167"><ele>22.0</ele><time>2026-04-11T09:38:38.725Z</time></trkpt><trkpt lat="44.92559" lon="10.5970617"><ele>21.5</ele><time>2026-04-11T09:38:39.725Z</time></trkpt><trkpt lat="44.9255983" lon="10.5968967"><ele>21.0</ele><time>2026-04-11T09:38:40.724Z</time></trkpt><trkpt lat="44.9256067" lon="10.5967183"><ele>20.5</ele><time>2026-04-11T09:38:41.724Z</time></trkpt><trkpt lat="44.92561" lon="10.596535"><ele>20.0</ele><time>2026-04-11T09:38:42.725Z</time></trkpt><trkpt lat="44.9256133" lon="10.5963483"><ele>20.0</ele><time>2026-04-11T09:38:43.724Z</time></trkpt><trkpt lat="44.925615" lon="10.5961667"><ele>20.0</ele><time>2026-04-11T09:38:44.725Z</time></trkpt><trkpt lat="44.925615" lon="10.5959933"><ele>20.0</ele><time>2026-04-11T09:38:45.724Z</time></trkpt><trkpt lat="44.925615" lon="10.5958183"><ele>20.0</ele><time>2026-04-11T09:38:46.724Z</time></trkpt><trkpt lat="44.9256133" lon="10.5956433"><ele>20.0</ele><time>2026-04-11T09:38:47.724Z</time></trkpt><trkpt lat="44.9256117" lon="10.5954683"><ele>20.0</ele><time>2026-04-11T09:38:48.726Z</time></trkpt><trkpt lat="44.92561" lon="10.5952933"><ele>20.0</ele><time>2026-04-11T09:38:49.725Z</time></trkpt><trkpt lat="44.925615" lon="10.5951233"><ele>20.0</ele><time>2026-04-11T09:38:50.725Z</time></trkpt><trkpt lat="44.925625" lon="10.5949633"><ele>20.0</ele><time>2026-04-11T09:38:51.726Z</time></trkpt><trkpt lat="44.92564" lon="10.5948067"><ele>20.0</ele><time>2026-04-11T09:38:52.724Z</time></trkpt><trkpt lat="44.9256583" lon="10.594655"><ele>20.0</ele><time>2026-04-11T09:38:53.724Z</time></trkpt><trkpt lat="44.92568" lon="10.5945033"><ele>20.0</ele><time>2026-04-11T09:38:54.725Z</time></trkpt><trkpt lat="44.9256967" lon="10.5943433"><ele>20.0</ele><time>2026-04-11T09:38:55.723Z</time></trkpt><trkpt lat="44.9257067" lon="10.59418"><ele>20.5</ele><time>2026-04-11T09:38:56.725Z</time></trkpt><trkpt lat="44.9257067" lon="10.594015"><ele>21.0</ele><time>2026-04-11T09:38:57.724Z</time></trkpt><trkpt lat="44.9256967" lon="10.5938517"><ele>21.5</ele><time>2026-04-11T09:38:58.724Z</time></trkpt><trkpt lat="44.9256833" lon="10.5936883"><ele>22.0</ele><time>2026-04-11T09:38:59.725Z</time></trkpt><trkpt lat="44.92567" lon="10.5935267"><ele>22.5</ele><time>2026-04-11T09:39:00.725Z</time></trkpt><trkpt lat="44.9256533" lon="10.5933667"><ele>23.0</ele><time>2026-04-11T09:39:01.724Z</time></trkpt><trkpt lat="44.9256383" lon="10.59321"><ele>23.5</ele><time>2026-04-11T09:39:02.725Z</time></trkpt><trkpt lat="44.92562" lon="10.5930517"><ele>24.0</ele><time>2026-04-11T09:39:03.724Z</time></trkpt><trkpt lat="44.9256033" lon="10.592895"><ele>24.0</ele><time>2026-04-11T09:39:04.725Z</time></trkpt><trkpt lat="44.9255917" lon="10.59274"><ele>24.0</ele><time>2026-04-11T09:39:05.724Z</time></trkpt><trkpt lat="44.9255833" lon="10.5925867"><ele>24.0</ele><time>2026-04-11T09:39:06.725Z</time></trkpt><trkpt lat="44.92558" lon="10.5924333"><ele>24.0</ele><time>2026-04-11T09:39:07.725Z</time></trkpt><trkpt lat="44.9255767" lon="10.5922833"><ele>24.0</ele><time>2026-04-11T09:39:08.724Z</time></trkpt><trkpt lat="44.92558" lon="10.5921533"><ele>24.0</ele><time>2026-04-11T09:39:09.723Z</time></trkpt><trkpt lat="44.9255817" lon="10.5920483"><ele>24.0</ele><time>2026-04-11T09:39:10.725Z</time></trkpt><trkpt lat="44.925585" lon="10.5918883"><ele>24.0</ele><time>2026-04-11T09:39:12.724Z</time></trkpt><trkpt lat="44.9255833" lon="10.59177"><ele>24.0</ele><time>2026-04-11T09:39:14.724Z</time></trkpt><trkpt lat="44.9255483" lon="10.5916867"><ele>24.0</ele><time>2026-04-11T09:39:16.724Z</time></trkpt><trkpt lat="44.9255517" lon="10.5915683"><ele>24.0</ele><time>2026-04-11T09:40:46.724Z</time></trkpt><trkpt lat="44.9255567" lon="10.5914533"><ele>24.25</ele><time>2026-04-11T09:40:47.724Z</time></trkpt><trkpt lat="44.9255533" lon="10.5912967"><ele>24.5</ele><time>2026-04-11T09:40:48.725Z</time></trkpt><trkpt lat="44.9255333" lon="10.5911217"><ele>24.75</ele><time>2026-04-11T09:40:49.725Z</time></trkpt><trkpt lat="44.9255083" lon="10.5909533"><ele>25.0</ele><time>2026-04-11T09:40:50.725Z</time></trkpt><trkpt lat="44.9254867" lon="10.5908133"><ele>25.0</ele><time>2026-04-11T09:40:51.725Z</time></trkpt><trkpt lat="44.92547" lon="10.5906967"><ele>25.0</ele><time>2026-04-11T09:40:52.726Z</time></trkpt><trkpt lat="44.9254583" lon="10.5906"><ele>25.0</ele><time>2026-04-11T09:40:53.725Z</time></trkpt><trkpt lat="44.92542" lon="10.5904467"><ele>25.0</ele><time>2026-04-11T09:40:55.724Z</time></trkpt><trkpt lat="44.9253667" lon="10.59031"><ele>25.0</ele><time>2026-04-11T09:40:57.725Z</time></trkpt><trkpt lat="44.9253183" lon="10.5901683"><ele>25.0</ele><time>2026-04-11T09:40:59.725Z</time></trkpt><trkpt lat="44.9252817" lon="10.5900167"><ele>25.0</ele><time>2026-04-11T09:41:01.724Z</time></trkpt><trkpt lat="44.9252533" lon="10.589875"><ele>25.0</ele><time>2026-04-11T09:41:03.724Z</time></trkpt><trkpt lat="44.925225" lon="10.58972"><ele>25.0</ele><time>2026-04-11T09:41:05.723Z</time></trkpt><trkpt lat="44.9251983" lon="10.5895583"><ele>25.0</ele><time>2026-04-11T09:41:07.723Z</time></trkpt><trkpt lat="44.9251817" lon="10.5894233"><ele>25.000000000000004</ele><time>2026-04-11T09:41:09.724Z</time></trkpt><trkpt lat="44.9251233" lon="10.58953"><ele>25.0</ele><time>2026-04-11T09:41:35.724Z</time></trkpt><trkpt lat="44.9251417" lon="10.58943"><ele>25.0</ele><time>2026-04-11T09:42:12.724Z</time></trkpt><trkpt lat="44.9251533" lon="10.589335"><ele>25.0</ele><time>2026-04-11T09:42:14.724Z</time></trkpt><trkpt lat="44.925165" lon="10.589215"><ele>25.000000000000004</ele><time>2026-04-11T09:42:16.724Z</time></trkpt><trkpt lat="44.9251667" lon="10.5891017"><ele>25.0</ele><time>2026-04-11T09:42:18.724Z</time></trkpt><trkpt lat="44.9251717" lon="10.589"><ele>24.857142857142858</ele><time>2026-04-11T09:42:20.724Z</time></trkpt><trkpt lat="44.9251783" lon="10.5889017"><ele>24.714285714285715</ele><time>2026-04-11T09:42:22.725Z</time></trkpt><trkpt lat="44.9251767" lon="10.5888"><ele>24.57142857142857</ele><time>2026-04-11T09:42:24.726Z</time></trkpt><trkpt lat="44.92516" lon="10.5887017"><ele>24.42857142857143</ele><time>2026-04-11T09:42:27.725Z</time></trkpt><trkpt lat="44.9251483" lon="10.588585"><ele>24.285714285714285</ele><time>2026-04-11T09:42:31.724Z</time></trkpt><trkpt lat="44.9251467" lon="10.5884667"><ele>24.142857142857142</ele><time>2026-04-11T09:42:34.724Z</time></trkpt><trkpt lat="44.9251483" lon="10.5883767"><ele>24.0</ele><time>2026-04-11T09:42:36.724Z</time></trkpt><trkpt lat="44.925155" lon="10.5882733"><ele>23.999999999999996</ele><time>2026-04-11T09:42:38.724Z</time></trkpt><trkpt lat="44.925155" lon="10.58818"><ele>24.0</ele><time>2026-04-11T09:42:40.724Z</time></trkpt><trkpt lat="44.9251583" lon="10.58809"><ele>24.0</ele><time>2026-04-11T09:42:42.725Z</time></trkpt><trkpt lat="44.9251617" lon="10.5879883"><ele>24.0</ele><time>2026-04-11T09:42:44.725Z</time></trkpt><trkpt lat="44.9251683" lon="10.5878967"><ele>24.0</ele><time>2026-04-11T09:42:46.725Z</time></trkpt><trkpt lat="44.9251683" lon="10.5877983"><ele>23.999999999999996</ele><time>2026-04-11T09:42:48.725Z</time></trkpt><trkpt lat="44.9251667" lon="10.5876783"><ele>24.0</ele><time>2026-04-11T09:42:51.725Z</time></trkpt><trkpt lat="44.9251567" lon="10.587475"><ele>24.0</ele><time>2026-04-11T09:43:32.725Z</time></trkpt><trkpt lat="44.925165" lon="10.5873767"><ele>24.0</ele><time>2026-04-11T09:43:35.726Z</time></trkpt><trkpt lat="44.9251733" lon="10.587265"><ele>24.0</ele><time>2026-04-11T09:43:37.725Z</time></trkpt><trkpt lat="44.9251733" lon="10.5871483"><ele>24.0</ele><time>2026-04-11T09:43:39.724Z</time></trkpt><trkpt lat="44.9251717" lon="10.5870217"><ele>24.0</ele><time>2026-04-11T09:43:41.724Z</time></trkpt><trkpt lat="44.925165" lon="10.5869167"><ele>24.0</ele><time>2026-04-11T09:43:43.725Z</time></trkpt><trkpt lat="44.9251633" lon="10.5868133"><ele>23.999999999999996</ele><time>2026-04-11T09:43:45.725Z</time></trkpt><trkpt lat="44.9251617" lon="10.58672"><ele>24.0</ele><time>2026-04-11T09:43:47.723Z</time></trkpt><trkpt lat="44.9251617" lon="10.5866183"><ele>24.0</ele><time>2026-04-11T09:43:49.725Z</time></trkpt><trkpt lat="44.9251567" lon="10.5865033"><ele>24.0</ele><time>2026-04-11T09:43:51.726Z</time></trkpt><trkpt lat="44.9251617" lon="10.58641"><ele>24.0</ele><time>2026-04-11T09:43:53.725Z</time></trkpt><trkpt lat="44.9251583" lon="10.5862983"><ele>23.999999999999996</ele><time>2026-04-11T09:43:55.724Z</time></trkpt><trkpt lat="44.925155" lon="10.586195"><ele>24.0</ele><time>2026-04-11T09:43:57.725Z</time></trkpt><trkpt lat="44.925155" lon="10.5860683"><ele>23.5</ele><time>2026-04-11T09:44:00.725Z</time></trkpt><trkpt lat="44.9251533" lon="10.585965"><ele>23.0</ele><time>2026-04-11T09:44:03.725Z</time></trkpt><trkpt lat="44.92516" lon="10.5858317"><ele>22.5</ele><time>2026-04-11T09:44:06.724Z</time></trkpt><trkpt lat="44.9251617" lon="10.58572"><ele>22.0</ele><time>2026-04-11T09:44:08.724Z</time></trkpt><trkpt lat="44.92516" lon="10.5856117"><ele>21.5</ele><time>2026-04-11T09:44:10.725Z</time></trkpt><trkpt lat="44.9251583" lon="10.5855067"><ele>21.0</ele><time>2026-04-11T09:44:12.724Z</time></trkpt><trkpt lat="44.925155" lon="10.58536"><ele>21.200000000000003</ele><time>2026-04-11T09:44:14.724Z</time></trkpt><trkpt lat="44.9251467" lon="10.585205"><ele>21.400000000000002</ele><time>2026-04-11T09:44:16.724Z</time></trkpt><trkpt lat="44.9251417" lon="10.5850633"><ele>21.6</ele><time>2026-04-11T09:44:18.724Z</time></trkpt><trkpt lat="44.9251383" lon="10.584935"><ele>21.8</ele><time>2026-04-11T09:44:20.725Z</time></trkpt><trkpt lat="44.925145" lon="10.5847933"><ele>22.0</ele><time>2026-04-11T09:44:22.724Z</time></trkpt><trkpt lat="44.92515" lon="10.5846533"><ele>22.0</ele><time>2026-04-11T09:44:24.725Z</time></trkpt><trkpt lat="44.925155" lon="10.5845167"><ele>22.0</ele><time>2026-04-11T09:44:26.725Z</time></trkpt><trkpt lat="44.9251567" lon="10.5843917"><ele>22.0</ele><time>2026-04-11T09:44:28.723Z</time></trkpt><trkpt lat="44.9251583" lon="10.584265"><ele>22.0</ele><time>2026-04-11T09:44:30.725Z</time></trkpt><trkpt lat="44.92519" lon="10.5841417"><ele>22.0</ele><time>2026-04-11T09:44:33.724Z</time></trkpt><trkpt lat="44.9252317" lon="10.584055"><ele>22.0</ele><time>2026-04-11T09:44:35.725Z</time></trkpt><trkpt lat="44.9252717" lon="10.583935"><ele>22.200000000000003</ele><time>2026-04-11T09:44:37.725Z</time></trkpt><trkpt lat="44.9253133" lon="10.5838333"><ele>22.4</ele><time>2026-04-11T09:44:39.726Z</time></trkpt><trkpt lat="44.9253667" lon="10.5837317"><ele>22.6</ele><time>2026-04-11T09:44:41.725Z</time></trkpt><trkpt lat="44.92543" lon="10.5836333"><ele>22.799999999999997</ele><time>2026-04-11T09:44:43.725Z</time></trkpt><trkpt lat="44.9255" lon="10.5835383"><ele>23.0</ele><time>2026-04-11T09:44:45.725Z</time></trkpt><trkpt lat="44.92557" lon="10.58343"><ele>23.2</ele><time>2026-04-11T09:44:47.724Z</time></trkpt><trkpt lat="44.9256417" lon="10.58331"><ele>23.4</ele><time>2026-04-11T09:44:49.723Z</time></trkpt><trkpt lat="44.9257067" lon="10.5831883"><ele>23.599999999999998</ele><time>2026-04-11T09:44:51.725Z</time></trkpt><trkpt lat="44.9257633" lon="10.5830783"><ele>23.799999999999997</ele><time>2026-04-11T09:44:53.725Z</time></trkpt><trkpt lat="44.925815" lon="10.5829633"><ele>24.0</ele><time>2026-04-11T09:44:55.725Z</time></trkpt><trkpt lat="44.9258567" lon="10.5828633"><ele>24.166666666666668</ele><time>2026-04-11T09:44:57.725Z</time></trkpt><trkpt lat="44.925885" lon="10.5827717"><ele>24.333333333333336</ele><time>2026-04-11T09:45:26.724Z</time></trkpt><trkpt lat="44.9258883" lon="10.5826817"><ele>24.5</ele><time>2026-04-11T09:45:28.724Z</time></trkpt><trkpt lat="44.92593" lon="10.5826"><ele>24.666666666666668</ele><time>2026-04-11T09:45:33.724Z</time></trkpt><trkpt lat="44.926005" lon="10.5825867"><ele>24.833333333333336</ele><time>2026-04-11T09:45:36.724Z</time></trkpt><trkpt lat="44.926035" lon="10.582495"><ele>25.0</ele><time>2026-04-11T09:45:38.723Z</time></trkpt><trkpt lat="44.92607" lon="10.5823633"><ele>24.8</ele><time>2026-04-11T09:45:40.722Z</time></trkpt><trkpt lat="44.9261017" lon="10.582215"><ele>24.6</ele><time>2026-04-11T09:45:42.724Z</time></trkpt><trkpt lat="44.9261283" lon="10.5820617"><ele>24.4</ele><time>2026-04-11T09:45:44.723Z</time></trkpt><trkpt lat="44.9261583" lon="10.5819183"><ele>24.2</ele><time>2026-04-11T09:45:46.724Z</time></trkpt><trkpt lat="44.92619" lon="10.5817767"><ele>24.0</ele><time>2026-04-11T09:45:48.724Z</time></trkpt><trkpt lat="44.92622" lon="10.5816217"><ele>24.0</ele><time>2026-04-11T09:45:50.723Z</time></trkpt><trkpt lat="44.92625" lon="10.5814683"><ele>24.0</ele><time>2026-04-11T09:45:52.723Z</time></trkpt><trkpt lat="44.9262833" lon="10.5813283"><ele>24.0</ele><time>2026-04-11T09:45:54.723Z</time></trkpt><trkpt lat="44.92632" lon="10.581195"><ele>24.0</ele><time>2026-04-11T09:45:56.723Z</time></trkpt><trkpt lat="44.926355" lon="10.5810583"><ele>24.0</ele><time>2026-04-11T09:45:58.724Z</time></trkpt><trkpt lat="44.9263833" lon="10.58093"><ele>24.0</ele><time>2026-04-11T09:46:00.724Z</time></trkpt><trkpt lat="44.92643" lon="10.5807933"><ele>24.0</ele><time>2026-04-11T09:46:02.723Z</time></trkpt><trkpt lat="44.9264567" lon="10.5807117"><ele>24.0</ele><time>2026-04-11T09:46:03.725Z</time></trkpt><trkpt lat="44.9264983" lon="10.58054"><ele>24.0</ele><time>2026-04-11T09:46:05.723Z</time></trkpt><trkpt lat="44.92653" lon="10.5803817"><ele>24.0</ele><time>2026-04-11T09:46:07.724Z</time></trkpt><trkpt lat="44.9265683" lon="10.5802183"><ele>24.4</ele><time>2026-04-11T09:46:09.724Z</time></trkpt><trkpt lat="44.9266033" lon="10.5800483"><ele>24.799999999999997</ele><time>2026-04-11T09:46:11.725Z</time></trkpt><trkpt lat="44.92662" lon="10.5799617"><ele>25.200000000000003</ele><time>2026-04-11T09:46:12.724Z</time></trkpt><trkpt lat="44.9266467" lon="10.579805"><ele>25.6</ele><time>2026-04-11T09:46:14.723Z</time></trkpt><trkpt lat="44.9266733" lon="10.5796767"><ele>26.0</ele><time>2026-04-11T09:46:16.723Z</time></trkpt><trkpt lat="44.9267017" lon="10.5795783"><ele>26.6</ele><time>2026-04-11T09:46:18.724Z</time></trkpt><trkpt lat="44.9267433" lon="10.5793783"><ele>27.200000000000003</ele><time>2026-04-11T09:46:43.723Z</time></trkpt><trkpt lat="44.9266733" lon="10.5793333"><ele>27.799999999999997</ele><time>2026-04-11T09:46:48.724Z</time></trkpt><trkpt lat="44.92663" lon="10.5792467"><ele>28.4</ele><time>2026-04-11T09:46:52.724Z</time></trkpt><trkpt lat="44.9266" lon="10.579105"><ele>29.0</ele><time>2026-04-11T09:47:18.724Z</time></trkpt><trkpt lat="44.9266033" lon="10.5789733"><ele>29.0</ele><time>2026-04-11T09:47:20.723Z</time></trkpt><trkpt lat="44.9266183" lon="10.57886"><ele>29.0</ele><time>2026-04-11T09:47:22.724Z</time></trkpt><trkpt lat="44.9267017" lon="10.57882"><ele>29.0</ele><time>2026-04-11T09:47:25.724Z</time></trkpt><trkpt lat="44.9268183" lon="10.5788433"><ele>29.0</ele><time>2026-04-11T09:47:27.729Z</time></trkpt><trkpt lat="44.9269367" lon="10.57887"><ele>29.0</ele><time>2026-04-11T09:47:29.723Z</time></trkpt><trkpt lat="44.92702" lon="10.5788767"><ele>28.6</ele><time>2026-04-11T09:47:31.723Z</time></trkpt><trkpt lat="44.9269367" lon="10.5788033"><ele>28.2</ele><time>2026-04-11T09:47:44.724Z</time></trkpt><trkpt lat="44.926875" lon="10.5787767"><ele>27.800000000000004</ele><time>2026-04-11T09:47:45.725Z</time></trkpt><trkpt lat="44.9267583" lon="10.5787217"><ele>27.400000000000002</ele><time>2026-04-11T09:47:47.723Z</time></trkpt><trkpt lat="44.9266483" lon="10.5786383"><ele>27.0</ele><time>2026-04-11T09:47:49.724Z</time></trkpt><trkpt lat="44.9265583" lon="10.5785183"><ele>27.0</ele><time>2026-04-11T09:47:51.725Z</time></trkpt><trkpt lat="44.9264933" lon="10.5783933"><ele>27.0</ele><time>2026-04-11T09:47:53.725Z</time></trkpt><trkpt lat="44.926435" lon="10.5782967"><ele>27.0</ele><time>2026-04-11T09:47:55.724Z</time></trkpt><trkpt lat="44.9263744" lon="10.57825"><ele>27.0</ele><time>2026-04-11T09:47:57.725Z</time></trkpt><trkpt lat="44.9263086" lon="10.5782377"><ele>27.0</ele><time>2026-04-11T09:47:59.724Z</time></trkpt><trkpt lat="44.9262147" lon="10.5782337"><ele>27.0</ele><time>2026-04-11T09:48:01.724Z</time></trkpt><trkpt lat="44.9261154" lon="10.5782265"><ele>27.0</ele><time>2026-04-11T09:48:03.725Z</time></trkpt><trkpt lat="44.926022" lon="10.5782205"><ele>27.000000000000004</ele><time>2026-04-11T09:48:05.724Z</time></trkpt><trkpt lat="44.925935" lon="10.5782473"><ele>27.000000000000004</ele><time>2026-04-11T09:48:07.724Z</time></trkpt><trkpt lat="44.9258361" lon="10.5782675"><ele>27.0</ele><time>2026-04-11T09:48:09.724Z</time></trkpt><trkpt lat="44.9257178" lon="10.5782702"><ele>27.0</ele><time>2026-04-11T09:48:11.724Z</time></trkpt><trkpt lat="44.9256531" lon="10.5782691"><ele>26.857142857142858</ele><time>2026-04-11T09:48:12.724Z</time></trkpt><trkpt lat="44.9255832" lon="10.5782683"><ele>26.714285714285715</ele><time>2026-04-11T09:48:13.724Z</time></trkpt><trkpt lat="44.925511" lon="10.578267"><ele>26.57142857142857</ele><time>2026-04-11T09:48:14.724Z</time></trkpt><trkpt lat="44.925439" lon="10.5782652"><ele>26.42857142857143</ele><time>2026-04-11T09:48:15.723Z</time></trkpt><trkpt lat="44.9253672" lon="10.5782666"><ele>26.28571428571429</ele><time>2026-04-11T09:48:16.725Z</time></trkpt><trkpt lat="44.9252952" lon="10.5782671"><ele>26.142857142857142</ele><time>2026-04-11T09:48:17.725Z</time></trkpt><trkpt lat="44.9252222" lon="10.5782685"><ele>26.0</ele><time>2026-04-11T09:48:18.724Z</time></trkpt><trkpt lat="44.9251502" lon="10.5782701"><ele>25.999999999999996</ele><time>2026-04-11T09:48:19.724Z</time></trkpt><trkpt lat="44.9250786" lon="10.5782705"><ele>26.0</ele><time>2026-04-11T09:48:20.724Z</time></trkpt><trkpt lat="44.9250084" lon="10.5782677"><ele>26.0</ele><time>2026-04-11T09:48:21.725Z</time></trkpt><trkpt lat="44.9249414" lon="10.5782667"><ele>26.0</ele><time>2026-04-11T09:48:22.724Z</time></trkpt><trkpt lat="44.9248748" lon="10.5782683"><ele>25.999999999999996</ele><time>2026-04-11T09:48:23.725Z</time></trkpt><trkpt lat="44.9248113" lon="10.5782703"><ele>26.0</ele><time>2026-04-11T09:48:24.724Z</time></trkpt><trkpt lat="44.9246999" lon="10.5782732"><ele>26.142857142857142</ele><time>2026-04-11T09:48:26.723Z</time></trkpt><trkpt lat="44.9245807" lon="10.5782748"><ele>26.28571428571429</ele><time>2026-04-11T09:48:28.723Z</time></trkpt><trkpt lat="44.9245156" lon="10.5782753"><ele>26.42857142857143</ele><time>2026-04-11T09:48:29.725Z</time></trkpt><trkpt lat="44.9244489" lon="10.5782753"><ele>26.57142857142857</ele><time>2026-04-11T09:48:30.724Z</time></trkpt><trkpt lat="44.9243817" lon="10.5782758"><ele>26.714285714285715</ele><time>2026-04-11T09:48:31.724Z</time></trkpt><trkpt lat="44.9243148" lon="10.5782781"><ele>26.857142857142858</ele><time>2026-04-11T09:48:32.724Z</time></trkpt><trkpt lat="44.9242511" lon="10.5782783"><ele>27.0</ele><time>2026-04-11T09:48:33.725Z</time></trkpt><trkpt lat="44.9241251" lon="10.5782769"><ele>27.200000000000003</ele><time>2026-04-11T09:48:35.725Z</time></trkpt><trkpt lat="44.9240033" lon="10.5782816"><ele>27.400000000000002</ele><time>2026-04-11T09:48:37.724Z</time></trkpt><trkpt lat="44.9238882" lon="10.5782804"><ele>27.599999999999998</ele><time>2026-04-11T09:48:39.725Z</time></trkpt><trkpt lat="44.9237636" lon="10.5782775"><ele>27.799999999999997</ele><time>2026-04-11T09:48:41.723Z</time></trkpt><trkpt lat="44.9236958" lon="10.5782756"><ele>28.0</ele><time>2026-04-11T09:48:42.723Z</time></trkpt><trkpt lat="44.9236271" lon="10.5782753"><ele>28.0</ele><time>2026-04-11T09:48:43.725Z</time></trkpt><trkpt lat="44.9235571" lon="10.5782759"><ele>28.0</ele><time>2026-04-11T09:48:44.724Z</time></trkpt><trkpt lat="44.92349" lon="10.578275"><ele>28.0</ele><time>2026-04-11T09:48:45.724Z</time></trkpt><trkpt lat="44.9234233" lon="10.578275"><ele>28.0</ele><time>2026-04-11T09:48:46.724Z</time></trkpt><trkpt lat="44.923355" lon="10.578275"><ele>28.0</ele><time>2026-04-11T09:48:47.724Z</time></trkpt><trkpt lat="44.923285" lon="10.578275"><ele>28.0</ele><time>2026-04-11T09:48:48.725Z</time></trkpt><trkpt lat="44.9232133" lon="10.5782783"><ele>28.0</ele><time>2026-04-11T09:48:49.724Z</time></trkpt><trkpt lat="44.92314" lon="10.5782817"><ele>27.857142857142858</ele><time>2026-04-11T09:48:50.724Z</time></trkpt><trkpt lat="44.9230683" lon="10.5782817"><ele>27.714285714285715</ele><time>2026-04-11T09:48:51.724Z</time></trkpt><trkpt lat="44.9229983" lon="10.57828"><ele>27.57142857142857</ele><time>2026-04-11T09:48:52.724Z</time></trkpt><trkpt lat="44.9229267" lon="10.57828"><ele>27.42857142857143</ele><time>2026-04-11T09:48:53.725Z</time></trkpt><trkpt lat="44.922855" lon="10.5782783"><ele>27.285714285714285</ele><time>2026-04-11T09:48:54.725Z</time></trkpt><trkpt lat="44.9227867" lon="10.578275"><ele>27.142857142857142</ele><time>2026-04-11T09:48:55.725Z</time></trkpt><trkpt lat="44.92272" lon="10.5782733"><ele>27.0</ele><time>2026-04-11T09:48:56.723Z</time></trkpt><trkpt lat="44.9226533" lon="10.5782733"><ele>27.0</ele><time>2026-04-11T09:48:57.724Z</time></trkpt><trkpt lat="44.9225883" lon="10.5782733"><ele>27.0</ele><time>2026-04-11T09:48:58.722Z</time></trkpt><trkpt lat="44.92252" lon="10.5782733"><ele>27.0</ele><time>2026-04-11T09:48:59.725Z</time></trkpt><trkpt lat="44.9224517" lon="10.5782733"><ele>27.0</ele><time>2026-04-11T09:49:00.724Z</time></trkpt><trkpt lat="44.9223817" lon="10.57827"><ele>27.0</ele><time>2026-04-11T09:49:01.723Z</time></trkpt><trkpt lat="44.9223117" lon="10.57827"><ele>27.0</ele><time>2026-04-11T09:49:02.724Z</time></trkpt><trkpt lat="44.922245" lon="10.5782717"><ele>27.0</ele><time>2026-04-11T09:49:03.724Z</time></trkpt><trkpt lat="44.9221317" lon="10.5782767"><ele>26.400000000000002</ele><time>2026-04-11T09:49:05.724Z</time></trkpt><trkpt lat="44.9220667" lon="10.5782617"><ele>25.800000000000004</ele><time>2026-04-11T09:49:07.724Z</time></trkpt><trkpt lat="44.922045" lon="10.5781467"><ele>25.2</ele><time>2026-04-11T09:49:10.724Z</time></trkpt><trkpt lat="44.922045" lon="10.5780067"><ele>24.6</ele><time>2026-04-11T09:49:12.724Z</time></trkpt><trkpt lat="44.92204" lon="10.5778467"><ele>24.0</ele><time>2026-04-11T09:49:14.724Z</time></trkpt><trkpt lat="44.92202" lon="10.5777117"><ele>23.833333333333332</ele><time>2026-04-11T09:49:16.724Z</time></trkpt><trkpt lat="44.9219783" lon="10.5776267"><ele>23.666666666666668</ele><time>2026-04-11T09:49:18.724Z</time></trkpt><trkpt lat="44.92192" lon="10.5775883"><ele>23.5</ele><time>2026-04-11T09:49:20.725Z</time></trkpt><trkpt lat="44.92184" lon="10.5776"><ele>23.333333333333336</ele><time>2026-04-11T09:49:22.724Z</time></trkpt><trkpt lat="44.9217467" lon="10.5776317"><ele>23.166666666666668</ele><time>2026-04-11T09:49:24.725Z</time></trkpt><trkpt lat="44.9216467" lon="10.577665"><ele>23.0</ele><time>2026-04-11T09:49:26.725Z</time></trkpt><trkpt lat="44.92156" lon="10.5777033"><ele>22.833333333333336</ele><time>2026-04-11T09:49:28.724Z</time></trkpt><trkpt lat="44.921465" lon="10.5777317"><ele>22.666666666666668</ele><time>2026-04-11T09:49:30.725Z</time></trkpt><trkpt lat="44.9213633" lon="10.5777467"><ele>22.5</ele><time>2026-04-11T09:49:32.725Z</time></trkpt><trkpt lat="44.9212667" lon="10.57777"><ele>22.333333333333332</ele><time>2026-04-11T09:49:34.729Z</time></trkpt><trkpt lat="44.921185" lon="10.5777833"><ele>22.166666666666664</ele><time>2026-04-11T09:49:36.725Z</time></trkpt><trkpt lat="44.9211217" lon="10.57775"><ele>22.0</ele><time>2026-04-11T09:49:38.724Z</time></trkpt><trkpt lat="44.9210467" lon="10.5776917"><ele>22.0</ele><time>2026-04-11T09:49:40.724Z</time></trkpt><trkpt lat="44.9209567" lon="10.5776167"><ele>22.0</ele><time>2026-04-11T09:49:42.724Z</time></trkpt><trkpt lat="44.9208533" lon="10.5775333"><ele>22.0</ele><time>2026-04-11T09:49:44.723Z</time></trkpt><trkpt lat="44.92074" lon="10.5774467"><ele>22.0</ele><time>2026-04-11T09:49:46.723Z</time></trkpt><trkpt lat="44.9206855" lon="10.5773995"><ele>22.0</ele><time>2026-04-11T09:49:47.725Z</time></trkpt><trkpt lat="44.9206263" lon="10.5773546"><ele>22.333333333333332</ele><time>2026-04-11T09:49:48.724Z</time></trkpt><trkpt lat="44.9205673" lon="10.5773074"><ele>22.666666666666664</ele><time>2026-04-11T09:49:49.725Z</time></trkpt><trkpt lat="44.9205133" lon="10.5772597"><ele>23.0</ele><time>2026-04-11T09:49:50.724Z</time></trkpt><trkpt lat="44.9204586" lon="10.5772155"><ele>23.333333333333332</ele><time>2026-04-11T09:49:51.725Z</time></trkpt><trkpt lat="44.9203496" lon="10.5771369"><ele>23.666666666666668</ele><time>2026-04-11T09:49:53.724Z</time></trkpt><trkpt lat="44.9202488" lon="10.5770815"><ele>24.0</ele><time>2026-04-11T09:49:55.725Z</time></trkpt><trkpt lat="44.9201349" lon="10.577088"><ele>24.0</ele><time>2026-04-11T09:49:57.724Z</time></trkpt><trkpt lat="44.9200301" lon="10.5771273"><ele>24.0</ele><time>2026-04-11T09:49:59.724Z</time></trkpt><trkpt lat="44.9199161" lon="10.577169"><ele>24.0</ele><time>2026-04-11T09:50:01.724Z</time></trkpt><trkpt lat="44.9197919" lon="10.5772123"><ele>24.0</ele><time>2026-04-11T09:50:03.725Z</time></trkpt><trkpt lat="44.919727" lon="10.5772302"><ele>24.0</ele><time>2026-04-11T09:50:04.724Z</time></trkpt><trkpt lat="44.919665" lon="10.5772482"><ele>24.0</ele><time>2026-04-11T09:50:05.723Z</time></trkpt><trkpt lat="44.9196025" lon="10.5772654"><ele>24.0</ele><time>2026-04-11T09:50:06.722Z</time></trkpt><trkpt lat="44.9195393" lon="10.5772838"><ele>24.0</ele><time>2026-04-11T09:50:07.724Z</time></trkpt><trkpt lat="44.9194763" lon="10.5773056"><ele>24.0</ele><time>2026-04-11T09:50:08.724Z</time></trkpt><trkpt lat="44.9193581" lon="10.5773418"><ele>24.0</ele><time>2026-04-11T09:50:10.727Z</time></trkpt><trkpt lat="44.9192431" lon="10.577376"><ele>24.0</ele><time>2026-04-11T09:50:12.724Z</time></trkpt><trkpt lat="44.9191223" lon="10.577417"><ele>24.4</ele><time>2026-04-11T09:50:14.724Z</time></trkpt><trkpt lat="44.9190606" lon="10.57744"><ele>24.799999999999997</ele><time>2026-04-11T09:50:15.724Z</time></trkpt><trkpt lat="44.9189419" lon="10.5774833"><ele>25.200000000000003</ele><time>2026-04-11T09:50:17.724Z</time></trkpt><trkpt lat="44.9188237" lon="10.5775218"><ele>25.6</ele><time>2026-04-11T09:50:19.724Z</time></trkpt><trkpt lat="44.9187169" lon="10.5775527"><ele>26.0</ele><time>2026-04-11T09:50:21.724Z</time></trkpt><trkpt lat="44.9186187" lon="10.5775831"><ele>26.0</ele><time>2026-04-11T09:50:23.724Z</time></trkpt><trkpt lat="44.9185101" lon="10.5776131"><ele>26.0</ele><time>2026-04-11T09:50:25.725Z</time></trkpt><trkpt lat="44.9184049" lon="10.5776423"><ele>26.0</ele><time>2026-04-11T09:50:27.724Z</time></trkpt><trkpt lat="44.9183083" lon="10.5776782"><ele>26.0</ele><time>2026-04-11T09:50:29.724Z</time></trkpt><trkpt lat="44.9182219" lon="10.5777174"><ele>26.0</ele><time>2026-04-11T09:50:31.724Z</time></trkpt><trkpt lat="44.9181263" lon="10.5777473"><ele>26.166666666666664</ele><time>2026-04-11T09:50:33.724Z</time></trkpt><trkpt lat="44.918034" lon="10.5777779"><ele>26.333333333333332</ele><time>2026-04-11T09:50:35.724Z</time></trkpt><trkpt lat="44.9179405" lon="10.5778075"><ele>26.5</ele><time>2026-04-11T09:50:37.725Z</time></trkpt><trkpt lat="44.9178635" lon="10.5778334"><ele>26.666666666666664</ele><time>2026-04-11T09:50:39.725Z</time></trkpt><trkpt lat="44.9177971" lon="10.5778572"><ele>26.833333333333332</ele><time>2026-04-11T09:50:41.724Z</time></trkpt><trkpt lat="44.9177023" lon="10.5778895"><ele>27.0</ele><time>2026-04-11T09:50:43.723Z</time></trkpt><trkpt lat="44.9175973" lon="10.5779293"><ele>27.200000000000003</ele><time>2026-04-11T09:50:45.724Z</time></trkpt><trkpt lat="44.9174896" lon="10.5779721"><ele>27.400000000000002</ele><time>2026-04-11T09:50:47.724Z</time></trkpt><trkpt lat="44.9173862" lon="10.5780071"><ele>27.599999999999998</ele><time>2026-04-11T09:50:49.724Z</time></trkpt><trkpt lat="44.9172814" lon="10.5780437"><ele>27.799999999999997</ele><time>2026-04-11T09:50:51.724Z</time></trkpt><trkpt lat="44.917172" lon="10.5780862"><ele>28.0</ele><time>2026-04-11T09:50:53.724Z</time></trkpt><trkpt lat="44.917065" lon="10.5781217"><ele>28.0</ele><time>2026-04-11T09:50:55.724Z</time></trkpt><trkpt lat="44.9169533" lon="10.578145"><ele>27.999999999999996</ele><time>2026-04-11T09:50:57.727Z</time></trkpt><trkpt lat="44.916845" lon="10.5781767"><ele>27.999999999999996</ele><time>2026-04-11T09:50:59.724Z</time></trkpt><trkpt lat="44.9167417" lon="10.5782133"><ele>28.0</ele><time>2026-04-11T09:51:01.724Z</time></trkpt><trkpt lat="44.91663" lon="10.5782567"><ele>28.0</ele><time>2026-04-11T09:51:03.724Z</time></trkpt><trkpt lat="44.9165083" lon="10.5783017"><ele>28.0</ele><time>2026-04-11T09:51:05.724Z</time></trkpt><trkpt lat="44.91639" lon="10.5783433"><ele>28.0</ele><time>2026-04-11T09:51:07.724Z</time></trkpt><trkpt lat="44.916275" lon="10.5783867"><ele>28.0</ele><time>2026-04-11T09:51:09.724Z</time></trkpt><trkpt lat="44.9161567" lon="10.578425"><ele>28.0</ele><time>2026-04-11T09:51:11.725Z</time></trkpt><trkpt lat="44.9160367" lon="10.5784617"><ele>28.000000000000004</ele><time>2026-04-11T09:51:13.724Z</time></trkpt><trkpt lat="44.9159167" lon="10.578505"><ele>28.0</ele><time>2026-04-11T09:51:15.724Z</time></trkpt><trkpt lat="44.915855" lon="10.578525"><ele>28.0</ele><time>2026-04-11T09:51:16.725Z</time></trkpt><trkpt lat="44.9157917" lon="10.5785467"><ele>28.0</ele><time>2026-04-11T09:51:17.724Z</time></trkpt><trkpt lat="44.91573" lon="10.5785667"><ele>28.000000000000004</ele><time>2026-04-11T09:51:18.724Z</time></trkpt><trkpt lat="44.915665" lon="10.5785867"><ele>28.0</ele><time>2026-04-11T09:51:19.724Z</time></trkpt><trkpt lat="44.9155983" lon="10.5786067"><ele>28.000000000000004</ele><time>2026-04-11T09:51:20.725Z</time></trkpt><trkpt lat="44.9155333" lon="10.5786283"><ele>28.0</ele><time>2026-04-11T09:51:21.725Z</time></trkpt><trkpt lat="44.9154683" lon="10.57865"><ele>28.0</ele><time>2026-04-11T09:51:22.724Z</time></trkpt><trkpt lat="44.9154067" lon="10.5786717"><ele>28.0</ele><time>2026-04-11T09:51:23.725Z</time></trkpt><trkpt lat="44.91529" lon="10.57871"><ele>28.000000000000004</ele><time>2026-04-11T09:51:25.724Z</time></trkpt><trkpt lat="44.9151783" lon="10.5787417"><ele>28.0</ele><time>2026-04-11T09:51:27.728Z</time></trkpt><trkpt lat="44.9150633" lon="10.578785"><ele>27.799999999999997</ele><time>2026-04-11T09:51:29.726Z</time></trkpt><trkpt lat="44.914945" lon="10.5788233"><ele>27.599999999999998</ele><time>2026-04-11T09:51:31.724Z</time></trkpt><trkpt lat="44.9148217" lon="10.578865"><ele>27.400000000000002</ele><time>2026-04-11T09:51:33.725Z</time></trkpt><trkpt lat="44.91476" lon="10.5788867"><ele>27.200000000000003</ele><time>2026-04-11T09:51:34.724Z</time></trkpt><trkpt lat="44.9146417" lon="10.57893"><ele>27.0</ele><time>2026-04-11T09:51:36.725Z</time></trkpt><trkpt lat="44.9145217" lon="10.5789717"><ele>27.0</ele><time>2026-04-11T09:51:38.725Z</time></trkpt><trkpt lat="44.91446" lon="10.5789933"><ele>27.0</ele><time>2026-04-11T09:51:39.725Z</time></trkpt><trkpt lat="44.914395" lon="10.579015"><ele>27.0</ele><time>2026-04-11T09:51:40.724Z</time></trkpt><trkpt lat="44.9143333" lon="10.5790367"><ele>27.0</ele><time>2026-04-11T09:51:41.727Z</time></trkpt><trkpt lat="44.9142183" lon="10.579075"><ele>27.0</ele><time>2026-04-11T09:51:43.725Z</time></trkpt><trkpt lat="44.9141067" lon="10.5791133"><ele>27.0</ele><time>2026-04-11T09:51:45.725Z</time></trkpt><trkpt lat="44.9139933" lon="10.5791517"><ele>26.8</ele><time>2026-04-11T09:51:47.724Z</time></trkpt><trkpt lat="44.913875" lon="10.5791883"><ele>26.6</ele><time>2026-04-11T09:51:49.725Z</time></trkpt><trkpt lat="44.91377" lon="10.57922"><ele>26.400000000000002</ele><time>2026-04-11T09:51:51.724Z</time></trkpt><trkpt lat="44.913665" lon="10.5792567"><ele>26.200000000000003</ele><time>2026-04-11T09:51:53.725Z</time></trkpt><trkpt lat="44.91356" lon="10.579295"><ele>26.0</ele><time>2026-04-11T09:51:55.725Z</time></trkpt><trkpt lat="44.9134583" lon="10.5793333"><ele>26.333333333333332</ele><time>2026-04-11T09:51:57.725Z</time></trkpt><trkpt lat="44.913355" lon="10.5793683"><ele>26.666666666666664</ele><time>2026-04-11T09:51:59.724Z</time></trkpt><trkpt lat="44.913265" lon="10.5793983"><ele>27.0</ele><time>2026-04-11T09:52:01.725Z</time></trkpt><trkpt lat="44.9131933" lon="10.579415"><ele>27.333333333333336</ele><time>2026-04-11T09:52:03.725Z</time></trkpt><trkpt lat="44.91313" lon="10.5794133"><ele>27.666666666666668</ele><time>2026-04-11T09:52:09.726Z</time></trkpt><trkpt lat="44.9130783" lon="10.57932"><ele>28.0</ele><time>2026-04-11T09:52:12.725Z</time></trkpt><trkpt lat="44.9130383" lon="10.5790783"><ele>28.0</ele><time>2026-04-11T09:52:14.725Z</time></trkpt><trkpt lat="44.9130017" lon="10.5789067"><ele>28.0</ele><time>2026-04-11T09:52:15.724Z</time></trkpt><trkpt lat="44.912965" lon="10.5787367"><ele>28.0</ele><time>2026-04-11T09:52:16.724Z</time></trkpt><trkpt lat="44.9129433" lon="10.5785717"><ele>28.0</ele><time>2026-04-11T09:52:17.724Z</time></trkpt><trkpt lat="44.9129333" lon="10.578415"><ele>27.2</ele><time>2026-04-11T09:52:18.724Z</time></trkpt><trkpt lat="44.9129333" lon="10.5782667"><ele>26.4</ele><time>2026-04-11T09:52:19.724Z</time></trkpt><trkpt lat="44.9129367" lon="10.578125"><ele>25.599999999999998</ele><time>2026-04-11T09:52:20.725Z</time></trkpt><trkpt lat="44.912945" lon="10.5779817"><ele>24.799999999999997</ele><time>2026-04-11T09:52:21.725Z</time></trkpt><trkpt lat="44.9129483" lon="10.5778367"><ele>24.0</ele><time>2026-04-11T09:52:22.724Z</time></trkpt><trkpt lat="44.912955" lon="10.5776867"><ele>23.799999999999997</ele><time>2026-04-11T09:52:23.724Z</time></trkpt><trkpt lat="44.9129633" lon="10.5775317"><ele>23.599999999999998</ele><time>2026-04-11T09:52:24.725Z</time></trkpt><trkpt lat="44.9129717" lon="10.577375"><ele>23.4</ele><time>2026-04-11T09:52:25.725Z</time></trkpt><trkpt lat="44.9129817" lon="10.5772283"><ele>23.2</ele><time>2026-04-11T09:52:26.724Z</time></trkpt><trkpt lat="44.9129883" lon="10.5770867"><ele>23.0</ele><time>2026-04-11T09:52:27.725Z</time></trkpt><trkpt lat="44.912995" lon="10.5769533"><ele>23.0</ele><time>2026-04-11T09:52:28.725Z</time></trkpt><trkpt lat="44.9130017" lon="10.5768217"><ele>23.0</ele><time>2026-04-11T09:52:29.724Z</time></trkpt><trkpt lat="44.913005" lon="10.576695"><ele>23.0</ele><time>2026-04-11T09:52:30.725Z</time></trkpt><trkpt lat="44.9130083" lon="10.5765783"><ele>23.0</ele><time>2026-04-11T09:52:31.724Z</time></trkpt><trkpt lat="44.9130133" lon="10.57646"><ele>23.0</ele><time>2026-04-11T09:52:32.724Z</time></trkpt><trkpt lat="44.91302" lon="10.5763433"><ele>23.0</ele><time>2026-04-11T09:52:33.724Z</time></trkpt><trkpt lat="44.91303" lon="10.5762233"><ele>23.42857142857143</ele><time>2026-04-11T09:52:34.723Z</time></trkpt><trkpt lat="44.91304" lon="10.5761117"><ele>23.857142857142854</ele><time>2026-04-11T09:52:35.725Z</time></trkpt><trkpt lat="44.913045" lon="10.5760083"><ele>24.285714285714285</ele><time>2026-04-11T09:52:36.725Z</time></trkpt><trkpt lat="44.9130467" lon="10.5759033"><ele>24.714285714285715</ele><time>2026-04-11T09:52:37.724Z</time></trkpt><trkpt lat="44.9130467" lon="10.5758017"><ele>25.142857142857146</ele><time>2026-04-11T09:52:38.724Z</time></trkpt><trkpt lat="44.9130483" lon="10.5757017"><ele>25.57142857142857</ele><time>2026-04-11T09:52:39.725Z</time></trkpt><trkpt lat="44.91305" lon="10.5755983"><ele>26.0</ele><time>2026-04-11T09:52:40.724Z</time></trkpt><trkpt lat="44.9130517" lon="10.5754983"><ele>25.999999999999996</ele><time>2026-04-11T09:52:41.725Z</time></trkpt><trkpt lat="44.9130517" lon="10.575395"><ele>26.0</ele><time>2026-04-11T09:52:42.724Z</time></trkpt><trkpt lat="44.9130517" lon="10.57529"><ele>26.0</ele><time>2026-04-11T09:52:43.725Z</time></trkpt><trkpt lat="44.9130517" lon="10.57518"><ele>26.0</ele><time>2026-04-11T09:52:44.724Z</time></trkpt><trkpt lat="44.9130517" lon="10.5750683"><ele>25.999999999999996</ele><time>2026-04-11T09:52:45.726Z</time></trkpt><trkpt lat="44.9130533" lon="10.5749617"><ele>26.0</ele><time>2026-04-11T09:52:46.724Z</time></trkpt><trkpt lat="44.9130567" lon="10.57485"><ele>25.833333333333332</ele><time>2026-04-11T09:52:47.725Z</time></trkpt><trkpt lat="44.9130617" lon="10.5747333"><ele>25.666666666666664</ele><time>2026-04-11T09:52:48.725Z</time></trkpt><trkpt lat="44.9130667" lon="10.574615"><ele>25.5</ele><time>2026-04-11T09:52:49.724Z</time></trkpt><trkpt lat="44.9130733" lon="10.5744983"><ele>25.333333333333336</ele><time>2026-04-11T09:52:50.724Z</time></trkpt><trkpt lat="44.9130783" lon="10.5743867"><ele>25.166666666666668</ele><time>2026-04-11T09:52:51.725Z</time></trkpt><trkpt lat="44.9130833" lon="10.5742767"><ele>25.0</ele><time>2026-04-11T09:52:52.725Z</time></trkpt><trkpt lat="44.9130883" lon="10.5741667"><ele>24.857142857142858</ele><time>2026-04-11T09:52:53.725Z</time></trkpt><trkpt lat="44.91309" lon="10.5740583"><ele>24.714285714285715</ele><time>2026-04-11T09:52:54.725Z</time></trkpt><trkpt lat="44.9130933" lon="10.5739517"><ele>24.57142857142857</ele><time>2026-04-11T09:52:55.725Z</time></trkpt><trkpt lat="44.9131" lon="10.5738483"><ele>24.42857142857143</ele><time>2026-04-11T09:52:56.725Z</time></trkpt><trkpt lat="44.913105" lon="10.573745"><ele>24.285714285714285</ele><time>2026-04-11T09:52:57.725Z</time></trkpt><trkpt lat="44.91311" lon="10.57365"><ele>24.142857142857142</ele><time>2026-04-11T09:52:58.725Z</time></trkpt><trkpt lat="44.9131183" lon="10.5735533"><ele>24.0</ele><time>2026-04-11T09:52:59.724Z</time></trkpt><trkpt lat="44.9131283" lon="10.5734517"><ele>24.0</ele><time>2026-04-11T09:53:00.723Z</time></trkpt><trkpt lat="44.9131383" lon="10.5733433"><ele>24.0</ele><time>2026-04-11T09:53:01.724Z</time></trkpt><trkpt lat="44.9131467" lon="10.5732267"><ele>24.0</ele><time>2026-04-11T09:53:02.726Z</time></trkpt><trkpt lat="44.9131533" lon="10.5731067"><ele>24.0</ele><time>2026-04-11T09:53:03.726Z</time></trkpt><trkpt lat="44.9131583" lon="10.5729833"><ele>24.0</ele><time>2026-04-11T09:53:04.726Z</time></trkpt><trkpt lat="44.9131633" lon="10.5728567"><ele>24.0</ele><time>2026-04-11T09:53:05.726Z</time></trkpt><trkpt lat="44.9131683" lon="10.57273"><ele>24.0</ele><time>2026-04-11T09:53:06.727Z</time></trkpt><trkpt lat="44.91317" lon="10.5726117"><ele>24.0</ele><time>2026-04-11T09:53:07.726Z</time></trkpt><trkpt lat="44.913175" lon="10.5724967"><ele>24.0</ele><time>2026-04-11T09:53:08.724Z</time></trkpt><trkpt lat="44.9131767" lon="10.5723817"><ele>24.0</ele><time>2026-04-11T09:53:09.725Z</time></trkpt><trkpt lat="44.9131767" lon="10.5722683"><ele>24.0</ele><time>2026-04-11T09:53:10.725Z</time></trkpt><trkpt lat="44.913175" lon="10.572155"><ele>24.0</ele><time>2026-04-11T09:53:11.724Z</time></trkpt><trkpt lat="44.913175" lon="10.5720383"><ele>24.333333333333332</ele><time>2026-04-11T09:53:12.725Z</time></trkpt><trkpt lat="44.9131767" lon="10.5719183"><ele>24.666666666666664</ele><time>2026-04-11T09:53:13.724Z</time></trkpt><trkpt lat="44.913175" lon="10.5718"><ele>25.0</ele><time>2026-04-11T09:53:14.724Z</time></trkpt><trkpt lat="44.913175" lon="10.57169"><ele>25.333333333333332</ele><time>2026-04-11T09:53:15.724Z</time></trkpt><trkpt lat="44.91318" lon="10.5715817"><ele>25.666666666666664</ele><time>2026-04-11T09:53:16.725Z</time></trkpt><trkpt lat="44.9131833" lon="10.5714683"><ele>26.0</ele><time>2026-04-11T09:53:17.725Z</time></trkpt><trkpt lat="44.9131867" lon="10.5713467"><ele>25.999999999999996</ele><time>2026-04-11T09:53:18.725Z</time></trkpt><trkpt lat="44.9131883" lon="10.5712183"><ele>26.0</ele><time>2026-04-11T09:53:19.725Z</time></trkpt><trkpt lat="44.91319" lon="10.5710917"><ele>26.0</ele><time>2026-04-11T09:53:20.725Z</time></trkpt><trkpt lat="44.9131867" lon="10.57097"><ele>26.0</ele><time>2026-04-11T09:53:21.725Z</time></trkpt><trkpt lat="44.913185" lon="10.5708467"><ele>25.999999999999996</ele><time>2026-04-11T09:53:22.724Z</time></trkpt><trkpt lat="44.9131817" lon="10.570725"><ele>26.0</ele><time>2026-04-11T09:53:23.723Z</time></trkpt><trkpt lat="44.9131783" lon="10.570605"><ele>26.0</ele><time>2026-04-11T09:53:24.725Z</time></trkpt><trkpt lat="44.913175" lon="10.5704817"><ele>26.0</ele><time>2026-04-11T09:53:25.726Z</time></trkpt><trkpt lat="44.9131717" lon="10.5703517"><ele>26.0</ele><time>2026-04-11T09:53:26.723Z</time></trkpt><trkpt lat="44.9131667" lon="10.5702233"><ele>26.0</ele><time>2026-04-11T09:53:27.724Z</time></trkpt><trkpt lat="44.9131583" lon="10.570095"><ele>26.0</ele><time>2026-04-11T09:53:28.724Z</time></trkpt><trkpt lat="44.91315" lon="10.5699667"><ele>25.666666666666664</ele><time>2026-04-11T09:53:29.724Z</time></trkpt><trkpt lat="44.9131433" lon="10.5698383"><ele>25.333333333333332</ele><time>2026-04-11T09:53:30.725Z</time></trkpt><trkpt lat="44.9131317" lon="10.5697117"><ele>25.0</ele><time>2026-04-11T09:53:31.724Z</time></trkpt><trkpt lat="44.91312" lon="10.5695917"><ele>24.666666666666664</ele><time>2026-04-11T09:53:32.725Z</time></trkpt><trkpt lat="44.91311" lon="10.569475"><ele>24.333333333333332</ele><time>2026-04-11T09:53:33.724Z</time></trkpt><trkpt lat="44.9130983" lon="10.5693683"><ele>24.0</ele><time>2026-04-11T09:53:34.723Z</time></trkpt><trkpt lat="44.9130917" lon="10.5692633"><ele>24.0</ele><time>2026-04-11T09:53:35.724Z</time></trkpt><trkpt lat="44.9130867" lon="10.56916"><ele>24.0</ele><time>2026-04-11T09:53:36.723Z</time></trkpt><trkpt lat="44.91308" lon="10.5690617"><ele>24.0</ele><time>2026-04-11T09:53:37.724Z</time></trkpt><trkpt lat="44.9130733" lon="10.5689583"><ele>24.0</ele><time>2026-04-11T09:53:38.725Z</time></trkpt><trkpt lat="44.9130633" lon="10.5688533"><ele>24.0</ele><time>2026-04-11T09:53:39.725Z</time></trkpt><trkpt lat="44.91305" lon="10.5687417"><ele>24.0</ele><time>2026-04-11T09:53:40.725Z</time></trkpt><trkpt lat="44.91304" lon="10.5686267"><ele>24.0</ele><time>2026-04-11T09:53:41.724Z</time></trkpt><trkpt lat="44.91303" lon="10.56851"><ele>24.0</ele><time>2026-04-11T09:53:42.725Z</time></trkpt><trkpt lat="44.9130183" lon="10.5683883"><ele>24.0</ele><time>2026-04-11T09:53:43.724Z</time></trkpt><trkpt lat="44.913005" lon="10.56826"><ele>24.0</ele><time>2026-04-11T09:53:44.725Z</time></trkpt><trkpt lat="44.9129883" lon="10.5681283"><ele>24.0</ele><time>2026-04-11T09:53:45.725Z</time></trkpt><trkpt lat="44.91297" lon="10.567995"><ele>23.6</ele><time>2026-04-11T09:53:46.724Z</time></trkpt><trkpt lat="44.9129533" lon="10.56786"><ele>23.2</ele><time>2026-04-11T09:53:47.725Z</time></trkpt><trkpt lat="44.9129333" lon="10.56772"><ele>22.8</ele><time>2026-04-11T09:53:48.724Z</time></trkpt><trkpt lat="44.9129133" lon="10.5675817"><ele>22.400000000000002</ele><time>2026-04-11T09:53:49.724Z</time></trkpt><trkpt lat="44.9128983" lon="10.5674517"><ele>22.0</ele><time>2026-04-11T09:53:50.724Z</time></trkpt><trkpt lat="44.9128867" lon="10.5673283"><ele>22.0</ele><time>2026-04-11T09:53:51.726Z</time></trkpt><trkpt lat="44.9128733" lon="10.5672133"><ele>22.0</ele><time>2026-04-11T09:53:52.723Z</time></trkpt><trkpt lat="44.9128583" lon="10.5670967"><ele>22.0</ele><time>2026-04-11T09:53:53.724Z</time></trkpt><trkpt lat="44.9128467" lon="10.5669867"><ele>22.0</ele><time>2026-04-11T09:53:54.724Z</time></trkpt><trkpt lat="44.9128367" lon="10.566875"><ele>22.0</ele><time>2026-04-11T09:53:55.725Z</time></trkpt><trkpt lat="44.9128267" lon="10.5667717"><ele>22.0</ele><time>2026-04-11T09:53:56.724Z</time></trkpt><trkpt lat="44.9128167" lon="10.566675"><ele>22.166666666666664</ele><time>2026-04-11T09:53:57.725Z</time></trkpt><trkpt lat="44.9127967" lon="10.5665267"><ele>22.333333333333332</ele><time>2026-04-11T09:53:59.724Z</time></trkpt><trkpt lat="44.912785" lon="10.5664317"><ele>22.5</ele><time>2026-04-11T09:54:01.724Z</time></trkpt><trkpt lat="44.9127783" lon="10.566275"><ele>22.666666666666668</ele><time>2026-04-11T09:57:42.722Z</time></trkpt><trkpt lat="44.9127633" lon="10.5661883"><ele>22.833333333333336</ele><time>2026-04-11T09:57:43.723Z</time></trkpt><trkpt lat="44.9127483" lon="10.5660967"><ele>23.0</ele><time>2026-04-11T09:57:44.723Z</time></trkpt><trkpt lat="44.9127183" lon="10.5659217"><ele>23.599999999999998</ele><time>2026-04-11T09:57:46.723Z</time></trkpt><trkpt lat="44.9127033" lon="10.5658283"><ele>24.2</ele><time>2026-04-11T09:57:47.724Z</time></trkpt><trkpt lat="44.9126833" lon="10.565725"><ele>24.8</ele><time>2026-04-11T09:57:48.723Z</time></trkpt><trkpt lat="44.912655" lon="10.5655633"><ele>25.4</ele><time>2026-04-11T09:57:49.725Z</time></trkpt><trkpt lat="44.9126233" lon="10.5653833"><ele>26.0</ele><time>2026-04-11T09:57:50.723Z</time></trkpt><trkpt lat="44.9125933" lon="10.565215"><ele>25.8</ele><time>2026-04-11T09:57:51.724Z</time></trkpt><trkpt lat="44.912565" lon="10.5650667"><ele>25.6</ele><time>2026-04-11T09:57:52.723Z</time></trkpt><trkpt lat="44.91254" lon="10.5649283"><ele>25.4</ele><time>2026-04-11T09:57:53.724Z</time></trkpt><trkpt lat="44.9125133" lon="10.5647967"><ele>25.2</ele><time>2026-04-11T09:57:54.723Z</time></trkpt><trkpt lat="44.9124867" lon="10.56467"><ele>25.0</ele><time>2026-04-11T09:57:55.724Z</time></trkpt><trkpt lat="44.9124567" lon="10.5645483"><ele>24.833333333333336</ele><time>2026-04-11T09:57:56.723Z</time></trkpt><trkpt lat="44.912425" lon="10.56443"><ele>24.666666666666668</ele><time>2026-04-11T09:57:57.724Z</time></trkpt><trkpt lat="44.912395" lon="10.5643133"><ele>24.5</ele><time>2026-04-11T09:57:58.722Z</time></trkpt><trkpt lat="44.9123667" lon="10.5641983"><ele>24.333333333333336</ele><time>2026-04-11T09:57:59.724Z</time></trkpt><trkpt lat="44.9123417" lon="10.56408"><ele>24.166666666666668</ele><time>2026-04-11T09:58:00.724Z</time></trkpt><trkpt lat="44.9123183" lon="10.56396"><ele>24.0</ele><time>2026-04-11T09:58:01.723Z</time></trkpt><trkpt lat="44.9122983" lon="10.56383"><ele>24.2</ele><time>2026-04-11T09:58:02.724Z</time></trkpt><trkpt lat="44.91228" lon="10.5636967"><ele>24.4</ele><time>2026-04-11T09:58:03.724Z</time></trkpt><trkpt lat="44.91226" lon="10.56356"><ele>24.6</ele><time>2026-04-11T09:58:04.723Z</time></trkpt><trkpt lat="44.9122417" lon="10.5634217"><ele>24.8</ele><time>2026-04-11T09:58:05.723Z</time></trkpt><trkpt lat="44.912225" lon="10.5632817"><ele>25.0</ele><time>2026-04-11T09:58:06.722Z</time></trkpt><trkpt lat="44.9122117" lon="10.5631433"><ele>25.0</ele><time>2026-04-11T09:58:07.724Z</time></trkpt><trkpt lat="44.9122067" lon="10.56301"><ele>25.0</ele><time>2026-04-11T09:58:08.723Z</time></trkpt><trkpt lat="44.9122033" lon="10.5628767"><ele>25.0</ele><time>2026-04-11T09:58:09.725Z</time></trkpt><trkpt lat="44.9122" lon="10.5627433"><ele>25.0</ele><time>2026-04-11T09:58:10.724Z</time></trkpt><trkpt lat="44.9121967" lon="10.562615"><ele>25.0</ele><time>2026-04-11T09:58:11.724Z</time></trkpt><trkpt lat="44.9121933" lon="10.5624917"><ele>25.000000000000004</ele><time>2026-04-11T09:58:12.724Z</time></trkpt><trkpt lat="44.91219" lon="10.562365"><ele>25.0</ele><time>2026-04-11T09:58:13.724Z</time></trkpt><trkpt lat="44.9121867" lon="10.5622417"><ele>25.0</ele><time>2026-04-11T09:58:14.724Z</time></trkpt><trkpt lat="44.9121833" lon="10.5621233"><ele>25.0</ele><time>2026-04-11T09:58:15.724Z</time></trkpt><trkpt lat="44.9121783" lon="10.5620067"><ele>25.000000000000004</ele><time>2026-04-11T09:58:16.723Z</time></trkpt><trkpt lat="44.9121717" lon="10.5618917"><ele>25.0</ele><time>2026-04-11T09:58:17.725Z</time></trkpt><trkpt lat="44.9121667" lon="10.5617767"><ele>25.0</ele><time>2026-04-11T09:58:18.724Z</time></trkpt><trkpt lat="44.91216" lon="10.5616583"><ele>25.0</ele><time>2026-04-11T09:58:19.724Z</time></trkpt><trkpt lat="44.9121483" lon="10.56154"><ele>25.0</ele><time>2026-04-11T09:58:20.724Z</time></trkpt><trkpt lat="44.9121317" lon="10.561415"><ele>25.0</ele><time>2026-04-11T09:58:21.725Z</time></trkpt><trkpt lat="44.9121067" lon="10.5612833"><ele>25.0</ele><time>2026-04-11T09:58:22.723Z</time></trkpt><trkpt lat="44.9120767" lon="10.5611517"><ele>25.0</ele><time>2026-04-11T09:58:23.724Z</time></trkpt><trkpt lat="44.91204" lon="10.56102"><ele>25.0</ele><time>2026-04-11T09:58:24.723Z</time></trkpt><trkpt lat="44.9119983" lon="10.5608883"><ele>25.0</ele><time>2026-04-11T09:58:25.724Z</time></trkpt><trkpt lat="44.9119517" lon="10.56076"><ele>25.0</ele><time>2026-04-11T09:58:26.725Z</time></trkpt><trkpt lat="44.9119083" lon="10.5606267"><ele>25.0</ele><time>2026-04-11T09:58:27.725Z</time></trkpt><trkpt lat="44.9118683" lon="10.56048"><ele>25.0</ele><time>2026-04-11T09:58:28.724Z</time></trkpt><trkpt lat="44.9118333" lon="10.5603367"><ele>25.0</ele><time>2026-04-11T09:58:29.725Z</time></trkpt><trkpt lat="44.9118033" lon="10.560195"><ele>25.0</ele><time>2026-04-11T09:58:30.725Z</time></trkpt><trkpt lat="44.9117767" lon="10.5600533"><ele>25.0</ele><time>2026-04-11T09:58:31.724Z</time></trkpt><trkpt lat="44.91175" lon="10.5599133"><ele>25.0</ele><time>2026-04-11T09:58:32.724Z</time></trkpt><trkpt lat="44.911725" lon="10.5597783"><ele>24.333333333333336</ele><time>2026-04-11T09:58:33.725Z</time></trkpt><trkpt lat="44.9117033" lon="10.5596483"><ele>23.666666666666668</ele><time>2026-04-11T09:58:34.724Z</time></trkpt><trkpt lat="44.911685" lon="10.5595283"><ele>23.0</ele><time>2026-04-11T09:58:35.724Z</time></trkpt><trkpt lat="44.9116667" lon="10.5594117"><ele>22.333333333333336</ele><time>2026-04-11T09:58:36.724Z</time></trkpt><trkpt lat="44.91165" lon="10.5592917"><ele>21.666666666666668</ele><time>2026-04-11T09:58:37.724Z</time></trkpt><trkpt lat="44.9116367" lon="10.559175"><ele>21.0</ele><time>2026-04-11T09:58:38.724Z</time></trkpt><trkpt lat="44.9116233" lon="10.5590567"><ele>20.833333333333332</ele><time>2026-04-11T09:58:39.724Z</time></trkpt><trkpt lat="44.911615" lon="10.558945"><ele>20.666666666666668</ele><time>2026-04-11T09:58:40.724Z</time></trkpt><trkpt lat="44.9116083" lon="10.5588317"><ele>20.5</ele><time>2026-04-11T09:58:41.723Z</time></trkpt><trkpt lat="44.911605" lon="10.5587183"><ele>20.333333333333336</ele><time>2026-04-11T09:58:42.723Z</time></trkpt><trkpt lat="44.91161" lon="10.558605"><ele>20.166666666666668</ele><time>2026-04-11T09:58:43.724Z</time></trkpt><trkpt lat="44.9116167" lon="10.5584983"><ele>20.0</ele><time>2026-04-11T09:58:44.723Z</time></trkpt><trkpt lat="44.9116167" lon="10.5583983"><ele>19.857142857142858</ele><time>2026-04-11T09:58:45.725Z</time></trkpt><trkpt lat="44.9116117" lon="10.5583033"><ele>19.714285714285715</ele><time>2026-04-11T09:58:46.722Z</time></trkpt><trkpt lat="44.9116" lon="10.558205"><ele>19.57142857142857</ele><time>2026-04-11T09:58:47.724Z</time></trkpt><trkpt lat="44.911585" lon="10.55811"><ele>19.42857142857143</ele><time>2026-04-11T09:58:48.724Z</time></trkpt><trkpt lat="44.9115667" lon="10.5580133"><ele>19.28571428571429</ele><time>2026-04-11T09:58:49.724Z</time></trkpt><trkpt lat="44.91155" lon="10.55792"><ele>19.142857142857142</ele><time>2026-04-11T09:58:50.724Z</time></trkpt><trkpt lat="44.9115383" lon="10.5578267"><ele>19.0</ele><time>2026-04-11T09:58:51.724Z</time></trkpt><trkpt lat="44.9115283" lon="10.5577317"><ele>19.5</ele><time>2026-04-11T09:58:52.724Z</time></trkpt><trkpt lat="44.9115183" lon="10.557635"><ele>20.0</ele><time>2026-04-11T09:58:53.724Z</time></trkpt><trkpt lat="44.9115083" lon="10.557535"><ele>20.5</ele><time>2026-04-11T09:58:54.725Z</time></trkpt><trkpt lat="44.9114967" lon="10.5574283"><ele>21.0</ele><time>2026-04-11T09:58:55.724Z</time></trkpt><trkpt lat="44.9114833" lon="10.5573067"><ele>21.5</ele><time>2026-04-11T09:58:56.724Z</time></trkpt><trkpt lat="44.91146" lon="10.55717"><ele>22.0</ele><time>2026-04-11T09:58:57.725Z</time></trkpt><trkpt lat="44.91144" lon="10.5570217"><ele>22.0</ele><time>2026-04-11T09:58:58.724Z</time></trkpt><trkpt lat="44.9114217" lon="10.556875"><ele>22.0</ele><time>2026-04-11T09:58:59.723Z</time></trkpt><trkpt lat="44.911405" lon="10.5567333"><ele>22.0</ele><time>2026-04-11T09:59:00.724Z</time></trkpt><trkpt lat="44.91139" lon="10.5565933"><ele>22.0</ele><time>2026-04-11T09:59:01.725Z</time></trkpt><trkpt lat="44.9113767" lon="10.5564598"><ele>22.0</ele><time>2026-04-11T09:59:02.723Z</time></trkpt><trkpt lat="44.9113725" lon="10.5563278"><ele>22.333333333333332</ele><time>2026-04-11T09:59:03.725Z</time></trkpt><trkpt lat="44.911372" lon="10.5561977"><ele>22.666666666666664</ele><time>2026-04-11T09:59:04.724Z</time></trkpt><trkpt lat="44.911377" lon="10.556069"><ele>23.0</ele><time>2026-04-11T09:59:05.723Z</time></trkpt><trkpt lat="44.9113815" lon="10.5559422"><ele>23.333333333333332</ele><time>2026-04-11T09:59:06.722Z</time></trkpt><trkpt lat="44.9113867" lon="10.5558179"><ele>23.666666666666668</ele><time>2026-04-11T09:59:07.725Z</time></trkpt><trkpt lat="44.9113924" lon="10.5556966"><ele>24.0</ele><time>2026-04-11T09:59:08.723Z</time></trkpt><trkpt lat="44.9113949" lon="10.5555761"><ele>24.0</ele><time>2026-04-11T09:59:09.725Z</time></trkpt><trkpt lat="44.9113918" lon="10.5554626"><ele>24.0</ele><time>2026-04-11T09:59:10.724Z</time></trkpt><trkpt lat="44.9113879" lon="10.5553498"><ele>24.0</ele><time>2026-04-11T09:59:11.724Z</time></trkpt><trkpt lat="44.9113825" lon="10.5552299"><ele>24.0</ele><time>2026-04-11T09:59:12.724Z</time></trkpt><trkpt lat="44.9113741" lon="10.5551023"><ele>24.0</ele><time>2026-04-11T09:59:13.725Z</time></trkpt><trkpt lat="44.9113723" lon="10.5549701"><ele>24.0</ele><time>2026-04-11T09:59:14.724Z</time></trkpt><trkpt lat="44.9113786" lon="10.5548333"><ele>24.0</ele><time>2026-04-11T09:59:15.725Z</time></trkpt><trkpt lat="44.9113933" lon="10.5546967"><ele>24.0</ele><time>2026-04-11T09:59:16.723Z</time></trkpt><trkpt lat="44.9114141" lon="10.5545544"><ele>24.0</ele><time>2026-04-11T09:59:17.724Z</time></trkpt><trkpt lat="44.9114372" lon="10.5544056"><ele>24.0</ele><time>2026-04-11T09:59:18.724Z</time></trkpt><trkpt lat="44.91146" lon="10.5542607"><ele>24.0</ele><time>2026-04-11T09:59:19.724Z</time></trkpt><trkpt lat="44.9114821" lon="10.5541157"><ele>23.799999999999997</ele><time>2026-04-11T09:59:20.724Z</time></trkpt><trkpt lat="44.9115014" lon="10.553971"><ele>23.599999999999998</ele><time>2026-04-11T09:59:21.724Z</time></trkpt><trkpt lat="44.9115199" lon="10.5538259"><ele>23.4</ele><time>2026-04-11T09:59:22.724Z</time></trkpt><trkpt lat="44.9115332" lon="10.553682"><ele>23.2</ele><time>2026-04-11T09:59:23.724Z</time></trkpt><trkpt lat="44.9115412" lon="10.5535384"><ele>23.0</ele><time>2026-04-11T09:59:24.724Z</time></trkpt><trkpt lat="44.9115526" lon="10.5533976"><ele>22.799999999999997</ele><time>2026-04-11T09:59:25.724Z</time></trkpt><trkpt lat="44.9115707" lon="10.5532585"><ele>22.6</ele><time>2026-04-11T09:59:26.724Z</time></trkpt><trkpt lat="44.9115898" lon="10.5531173"><ele>22.4</ele><time>2026-04-11T09:59:27.724Z</time></trkpt><trkpt lat="44.9116078" lon="10.5529782"><ele>22.200000000000003</ele><time>2026-04-11T09:59:28.724Z</time></trkpt><trkpt lat="44.9116263" lon="10.5528328"><ele>22.0</ele><time>2026-04-11T09:59:29.724Z</time></trkpt><trkpt lat="44.9116466" lon="10.5526875"><ele>22.0</ele><time>2026-04-11T09:59:30.724Z</time></trkpt><trkpt lat="44.9116644" lon="10.5525423"><ele>22.0</ele><time>2026-04-11T09:59:31.724Z</time></trkpt><trkpt lat="44.9116852" lon="10.5523948"><ele>22.0</ele><time>2026-04-11T09:59:32.724Z</time></trkpt><trkpt lat="44.9117084" lon="10.5522462"><ele>22.0</ele><time>2026-04-11T09:59:33.725Z</time></trkpt><trkpt lat="44.9117293" lon="10.5520985"><ele>22.0</ele><time>2026-04-11T09:59:34.724Z</time></trkpt><trkpt lat="44.9117471" lon="10.5519505"><ele>22.400000000000002</ele><time>2026-04-11T09:59:35.724Z</time></trkpt><trkpt lat="44.9117645" lon="10.5518049"><ele>22.8</ele><time>2026-04-11T09:59:36.724Z</time></trkpt><trkpt lat="44.9117812" lon="10.5516642"><ele>23.2</ele><time>2026-04-11T09:59:37.725Z</time></trkpt><trkpt lat="44.9117951" lon="10.5515275"><ele>23.6</ele><time>2026-04-11T09:59:38.722Z</time></trkpt><trkpt lat="44.9118069" lon="10.5513916"><ele>24.0</ele><time>2026-04-11T09:59:39.725Z</time></trkpt><trkpt lat="44.9118184" lon="10.5512531"><ele>24.0</ele><time>2026-04-11T09:59:40.724Z</time></trkpt><trkpt lat="44.911831" lon="10.5511135"><ele>24.0</ele><time>2026-04-11T09:59:41.724Z</time></trkpt><trkpt lat="44.9118425" lon="10.550976"><ele>24.0</ele><time>2026-04-11T09:59:42.725Z</time></trkpt><trkpt lat="44.911841" lon="10.5508448"><ele>24.0</ele><time>2026-04-11T09:59:43.725Z</time></trkpt><trkpt lat="44.9118306" lon="10.5507177"><ele>24.0</ele><time>2026-04-11T09:59:44.724Z</time></trkpt><trkpt lat="44.9118167" lon="10.5505954"><ele>24.0</ele><time>2026-04-11T09:59:45.724Z</time></trkpt><trkpt lat="44.9117951" lon="10.5504799"><ele>24.0</ele><time>2026-04-11T09:59:46.724Z</time></trkpt><trkpt lat="44.9117721" lon="10.5503668"><ele>24.0</ele><time>2026-04-11T09:59:47.725Z</time></trkpt><trkpt lat="44.911748" lon="10.5502597"><ele>24.0</ele><time>2026-04-11T09:59:48.725Z</time></trkpt><trkpt lat="44.9117252" lon="10.5501578"><ele>24.0</ele><time>2026-04-11T09:59:49.724Z</time></trkpt><trkpt lat="44.911702" lon="10.5500581"><ele>24.0</ele><time>2026-04-11T09:59:50.724Z</time></trkpt><trkpt lat="44.9116825" lon="10.5499551"><ele>24.0</ele><time>2026-04-11T09:59:51.725Z</time></trkpt><trkpt lat="44.9116642" lon="10.5498496"><ele>24.0</ele><time>2026-04-11T09:59:52.724Z</time></trkpt><trkpt lat="44.9116468" lon="10.5497388"><ele>24.0</ele><time>2026-04-11T09:59:53.724Z</time></trkpt><trkpt lat="44.9116362" lon="10.5496255"><ele>24.0</ele><time>2026-04-11T09:59:54.724Z</time></trkpt><trkpt lat="44.9116392" lon="10.5495076"><ele>24.0</ele><time>2026-04-11T09:59:55.724Z</time></trkpt><trkpt lat="44.911656" lon="10.5493807"><ele>24.0</ele><time>2026-04-11T09:59:56.724Z</time></trkpt><trkpt lat="44.9116867" lon="10.5492468"><ele>24.0</ele><time>2026-04-11T09:59:57.725Z</time></trkpt><trkpt lat="44.9117205" lon="10.5491097"><ele>24.0</ele><time>2026-04-11T09:59:58.724Z</time></trkpt><trkpt lat="44.9117561" lon="10.5489765"><ele>24.0</ele><time>2026-04-11T09:59:59.724Z</time></trkpt><trkpt lat="44.9117917" lon="10.5488431"><ele>24.0</ele><time>2026-04-11T10:00:00.725Z</time></trkpt><trkpt lat="44.9118269" lon="10.5487081"><ele>24.0</ele><time>2026-04-11T10:00:01.724Z</time></trkpt><trkpt lat="44.9118607" lon="10.5485703"><ele>24.0</ele><time>2026-04-11T10:00:02.723Z</time></trkpt><trkpt lat="44.9118952" lon="10.5484276"><ele>24.0</ele><time>2026-04-11T10:00:03.725Z</time></trkpt><trkpt lat="44.911929" lon="10.5482842"><ele>24.0</ele><time>2026-04-11T10:00:04.724Z</time></trkpt><trkpt lat="44.911964" lon="10.5481422"><ele>24.0</ele><time>2026-04-11T10:00:05.724Z</time></trkpt><trkpt lat="44.9120005" lon="10.5480062"><ele>24.0</ele><time>2026-04-11T10:00:06.724Z</time></trkpt><trkpt lat="44.9120347" lon="10.547873"><ele>24.2</ele><time>2026-04-11T10:00:07.724Z</time></trkpt><trkpt lat="44.9120666" lon="10.5477414"><ele>24.4</ele><time>2026-04-11T10:00:08.724Z</time></trkpt><trkpt lat="44.9120952" lon="10.5476152"><ele>24.6</ele><time>2026-04-11T10:00:09.725Z</time></trkpt><trkpt lat="44.9121228" lon="10.5474948"><ele>24.8</ele><time>2026-04-11T10:00:10.724Z</time></trkpt><trkpt lat="44.912148" lon="10.5473745"><ele>25.0</ele><time>2026-04-11T10:00:11.725Z</time></trkpt><trkpt lat="44.9121745" lon="10.5472546"><ele>25.000000000000004</ele><time>2026-04-11T10:00:12.724Z</time></trkpt><trkpt lat="44.9122012" lon="10.5471333"><ele>25.0</ele><time>2026-04-11T10:00:13.724Z</time></trkpt><trkpt lat="44.9122292" lon="10.5470145"><ele>25.0</ele><time>2026-04-11T10:00:14.724Z</time></trkpt><trkpt lat="44.9122576" lon="10.546896"><ele>25.0</ele><time>2026-04-11T10:00:15.725Z</time></trkpt><trkpt lat="44.9122823" lon="10.5467755"><ele>25.000000000000004</ele><time>2026-04-11T10:00:16.723Z</time></trkpt><trkpt lat="44.9123095" lon="10.5466566"><ele>25.0</ele><time>2026-04-11T10:00:17.724Z</time></trkpt><trkpt lat="44.9123375" lon="10.5465366"><ele>24.833333333333336</ele><time>2026-04-11T10:00:18.725Z</time></trkpt><trkpt lat="44.9123632" lon="10.5464148"><ele>24.666666666666668</ele><time>2026-04-11T10:00:19.726Z</time></trkpt><trkpt lat="44.9123868" lon="10.5462915"><ele>24.5</ele><time>2026-04-11T10:00:20.726Z</time></trkpt><trkpt lat="44.91241" lon="10.5461695"><ele>24.333333333333336</ele><time>2026-04-11T10:00:21.727Z</time></trkpt><trkpt lat="44.9124321" lon="10.5460522"><ele>24.166666666666668</ele><time>2026-04-11T10:00:22.725Z</time></trkpt><trkpt lat="44.9124552" lon="10.5459371"><ele>24.0</ele><time>2026-04-11T10:00:23.726Z</time></trkpt><trkpt lat="44.9124784" lon="10.5458251"><ele>23.5</ele><time>2026-04-11T10:00:24.726Z</time></trkpt><trkpt lat="44.9125018" lon="10.5457124"><ele>23.0</ele><time>2026-04-11T10:00:25.726Z</time></trkpt><trkpt lat="44.9125252" lon="10.5455995"><ele>22.5</ele><time>2026-04-11T10:00:26.725Z</time></trkpt><trkpt lat="44.9125469" lon="10.5454849"><ele>22.0</ele><time>2026-04-11T10:00:27.725Z</time></trkpt><trkpt lat="44.9125667" lon="10.5453682"><ele>21.5</ele><time>2026-04-11T10:00:28.727Z</time></trkpt><trkpt lat="44.9125866" lon="10.5452474"><ele>21.0</ele><time>2026-04-11T10:00:29.726Z</time></trkpt><trkpt lat="44.9126067" lon="10.5451241"><ele>22.0</ele><time>2026-04-11T10:00:30.726Z</time></trkpt><trkpt lat="44.9126297" lon="10.5449963"><ele>23.0</ele><time>2026-04-11T10:00:31.726Z</time></trkpt><trkpt lat="44.9126534" lon="10.5448688"><ele>24.0</ele><time>2026-04-11T10:00:32.726Z</time></trkpt><trkpt lat="44.9126797" lon="10.5447417"><ele>25.0</ele><time>2026-04-11T10:00:33.726Z</time></trkpt><trkpt lat="44.9127034" lon="10.544615"><ele>26.0</ele><time>2026-04-11T10:00:34.726Z</time></trkpt><trkpt lat="44.9127265" lon="10.544491"><ele>26.0</ele><time>2026-04-11T10:00:35.726Z</time></trkpt><trkpt lat="44.9127487" lon="10.5443691"><ele>26.0</ele><time>2026-04-11T10:00:36.727Z</time></trkpt><trkpt lat="44.9127726" lon="10.5442462"><ele>26.0</ele><time>2026-04-11T10:00:37.726Z</time></trkpt><trkpt lat="44.9127965" lon="10.5441226"><ele>26.0</ele><time>2026-04-11T10:00:38.726Z</time></trkpt><trkpt lat="44.9128186" lon="10.5439964"><ele>26.0</ele><time>2026-04-11T10:00:39.726Z</time></trkpt><trkpt lat="44.9128415" lon="10.5438696"><ele>26.0</ele><time>2026-04-11T10:00:40.725Z</time></trkpt><trkpt lat="44.9128644" lon="10.5437427"><ele>26.0</ele><time>2026-04-11T10:00:41.725Z</time></trkpt><trkpt lat="44.9128851" lon="10.5436162"><ele>26.0</ele><time>2026-04-11T10:00:42.726Z</time></trkpt><trkpt lat="44.9129053" lon="10.5434909"><ele>26.0</ele><time>2026-04-11T10:00:43.726Z</time></trkpt><trkpt lat="44.9129277" lon="10.5433646"><ele>26.0</ele><time>2026-04-11T10:00:44.726Z</time></trkpt><trkpt lat="44.91295" lon="10.5432406"><ele>25.6</ele><time>2026-04-11T10:00:45.726Z</time></trkpt><trkpt lat="44.9129718" lon="10.5431176"><ele>25.200000000000003</ele><time>2026-04-11T10:00:46.724Z</time></trkpt><trkpt lat="44.9129934" lon="10.5429929"><ele>24.799999999999997</ele><time>2026-04-11T10:00:47.724Z</time></trkpt><trkpt lat="44.913015" lon="10.5428649"><ele>24.4</ele><time>2026-04-11T10:00:48.725Z</time></trkpt><trkpt lat="44.9130365" lon="10.5427379"><ele>24.0</ele><time>2026-04-11T10:00:49.724Z</time></trkpt><trkpt lat="44.9130566" lon="10.5426081"><ele>24.0</ele><time>2026-04-11T10:00:50.725Z</time></trkpt><trkpt lat="44.9130777" lon="10.5424753"><ele>24.0</ele><time>2026-04-11T10:00:51.723Z</time></trkpt><trkpt lat="44.9130977" lon="10.5423431"><ele>24.0</ele><time>2026-04-11T10:00:52.724Z</time></trkpt><trkpt lat="44.9131191" lon="10.54221"><ele>24.0</ele><time>2026-04-11T10:00:53.724Z</time></trkpt><trkpt lat="44.9131425" lon="10.5420792"><ele>24.0</ele><time>2026-04-11T10:00:54.725Z</time></trkpt><trkpt lat="44.9131664" lon="10.5419466"><ele>24.0</ele><time>2026-04-11T10:00:55.723Z</time></trkpt><trkpt lat="44.91319" lon="10.5418118"><ele>24.0</ele><time>2026-04-11T10:00:56.725Z</time></trkpt><trkpt lat="44.9132131" lon="10.5416749"><ele>24.0</ele><time>2026-04-11T10:00:57.724Z</time></trkpt><trkpt lat="44.9132347" lon="10.5415354"><ele>24.0</ele><time>2026-04-11T10:00:58.724Z</time></trkpt><trkpt lat="44.9132534" lon="10.5413979"><ele>24.0</ele><time>2026-04-11T10:00:59.726Z</time></trkpt><trkpt lat="44.9132687" lon="10.541264"><ele>24.0</ele><time>2026-04-11T10:01:00.726Z</time></trkpt><trkpt lat="44.9132862" lon="10.5411343"><ele>24.0</ele><time>2026-04-11T10:01:01.723Z</time></trkpt><trkpt lat="44.913303" lon="10.5410089"><ele>24.0</ele><time>2026-04-11T10:01:02.725Z</time></trkpt><trkpt lat="44.9133184" lon="10.5408859"><ele>24.0</ele><time>2026-04-11T10:01:03.725Z</time></trkpt><trkpt lat="44.9133334" lon="10.5407645"><ele>24.0</ele><time>2026-04-11T10:01:04.725Z</time></trkpt><trkpt lat="44.9133508" lon="10.5406445"><ele>24.0</ele><time>2026-04-11T10:01:05.724Z</time></trkpt><trkpt lat="44.9133677" lon="10.5405231"><ele>24.0</ele><time>2026-04-11T10:01:06.725Z</time></trkpt><trkpt lat="44.913386" lon="10.5404"><ele>24.0</ele><time>2026-04-11T10:01:07.724Z</time></trkpt><trkpt lat="44.9134044" lon="10.5402751"><ele>24.0</ele><time>2026-04-11T10:01:08.725Z</time></trkpt><trkpt lat="44.9134225" lon="10.5401514"><ele>24.0</ele><time>2026-04-11T10:01:09.725Z</time></trkpt><trkpt lat="44.9134409" lon="10.5400325"><ele>24.0</ele><time>2026-04-11T10:01:10.724Z</time></trkpt><trkpt lat="44.9134579" lon="10.5399208"><ele>24.0</ele><time>2026-04-11T10:01:11.724Z</time></trkpt><trkpt lat="44.9134771" lon="10.5398171"><ele>25.14285714285714</ele><time>2026-04-11T10:01:12.726Z</time></trkpt><trkpt lat="44.9134947" lon="10.5397189"><ele>26.285714285714285</ele><time>2026-04-11T10:01:13.724Z</time></trkpt><trkpt lat="44.9135113" lon="10.5396225"><ele>27.428571428571427</ele><time>2026-04-11T10:01:14.724Z</time></trkpt><trkpt lat="44.913525" lon="10.5395253"><ele>28.57142857142857</ele><time>2026-04-11T10:01:15.725Z</time></trkpt><trkpt lat="44.9135353" lon="10.5394261"><ele>29.71428571428571</ele><time>2026-04-11T10:01:16.724Z</time></trkpt><trkpt lat="44.9135463" lon="10.5393242"><ele>30.857142857142854</ele><time>2026-04-11T10:01:17.724Z</time></trkpt><trkpt lat="44.9135562" lon="10.5392218"><ele>32.0</ele><time>2026-04-11T10:01:18.725Z</time></trkpt><trkpt lat="44.9135662" lon="10.5391187"><ele>32.2</ele><time>2026-04-11T10:01:19.725Z</time></trkpt><trkpt lat="44.9135777" lon="10.5390006"><ele>32.400000000000006</ele><time>2026-04-11T10:01:20.725Z</time></trkpt><trkpt lat="44.9135913" lon="10.5388624"><ele>32.599999999999994</ele><time>2026-04-11T10:01:21.725Z</time></trkpt><trkpt lat="44.9136059" lon="10.5387083"><ele>32.8</ele><time>2026-04-11T10:01:22.724Z</time></trkpt><trkpt lat="44.9136181" lon="10.5385492"><ele>33.0</ele><time>2026-04-11T10:01:23.724Z</time></trkpt><trkpt lat="44.9136282" lon="10.5383972"><ele>33.0</ele><time>2026-04-11T10:01:24.725Z</time></trkpt><trkpt lat="44.9136396" lon="10.5382642"><ele>33.0</ele><time>2026-04-11T10:01:25.723Z</time></trkpt><trkpt lat="44.9136476" lon="10.5381504"><ele>33.0</ele><time>2026-04-11T10:01:26.724Z</time></trkpt><trkpt lat="44.9136523" lon="10.5380532"><ele>33.0</ele><time>2026-04-11T10:01:27.725Z</time></trkpt><trkpt lat="44.9136838" lon="10.5378989"><ele>33.0</ele><time>2026-04-11T10:01:29.723Z</time></trkpt><trkpt lat="44.9137526" lon="10.5377998"><ele>32.199999999999996</ele><time>2026-04-11T10:01:31.724Z</time></trkpt><trkpt lat="44.9138666" lon="10.5377517"><ele>31.4</ele><time>2026-04-11T10:01:33.725Z</time></trkpt><trkpt lat="44.9139294" lon="10.5377283"><ele>30.599999999999998</ele><time>2026-04-11T10:01:34.724Z</time></trkpt><trkpt lat="44.9140415" lon="10.5376523"><ele>29.799999999999997</ele><time>2026-04-11T10:01:36.726Z</time></trkpt><trkpt lat="44.9141359" lon="10.5375423"><ele>29.0</ele><time>2026-04-11T10:01:38.726Z</time></trkpt><trkpt lat="44.9141813" lon="10.5374749"><ele>28.999999999999996</ele><time>2026-04-11T10:01:39.726Z</time></trkpt><trkpt lat="44.9142327" lon="10.5373931"><ele>29.0</ele><time>2026-04-11T10:01:40.725Z</time></trkpt><trkpt lat="44.9142866" lon="10.537304"><ele>29.0</ele><time>2026-04-11T10:01:41.724Z</time></trkpt><trkpt lat="44.9143433" lon="10.5372161"><ele>29.0</ele><time>2026-04-11T10:01:42.723Z</time></trkpt><trkpt lat="44.9144022" lon="10.5371302"><ele>28.999999999999996</ele><time>2026-04-11T10:01:43.724Z</time></trkpt><trkpt lat="44.9144605" lon="10.5370467"><ele>29.0</ele><time>2026-04-11T10:01:44.724Z</time></trkpt><trkpt lat="44.914519" lon="10.5369609"><ele>29.333333333333332</ele><time>2026-04-11T10:01:45.725Z</time></trkpt><trkpt lat="44.9145756" lon="10.5368739"><ele>29.666666666666664</ele><time>2026-04-11T10:01:46.724Z</time></trkpt><trkpt lat="44.9146321" lon="10.5367912"><ele>30.0</ele><time>2026-04-11T10:01:47.725Z</time></trkpt><trkpt lat="44.9146868" lon="10.536709"><ele>30.333333333333336</ele><time>2026-04-11T10:01:48.724Z</time></trkpt><trkpt lat="44.9147451" lon="10.5366243"><ele>30.666666666666668</ele><time>2026-04-11T10:01:49.724Z</time></trkpt><trkpt lat="44.9148017" lon="10.5365433"><ele>31.0</ele><time>2026-04-11T10:01:50.723Z</time></trkpt><trkpt lat="44.9148567" lon="10.5364683"><ele>31.0</ele><time>2026-04-11T10:01:51.725Z</time></trkpt><trkpt lat="44.9149117" lon="10.5363983"><ele>31.000000000000004</ele><time>2026-04-11T10:01:52.724Z</time></trkpt><trkpt lat="44.9149633" lon="10.53633"><ele>31.0</ele><time>2026-04-11T10:01:53.725Z</time></trkpt><trkpt lat="44.915015" lon="10.5362633"><ele>31.0</ele><time>2026-04-11T10:01:54.726Z</time></trkpt><trkpt lat="44.9150667" lon="10.5361917"><ele>31.000000000000004</ele><time>2026-04-11T10:01:55.725Z</time></trkpt><trkpt lat="44.9151183" lon="10.5361183"><ele>31.0</ele><time>2026-04-11T10:01:56.725Z</time></trkpt><trkpt lat="44.9151683" lon="10.5360417"><ele>31.0</ele><time>2026-04-11T10:01:57.726Z</time></trkpt><trkpt lat="44.915225" lon="10.5359667"><ele>30.500000000000004</ele><time>2026-04-11T10:01:58.724Z</time></trkpt><trkpt lat="44.9152833" lon="10.5358883"><ele>30.0</ele><time>2026-04-11T10:01:59.725Z</time></trkpt><trkpt lat="44.9153433" lon="10.5358067"><ele>29.5</ele><time>2026-04-11T10:02:00.725Z</time></trkpt><trkpt lat="44.9154" lon="10.535725"><ele>29.0</ele><time>2026-04-11T10:02:01.724Z</time></trkpt><trkpt lat="44.9154583" lon="10.5356433"><ele>28.500000000000004</ele><time>2026-04-11T10:02:02.725Z</time></trkpt><trkpt lat="44.915515" lon="10.5355617"><ele>28.0</ele><time>2026-04-11T10:02:03.725Z</time></trkpt><trkpt lat="44.9155717" lon="10.5354883"><ele>28.0</ele><time>2026-04-11T10:02:04.724Z</time></trkpt><trkpt lat="44.9156267" lon="10.53542"><ele>28.0</ele><time>2026-04-11T10:02:05.725Z</time></trkpt><trkpt lat="44.9156717" lon="10.5353533"><ele>28.0</ele><time>2026-04-11T10:02:06.724Z</time></trkpt><trkpt lat="44.9157217" lon="10.5352817"><ele>28.0</ele><time>2026-04-11T10:02:07.725Z</time></trkpt><trkpt lat="44.91578" lon="10.5352067"><ele>28.0</ele><time>2026-04-11T10:02:08.725Z</time></trkpt><trkpt lat="44.9158333" lon="10.5351333"><ele>28.0</ele><time>2026-04-11T10:02:09.725Z</time></trkpt><trkpt lat="44.91589" lon="10.535055"><ele>28.0</ele><time>2026-04-11T10:02:10.723Z</time></trkpt><trkpt lat="44.9159483" lon="10.53497"><ele>27.666666666666668</ele><time>2026-04-11T10:02:11.728Z</time></trkpt><trkpt lat="44.9160067" lon="10.5348883"><ele>27.333333333333336</ele><time>2026-04-11T10:02:12.725Z</time></trkpt><trkpt lat="44.916065" lon="10.534805"><ele>27.0</ele><time>2026-04-11T10:02:13.725Z</time></trkpt><trkpt lat="44.9161317" lon="10.5347233"><ele>26.666666666666664</ele><time>2026-04-11T10:02:14.725Z</time></trkpt><trkpt lat="44.9162017" lon="10.53465"><ele>26.333333333333332</ele><time>2026-04-11T10:02:15.725Z</time></trkpt><trkpt lat="44.9162767" lon="10.53458"><ele>26.0</ele><time>2026-04-11T10:02:16.724Z</time></trkpt><trkpt lat="44.9163533" lon="10.5345217"><ele>25.833333333333332</ele><time>2026-04-11T10:02:17.724Z</time></trkpt><trkpt lat="44.9164267" lon="10.5344667"><ele>25.666666666666664</ele><time>2026-04-11T10:02:18.724Z</time></trkpt><trkpt lat="44.9165017" lon="10.5344217"><ele>25.5</ele><time>2026-04-11T10:02:19.724Z</time></trkpt><trkpt lat="44.91658" lon="10.5343867"><ele>25.333333333333336</ele><time>2026-04-11T10:02:20.725Z</time></trkpt><trkpt lat="44.9166533" lon="10.5343583"><ele>25.166666666666668</ele><time>2026-04-11T10:02:21.726Z</time></trkpt><trkpt lat="44.9167317" lon="10.534335"><ele>25.0</ele><time>2026-04-11T10:02:22.724Z</time></trkpt><trkpt lat="44.9168067" lon="10.5343117"><ele>24.8</ele><time>2026-04-11T10:02:23.725Z</time></trkpt><trkpt lat="44.91689" lon="10.5342783"><ele>24.6</ele><time>2026-04-11T10:02:24.725Z</time></trkpt><trkpt lat="44.9169933" lon="10.5342317"><ele>24.4</ele><time>2026-04-11T10:02:25.725Z</time></trkpt><trkpt lat="44.9171083" lon="10.5341733"><ele>24.2</ele><time>2026-04-11T10:02:26.723Z</time></trkpt><trkpt lat="44.9172267" lon="10.5341167"><ele>24.0</ele><time>2026-04-11T10:02:27.725Z</time></trkpt><trkpt lat="44.9173483" lon="10.5340617"><ele>24.0</ele><time>2026-04-11T10:02:28.724Z</time></trkpt><trkpt lat="44.91748" lon="10.5340083"><ele>24.0</ele><time>2026-04-11T10:02:29.724Z</time></trkpt><trkpt lat="44.9176283" lon="10.533945"><ele>24.0</ele><time>2026-04-11T10:02:30.724Z</time></trkpt><trkpt lat="44.9177867" lon="10.53388"><ele>24.0</ele><time>2026-04-11T10:02:31.725Z</time></trkpt><trkpt lat="44.91794" lon="10.5338133"><ele>24.0</ele><time>2026-04-11T10:02:32.724Z</time></trkpt><trkpt lat="44.91809" lon="10.5337417"><ele>24.0</ele><time>2026-04-11T10:02:33.725Z</time></trkpt><trkpt lat="44.9182317" lon="10.533665"><ele>24.25</ele><time>2026-04-11T10:02:34.724Z</time></trkpt><trkpt lat="44.9183633" lon="10.533585"><ele>24.5</ele><time>2026-04-11T10:02:35.725Z</time></trkpt><trkpt lat="44.9184833" lon="10.533505"><ele>24.75</ele><time>2026-04-11T10:02:36.723Z</time></trkpt><trkpt lat="44.9186" lon="10.5334183"><ele>25.0</ele><time>2026-04-11T10:02:37.724Z</time></trkpt><trkpt lat="44.9187167" lon="10.5333233"><ele>25.0</ele><time>2026-04-11T10:02:38.725Z</time></trkpt><trkpt lat="44.9188283" lon="10.5332233"><ele>25.0</ele><time>2026-04-11T10:02:39.725Z</time></trkpt><trkpt lat="44.918935" lon="10.5331167"><ele>25.0</ele><time>2026-04-11T10:02:40.723Z</time></trkpt><trkpt lat="44.91904" lon="10.5330067"><ele>25.0</ele><time>2026-04-11T10:02:41.725Z</time></trkpt><trkpt lat="44.9191383" lon="10.532895"><ele>25.5</ele><time>2026-04-11T10:02:42.724Z</time></trkpt><trkpt lat="44.9192333" lon="10.5327767"><ele>26.0</ele><time>2026-04-11T10:02:43.724Z</time></trkpt><trkpt lat="44.9193283" lon="10.5326517"><ele>26.5</ele><time>2026-04-11T10:02:44.724Z</time></trkpt><trkpt lat="44.9194167" lon="10.5325233"><ele>27.0</ele><time>2026-04-11T10:02:45.725Z</time></trkpt><trkpt lat="44.9195033" lon="10.5323883"><ele>27.25</ele><time>2026-04-11T10:02:46.724Z</time></trkpt><trkpt lat="44.9195817" lon="10.53226"><ele>27.5</ele><time>2026-04-11T10:02:47.725Z</time></trkpt><trkpt lat="44.9196583" lon="10.5321283"><ele>27.75</ele><time>2026-04-11T10:02:48.725Z</time></trkpt><trkpt lat="44.9197317" lon="10.5319867"><ele>28.0</ele><time>2026-04-11T10:02:49.725Z</time></trkpt><trkpt lat="44.9198067" lon="10.5318317"><ele>27.5</ele><time>2026-04-11T10:02:50.725Z</time></trkpt><trkpt lat="44.919875" lon="10.53168"><ele>27.0</ele><time>2026-04-11T10:02:51.726Z</time></trkpt><trkpt lat="44.9199333" lon="10.5315317"><ele>26.5</ele><time>2026-04-11T10:02:52.724Z</time></trkpt><trkpt lat="44.91999" lon="10.5313867"><ele>26.0</ele><time>2026-04-11T10:02:53.725Z</time></trkpt><trkpt lat="44.9200417" lon="10.5312533"><ele>26.0</ele><time>2026-04-11T10:02:54.724Z</time></trkpt><trkpt lat="44.9200967" lon="10.5311233"><ele>26.0</ele><time>2026-04-11T10:02:55.725Z</time></trkpt><trkpt lat="44.9201517" lon="10.5309933"><ele>26.0</ele><time>2026-04-11T10:02:56.725Z</time></trkpt><trkpt lat="44.9202017" lon="10.530865"><ele>26.0</ele><time>2026-04-11T10:02:57.725Z</time></trkpt><trkpt lat="44.9202517" lon="10.53073"><ele>26.0</ele><time>2026-04-11T10:02:58.723Z</time></trkpt><trkpt lat="44.9203017" lon="10.5305933"><ele>26.0</ele><time>2026-04-11T10:02:59.725Z</time></trkpt><trkpt lat="44.920355" lon="10.5304617"><ele>26.0</ele><time>2026-04-11T10:03:00.725Z</time></trkpt><trkpt lat="44.9204083" lon="10.53033"><ele>26.0</ele><time>2026-04-11T10:03:01.725Z</time></trkpt><trkpt lat="44.9204583" lon="10.5302017"><ele>26.0</ele><time>2026-04-11T10:03:02.724Z</time></trkpt><trkpt lat="44.9205017" lon="10.53008"><ele>26.0</ele><time>2026-04-11T10:03:03.725Z</time></trkpt><trkpt lat="44.92055" lon="10.5299517"><ele>26.5</ele><time>2026-04-11T10:03:04.724Z</time></trkpt><trkpt lat="44.9206033" lon="10.5298183"><ele>27.0</ele><time>2026-04-11T10:03:05.725Z</time></trkpt><trkpt lat="44.9206633" lon="10.5296717"><ele>27.5</ele><time>2026-04-11T10:03:06.725Z</time></trkpt><trkpt lat="44.9207267" lon="10.5295133"><ele>28.0</ele><time>2026-04-11T10:03:07.723Z</time></trkpt><trkpt lat="44.920795" lon="10.5293533"><ele>28.25</ele><time>2026-04-11T10:03:08.725Z</time></trkpt><trkpt lat="44.9208633" lon="10.52918"><ele>28.5</ele><time>2026-04-11T10:03:09.726Z</time></trkpt><trkpt lat="44.920935" lon="10.529005"><ele>28.75</ele><time>2026-04-11T10:03:10.724Z</time></trkpt><trkpt lat="44.921005" lon="10.5288283"><ele>29.0</ele><time>2026-04-11T10:03:11.726Z</time></trkpt><trkpt lat="44.921075" lon="10.5286483"><ele>27.75</ele><time>2026-04-11T10:03:12.724Z</time></trkpt><trkpt lat="44.9211483" lon="10.528475"><ele>26.5</ele><time>2026-04-11T10:03:13.724Z</time></trkpt><trkpt lat="44.921215" lon="10.52831"><ele>25.25</ele><time>2026-04-11T10:03:14.724Z</time></trkpt><trkpt lat="44.9212817" lon="10.5281567"><ele>24.0</ele><time>2026-04-11T10:03:15.725Z</time></trkpt><trkpt lat="44.9213417" lon="10.5280183"><ele>24.0</ele><time>2026-04-11T10:03:16.723Z</time></trkpt><trkpt lat="44.9213933" lon="10.5279"><ele>24.0</ele><time>2026-04-11T10:03:17.724Z</time></trkpt><trkpt lat="44.9214367" lon="10.527795"><ele>24.0</ele><time>2026-04-11T10:03:18.723Z</time></trkpt><trkpt lat="44.921475" lon="10.5276983"><ele>24.0</ele><time>2026-04-11T10:03:19.724Z</time></trkpt><trkpt lat="44.92151" lon="10.5276133"><ele>24.0</ele><time>2026-04-11T10:03:20.725Z</time></trkpt><trkpt lat="44.92157" lon="10.5274733"><ele>24.0</ele><time>2026-04-11T10:03:22.724Z</time></trkpt><trkpt lat="44.9216467" lon="10.5274"><ele>28.0</ele><time>2026-04-11T10:03:24.725Z</time></trkpt><trkpt lat="44.9217283" lon="10.5274317"><ele>28.0</ele><time>2026-04-11T10:03:26.725Z</time></trkpt><trkpt lat="44.9217817" lon="10.5275233"><ele>26.0</ele><time>2026-04-11T10:03:28.723Z</time></trkpt><trkpt lat="44.92181" lon="10.527615"><ele>26.0</ele><time>2026-04-11T10:03:30.724Z</time></trkpt></trkseg></trk></gpx>